<?xml version="1.0" encoding="UTF-8" standalone="no" ?>
<gpx xmlns="http://www.topografix.com/GPX/1/1" xmlns:xsi="http://www.w3.org/2001/XMLSchema-instance" xsi:schemaLocation="http://www.topografix.com/GPX/1/1 http://www.topografix.com/GPX/1/1/gpx.xsd" version="1.1" creator="VisuGPX - https://www.visugpx.com">
  <metadata>
    <name>autre</name>
    <desc><![CDATA[Guillaume et Pierre]]></desc>
  </metadata>
  <trk>
    <name><![CDATA[ACTIVE LOG: 16 FEV 2014 10:43]]></name>
    <trkseg>
      <trkpt lat="45.77184" lon="4.84622">
        <ele>140.01</ele>
        <time>2014-02-16T09:43:39Z</time>
      </trkpt>
      <trkpt lat="45.77177" lon="4.84615">
        <ele>139.05</ele>
        <time>2014-02-16T09:43:51Z</time>
      </trkpt>
      <trkpt lat="45.77176" lon="4.84606">
        <ele>138.57</ele>
        <time>2014-02-16T09:43:54Z</time>
      </trkpt>
      <trkpt lat="45.7717" lon="4.84577">
        <ele>139.53</ele>
        <time>2014-02-16T09:44:05Z</time>
      </trkpt>
      <trkpt lat="45.7717" lon="4.84577">
        <ele>139.53</ele>
        <time>2014-02-16T09:44:08Z</time>
      </trkpt>
      <trkpt lat="45.77166" lon="4.84601">
        <ele>140.01</ele>
        <time>2014-02-16T09:44:27Z</time>
      </trkpt>
      <trkpt lat="45.77213" lon="4.84578">
        <ele>140.49</ele>
        <time>2014-02-16T09:44:40Z</time>
      </trkpt>
      <trkpt lat="45.77247" lon="4.84575">
        <ele>140.97</ele>
        <time>2014-02-16T09:44:51Z</time>
      </trkpt>
      <trkpt lat="45.77269" lon="4.84589">
        <ele>141.45</ele>
        <time>2014-02-16T09:45:07Z</time>
      </trkpt>
      <trkpt lat="45.77286" lon="4.84607">
        <ele>142.41</ele>
        <time>2014-02-16T09:45:20Z</time>
      </trkpt>
      <trkpt lat="45.77286" lon="4.84665">
        <ele>143.37</ele>
        <time>2014-02-16T09:45:39Z</time>
      </trkpt>
      <trkpt lat="45.77332" lon="4.84642">
        <ele>143.37</ele>
        <time>2014-02-16T09:45:49Z</time>
      </trkpt>
      <trkpt lat="45.77319" lon="4.84661">
        <ele>144.34</ele>
        <time>2014-02-16T09:45:55Z</time>
      </trkpt>
      <trkpt lat="45.77322" lon="4.84679">
        <ele>144.82</ele>
        <time>2014-02-16T09:46:07Z</time>
      </trkpt>
      <trkpt lat="45.7739" lon="4.84635">
        <ele>145.78</ele>
        <time>2014-02-16T09:46:20Z</time>
      </trkpt>
      <trkpt lat="45.77406" lon="4.84665">
        <ele>147.22</ele>
        <time>2014-02-16T09:46:38Z</time>
      </trkpt>
      <trkpt lat="45.77412" lon="4.84711">
        <ele>148.18</ele>
        <time>2014-02-16T09:46:51Z</time>
      </trkpt>
      <trkpt lat="45.77495" lon="4.84663">
        <ele>149.62</ele>
        <time>2014-02-16T09:47:04Z</time>
      </trkpt>
      <trkpt lat="45.77534" lon="4.84674">
        <ele>150.58</ele>
        <time>2014-02-16T09:47:18Z</time>
      </trkpt>
      <trkpt lat="45.77533" lon="4.84717">
        <ele>152.03</ele>
        <time>2014-02-16T09:47:29Z</time>
      </trkpt>
      <trkpt lat="45.77552" lon="4.84703">
        <ele>152.99</ele>
        <time>2014-02-16T09:47:45Z</time>
      </trkpt>
      <trkpt lat="45.77566" lon="4.8471">
        <ele>154.91</ele>
        <time>2014-02-16T09:48:01Z</time>
      </trkpt>
      <trkpt lat="45.77663" lon="4.84574">
        <ele>157.79</ele>
        <time>2014-02-16T09:48:34Z</time>
      </trkpt>
      <trkpt lat="45.77687" lon="4.84553">
        <ele>158.27</ele>
        <time>2014-02-16T09:48:58Z</time>
      </trkpt>
      <trkpt lat="45.77701" lon="4.84537">
        <ele>160.2</ele>
        <time>2014-02-16T09:49:39Z</time>
      </trkpt>
      <trkpt lat="45.77705" lon="4.84532">
        <ele>160.2</ele>
        <time>2014-02-16T09:49:57Z</time>
      </trkpt>
      <trkpt lat="45.77712" lon="4.84526">
        <ele>162.6</ele>
        <time>2014-02-16T09:50:50Z</time>
      </trkpt>
      <trkpt lat="45.77716" lon="4.84533">
        <ele>163.08</ele>
        <time>2014-02-16T09:51:10Z</time>
      </trkpt>
      <trkpt lat="45.77713" lon="4.84542">
        <ele>163.08</ele>
        <time>2014-02-16T09:51:19Z</time>
      </trkpt>
      <trkpt lat="45.77683" lon="4.8458">
        <ele>163.08</ele>
        <time>2014-02-16T09:51:36Z</time>
      </trkpt>
      <trkpt lat="45.77665" lon="4.84608">
        <ele>162.12</ele>
        <time>2014-02-16T09:51:46Z</time>
      </trkpt>
      <trkpt lat="45.77641" lon="4.84645">
        <ele>162.12</ele>
        <time>2014-02-16T09:52:00Z</time>
      </trkpt>
      <trkpt lat="45.77621" lon="4.84679">
        <ele>162.6</ele>
        <time>2014-02-16T09:52:12Z</time>
      </trkpt>
      <trkpt lat="45.77604" lon="4.84716">
        <ele>162.12</ele>
        <time>2014-02-16T09:52:25Z</time>
      </trkpt>
      <trkpt lat="45.7759" lon="4.84755">
        <ele>161.16</ele>
        <time>2014-02-16T09:52:37Z</time>
      </trkpt>
      <trkpt lat="45.77571" lon="4.84803">
        <ele>160.2</ele>
        <time>2014-02-16T09:52:52Z</time>
      </trkpt>
      <trkpt lat="45.77551" lon="4.84849">
        <ele>161.64</ele>
        <time>2014-02-16T09:53:06Z</time>
      </trkpt>
      <trkpt lat="45.77539" lon="4.84886">
        <ele>161.64</ele>
        <time>2014-02-16T09:53:17Z</time>
      </trkpt>
      <trkpt lat="45.77523" lon="4.84929">
        <ele>162.12</ele>
        <time>2014-02-16T09:53:31Z</time>
      </trkpt>
      <trkpt lat="45.77505" lon="4.84969">
        <ele>161.64</ele>
        <time>2014-02-16T09:53:44Z</time>
      </trkpt>
      <trkpt lat="45.77488" lon="4.85006">
        <ele>162.6</ele>
        <time>2014-02-16T09:53:57Z</time>
      </trkpt>
      <trkpt lat="45.77465" lon="4.85054">
        <ele>162.12</ele>
        <time>2014-02-16T09:54:13Z</time>
      </trkpt>
      <trkpt lat="45.77448" lon="4.85094">
        <ele>161.64</ele>
        <time>2014-02-16T09:54:27Z</time>
      </trkpt>
      <trkpt lat="45.77427" lon="4.85136">
        <ele>161.64</ele>
        <time>2014-02-16T09:54:41Z</time>
      </trkpt>
      <trkpt lat="45.77405" lon="4.85147">
        <ele>161.64</ele>
        <time>2014-02-16T09:54:51Z</time>
      </trkpt>
      <trkpt lat="45.77375" lon="4.85153">
        <ele>162.6</ele>
        <time>2014-02-16T09:55:04Z</time>
      </trkpt>
      <trkpt lat="45.77355" lon="4.85181">
        <ele>162.6</ele>
        <time>2014-02-16T09:55:15Z</time>
      </trkpt>
      <trkpt lat="45.77348" lon="4.85208">
        <ele>162.12</ele>
        <time>2014-02-16T09:55:24Z</time>
      </trkpt>
      <trkpt lat="45.77351" lon="4.8525">
        <ele>162.12</ele>
        <time>2014-02-16T09:55:36Z</time>
      </trkpt>
      <trkpt lat="45.77349" lon="4.85257">
        <ele>162.12</ele>
        <time>2014-02-16T09:55:38Z</time>
      </trkpt>
      <trkpt lat="45.77331" lon="4.85306">
        <ele>162.12</ele>
        <time>2014-02-16T09:55:53Z</time>
      </trkpt>
      <trkpt lat="45.77315" lon="4.85344">
        <ele>163.08</ele>
        <time>2014-02-16T09:56:06Z</time>
      </trkpt>
      <trkpt lat="45.77301" lon="4.85386">
        <ele>162.12</ele>
        <time>2014-02-16T09:56:18Z</time>
      </trkpt>
      <trkpt lat="45.77296" lon="4.85412">
        <ele>162.6</ele>
        <time>2014-02-16T09:56:26Z</time>
      </trkpt>
      <trkpt lat="45.77321" lon="4.85439">
        <ele>162.6</ele>
        <time>2014-02-16T09:56:38Z</time>
      </trkpt>
      <trkpt lat="45.77338" lon="4.85462">
        <ele>162.12</ele>
        <time>2014-02-16T09:56:47Z</time>
      </trkpt>
      <trkpt lat="45.77353" lon="4.85482">
        <ele>162.6</ele>
        <time>2014-02-16T09:56:57Z</time>
      </trkpt>
      <trkpt lat="45.77354" lon="4.85497">
        <ele>162.12</ele>
        <time>2014-02-16T09:57:02Z</time>
      </trkpt>
      <trkpt lat="45.77356" lon="4.85544">
        <ele>162.12</ele>
        <time>2014-02-16T09:57:15Z</time>
      </trkpt>
      <trkpt lat="45.77363" lon="4.85592">
        <ele>162.6</ele>
        <time>2014-02-16T09:57:29Z</time>
      </trkpt>
      <trkpt lat="45.77366" lon="4.85621">
        <ele>162.6</ele>
        <time>2014-02-16T09:57:37Z</time>
      </trkpt>
      <trkpt lat="45.77381" lon="4.85639">
        <ele>162.12</ele>
        <time>2014-02-16T09:57:44Z</time>
      </trkpt>
      <trkpt lat="45.77392" lon="4.85674">
        <ele>162.6</ele>
        <time>2014-02-16T09:57:55Z</time>
      </trkpt>
      <trkpt lat="45.77397" lon="4.85718">
        <ele>162.6</ele>
        <time>2014-02-16T09:58:10Z</time>
      </trkpt>
      <trkpt lat="45.77406" lon="4.8575">
        <ele>163.08</ele>
        <time>2014-02-16T09:58:21Z</time>
      </trkpt>
      <trkpt lat="45.7742" lon="4.85781">
        <ele>163.08</ele>
        <time>2014-02-16T09:58:32Z</time>
      </trkpt>
      <trkpt lat="45.77458" lon="4.85813">
        <ele>163.08</ele>
        <time>2014-02-16T09:58:48Z</time>
      </trkpt>
      <trkpt lat="45.7748" lon="4.8582">
        <ele>163.08</ele>
        <time>2014-02-16T09:58:58Z</time>
      </trkpt>
      <trkpt lat="45.7751" lon="4.85831">
        <ele>163.08</ele>
        <time>2014-02-16T09:59:12Z</time>
      </trkpt>
      <trkpt lat="45.7754" lon="4.8584">
        <ele>163.08</ele>
        <time>2014-02-16T09:59:24Z</time>
      </trkpt>
      <trkpt lat="45.77573" lon="4.8584">
        <ele>163.56</ele>
        <time>2014-02-16T09:59:36Z</time>
      </trkpt>
      <trkpt lat="45.776" lon="4.85842">
        <ele>163.08</ele>
        <time>2014-02-16T09:59:47Z</time>
      </trkpt>
      <trkpt lat="45.77628" lon="4.8584">
        <ele>164.04</ele>
        <time>2014-02-16T09:59:59Z</time>
      </trkpt>
      <trkpt lat="45.77657" lon="4.85835">
        <ele>163.56</ele>
        <time>2014-02-16T10:00:12Z</time>
      </trkpt>
      <trkpt lat="45.77687" lon="4.85839">
        <ele>163.56</ele>
        <time>2014-02-16T10:00:25Z</time>
      </trkpt>
      <trkpt lat="45.77716" lon="4.85844">
        <ele>164.52</ele>
        <time>2014-02-16T10:00:38Z</time>
      </trkpt>
      <trkpt lat="45.77743" lon="4.85849">
        <ele>164.04</ele>
        <time>2014-02-16T10:00:49Z</time>
      </trkpt>
      <trkpt lat="45.77775" lon="4.85837">
        <ele>163.56</ele>
        <time>2014-02-16T10:01:01Z</time>
      </trkpt>
      <trkpt lat="45.77777" lon="4.85836">
        <ele>163.56</ele>
        <time>2014-02-16T10:01:02Z</time>
      </trkpt>
      <trkpt lat="45.77813" lon="4.85842">
        <ele>163.56</ele>
        <time>2014-02-16T10:01:17Z</time>
      </trkpt>
      <trkpt lat="45.77843" lon="4.85849">
        <ele>163.08</ele>
        <time>2014-02-16T10:01:29Z</time>
      </trkpt>
      <trkpt lat="45.77874" lon="4.85859">
        <ele>163.08</ele>
        <time>2014-02-16T10:01:42Z</time>
      </trkpt>
      <trkpt lat="45.77916" lon="4.85867">
        <ele>163.08</ele>
        <time>2014-02-16T10:01:56Z</time>
      </trkpt>
      <trkpt lat="45.77945" lon="4.85871">
        <ele>163.56</ele>
        <time>2014-02-16T10:02:08Z</time>
      </trkpt>
      <trkpt lat="45.77976" lon="4.85871">
        <ele>163.08</ele>
        <time>2014-02-16T10:02:20Z</time>
      </trkpt>
      <trkpt lat="45.78008" lon="4.85872">
        <ele>162.6</ele>
        <time>2014-02-16T10:02:32Z</time>
      </trkpt>
      <trkpt lat="45.78033" lon="4.85871">
        <ele>162.6</ele>
        <time>2014-02-16T10:02:43Z</time>
      </trkpt>
      <trkpt lat="45.78064" lon="4.85871">
        <ele>163.08</ele>
        <time>2014-02-16T10:02:56Z</time>
      </trkpt>
      <trkpt lat="45.78098" lon="4.85869">
        <ele>163.08</ele>
        <time>2014-02-16T10:03:09Z</time>
      </trkpt>
      <trkpt lat="45.78132" lon="4.85866">
        <ele>163.08</ele>
        <time>2014-02-16T10:03:23Z</time>
      </trkpt>
      <trkpt lat="45.78167" lon="4.85862">
        <ele>162.6</ele>
        <time>2014-02-16T10:03:36Z</time>
      </trkpt>
      <trkpt lat="45.78197" lon="4.8586">
        <ele>162.6</ele>
        <time>2014-02-16T10:03:48Z</time>
      </trkpt>
      <trkpt lat="45.78216" lon="4.85872">
        <ele>163.08</ele>
        <time>2014-02-16T10:03:59Z</time>
      </trkpt>
      <trkpt lat="45.78223" lon="4.85874">
        <ele>163.56</ele>
        <time>2014-02-16T10:04:01Z</time>
      </trkpt>
      <trkpt lat="45.78253" lon="4.85877">
        <ele>164.52</ele>
        <time>2014-02-16T10:04:13Z</time>
      </trkpt>
      <trkpt lat="45.78284" lon="4.85877">
        <ele>164.04</ele>
        <time>2014-02-16T10:04:25Z</time>
      </trkpt>
      <trkpt lat="45.78315" lon="4.85875">
        <ele>164.04</ele>
        <time>2014-02-16T10:04:35Z</time>
      </trkpt>
      <trkpt lat="45.78342" lon="4.85876">
        <ele>163.56</ele>
        <time>2014-02-16T10:04:46Z</time>
      </trkpt>
      <trkpt lat="45.78379" lon="4.85881">
        <ele>163.56</ele>
        <time>2014-02-16T10:05:00Z</time>
      </trkpt>
      <trkpt lat="45.78406" lon="4.85889">
        <ele>165</ele>
        <time>2014-02-16T10:05:12Z</time>
      </trkpt>
      <trkpt lat="45.78436" lon="4.85897">
        <ele>167.41</ele>
        <time>2014-02-16T10:05:24Z</time>
      </trkpt>
      <trkpt lat="45.7845" lon="4.859">
        <ele>167.41</ele>
        <time>2014-02-16T10:05:30Z</time>
      </trkpt>
      <trkpt lat="45.78455" lon="4.85885">
        <ele>167.41</ele>
        <time>2014-02-16T10:05:37Z</time>
      </trkpt>
      <trkpt lat="45.78457" lon="4.85849">
        <ele>165.48</ele>
        <time>2014-02-16T10:05:48Z</time>
      </trkpt>
      <trkpt lat="45.78459" lon="4.85802">
        <ele>165</ele>
        <time>2014-02-16T10:06:01Z</time>
      </trkpt>
      <trkpt lat="45.78447" lon="4.85753">
        <ele>164.04</ele>
        <time>2014-02-16T10:06:14Z</time>
      </trkpt>
      <trkpt lat="45.78433" lon="4.85702">
        <ele>162.6</ele>
        <time>2014-02-16T10:06:27Z</time>
      </trkpt>
      <trkpt lat="45.78414" lon="4.85647">
        <ele>163.56</ele>
        <time>2014-02-16T10:06:42Z</time>
      </trkpt>
      <trkpt lat="45.78423" lon="4.85609">
        <ele>163.56</ele>
        <time>2014-02-16T10:06:54Z</time>
      </trkpt>
      <trkpt lat="45.78438" lon="4.85566">
        <ele>163.56</ele>
        <time>2014-02-16T10:07:07Z</time>
      </trkpt>
      <trkpt lat="45.78435" lon="4.85522">
        <ele>163.56</ele>
        <time>2014-02-16T10:07:19Z</time>
      </trkpt>
      <trkpt lat="45.78423" lon="4.85479">
        <ele>164.04</ele>
        <time>2014-02-16T10:07:31Z</time>
      </trkpt>
      <trkpt lat="45.78411" lon="4.85429">
        <ele>163.56</ele>
        <time>2014-02-16T10:07:43Z</time>
      </trkpt>
      <trkpt lat="45.78404" lon="4.85384">
        <ele>164.04</ele>
        <time>2014-02-16T10:07:56Z</time>
      </trkpt>
      <trkpt lat="45.78389" lon="4.85338">
        <ele>163.08</ele>
        <time>2014-02-16T10:08:10Z</time>
      </trkpt>
      <trkpt lat="45.78376" lon="4.85304">
        <ele>164.04</ele>
        <time>2014-02-16T10:08:21Z</time>
      </trkpt>
      <trkpt lat="45.78361" lon="4.85272">
        <ele>164.52</ele>
        <time>2014-02-16T10:08:31Z</time>
      </trkpt>
      <trkpt lat="45.78344" lon="4.85227">
        <ele>164.04</ele>
        <time>2014-02-16T10:08:44Z</time>
      </trkpt>
      <trkpt lat="45.78328" lon="4.85188">
        <ele>164.04</ele>
        <time>2014-02-16T10:08:59Z</time>
      </trkpt>
      <trkpt lat="45.78303" lon="4.85146">
        <ele>164.52</ele>
        <time>2014-02-16T10:09:12Z</time>
      </trkpt>
      <trkpt lat="45.78283" lon="4.85108">
        <ele>165.48</ele>
        <time>2014-02-16T10:09:24Z</time>
      </trkpt>
      <trkpt lat="45.78259" lon="4.85072">
        <ele>164.52</ele>
        <time>2014-02-16T10:09:37Z</time>
      </trkpt>
      <trkpt lat="45.78242" lon="4.85037">
        <ele>165</ele>
        <time>2014-02-16T10:09:49Z</time>
      </trkpt>
      <trkpt lat="45.78226" lon="4.84998">
        <ele>165.96</ele>
        <time>2014-02-16T10:10:03Z</time>
      </trkpt>
      <trkpt lat="45.78213" lon="4.84969">
        <ele>166.45</ele>
        <time>2014-02-16T10:10:13Z</time>
      </trkpt>
      <trkpt lat="45.78188" lon="4.84939">
        <ele>166.45</ele>
        <time>2014-02-16T10:10:27Z</time>
      </trkpt>
      <trkpt lat="45.78164" lon="4.84916">
        <ele>166.45</ele>
        <time>2014-02-16T10:10:41Z</time>
      </trkpt>
      <trkpt lat="45.78138" lon="4.84888">
        <ele>166.45</ele>
        <time>2014-02-16T10:10:55Z</time>
      </trkpt>
      <trkpt lat="45.78122" lon="4.8486">
        <ele>166.93</ele>
        <time>2014-02-16T10:11:08Z</time>
      </trkpt>
      <trkpt lat="45.78096" lon="4.84827">
        <ele>167.41</ele>
        <time>2014-02-16T10:11:21Z</time>
      </trkpt>
      <trkpt lat="45.78074" lon="4.84812">
        <ele>165.48</ele>
        <time>2014-02-16T10:11:33Z</time>
      </trkpt>
      <trkpt lat="45.78045" lon="4.84766">
        <ele>165</ele>
        <time>2014-02-16T10:11:49Z</time>
      </trkpt>
      <trkpt lat="45.78026" lon="4.8475">
        <ele>164.52</ele>
        <time>2014-02-16T10:11:59Z</time>
      </trkpt>
      <trkpt lat="45.78005" lon="4.8473">
        <ele>164.52</ele>
        <time>2014-02-16T10:12:10Z</time>
      </trkpt>
      <trkpt lat="45.77977" lon="4.84707">
        <ele>164.04</ele>
        <time>2014-02-16T10:12:22Z</time>
      </trkpt>
      <trkpt lat="45.77948" lon="4.84687">
        <ele>162.6</ele>
        <time>2014-02-16T10:12:36Z</time>
      </trkpt>
      <trkpt lat="45.77917" lon="4.84669">
        <ele>162.6</ele>
        <time>2014-02-16T10:12:50Z</time>
      </trkpt>
      <trkpt lat="45.77886" lon="4.84651">
        <ele>163.56</ele>
        <time>2014-02-16T10:13:04Z</time>
      </trkpt>
      <trkpt lat="45.77857" lon="4.84638">
        <ele>162.6</ele>
        <time>2014-02-16T10:13:18Z</time>
      </trkpt>
      <trkpt lat="45.77828" lon="4.84618">
        <ele>163.08</ele>
        <time>2014-02-16T10:13:33Z</time>
      </trkpt>
      <trkpt lat="45.77797" lon="4.84599">
        <ele>164.04</ele>
        <time>2014-02-16T10:13:48Z</time>
      </trkpt>
      <trkpt lat="45.77768" lon="4.84589">
        <ele>163.08</ele>
        <time>2014-02-16T10:13:59Z</time>
      </trkpt>
      <trkpt lat="45.7774" lon="4.84588">
        <ele>162.12</ele>
        <time>2014-02-16T10:14:11Z</time>
      </trkpt>
      <trkpt lat="45.77736" lon="4.84583">
        <ele>162.12</ele>
        <time>2014-02-16T10:14:17Z</time>
      </trkpt>
      <trkpt lat="45.7776" lon="4.84564">
        <ele>161.64</ele>
        <time>2014-02-16T10:14:29Z</time>
      </trkpt>
      <trkpt lat="45.77798" lon="4.84544">
        <ele>161.64</ele>
        <time>2014-02-16T10:14:44Z</time>
      </trkpt>
      <trkpt lat="45.77816" lon="4.84529">
        <ele>161.64</ele>
        <time>2014-02-16T10:14:56Z</time>
      </trkpt>
      <trkpt lat="45.77816" lon="4.84523">
        <ele>161.64</ele>
        <time>2014-02-16T10:14:59Z</time>
      </trkpt>
      <trkpt lat="45.77819" lon="4.845">
        <ele>162.12</ele>
        <time>2014-02-16T10:15:07Z</time>
      </trkpt>
      <trkpt lat="45.77835" lon="4.84463">
        <ele>163.08</ele>
        <time>2014-02-16T10:15:18Z</time>
      </trkpt>
      <trkpt lat="45.77845" lon="4.8443">
        <ele>162.6</ele>
        <time>2014-02-16T10:15:28Z</time>
      </trkpt>
      <trkpt lat="45.77853" lon="4.84399">
        <ele>163.56</ele>
        <time>2014-02-16T10:15:38Z</time>
      </trkpt>
      <trkpt lat="45.77866" lon="4.84359">
        <ele>162.6</ele>
        <time>2014-02-16T10:15:48Z</time>
      </trkpt>
      <trkpt lat="45.7788" lon="4.84311">
        <ele>162.6</ele>
        <time>2014-02-16T10:16:01Z</time>
      </trkpt>
      <trkpt lat="45.77892" lon="4.84257">
        <ele>162.6</ele>
        <time>2014-02-16T10:16:12Z</time>
      </trkpt>
      <trkpt lat="45.779" lon="4.84211">
        <ele>161.64</ele>
        <time>2014-02-16T10:16:21Z</time>
      </trkpt>
      <trkpt lat="45.77914" lon="4.84174">
        <ele>161.16</ele>
        <time>2014-02-16T10:16:32Z</time>
      </trkpt>
      <trkpt lat="45.77928" lon="4.84148">
        <ele>160.2</ele>
        <time>2014-02-16T10:16:41Z</time>
      </trkpt>
      <trkpt lat="45.77942" lon="4.84144">
        <ele>160.2</ele>
        <time>2014-02-16T10:16:47Z</time>
      </trkpt>
      <trkpt lat="45.77964" lon="4.84153">
        <ele>159.72</ele>
        <time>2014-02-16T10:16:57Z</time>
      </trkpt>
      <trkpt lat="45.77993" lon="4.84169">
        <ele>159.72</ele>
        <time>2014-02-16T10:17:10Z</time>
      </trkpt>
      <trkpt lat="45.78024" lon="4.84193">
        <ele>159.72</ele>
        <time>2014-02-16T10:17:24Z</time>
      </trkpt>
      <trkpt lat="45.78028" lon="4.84197">
        <ele>159.72</ele>
        <time>2014-02-16T10:17:26Z</time>
      </trkpt>
      <trkpt lat="45.78048" lon="4.84205">
        <ele>158.75</ele>
        <time>2014-02-16T10:17:33Z</time>
      </trkpt>
      <trkpt lat="45.7806" lon="4.84206">
        <ele>159.24</ele>
        <time>2014-02-16T10:17:39Z</time>
      </trkpt>
      <trkpt lat="45.78081" lon="4.84216">
        <ele>159.72</ele>
        <time>2014-02-16T10:17:49Z</time>
      </trkpt>
      <trkpt lat="45.78106" lon="4.84234">
        <ele>159.72</ele>
        <time>2014-02-16T10:18:01Z</time>
      </trkpt>
      <trkpt lat="45.78136" lon="4.84258">
        <ele>160.2</ele>
        <time>2014-02-16T10:18:15Z</time>
      </trkpt>
      <trkpt lat="45.78164" lon="4.84287">
        <ele>160.2</ele>
        <time>2014-02-16T10:18:28Z</time>
      </trkpt>
      <trkpt lat="45.78192" lon="4.84311">
        <ele>160.2</ele>
        <time>2014-02-16T10:18:40Z</time>
      </trkpt>
      <trkpt lat="45.78208" lon="4.8432">
        <ele>160.2</ele>
        <time>2014-02-16T10:18:47Z</time>
      </trkpt>
      <trkpt lat="45.78233" lon="4.84339">
        <ele>159.72</ele>
        <time>2014-02-16T10:19:00Z</time>
      </trkpt>
      <trkpt lat="45.78263" lon="4.84372">
        <ele>159.72</ele>
        <time>2014-02-16T10:19:14Z</time>
      </trkpt>
      <trkpt lat="45.78291" lon="4.84401">
        <ele>160.2</ele>
        <time>2014-02-16T10:19:28Z</time>
      </trkpt>
      <trkpt lat="45.78324" lon="4.84435">
        <ele>160.2</ele>
        <time>2014-02-16T10:19:44Z</time>
      </trkpt>
      <trkpt lat="45.78345" lon="4.84463">
        <ele>159.72</ele>
        <time>2014-02-16T10:19:56Z</time>
      </trkpt>
      <trkpt lat="45.78367" lon="4.84493">
        <ele>160.68</ele>
        <time>2014-02-16T10:20:08Z</time>
      </trkpt>
      <trkpt lat="45.78394" lon="4.84524">
        <ele>160.2</ele>
        <time>2014-02-16T10:20:21Z</time>
      </trkpt>
      <trkpt lat="45.78417" lon="4.84563">
        <ele>159.72</ele>
        <time>2014-02-16T10:20:34Z</time>
      </trkpt>
      <trkpt lat="45.78439" lon="4.84588">
        <ele>160.68</ele>
        <time>2014-02-16T10:20:45Z</time>
      </trkpt>
      <trkpt lat="45.78456" lon="4.84605">
        <ele>160.2</ele>
        <time>2014-02-16T10:20:54Z</time>
      </trkpt>
      <trkpt lat="45.78468" lon="4.84621">
        <ele>160.2</ele>
        <time>2014-02-16T10:21:01Z</time>
      </trkpt>
      <trkpt lat="45.78489" lon="4.8465">
        <ele>160.2</ele>
        <time>2014-02-16T10:21:12Z</time>
      </trkpt>
      <trkpt lat="45.78509" lon="4.84679">
        <ele>161.16</ele>
        <time>2014-02-16T10:21:24Z</time>
      </trkpt>
      <trkpt lat="45.78518" lon="4.84699">
        <ele>161.16</ele>
        <time>2014-02-16T10:21:32Z</time>
      </trkpt>
      <trkpt lat="45.78539" lon="4.84698">
        <ele>161.64</ele>
        <time>2014-02-16T10:21:42Z</time>
      </trkpt>
      <trkpt lat="45.78557" lon="4.84688">
        <ele>164.52</ele>
        <time>2014-02-16T10:21:55Z</time>
      </trkpt>
      <trkpt lat="45.78568" lon="4.84674">
        <ele>167.41</ele>
        <time>2014-02-16T10:22:03Z</time>
      </trkpt>
      <trkpt lat="45.7858" lon="4.8466">
        <ele>170.77</ele>
        <time>2014-02-16T10:22:12Z</time>
      </trkpt>
      <trkpt lat="45.78592" lon="4.84649">
        <ele>174.14</ele>
        <time>2014-02-16T10:22:20Z</time>
      </trkpt>
      <trkpt lat="45.78599" lon="4.84643">
        <ele>177.02</ele>
        <time>2014-02-16T10:22:26Z</time>
      </trkpt>
      <trkpt lat="45.78605" lon="4.84638">
        <ele>178.94</ele>
        <time>2014-02-16T10:22:30Z</time>
      </trkpt>
      <trkpt lat="45.78616" lon="4.84626">
        <ele>181.83</ele>
        <time>2014-02-16T10:22:37Z</time>
      </trkpt>
      <trkpt lat="45.78638" lon="4.84621">
        <ele>185.67</ele>
        <time>2014-02-16T10:22:46Z</time>
      </trkpt>
      <trkpt lat="45.78655" lon="4.84608">
        <ele>189.04</ele>
        <time>2014-02-16T10:22:56Z</time>
      </trkpt>
      <trkpt lat="45.78664" lon="4.84595">
        <ele>192.4</ele>
        <time>2014-02-16T10:23:03Z</time>
      </trkpt>
      <trkpt lat="45.78666" lon="4.84594">
        <ele>192.4</ele>
        <time>2014-02-16T10:23:04Z</time>
      </trkpt>
      <trkpt lat="45.78669" lon="4.84594">
        <ele>193.36</ele>
        <time>2014-02-16T10:23:05Z</time>
      </trkpt>
      <trkpt lat="45.78681" lon="4.8458">
        <ele>196.25</ele>
        <time>2014-02-16T10:23:15Z</time>
      </trkpt>
      <trkpt lat="45.78698" lon="4.84571">
        <ele>199.13</ele>
        <time>2014-02-16T10:23:25Z</time>
      </trkpt>
      <trkpt lat="45.78717" lon="4.84565">
        <ele>202.49</ele>
        <time>2014-02-16T10:23:33Z</time>
      </trkpt>
      <trkpt lat="45.78746" lon="4.84559">
        <ele>205.86</ele>
        <time>2014-02-16T10:23:43Z</time>
      </trkpt>
      <trkpt lat="45.78748" lon="4.8455">
        <ele>206.34</ele>
        <time>2014-02-16T10:23:46Z</time>
      </trkpt>
      <trkpt lat="45.78712" lon="4.84533">
        <ele>209.22</ele>
        <time>2014-02-16T10:24:01Z</time>
      </trkpt>
      <trkpt lat="45.78683" lon="4.84524">
        <ele>210.67</ele>
        <time>2014-02-16T10:24:13Z</time>
      </trkpt>
      <trkpt lat="45.78663" lon="4.84515">
        <ele>214.03</ele>
        <time>2014-02-16T10:24:22Z</time>
      </trkpt>
      <trkpt lat="45.78662" lon="4.84509">
        <ele>214.99</ele>
        <time>2014-02-16T10:24:24Z</time>
      </trkpt>
      <trkpt lat="45.78667" lon="4.84484">
        <ele>218.84</ele>
        <time>2014-02-16T10:24:33Z</time>
      </trkpt>
      <trkpt lat="45.78669" lon="4.84481">
        <ele>218.84</ele>
        <time>2014-02-16T10:24:34Z</time>
      </trkpt>
      <trkpt lat="45.78682" lon="4.84458">
        <ele>222.68</ele>
        <time>2014-02-16T10:24:43Z</time>
      </trkpt>
      <trkpt lat="45.78685" lon="4.84453">
        <ele>223.64</ele>
        <time>2014-02-16T10:24:45Z</time>
      </trkpt>
      <trkpt lat="45.78695" lon="4.84441">
        <ele>227.01</ele>
        <time>2014-02-16T10:24:52Z</time>
      </trkpt>
      <trkpt lat="45.78716" lon="4.84422">
        <ele>229.89</ele>
        <time>2014-02-16T10:25:02Z</time>
      </trkpt>
      <trkpt lat="45.78744" lon="4.84382">
        <ele>232.3</ele>
        <time>2014-02-16T10:25:17Z</time>
      </trkpt>
      <trkpt lat="45.78762" lon="4.84351">
        <ele>235.18</ele>
        <time>2014-02-16T10:25:29Z</time>
      </trkpt>
      <trkpt lat="45.78775" lon="4.84336">
        <ele>239.02</ele>
        <time>2014-02-16T10:25:36Z</time>
      </trkpt>
      <trkpt lat="45.78777" lon="4.84334">
        <ele>239.02</ele>
        <time>2014-02-16T10:25:37Z</time>
      </trkpt>
      <trkpt lat="45.7879" lon="4.84325">
        <ele>240.47</ele>
        <time>2014-02-16T10:25:41Z</time>
      </trkpt>
      <trkpt lat="45.78791" lon="4.84326">
        <ele>241.43</ele>
        <time>2014-02-16T10:25:43Z</time>
      </trkpt>
      <trkpt lat="45.78768" lon="4.84347">
        <ele>240.95</ele>
        <time>2014-02-16T10:25:52Z</time>
      </trkpt>
      <trkpt lat="45.78751" lon="4.84369">
        <ele>236.62</ele>
        <time>2014-02-16T10:25:59Z</time>
      </trkpt>
      <trkpt lat="45.78738" lon="4.84383">
        <ele>234.22</ele>
        <time>2014-02-16T10:26:03Z</time>
      </trkpt>
      <trkpt lat="45.78732" lon="4.84395">
        <ele>232.78</ele>
        <time>2014-02-16T10:26:06Z</time>
      </trkpt>
      <trkpt lat="45.78713" lon="4.84418">
        <ele>231.33</ele>
        <time>2014-02-16T10:26:15Z</time>
      </trkpt>
      <trkpt lat="45.78695" lon="4.84438">
        <ele>230.85</ele>
        <time>2014-02-16T10:26:25Z</time>
      </trkpt>
      <trkpt lat="45.78698" lon="4.84441">
        <ele>230.37</ele>
        <time>2014-02-16T10:26:31Z</time>
      </trkpt>
      <trkpt lat="45.78723" lon="4.84415">
        <ele>231.81</ele>
        <time>2014-02-16T10:26:43Z</time>
      </trkpt>
      <trkpt lat="45.78744" lon="4.84389">
        <ele>232.78</ele>
        <time>2014-02-16T10:26:56Z</time>
      </trkpt>
      <trkpt lat="45.78759" lon="4.84363">
        <ele>234.22</ele>
        <time>2014-02-16T10:27:07Z</time>
      </trkpt>
      <trkpt lat="45.78772" lon="4.84348">
        <ele>237.58</ele>
        <time>2014-02-16T10:27:14Z</time>
      </trkpt>
      <trkpt lat="45.78774" lon="4.84345">
        <ele>237.58</ele>
        <time>2014-02-16T10:27:15Z</time>
      </trkpt>
      <trkpt lat="45.78786" lon="4.84331">
        <ele>240.95</ele>
        <time>2014-02-16T10:27:22Z</time>
      </trkpt>
      <trkpt lat="45.78786" lon="4.84323">
        <ele>242.39</ele>
        <time>2014-02-16T10:27:27Z</time>
      </trkpt>
      <trkpt lat="45.78776" lon="4.84296">
        <ele>244.31</ele>
        <time>2014-02-16T10:27:45Z</time>
      </trkpt>
      <trkpt lat="45.78762" lon="4.84268">
        <ele>244.31</ele>
        <time>2014-02-16T10:27:58Z</time>
      </trkpt>
      <trkpt lat="45.78748" lon="4.84241">
        <ele>244.79</ele>
        <time>2014-02-16T10:28:08Z</time>
      </trkpt>
      <trkpt lat="45.78726" lon="4.84203">
        <ele>242.39</ele>
        <time>2014-02-16T10:28:22Z</time>
      </trkpt>
      <trkpt lat="45.78705" lon="4.84153">
        <ele>239.99</ele>
        <time>2014-02-16T10:28:38Z</time>
      </trkpt>
      <trkpt lat="45.78687" lon="4.84119">
        <ele>239.02</ele>
        <time>2014-02-16T10:28:50Z</time>
      </trkpt>
      <trkpt lat="45.78667" lon="4.84081">
        <ele>238.54</ele>
        <time>2014-02-16T10:29:03Z</time>
      </trkpt>
      <trkpt lat="45.78657" lon="4.84062">
        <ele>237.1</ele>
        <time>2014-02-16T10:29:10Z</time>
      </trkpt>
      <trkpt lat="45.78644" lon="4.8402">
        <ele>236.62</ele>
        <time>2014-02-16T10:29:24Z</time>
      </trkpt>
      <trkpt lat="45.78629" lon="4.8399">
        <ele>237.1</ele>
        <time>2014-02-16T10:29:35Z</time>
      </trkpt>
      <trkpt lat="45.78607" lon="4.83949">
        <ele>237.1</ele>
        <time>2014-02-16T10:29:49Z</time>
      </trkpt>
      <trkpt lat="45.78588" lon="4.83912">
        <ele>236.62</ele>
        <time>2014-02-16T10:30:03Z</time>
      </trkpt>
      <trkpt lat="45.78578" lon="4.83889">
        <ele>236.62</ele>
        <time>2014-02-16T10:30:11Z</time>
      </trkpt>
      <trkpt lat="45.78562" lon="4.83867">
        <ele>236.62</ele>
        <time>2014-02-16T10:30:20Z</time>
      </trkpt>
      <trkpt lat="45.78549" lon="4.83849">
        <ele>236.62</ele>
        <time>2014-02-16T10:30:27Z</time>
      </trkpt>
      <trkpt lat="45.78536" lon="4.83831">
        <ele>237.1</ele>
        <time>2014-02-16T10:30:35Z</time>
      </trkpt>
      <trkpt lat="45.78524" lon="4.83808">
        <ele>238.06</ele>
        <time>2014-02-16T10:30:44Z</time>
      </trkpt>
      <trkpt lat="45.78518" lon="4.83791">
        <ele>237.58</ele>
        <time>2014-02-16T10:30:52Z</time>
      </trkpt>
      <trkpt lat="45.78504" lon="4.83761">
        <ele>237.58</ele>
        <time>2014-02-16T10:31:04Z</time>
      </trkpt>
      <trkpt lat="45.78497" lon="4.83736">
        <ele>238.06</ele>
        <time>2014-02-16T10:31:13Z</time>
      </trkpt>
      <trkpt lat="45.78492" lon="4.83722">
        <ele>238.06</ele>
        <time>2014-02-16T10:31:19Z</time>
      </trkpt>
      <trkpt lat="45.78485" lon="4.83702">
        <ele>239.99</ele>
        <time>2014-02-16T10:31:26Z</time>
      </trkpt>
      <trkpt lat="45.78474" lon="4.83662">
        <ele>239.99</ele>
        <time>2014-02-16T10:31:36Z</time>
      </trkpt>
      <trkpt lat="45.7847" lon="4.83634">
        <ele>240.47</ele>
        <time>2014-02-16T10:31:46Z</time>
      </trkpt>
      <trkpt lat="45.78451" lon="4.83609">
        <ele>239.51</ele>
        <time>2014-02-16T10:31:59Z</time>
      </trkpt>
      <trkpt lat="45.7843" lon="4.83578">
        <ele>237.58</ele>
        <time>2014-02-16T10:32:13Z</time>
      </trkpt>
      <trkpt lat="45.78406" lon="4.83547">
        <ele>235.18</ele>
        <time>2014-02-16T10:32:27Z</time>
      </trkpt>
      <trkpt lat="45.78404" lon="4.83545">
        <ele>235.18</ele>
        <time>2014-02-16T10:32:28Z</time>
      </trkpt>
      <trkpt lat="45.78382" lon="4.8351">
        <ele>231.81</ele>
        <time>2014-02-16T10:32:42Z</time>
      </trkpt>
      <trkpt lat="45.78356" lon="4.83482">
        <ele>231.33</ele>
        <time>2014-02-16T10:32:53Z</time>
      </trkpt>
      <trkpt lat="45.78345" lon="4.83479">
        <ele>230.37</ele>
        <time>2014-02-16T10:32:58Z</time>
      </trkpt>
      <trkpt lat="45.78317" lon="4.83499">
        <ele>229.41</ele>
        <time>2014-02-16T10:33:14Z</time>
      </trkpt>
      <trkpt lat="45.78316" lon="4.83516">
        <ele>227.01</ele>
        <time>2014-02-16T10:33:19Z</time>
      </trkpt>
      <trkpt lat="45.78307" lon="4.83547">
        <ele>225.09</ele>
        <time>2014-02-16T10:33:30Z</time>
      </trkpt>
      <trkpt lat="45.78305" lon="4.8356">
        <ele>222.68</ele>
        <time>2014-02-16T10:33:38Z</time>
      </trkpt>
      <trkpt lat="45.783" lon="4.83586">
        <ele>219.8</ele>
        <time>2014-02-16T10:33:49Z</time>
      </trkpt>
      <trkpt lat="45.78295" lon="4.83607">
        <ele>216.91</ele>
        <time>2014-02-16T10:33:59Z</time>
      </trkpt>
      <trkpt lat="45.78295" lon="4.83608">
        <ele>216.43</ele>
        <time>2014-02-16T10:34:00Z</time>
      </trkpt>
      <trkpt lat="45.78295" lon="4.83609">
        <ele>216.43</ele>
        <time>2014-02-16T10:34:01Z</time>
      </trkpt>
      <trkpt lat="45.7831" lon="4.83647">
        <ele>214.99</ele>
        <time>2014-02-16T10:34:13Z</time>
      </trkpt>
      <trkpt lat="45.78308" lon="4.83688">
        <ele>214.51</ele>
        <time>2014-02-16T10:34:24Z</time>
      </trkpt>
      <trkpt lat="45.78303" lon="4.83721">
        <ele>213.07</ele>
        <time>2014-02-16T10:34:33Z</time>
      </trkpt>
      <trkpt lat="45.78292" lon="4.83744">
        <ele>210.19</ele>
        <time>2014-02-16T10:34:41Z</time>
      </trkpt>
      <trkpt lat="45.78283" lon="4.83787">
        <ele>207.3</ele>
        <time>2014-02-16T10:34:53Z</time>
      </trkpt>
      <trkpt lat="45.78275" lon="4.83819">
        <ele>207.3</ele>
        <time>2014-02-16T10:35:02Z</time>
      </trkpt>
      <trkpt lat="45.78264" lon="4.83864">
        <ele>206.34</ele>
        <time>2014-02-16T10:35:15Z</time>
      </trkpt>
      <trkpt lat="45.78243" lon="4.83885">
        <ele>202.98</ele>
        <time>2014-02-16T10:35:27Z</time>
      </trkpt>
      <trkpt lat="45.78238" lon="4.83888">
        <ele>201.53</ele>
        <time>2014-02-16T10:35:30Z</time>
      </trkpt>
      <trkpt lat="45.78226" lon="4.83899">
        <ele>199.61</ele>
        <time>2014-02-16T10:35:36Z</time>
      </trkpt>
      <trkpt lat="45.78216" lon="4.83906">
        <ele>197.69</ele>
        <time>2014-02-16T10:35:41Z</time>
      </trkpt>
      <trkpt lat="45.78189" lon="4.83941">
        <ele>196.25</ele>
        <time>2014-02-16T10:35:59Z</time>
      </trkpt>
      <trkpt lat="45.78177" lon="4.83943">
        <ele>197.21</ele>
        <time>2014-02-16T10:36:10Z</time>
      </trkpt>
      <trkpt lat="45.78149" lon="4.83966">
        <ele>194.32</ele>
        <time>2014-02-16T10:36:24Z</time>
      </trkpt>
      <trkpt lat="45.78126" lon="4.83987">
        <ele>192.4</ele>
        <time>2014-02-16T10:36:34Z</time>
      </trkpt>
      <trkpt lat="45.78096" lon="4.84011">
        <ele>189.04</ele>
        <time>2014-02-16T10:36:46Z</time>
      </trkpt>
      <trkpt lat="45.78092" lon="4.84014">
        <ele>188.08</ele>
        <time>2014-02-16T10:36:48Z</time>
      </trkpt>
      <trkpt lat="45.78092" lon="4.84021">
        <ele>187.11</ele>
        <time>2014-02-16T10:36:50Z</time>
      </trkpt>
      <trkpt lat="45.7809" lon="4.84018">
        <ele>185.67</ele>
        <time>2014-02-16T10:36:55Z</time>
      </trkpt>
      <trkpt lat="45.7809" lon="4.8402">
        <ele>182.79</ele>
        <time>2014-02-16T10:37:05Z</time>
      </trkpt>
      <trkpt lat="45.78089" lon="4.8402">
        <ele>182.31</ele>
        <time>2014-02-16T10:37:06Z</time>
      </trkpt>
      <trkpt lat="45.78076" lon="4.84029">
        <ele>181.35</ele>
        <time>2014-02-16T10:37:15Z</time>
      </trkpt>
      <trkpt lat="45.78069" lon="4.84035">
        <ele>179.9</ele>
        <time>2014-02-16T10:37:18Z</time>
      </trkpt>
      <trkpt lat="45.78044" lon="4.84053">
        <ele>177.02</ele>
        <time>2014-02-16T10:37:29Z</time>
      </trkpt>
      <trkpt lat="45.78016" lon="4.84078">
        <ele>173.66</ele>
        <time>2014-02-16T10:37:41Z</time>
      </trkpt>
      <trkpt lat="45.7799" lon="4.84097">
        <ele>170.77</ele>
        <time>2014-02-16T10:37:52Z</time>
      </trkpt>
      <trkpt lat="45.77978" lon="4.84109">
        <ele>169.33</ele>
        <time>2014-02-16T10:37:57Z</time>
      </trkpt>
      <trkpt lat="45.77952" lon="4.84117">
        <ele>166.93</ele>
        <time>2014-02-16T10:38:09Z</time>
      </trkpt>
      <trkpt lat="45.77947" lon="4.84111">
        <ele>167.41</ele>
        <time>2014-02-16T10:38:14Z</time>
      </trkpt>
      <trkpt lat="45.77937" lon="4.84111">
        <ele>167.41</ele>
        <time>2014-02-16T10:38:18Z</time>
      </trkpt>
      <trkpt lat="45.77916" lon="4.84089">
        <ele>167.41</ele>
        <time>2014-02-16T10:38:31Z</time>
      </trkpt>
      <trkpt lat="45.77892" lon="4.84068">
        <ele>168.37</ele>
        <time>2014-02-16T10:38:45Z</time>
      </trkpt>
      <trkpt lat="45.77886" lon="4.84065">
        <ele>170.77</ele>
        <time>2014-02-16T10:38:50Z</time>
      </trkpt>
      <trkpt lat="45.77881" lon="4.84049">
        <ele>173.66</ele>
        <time>2014-02-16T10:38:59Z</time>
      </trkpt>
      <trkpt lat="45.77878" lon="4.84041">
        <ele>177.02</ele>
        <time>2014-02-16T10:39:04Z</time>
      </trkpt>
      <trkpt lat="45.77873" lon="4.84038">
        <ele>178.46</ele>
        <time>2014-02-16T10:39:08Z</time>
      </trkpt>
      <trkpt lat="45.77872" lon="4.84029">
        <ele>181.35</ele>
        <time>2014-02-16T10:39:13Z</time>
      </trkpt>
      <trkpt lat="45.77865" lon="4.84013">
        <ele>185.19</ele>
        <time>2014-02-16T10:39:23Z</time>
      </trkpt>
      <trkpt lat="45.77855" lon="4.8401">
        <ele>187.59</ele>
        <time>2014-02-16T10:39:28Z</time>
      </trkpt>
      <trkpt lat="45.77852" lon="4.84">
        <ele>190.96</ele>
        <time>2014-02-16T10:39:35Z</time>
      </trkpt>
      <trkpt lat="45.77851" lon="4.83999">
        <ele>190.96</ele>
        <time>2014-02-16T10:39:36Z</time>
      </trkpt>
      <trkpt lat="45.77852" lon="4.83996">
        <ele>191.92</ele>
        <time>2014-02-16T10:39:39Z</time>
      </trkpt>
      <trkpt lat="45.77834" lon="4.83984">
        <ele>195.77</ele>
        <time>2014-02-16T10:39:50Z</time>
      </trkpt>
      <trkpt lat="45.77832" lon="4.83984">
        <ele>195.77</ele>
        <time>2014-02-16T10:39:51Z</time>
      </trkpt>
      <trkpt lat="45.77826" lon="4.83984">
        <ele>197.21</ele>
        <time>2014-02-16T10:39:54Z</time>
      </trkpt>
      <trkpt lat="45.77814" lon="4.8399">
        <ele>199.13</ele>
        <time>2014-02-16T10:40:00Z</time>
      </trkpt>
      <trkpt lat="45.77812" lon="4.83992">
        <ele>200.09</ele>
        <time>2014-02-16T10:40:02Z</time>
      </trkpt>
      <trkpt lat="45.77805" lon="4.83995">
        <ele>202.49</ele>
        <time>2014-02-16T10:40:06Z</time>
      </trkpt>
      <trkpt lat="45.77794" lon="4.83987">
        <ele>205.38</ele>
        <time>2014-02-16T10:40:16Z</time>
      </trkpt>
      <trkpt lat="45.77791" lon="4.83976">
        <ele>207.3</ele>
        <time>2014-02-16T10:40:23Z</time>
      </trkpt>
      <trkpt lat="45.77789" lon="4.83971">
        <ele>208.74</ele>
        <time>2014-02-16T10:40:26Z</time>
      </trkpt>
      <trkpt lat="45.77787" lon="4.83969">
        <ele>210.19</ele>
        <time>2014-02-16T10:40:28Z</time>
      </trkpt>
      <trkpt lat="45.77785" lon="4.83969">
        <ele>211.15</ele>
        <time>2014-02-16T10:40:30Z</time>
      </trkpt>
      <trkpt lat="45.77781" lon="4.83966">
        <ele>212.11</ele>
        <time>2014-02-16T10:40:33Z</time>
      </trkpt>
      <trkpt lat="45.7777" lon="4.83942">
        <ele>215.47</ele>
        <time>2014-02-16T10:40:42Z</time>
      </trkpt>
      <trkpt lat="45.77766" lon="4.83935">
        <ele>216.43</ele>
        <time>2014-02-16T10:40:45Z</time>
      </trkpt>
      <trkpt lat="45.77759" lon="4.83915">
        <ele>219.8</ele>
        <time>2014-02-16T10:40:52Z</time>
      </trkpt>
      <trkpt lat="45.77755" lon="4.83906">
        <ele>221.72</ele>
        <time>2014-02-16T10:40:57Z</time>
      </trkpt>
      <trkpt lat="45.77753" lon="4.83901">
        <ele>223.64</ele>
        <time>2014-02-16T10:41:00Z</time>
      </trkpt>
      <trkpt lat="45.77754" lon="4.83892">
        <ele>225.57</ele>
        <time>2014-02-16T10:41:04Z</time>
      </trkpt>
      <trkpt lat="45.77748" lon="4.83886">
        <ele>228.93</ele>
        <time>2014-02-16T10:41:11Z</time>
      </trkpt>
      <trkpt lat="45.77751" lon="4.83883">
        <ele>228.93</ele>
        <time>2014-02-16T10:41:12Z</time>
      </trkpt>
      <trkpt lat="45.77754" lon="4.83883">
        <ele>229.41</ele>
        <time>2014-02-16T10:41:14Z</time>
      </trkpt>
      <trkpt lat="45.77765" lon="4.83875">
        <ele>227.49</ele>
        <time>2014-02-16T10:41:20Z</time>
      </trkpt>
      <trkpt lat="45.77767" lon="4.83886">
        <ele>225.09</ele>
        <time>2014-02-16T10:41:24Z</time>
      </trkpt>
      <trkpt lat="45.77776" lon="4.8388">
        <ele>222.68</ele>
        <time>2014-02-16T10:41:28Z</time>
      </trkpt>
      <trkpt lat="45.77787" lon="4.83871">
        <ele>220.28</ele>
        <time>2014-02-16T10:41:32Z</time>
      </trkpt>
      <trkpt lat="45.77788" lon="4.83869">
        <ele>219.32</ele>
        <time>2014-02-16T10:41:33Z</time>
      </trkpt>
      <trkpt lat="45.7779" lon="4.83852">
        <ele>222.68</ele>
        <time>2014-02-16T10:41:44Z</time>
      </trkpt>
      <trkpt lat="45.77783" lon="4.83844">
        <ele>225.57</ele>
        <time>2014-02-16T10:41:51Z</time>
      </trkpt>
      <trkpt lat="45.77782" lon="4.83846">
        <ele>227.01</ele>
        <time>2014-02-16T10:41:56Z</time>
      </trkpt>
      <trkpt lat="45.77721" lon="4.83901">
        <ele>227.97</ele>
        <time>2014-02-16T10:42:11Z</time>
      </trkpt>
      <trkpt lat="45.77692" lon="4.83888">
        <ele>227.01</ele>
        <time>2014-02-16T10:42:30Z</time>
      </trkpt>
      <trkpt lat="45.77677" lon="4.83857">
        <ele>227.49</ele>
        <time>2014-02-16T10:42:45Z</time>
      </trkpt>
      <trkpt lat="45.77662" lon="4.83828">
        <ele>226.53</ele>
        <time>2014-02-16T10:42:58Z</time>
      </trkpt>
      <trkpt lat="45.77648" lon="4.83797">
        <ele>227.49</ele>
        <time>2014-02-16T10:43:11Z</time>
      </trkpt>
      <trkpt lat="45.77634" lon="4.83767">
        <ele>227.01</ele>
        <time>2014-02-16T10:43:23Z</time>
      </trkpt>
      <trkpt lat="45.77624" lon="4.83736">
        <ele>227.97</ele>
        <time>2014-02-16T10:43:34Z</time>
      </trkpt>
      <trkpt lat="45.77624" lon="4.83703">
        <ele>227.49</ele>
        <time>2014-02-16T10:43:45Z</time>
      </trkpt>
      <trkpt lat="45.77624" lon="4.837">
        <ele>227.49</ele>
        <time>2014-02-16T10:43:46Z</time>
      </trkpt>
      <trkpt lat="45.7762" lon="4.8367">
        <ele>227.49</ele>
        <time>2014-02-16T10:43:56Z</time>
      </trkpt>
      <trkpt lat="45.77601" lon="4.83661">
        <ele>224.61</ele>
        <time>2014-02-16T10:44:08Z</time>
      </trkpt>
      <trkpt lat="45.776" lon="4.83657">
        <ele>221.24</ele>
        <time>2014-02-16T10:44:11Z</time>
      </trkpt>
      <trkpt lat="45.776" lon="4.83657">
        <ele>221.24</ele>
        <time>2014-02-16T10:44:12Z</time>
      </trkpt>
      <trkpt lat="45.77596" lon="4.83652">
        <ele>218.36</ele>
        <time>2014-02-16T10:44:16Z</time>
      </trkpt>
      <trkpt lat="45.77594" lon="4.8365">
        <ele>216.43</ele>
        <time>2014-02-16T10:44:18Z</time>
      </trkpt>
      <trkpt lat="45.77591" lon="4.83646">
        <ele>215.95</ele>
        <time>2014-02-16T10:44:20Z</time>
      </trkpt>
      <trkpt lat="45.77581" lon="4.8365">
        <ele>213.55</ele>
        <time>2014-02-16T10:44:27Z</time>
      </trkpt>
      <trkpt lat="45.77572" lon="4.8366">
        <ele>211.63</ele>
        <time>2014-02-16T10:44:32Z</time>
      </trkpt>
      <trkpt lat="45.7757" lon="4.83674">
        <ele>209.22</ele>
        <time>2014-02-16T10:44:39Z</time>
      </trkpt>
      <trkpt lat="45.77572" lon="4.8369">
        <ele>205.38</ele>
        <time>2014-02-16T10:44:46Z</time>
      </trkpt>
      <trkpt lat="45.77575" lon="4.83697">
        <ele>204.9</ele>
        <time>2014-02-16T10:44:48Z</time>
      </trkpt>
      <trkpt lat="45.77579" lon="4.83691">
        <ele>201.53</ele>
        <time>2014-02-16T10:44:57Z</time>
      </trkpt>
      <trkpt lat="45.77634" lon="4.83688">
        <ele>198.65</ele>
        <time>2014-02-16T10:45:10Z</time>
      </trkpt>
      <trkpt lat="45.7765" lon="4.8371">
        <ele>195.77</ele>
        <time>2014-02-16T10:45:21Z</time>
      </trkpt>
      <trkpt lat="45.77649" lon="4.83725">
        <ele>191.92</ele>
        <time>2014-02-16T10:45:30Z</time>
      </trkpt>
      <trkpt lat="45.77649" lon="4.83727">
        <ele>191.92</ele>
        <time>2014-02-16T10:45:31Z</time>
      </trkpt>
      <trkpt lat="45.77647" lon="4.83733">
        <ele>190</ele>
        <time>2014-02-16T10:45:35Z</time>
      </trkpt>
      <trkpt lat="45.77642" lon="4.83741">
        <ele>187.11</ele>
        <time>2014-02-16T10:45:40Z</time>
      </trkpt>
      <trkpt lat="45.7764" lon="4.83745">
        <ele>185.19</ele>
        <time>2014-02-16T10:45:43Z</time>
      </trkpt>
      <trkpt lat="45.77636" lon="4.83752">
        <ele>182.31</ele>
        <time>2014-02-16T10:45:47Z</time>
      </trkpt>
      <trkpt lat="45.77631" lon="4.83761">
        <ele>178.94</ele>
        <time>2014-02-16T10:45:54Z</time>
      </trkpt>
      <trkpt lat="45.77627" lon="4.83766">
        <ele>177.02</ele>
        <time>2014-02-16T10:45:58Z</time>
      </trkpt>
      <trkpt lat="45.77625" lon="4.83771">
        <ele>175.1</ele>
        <time>2014-02-16T10:46:02Z</time>
      </trkpt>
      <trkpt lat="45.77628" lon="4.83772">
        <ele>173.66</ele>
        <time>2014-02-16T10:46:06Z</time>
      </trkpt>
      <trkpt lat="45.77629" lon="4.83773">
        <ele>170.77</ele>
        <time>2014-02-16T10:46:10Z</time>
      </trkpt>
      <trkpt lat="45.77627" lon="4.83771">
        <ele>169.33</ele>
        <time>2014-02-16T10:46:18Z</time>
      </trkpt>
      <trkpt lat="45.77602" lon="4.83752">
        <ele>165.96</ele>
        <time>2014-02-16T10:46:29Z</time>
      </trkpt>
      <trkpt lat="45.77601" lon="4.83714">
        <ele>163.08</ele>
        <time>2014-02-16T10:46:39Z</time>
      </trkpt>
      <trkpt lat="45.77601" lon="4.83693">
        <ele>160.68</ele>
        <time>2014-02-16T10:46:46Z</time>
      </trkpt>
      <trkpt lat="45.77597" lon="4.83719">
        <ele>156.83</ele>
        <time>2014-02-16T10:46:56Z</time>
      </trkpt>
      <trkpt lat="45.77588" lon="4.83722">
        <ele>154.91</ele>
        <time>2014-02-16T10:47:00Z</time>
      </trkpt>
      <trkpt lat="45.77583" lon="4.83721">
        <ele>154.43</ele>
        <time>2014-02-16T10:47:02Z</time>
      </trkpt>
      <trkpt lat="45.77576" lon="4.83719">
        <ele>152.51</ele>
        <time>2014-02-16T10:47:05Z</time>
      </trkpt>
      <trkpt lat="45.77555" lon="4.83715">
        <ele>149.62</ele>
        <time>2014-02-16T10:47:15Z</time>
      </trkpt>
      <trkpt lat="45.7755" lon="4.83712">
        <ele>148.66</ele>
        <time>2014-02-16T10:47:17Z</time>
      </trkpt>
      <trkpt lat="45.77531" lon="4.83693">
        <ele>145.3</ele>
        <time>2014-02-16T10:47:27Z</time>
      </trkpt>
      <trkpt lat="45.77511" lon="4.83664">
        <ele>141.93</ele>
        <time>2014-02-16T10:47:37Z</time>
      </trkpt>
      <trkpt lat="45.77504" lon="4.83656">
        <ele>140.01</ele>
        <time>2014-02-16T10:47:41Z</time>
      </trkpt>
      <trkpt lat="45.77502" lon="4.83655">
        <ele>138.57</ele>
        <time>2014-02-16T10:47:43Z</time>
      </trkpt>
      <trkpt lat="45.77509" lon="4.83655">
        <ele>141.45</ele>
        <time>2014-02-16T10:47:52Z</time>
      </trkpt>
      <trkpt lat="45.77508" lon="4.83654">
        <ele>143.37</ele>
        <time>2014-02-16T10:47:56Z</time>
      </trkpt>
      <trkpt lat="45.7751" lon="4.83654">
        <ele>144.34</ele>
        <time>2014-02-16T10:47:59Z</time>
      </trkpt>
      <trkpt lat="45.77509" lon="4.83625">
        <ele>147.22</ele>
        <time>2014-02-16T10:48:13Z</time>
      </trkpt>
      <trkpt lat="45.77515" lon="4.83623">
        <ele>149.62</ele>
        <time>2014-02-16T10:48:22Z</time>
      </trkpt>
      <trkpt lat="45.77517" lon="4.83594">
        <ele>153.47</ele>
        <time>2014-02-16T10:48:35Z</time>
      </trkpt>
      <trkpt lat="45.7752" lon="4.83591">
        <ele>153.95</ele>
        <time>2014-02-16T10:48:37Z</time>
      </trkpt>
      <trkpt lat="45.7753" lon="4.83585">
        <ele>157.31</ele>
        <time>2014-02-16T10:48:44Z</time>
      </trkpt>
      <trkpt lat="45.77548" lon="4.8358">
        <ele>159.24</ele>
        <time>2014-02-16T10:48:58Z</time>
      </trkpt>
      <trkpt lat="45.7756" lon="4.83569">
        <ele>162.6</ele>
        <time>2014-02-16T10:49:07Z</time>
      </trkpt>
      <trkpt lat="45.77571" lon="4.83549">
        <ele>165.48</ele>
        <time>2014-02-16T10:49:20Z</time>
      </trkpt>
      <trkpt lat="45.7757" lon="4.83533">
        <ele>168.85</ele>
        <time>2014-02-16T10:49:30Z</time>
      </trkpt>
      <trkpt lat="45.7757" lon="4.8353">
        <ele>168.85</ele>
        <time>2014-02-16T10:49:32Z</time>
      </trkpt>
      <trkpt lat="45.77575" lon="4.83508">
        <ele>171.73</ele>
        <time>2014-02-16T10:49:40Z</time>
      </trkpt>
      <trkpt lat="45.77577" lon="4.83506">
        <ele>171.73</ele>
        <time>2014-02-16T10:49:41Z</time>
      </trkpt>
      <trkpt lat="45.77581" lon="4.835">
        <ele>172.69</ele>
        <time>2014-02-16T10:49:44Z</time>
      </trkpt>
      <trkpt lat="45.77586" lon="4.83476">
        <ele>173.17</ele>
        <time>2014-02-16T10:49:57Z</time>
      </trkpt>
      <trkpt lat="45.77587" lon="4.83471">
        <ele>174.62</ele>
        <time>2014-02-16T10:50:01Z</time>
      </trkpt>
      <trkpt lat="45.77588" lon="4.83466">
        <ele>176.54</ele>
        <time>2014-02-16T10:50:05Z</time>
      </trkpt>
      <trkpt lat="45.77631" lon="4.83634">
        <ele>177.5</ele>
        <time>2014-02-16T10:50:16Z</time>
      </trkpt>
      <trkpt lat="45.77516" lon="4.8361">
        <ele>176.54</ele>
        <time>2014-02-16T10:50:28Z</time>
      </trkpt>
      <trkpt lat="45.77491" lon="4.83617">
        <ele>174.14</ele>
        <time>2014-02-16T10:50:37Z</time>
      </trkpt>
      <trkpt lat="45.77479" lon="4.83613">
        <ele>172.21</ele>
        <time>2014-02-16T10:50:44Z</time>
      </trkpt>
      <trkpt lat="45.77447" lon="4.83595">
        <ele>175.1</ele>
        <time>2014-02-16T10:50:56Z</time>
      </trkpt>
      <trkpt lat="45.77445" lon="4.83592">
        <ele>175.58</ele>
        <time>2014-02-16T10:50:57Z</time>
      </trkpt>
      <trkpt lat="45.77442" lon="4.83587">
        <ele>177.02</ele>
        <time>2014-02-16T10:50:59Z</time>
      </trkpt>
      <trkpt lat="45.7744" lon="4.83577">
        <ele>177.98</ele>
        <time>2014-02-16T10:51:02Z</time>
      </trkpt>
      <trkpt lat="45.77436" lon="4.83552">
        <ele>180.87</ele>
        <time>2014-02-16T10:51:10Z</time>
      </trkpt>
      <trkpt lat="45.77436" lon="4.83544">
        <ele>183.75</ele>
        <time>2014-02-16T10:51:13Z</time>
      </trkpt>
      <trkpt lat="45.77437" lon="4.83523">
        <ele>187.11</ele>
        <time>2014-02-16T10:51:20Z</time>
      </trkpt>
      <trkpt lat="45.77452" lon="4.83493">
        <ele>189.04</ele>
        <time>2014-02-16T10:51:29Z</time>
      </trkpt>
      <trkpt lat="45.77466" lon="4.83493">
        <ele>189.52</ele>
        <time>2014-02-16T10:51:32Z</time>
      </trkpt>
      <trkpt lat="45.77487" lon="4.83489">
        <ele>190</ele>
        <time>2014-02-16T10:51:41Z</time>
      </trkpt>
      <trkpt lat="45.77487" lon="4.83485">
        <ele>190</ele>
        <time>2014-02-16T10:51:44Z</time>
      </trkpt>
      <trkpt lat="45.77457" lon="4.83482">
        <ele>191.92</ele>
        <time>2014-02-16T10:52:00Z</time>
      </trkpt>
      <trkpt lat="45.77434" lon="4.83474">
        <ele>190.96</ele>
        <time>2014-02-16T10:52:11Z</time>
      </trkpt>
      <trkpt lat="45.77401" lon="4.83476">
        <ele>187.59</ele>
        <time>2014-02-16T10:52:22Z</time>
      </trkpt>
      <trkpt lat="45.77368" lon="4.83471">
        <ele>184.23</ele>
        <time>2014-02-16T10:52:36Z</time>
      </trkpt>
      <trkpt lat="45.7734" lon="4.83472">
        <ele>180.87</ele>
        <time>2014-02-16T10:52:48Z</time>
      </trkpt>
      <trkpt lat="45.77313" lon="4.83471">
        <ele>177.5</ele>
        <time>2014-02-16T10:52:59Z</time>
      </trkpt>
      <trkpt lat="45.77295" lon="4.83472">
        <ele>175.1</ele>
        <time>2014-02-16T10:53:10Z</time>
      </trkpt>
      <trkpt lat="45.77267" lon="4.83452">
        <ele>174.62</ele>
        <time>2014-02-16T10:53:24Z</time>
      </trkpt>
      <trkpt lat="45.77252" lon="4.83451">
        <ele>174.62</ele>
        <time>2014-02-16T10:53:34Z</time>
      </trkpt>
      <trkpt lat="45.77241" lon="4.83446">
        <ele>174.14</ele>
        <time>2014-02-16T10:53:39Z</time>
      </trkpt>
      <trkpt lat="45.77213" lon="4.83415">
        <ele>172.21</ele>
        <time>2014-02-16T10:53:53Z</time>
      </trkpt>
      <trkpt lat="45.77197" lon="4.8338">
        <ele>171.25</ele>
        <time>2014-02-16T10:54:04Z</time>
      </trkpt>
      <trkpt lat="45.77185" lon="4.83328">
        <ele>168.85</ele>
        <time>2014-02-16T10:54:20Z</time>
      </trkpt>
      <trkpt lat="45.77165" lon="4.8333">
        <ele>167.89</ele>
        <time>2014-02-16T10:54:27Z</time>
      </trkpt>
      <trkpt lat="45.77123" lon="4.83335">
        <ele>165</ele>
        <time>2014-02-16T10:54:41Z</time>
      </trkpt>
      <trkpt lat="45.77112" lon="4.83338">
        <ele>162.12</ele>
        <time>2014-02-16T10:54:49Z</time>
      </trkpt>
      <trkpt lat="45.77104" lon="4.83342">
        <ele>159.72</ele>
        <time>2014-02-16T10:54:55Z</time>
      </trkpt>
      <trkpt lat="45.77093" lon="4.83346">
        <ele>156.83</ele>
        <time>2014-02-16T10:55:02Z</time>
      </trkpt>
      <trkpt lat="45.77079" lon="4.83333">
        <ele>153.47</ele>
        <time>2014-02-16T10:55:10Z</time>
      </trkpt>
      <trkpt lat="45.77048" lon="4.83341">
        <ele>152.03</ele>
        <time>2014-02-16T10:55:22Z</time>
      </trkpt>
      <trkpt lat="45.77023" lon="4.83336">
        <ele>150.58</ele>
        <time>2014-02-16T10:55:34Z</time>
      </trkpt>
      <trkpt lat="45.77019" lon="4.83343">
        <ele>148.66</ele>
        <time>2014-02-16T10:55:42Z</time>
      </trkpt>
      <trkpt lat="45.77017" lon="4.83324">
        <ele>145.78</ele>
        <time>2014-02-16T10:55:53Z</time>
      </trkpt>
      <trkpt lat="45.77023" lon="4.83318">
        <ele>141.93</ele>
        <time>2014-02-16T10:56:00Z</time>
      </trkpt>
      <trkpt lat="45.77023" lon="4.83318">
        <ele>141.93</ele>
        <time>2014-02-16T10:56:01Z</time>
      </trkpt>
      <trkpt lat="45.77022" lon="4.83319">
        <ele>138.57</ele>
        <time>2014-02-16T10:56:08Z</time>
      </trkpt>
      <trkpt lat="45.77016" lon="4.83314">
        <ele>135.68</ele>
        <time>2014-02-16T10:56:23Z</time>
      </trkpt>
      <trkpt lat="45.77015" lon="4.8331">
        <ele>135.68</ele>
        <time>2014-02-16T10:56:26Z</time>
      </trkpt>
      <trkpt lat="45.76979" lon="4.83271">
        <ele>137.13</ele>
        <time>2014-02-16T10:56:40Z</time>
      </trkpt>
      <trkpt lat="45.7696" lon="4.83233">
        <ele>137.61</ele>
        <time>2014-02-16T10:56:53Z</time>
      </trkpt>
      <trkpt lat="45.7697" lon="4.83192">
        <ele>139.05</ele>
        <time>2014-02-16T10:57:06Z</time>
      </trkpt>
      <trkpt lat="45.76957" lon="4.83188">
        <ele>139.05</ele>
        <time>2014-02-16T10:57:14Z</time>
      </trkpt>
      <trkpt lat="45.7694" lon="4.83199">
        <ele>136.64</ele>
        <time>2014-02-16T10:57:23Z</time>
      </trkpt>
      <trkpt lat="45.76924" lon="4.83202">
        <ele>135.2</ele>
        <time>2014-02-16T10:57:28Z</time>
      </trkpt>
      <trkpt lat="45.76905" lon="4.83182">
        <ele>133.76</ele>
        <time>2014-02-16T10:57:35Z</time>
      </trkpt>
      <trkpt lat="45.76857" lon="4.83184">
        <ele>132.32</ele>
        <time>2014-02-16T10:57:45Z</time>
      </trkpt>
      <trkpt lat="45.76852" lon="4.83183">
        <ele>132.32</ele>
        <time>2014-02-16T10:57:47Z</time>
      </trkpt>
      <trkpt lat="45.76821" lon="4.83181">
        <ele>130.4</ele>
        <time>2014-02-16T10:58:02Z</time>
      </trkpt>
      <trkpt lat="45.76819" lon="4.83179">
        <ele>130.4</ele>
        <time>2014-02-16T10:58:03Z</time>
      </trkpt>
      <trkpt lat="45.76819" lon="4.83166">
        <ele>130.4</ele>
        <time>2014-02-16T10:58:07Z</time>
      </trkpt>
      <trkpt lat="45.76816" lon="4.83115">
        <ele>129.43</ele>
        <time>2014-02-16T10:58:19Z</time>
      </trkpt>
      <trkpt lat="45.76816" lon="4.83086">
        <ele>129.92</ele>
        <time>2014-02-16T10:58:31Z</time>
      </trkpt>
      <trkpt lat="45.76817" lon="4.83034">
        <ele>128.95</ele>
        <time>2014-02-16T10:58:44Z</time>
      </trkpt>
      <trkpt lat="45.76815" lon="4.83027">
        <ele>128.95</ele>
        <time>2014-02-16T10:58:46Z</time>
      </trkpt>
      <trkpt lat="45.76806" lon="4.82971">
        <ele>127.99</ele>
        <time>2014-02-16T10:59:02Z</time>
      </trkpt>
      <trkpt lat="45.7678" lon="4.82939">
        <ele>127.03</ele>
        <time>2014-02-16T10:59:11Z</time>
      </trkpt>
      <trkpt lat="45.76751" lon="4.82908">
        <ele>127.03</ele>
        <time>2014-02-16T10:59:23Z</time>
      </trkpt>
      <trkpt lat="45.76719" lon="4.82934">
        <ele>126.55</ele>
        <time>2014-02-16T10:59:36Z</time>
      </trkpt>
      <trkpt lat="45.76688" lon="4.82969">
        <ele>128.47</ele>
        <time>2014-02-16T10:59:49Z</time>
      </trkpt>
      <trkpt lat="45.76672" lon="4.82994">
        <ele>128.95</ele>
        <time>2014-02-16T10:59:58Z</time>
      </trkpt>
      <trkpt lat="45.76658" lon="4.82971">
        <ele>130.88</ele>
        <time>2014-02-16T11:00:06Z</time>
      </trkpt>
      <trkpt lat="45.76653" lon="4.82942">
        <ele>131.84</ele>
        <time>2014-02-16T11:00:15Z</time>
      </trkpt>
      <trkpt lat="45.76646" lon="4.82921">
        <ele>131.84</ele>
        <time>2014-02-16T11:00:23Z</time>
      </trkpt>
      <trkpt lat="45.76641" lon="4.82901">
        <ele>131.36</ele>
        <time>2014-02-16T11:00:30Z</time>
      </trkpt>
      <trkpt lat="45.76647" lon="4.82871">
        <ele>130.4</ele>
        <time>2014-02-16T11:00:38Z</time>
      </trkpt>
      <trkpt lat="45.76642" lon="4.8286">
        <ele>129.92</ele>
        <time>2014-02-16T11:00:42Z</time>
      </trkpt>
      <trkpt lat="45.76628" lon="4.82831">
        <ele>129.92</ele>
        <time>2014-02-16T11:00:54Z</time>
      </trkpt>
      <trkpt lat="45.76617" lon="4.82807">
        <ele>130.88</ele>
        <time>2014-02-16T11:01:04Z</time>
      </trkpt>
      <trkpt lat="45.76598" lon="4.82773">
        <ele>132.8</ele>
        <time>2014-02-16T11:01:14Z</time>
      </trkpt>
      <trkpt lat="45.76598" lon="4.82744">
        <ele>133.28</ele>
        <time>2014-02-16T11:01:24Z</time>
      </trkpt>
      <trkpt lat="45.7659" lon="4.82705">
        <ele>136.64</ele>
        <time>2014-02-16T11:01:37Z</time>
      </trkpt>
      <trkpt lat="45.76589" lon="4.82685">
        <ele>139.53</ele>
        <time>2014-02-16T11:01:43Z</time>
      </trkpt>
      <trkpt lat="45.76567" lon="4.82669">
        <ele>142.41</ele>
        <time>2014-02-16T11:01:56Z</time>
      </trkpt>
      <trkpt lat="45.76542" lon="4.82664">
        <ele>146.26</ele>
        <time>2014-02-16T11:02:10Z</time>
      </trkpt>
      <trkpt lat="45.76539" lon="4.82661">
        <ele>147.22</ele>
        <time>2014-02-16T11:02:12Z</time>
      </trkpt>
      <trkpt lat="45.76528" lon="4.82657">
        <ele>150.1</ele>
        <time>2014-02-16T11:02:23Z</time>
      </trkpt>
      <trkpt lat="45.76526" lon="4.82655">
        <ele>150.1</ele>
        <time>2014-02-16T11:02:24Z</time>
      </trkpt>
      <trkpt lat="45.76496" lon="4.82655">
        <ele>153.47</ele>
        <time>2014-02-16T11:02:34Z</time>
      </trkpt>
      <trkpt lat="45.76469" lon="4.82636">
        <ele>156.83</ele>
        <time>2014-02-16T11:02:48Z</time>
      </trkpt>
      <trkpt lat="45.76458" lon="4.82626">
        <ele>160.2</ele>
        <time>2014-02-16T11:02:58Z</time>
      </trkpt>
      <trkpt lat="45.76418" lon="4.8262">
        <ele>163.56</ele>
        <time>2014-02-16T11:03:12Z</time>
      </trkpt>
      <trkpt lat="45.76393" lon="4.82604">
        <ele>166.93</ele>
        <time>2014-02-16T11:03:24Z</time>
      </trkpt>
      <trkpt lat="45.76365" lon="4.8259">
        <ele>169.81</ele>
        <time>2014-02-16T11:03:36Z</time>
      </trkpt>
      <trkpt lat="45.76343" lon="4.8257">
        <ele>172.69</ele>
        <time>2014-02-16T11:03:49Z</time>
      </trkpt>
      <trkpt lat="45.76342" lon="4.82569">
        <ele>172.69</ele>
        <time>2014-02-16T11:03:50Z</time>
      </trkpt>
      <trkpt lat="45.76336" lon="4.82562">
        <ele>176.06</ele>
        <time>2014-02-16T11:03:57Z</time>
      </trkpt>
      <trkpt lat="45.7632" lon="4.82545">
        <ele>177.98</ele>
        <time>2014-02-16T11:04:04Z</time>
      </trkpt>
      <trkpt lat="45.76303" lon="4.82516">
        <ele>181.35</ele>
        <time>2014-02-16T11:04:15Z</time>
      </trkpt>
      <trkpt lat="45.76268" lon="4.82505">
        <ele>184.71</ele>
        <time>2014-02-16T11:04:29Z</time>
      </trkpt>
      <trkpt lat="45.76262" lon="4.82495">
        <ele>186.63</ele>
        <time>2014-02-16T11:04:35Z</time>
      </trkpt>
      <trkpt lat="45.76252" lon="4.82474">
        <ele>190</ele>
        <time>2014-02-16T11:04:45Z</time>
      </trkpt>
      <trkpt lat="45.76246" lon="4.82466">
        <ele>191.92</ele>
        <time>2014-02-16T11:04:50Z</time>
      </trkpt>
      <trkpt lat="45.76237" lon="4.8245">
        <ele>196.25</ele>
        <time>2014-02-16T11:04:57Z</time>
      </trkpt>
      <trkpt lat="45.76236" lon="4.82449">
        <ele>196.25</ele>
        <time>2014-02-16T11:04:58Z</time>
      </trkpt>
      <trkpt lat="45.76233" lon="4.82442">
        <ele>198.17</ele>
        <time>2014-02-16T11:05:01Z</time>
      </trkpt>
      <trkpt lat="45.76224" lon="4.82422">
        <ele>201.53</ele>
        <time>2014-02-16T11:05:12Z</time>
      </trkpt>
      <trkpt lat="45.76223" lon="4.82419">
        <ele>203.46</ele>
        <time>2014-02-16T11:05:15Z</time>
      </trkpt>
      <trkpt lat="45.76234" lon="4.82421">
        <ele>206.34</ele>
        <time>2014-02-16T11:05:22Z</time>
      </trkpt>
      <trkpt lat="45.76237" lon="4.82422">
        <ele>206.34</ele>
        <time>2014-02-16T11:05:23Z</time>
      </trkpt>
      <trkpt lat="45.76244" lon="4.82424">
        <ele>207.78</ele>
        <time>2014-02-16T11:05:26Z</time>
      </trkpt>
      <trkpt lat="45.76267" lon="4.82434">
        <ele>210.67</ele>
        <time>2014-02-16T11:05:37Z</time>
      </trkpt>
      <trkpt lat="45.76269" lon="4.82434">
        <ele>211.15</ele>
        <time>2014-02-16T11:05:40Z</time>
      </trkpt>
      <trkpt lat="45.7626" lon="4.82422">
        <ele>212.59</ele>
        <time>2014-02-16T11:05:47Z</time>
      </trkpt>
      <trkpt lat="45.76252" lon="4.82416">
        <ele>214.51</ele>
        <time>2014-02-16T11:05:51Z</time>
      </trkpt>
      <trkpt lat="45.76229" lon="4.82397">
        <ele>217.88</ele>
        <time>2014-02-16T11:06:02Z</time>
      </trkpt>
      <trkpt lat="45.76224" lon="4.82384">
        <ele>221.24</ele>
        <time>2014-02-16T11:06:11Z</time>
      </trkpt>
      <trkpt lat="45.76226" lon="4.82379">
        <ele>222.2</ele>
        <time>2014-02-16T11:06:15Z</time>
      </trkpt>
      <trkpt lat="45.76233" lon="4.82375">
        <ele>223.64</ele>
        <time>2014-02-16T11:06:20Z</time>
      </trkpt>
      <trkpt lat="45.76243" lon="4.82377">
        <ele>225.09</ele>
        <time>2014-02-16T11:06:24Z</time>
      </trkpt>
      <trkpt lat="45.7626" lon="4.8238">
        <ele>227.01</ele>
        <time>2014-02-16T11:06:32Z</time>
      </trkpt>
      <trkpt lat="45.76272" lon="4.82383">
        <ele>228.45</ele>
        <time>2014-02-16T11:06:37Z</time>
      </trkpt>
      <trkpt lat="45.76276" lon="4.82377">
        <ele>229.41</ele>
        <time>2014-02-16T11:06:41Z</time>
      </trkpt>
      <trkpt lat="45.76253" lon="4.82362">
        <ele>231.81</ele>
        <time>2014-02-16T11:06:52Z</time>
      </trkpt>
      <trkpt lat="45.76231" lon="4.82345">
        <ele>234.7</ele>
        <time>2014-02-16T11:07:02Z</time>
      </trkpt>
      <trkpt lat="45.76232" lon="4.82344">
        <ele>235.66</ele>
        <time>2014-02-16T11:07:04Z</time>
      </trkpt>
      <trkpt lat="45.76246" lon="4.82346">
        <ele>239.02</ele>
        <time>2014-02-16T11:07:13Z</time>
      </trkpt>
      <trkpt lat="45.76264" lon="4.82348">
        <ele>242.39</ele>
        <time>2014-02-16T11:07:21Z</time>
      </trkpt>
      <trkpt lat="45.76274" lon="4.82348">
        <ele>243.35</ele>
        <time>2014-02-16T11:07:25Z</time>
      </trkpt>
      <trkpt lat="45.76284" lon="4.82342">
        <ele>244.31</ele>
        <time>2014-02-16T11:07:29Z</time>
      </trkpt>
      <trkpt lat="45.76278" lon="4.82331">
        <ele>246.23</ele>
        <time>2014-02-16T11:07:34Z</time>
      </trkpt>
      <trkpt lat="45.76268" lon="4.82323">
        <ele>247.68</ele>
        <time>2014-02-16T11:07:38Z</time>
      </trkpt>
      <trkpt lat="45.76258" lon="4.82322">
        <ele>250.08</ele>
        <time>2014-02-16T11:07:42Z</time>
      </trkpt>
      <trkpt lat="45.76244" lon="4.82309">
        <ele>253.44</ele>
        <time>2014-02-16T11:07:51Z</time>
      </trkpt>
      <trkpt lat="45.76242" lon="4.82302">
        <ele>254.89</ele>
        <time>2014-02-16T11:07:54Z</time>
      </trkpt>
      <trkpt lat="45.76242" lon="4.82301">
        <ele>255.37</ele>
        <time>2014-02-16T11:07:55Z</time>
      </trkpt>
      <trkpt lat="45.76258" lon="4.82305">
        <ele>258.73</ele>
        <time>2014-02-16T11:08:02Z</time>
      </trkpt>
      <trkpt lat="45.7626" lon="4.82306">
        <ele>261.14</ele>
        <time>2014-02-16T11:08:05Z</time>
      </trkpt>
      <trkpt lat="45.7626" lon="4.82304">
        <ele>262.1</ele>
        <time>2014-02-16T11:08:07Z</time>
      </trkpt>
      <trkpt lat="45.7628" lon="4.82306">
        <ele>263.06</ele>
        <time>2014-02-16T11:08:18Z</time>
      </trkpt>
      <trkpt lat="45.76296" lon="4.82306">
        <ele>262.1</ele>
        <time>2014-02-16T11:08:30Z</time>
      </trkpt>
      <trkpt lat="45.76292" lon="4.82316">
        <ele>259.69</ele>
        <time>2014-02-16T11:08:34Z</time>
      </trkpt>
      <trkpt lat="45.76285" lon="4.82319">
        <ele>258.25</ele>
        <time>2014-02-16T11:08:37Z</time>
      </trkpt>
      <trkpt lat="45.76251" lon="4.82323">
        <ele>255.85</ele>
        <time>2014-02-16T11:08:49Z</time>
      </trkpt>
      <trkpt lat="45.76236" lon="4.82327">
        <ele>255.37</ele>
        <time>2014-02-16T11:08:57Z</time>
      </trkpt>
      <trkpt lat="45.76265" lon="4.82346">
        <ele>251.52</ele>
        <time>2014-02-16T11:09:07Z</time>
      </trkpt>
      <trkpt lat="45.76268" lon="4.82349">
        <ele>251.52</ele>
        <time>2014-02-16T11:09:08Z</time>
      </trkpt>
      <trkpt lat="45.76274" lon="4.82352">
        <ele>249.12</ele>
        <time>2014-02-16T11:09:11Z</time>
      </trkpt>
      <trkpt lat="45.76257" lon="4.82333">
        <ele>250.08</ele>
        <time>2014-02-16T11:09:23Z</time>
      </trkpt>
      <trkpt lat="45.76247" lon="4.8233">
        <ele>252.48</ele>
        <time>2014-02-16T11:09:29Z</time>
      </trkpt>
      <trkpt lat="45.76238" lon="4.82322">
        <ele>254.89</ele>
        <time>2014-02-16T11:09:35Z</time>
      </trkpt>
      <trkpt lat="45.76238" lon="4.82322">
        <ele>257.77</ele>
        <time>2014-02-16T11:09:43Z</time>
      </trkpt>
      <trkpt lat="45.76263" lon="4.82334">
        <ele>259.69</ele>
        <time>2014-02-16T11:09:57Z</time>
      </trkpt>
      <trkpt lat="45.76282" lon="4.82327">
        <ele>261.62</ele>
        <time>2014-02-16T11:10:05Z</time>
      </trkpt>
      <trkpt lat="45.76287" lon="4.82309">
        <ele>264.02</ele>
        <time>2014-02-16T11:10:14Z</time>
      </trkpt>
      <trkpt lat="45.76283" lon="4.82307">
        <ele>266.9</ele>
        <time>2014-02-16T11:10:20Z</time>
      </trkpt>
      <trkpt lat="45.76301" lon="4.82274">
        <ele>268.83</ele>
        <time>2014-02-16T11:10:36Z</time>
      </trkpt>
      <trkpt lat="45.76317" lon="4.82219">
        <ele>269.31</ele>
        <time>2014-02-16T11:10:52Z</time>
      </trkpt>
      <trkpt lat="45.76322" lon="4.82212">
        <ele>269.31</ele>
        <time>2014-02-16T11:10:58Z</time>
      </trkpt>
      <trkpt lat="45.76328" lon="4.82214">
        <ele>269.31</ele>
        <time>2014-02-16T11:11:01Z</time>
      </trkpt>
      <trkpt lat="45.76352" lon="4.82212">
        <ele>269.31</ele>
        <time>2014-02-16T11:11:15Z</time>
      </trkpt>
      <trkpt lat="45.76389" lon="4.82216">
        <ele>269.31</ele>
        <time>2014-02-16T11:11:29Z</time>
      </trkpt>
      <trkpt lat="45.76399" lon="4.82185">
        <ele>268.83</ele>
        <time>2014-02-16T11:11:41Z</time>
      </trkpt>
      <trkpt lat="45.76401" lon="4.82173">
        <ele>268.83</ele>
        <time>2014-02-16T11:11:44Z</time>
      </trkpt>
      <trkpt lat="45.76369" lon="4.82141">
        <ele>268.35</ele>
        <time>2014-02-16T11:11:58Z</time>
      </trkpt>
      <trkpt lat="45.76353" lon="4.8212">
        <ele>267.86</ele>
        <time>2014-02-16T11:12:07Z</time>
      </trkpt>
      <trkpt lat="45.76328" lon="4.82083">
        <ele>266.42</ele>
        <time>2014-02-16T11:12:21Z</time>
      </trkpt>
      <trkpt lat="45.76311" lon="4.82044">
        <ele>265.46</ele>
        <time>2014-02-16T11:12:33Z</time>
      </trkpt>
      <trkpt lat="45.76306" lon="4.81997">
        <ele>262.58</ele>
        <time>2014-02-16T11:12:46Z</time>
      </trkpt>
      <trkpt lat="45.76314" lon="4.81962">
        <ele>261.62</ele>
        <time>2014-02-16T11:12:55Z</time>
      </trkpt>
      <trkpt lat="45.76318" lon="4.81935">
        <ele>261.62</ele>
        <time>2014-02-16T11:13:03Z</time>
      </trkpt>
      <trkpt lat="45.76326" lon="4.81903">
        <ele>261.62</ele>
        <time>2014-02-16T11:13:12Z</time>
      </trkpt>
      <trkpt lat="45.76336" lon="4.81863">
        <ele>262.1</ele>
        <time>2014-02-16T11:13:24Z</time>
      </trkpt>
      <trkpt lat="45.76336" lon="4.81856">
        <ele>262.58</ele>
        <time>2014-02-16T11:13:26Z</time>
      </trkpt>
      <trkpt lat="45.76338" lon="4.81821">
        <ele>262.1</ele>
        <time>2014-02-16T11:13:38Z</time>
      </trkpt>
      <trkpt lat="45.76341" lon="4.81778">
        <ele>264.02</ele>
        <time>2014-02-16T11:13:51Z</time>
      </trkpt>
      <trkpt lat="45.76343" lon="4.81736">
        <ele>264.98</ele>
        <time>2014-02-16T11:14:03Z</time>
      </trkpt>
      <trkpt lat="45.76343" lon="4.81698">
        <ele>266.42</ele>
        <time>2014-02-16T11:14:15Z</time>
      </trkpt>
      <trkpt lat="45.76332" lon="4.81652">
        <ele>267.86</ele>
        <time>2014-02-16T11:14:27Z</time>
      </trkpt>
      <trkpt lat="45.76331" lon="4.81607">
        <ele>268.83</ele>
        <time>2014-02-16T11:14:40Z</time>
      </trkpt>
      <trkpt lat="45.7633" lon="4.81556">
        <ele>269.79</ele>
        <time>2014-02-16T11:14:55Z</time>
      </trkpt>
      <trkpt lat="45.76328" lon="4.81513">
        <ele>270.27</ele>
        <time>2014-02-16T11:15:07Z</time>
      </trkpt>
      <trkpt lat="45.76321" lon="4.81476">
        <ele>270.75</ele>
        <time>2014-02-16T11:15:19Z</time>
      </trkpt>
      <trkpt lat="45.76313" lon="4.81436">
        <ele>271.71</ele>
        <time>2014-02-16T11:15:31Z</time>
      </trkpt>
      <trkpt lat="45.76301" lon="4.81394">
        <ele>273.15</ele>
        <time>2014-02-16T11:15:45Z</time>
      </trkpt>
      <trkpt lat="45.76299" lon="4.81352">
        <ele>273.63</ele>
        <time>2014-02-16T11:15:57Z</time>
      </trkpt>
      <trkpt lat="45.76313" lon="4.81332">
        <ele>272.67</ele>
        <time>2014-02-16T11:16:06Z</time>
      </trkpt>
      <trkpt lat="45.76324" lon="4.81323">
        <ele>272.19</ele>
        <time>2014-02-16T11:16:12Z</time>
      </trkpt>
      <trkpt lat="45.76356" lon="4.81328">
        <ele>269.31</ele>
        <time>2014-02-16T11:16:25Z</time>
      </trkpt>
      <trkpt lat="45.76384" lon="4.81319">
        <ele>267.38</ele>
        <time>2014-02-16T11:16:37Z</time>
      </trkpt>
      <trkpt lat="45.76386" lon="4.81317">
        <ele>266.9</ele>
        <time>2014-02-16T11:16:38Z</time>
      </trkpt>
      <trkpt lat="45.7641" lon="4.81289">
        <ele>264.02</ele>
        <time>2014-02-16T11:16:51Z</time>
      </trkpt>
      <trkpt lat="45.76416" lon="4.81286">
        <ele>262.58</ele>
        <time>2014-02-16T11:16:53Z</time>
      </trkpt>
      <trkpt lat="45.76438" lon="4.81265">
        <ele>261.14</ele>
        <time>2014-02-16T11:17:03Z</time>
      </trkpt>
      <trkpt lat="45.76457" lon="4.81241">
        <ele>258.73</ele>
        <time>2014-02-16T11:17:13Z</time>
      </trkpt>
      <trkpt lat="45.76473" lon="4.81215">
        <ele>256.81</ele>
        <time>2014-02-16T11:17:23Z</time>
      </trkpt>
      <trkpt lat="45.76486" lon="4.8118">
        <ele>254.41</ele>
        <time>2014-02-16T11:17:34Z</time>
      </trkpt>
      <trkpt lat="45.76502" lon="4.81129">
        <ele>252</ele>
        <time>2014-02-16T11:17:48Z</time>
      </trkpt>
      <trkpt lat="45.76521" lon="4.81081">
        <ele>250.08</ele>
        <time>2014-02-16T11:18:02Z</time>
      </trkpt>
      <trkpt lat="45.7654" lon="4.81062">
        <ele>248.16</ele>
        <time>2014-02-16T11:18:13Z</time>
      </trkpt>
      <trkpt lat="45.76562" lon="4.8104">
        <ele>245.27</ele>
        <time>2014-02-16T11:18:23Z</time>
      </trkpt>
      <trkpt lat="45.76577" lon="4.81016">
        <ele>243.35</ele>
        <time>2014-02-16T11:18:32Z</time>
      </trkpt>
      <trkpt lat="45.76586" lon="4.80999">
        <ele>241.91</ele>
        <time>2014-02-16T11:18:44Z</time>
      </trkpt>
      <trkpt lat="45.76599" lon="4.81005">
        <ele>240.47</ele>
        <time>2014-02-16T11:18:49Z</time>
      </trkpt>
      <trkpt lat="45.7662" lon="4.80994">
        <ele>239.99</ele>
        <time>2014-02-16T11:18:56Z</time>
      </trkpt>
      <trkpt lat="45.76649" lon="4.80968">
        <ele>236.62</ele>
        <time>2014-02-16T11:19:08Z</time>
      </trkpt>
      <trkpt lat="45.76652" lon="4.80966">
        <ele>236.14</ele>
        <time>2014-02-16T11:19:09Z</time>
      </trkpt>
      <trkpt lat="45.76692" lon="4.80949">
        <ele>233.74</ele>
        <time>2014-02-16T11:19:25Z</time>
      </trkpt>
      <trkpt lat="45.76706" lon="4.80946">
        <ele>232.3</ele>
        <time>2014-02-16T11:19:32Z</time>
      </trkpt>
      <trkpt lat="45.76711" lon="4.80946">
        <ele>232.3</ele>
        <time>2014-02-16T11:19:34Z</time>
      </trkpt>
      <trkpt lat="45.76737" lon="4.80953">
        <ele>230.85</ele>
        <time>2014-02-16T11:19:44Z</time>
      </trkpt>
      <trkpt lat="45.76756" lon="4.80957">
        <ele>228.45</ele>
        <time>2014-02-16T11:19:51Z</time>
      </trkpt>
      <trkpt lat="45.7679" lon="4.80964">
        <ele>227.01</ele>
        <time>2014-02-16T11:20:04Z</time>
      </trkpt>
      <trkpt lat="45.76809" lon="4.80965">
        <ele>224.61</ele>
        <time>2014-02-16T11:20:12Z</time>
      </trkpt>
      <trkpt lat="45.76834" lon="4.80972">
        <ele>223.64</ele>
        <time>2014-02-16T11:20:24Z</time>
      </trkpt>
      <trkpt lat="45.7685" lon="4.80975">
        <ele>221.72</ele>
        <time>2014-02-16T11:20:34Z</time>
      </trkpt>
      <trkpt lat="45.76851" lon="4.80974">
        <ele>222.2</ele>
        <time>2014-02-16T11:20:36Z</time>
      </trkpt>
      <trkpt lat="45.76856" lon="4.80971">
        <ele>221.72</ele>
        <time>2014-02-16T11:20:42Z</time>
      </trkpt>
      <trkpt lat="45.76878" lon="4.80976">
        <ele>219.32</ele>
        <time>2014-02-16T11:20:54Z</time>
      </trkpt>
      <trkpt lat="45.7691" lon="4.80979">
        <ele>218.36</ele>
        <time>2014-02-16T11:21:06Z</time>
      </trkpt>
      <trkpt lat="45.76913" lon="4.80979">
        <ele>218.36</ele>
        <time>2014-02-16T11:21:07Z</time>
      </trkpt>
      <trkpt lat="45.7694" lon="4.80995">
        <ele>215.95</ele>
        <time>2014-02-16T11:21:19Z</time>
      </trkpt>
      <trkpt lat="45.76971" lon="4.81004">
        <ele>213.07</ele>
        <time>2014-02-16T11:21:32Z</time>
      </trkpt>
      <trkpt lat="45.77" lon="4.80988">
        <ele>210.19</ele>
        <time>2014-02-16T11:21:44Z</time>
      </trkpt>
      <trkpt lat="45.7699" lon="4.80963">
        <ele>208.74</ele>
        <time>2014-02-16T11:21:53Z</time>
      </trkpt>
      <trkpt lat="45.76983" lon="4.80928">
        <ele>207.3</ele>
        <time>2014-02-16T11:22:03Z</time>
      </trkpt>
      <trkpt lat="45.77008" lon="4.8091">
        <ele>206.34</ele>
        <time>2014-02-16T11:22:12Z</time>
      </trkpt>
      <trkpt lat="45.77028" lon="4.80914">
        <ele>205.38</ele>
        <time>2014-02-16T11:22:19Z</time>
      </trkpt>
      <trkpt lat="45.77049" lon="4.80932">
        <ele>203.94</ele>
        <time>2014-02-16T11:22:30Z</time>
      </trkpt>
      <trkpt lat="45.77075" lon="4.80939">
        <ele>202.49</ele>
        <time>2014-02-16T11:22:42Z</time>
      </trkpt>
      <trkpt lat="45.77088" lon="4.80944">
        <ele>200.57</ele>
        <time>2014-02-16T11:22:48Z</time>
      </trkpt>
      <trkpt lat="45.77114" lon="4.80948">
        <ele>199.61</ele>
        <time>2014-02-16T11:22:58Z</time>
      </trkpt>
      <trkpt lat="45.7715" lon="4.80951">
        <ele>197.69</ele>
        <time>2014-02-16T11:23:11Z</time>
      </trkpt>
      <trkpt lat="45.7716" lon="4.80952">
        <ele>196.73</ele>
        <time>2014-02-16T11:23:15Z</time>
      </trkpt>
      <trkpt lat="45.77184" lon="4.80957">
        <ele>194.8</ele>
        <time>2014-02-16T11:23:24Z</time>
      </trkpt>
      <trkpt lat="45.77208" lon="4.80964">
        <ele>194.32</ele>
        <time>2014-02-16T11:23:32Z</time>
      </trkpt>
      <trkpt lat="45.7722" lon="4.80966">
        <ele>193.36</ele>
        <time>2014-02-16T11:23:37Z</time>
      </trkpt>
      <trkpt lat="45.77232" lon="4.8094">
        <ele>189.52</ele>
        <time>2014-02-16T11:23:48Z</time>
      </trkpt>
      <trkpt lat="45.7723" lon="4.80938">
        <ele>189.52</ele>
        <time>2014-02-16T11:23:49Z</time>
      </trkpt>
      <trkpt lat="45.77223" lon="4.80932">
        <ele>187.11</ele>
        <time>2014-02-16T11:23:53Z</time>
      </trkpt>
      <trkpt lat="45.77205" lon="4.80933">
        <ele>184.23</ele>
        <time>2014-02-16T11:24:02Z</time>
      </trkpt>
      <trkpt lat="45.7719" lon="4.80917">
        <ele>182.79</ele>
        <time>2014-02-16T11:24:13Z</time>
      </trkpt>
      <trkpt lat="45.7718" lon="4.80903">
        <ele>179.42</ele>
        <time>2014-02-16T11:24:21Z</time>
      </trkpt>
      <trkpt lat="45.77183" lon="4.80894">
        <ele>176.54</ele>
        <time>2014-02-16T11:24:25Z</time>
      </trkpt>
      <trkpt lat="45.77184" lon="4.80893">
        <ele>176.54</ele>
        <time>2014-02-16T11:24:26Z</time>
      </trkpt>
      <trkpt lat="45.77188" lon="4.80885">
        <ele>173.17</ele>
        <time>2014-02-16T11:24:31Z</time>
      </trkpt>
      <trkpt lat="45.77194" lon="4.80878">
        <ele>169.81</ele>
        <time>2014-02-16T11:24:36Z</time>
      </trkpt>
      <trkpt lat="45.77196" lon="4.80876">
        <ele>169.33</ele>
        <time>2014-02-16T11:24:38Z</time>
      </trkpt>
      <trkpt lat="45.77208" lon="4.80867">
        <ele>165.96</ele>
        <time>2014-02-16T11:24:47Z</time>
      </trkpt>
      <trkpt lat="45.77225" lon="4.80861">
        <ele>163.08</ele>
        <time>2014-02-16T11:24:56Z</time>
      </trkpt>
      <trkpt lat="45.77249" lon="4.80852">
        <ele>160.68</ele>
        <time>2014-02-16T11:25:10Z</time>
      </trkpt>
      <trkpt lat="45.77268" lon="4.80846">
        <ele>159.72</ele>
        <time>2014-02-16T11:25:19Z</time>
      </trkpt>
      <trkpt lat="45.77283" lon="4.80844">
        <ele>159.24</ele>
        <time>2014-02-16T11:25:25Z</time>
      </trkpt>
      <trkpt lat="45.77313" lon="4.80824">
        <ele>156.83</ele>
        <time>2014-02-16T11:25:39Z</time>
      </trkpt>
      <trkpt lat="45.77341" lon="4.80829">
        <ele>155.39</ele>
        <time>2014-02-16T11:25:52Z</time>
      </trkpt>
      <trkpt lat="45.77358" lon="4.80864">
        <ele>154.91</ele>
        <time>2014-02-16T11:26:04Z</time>
      </trkpt>
      <trkpt lat="45.77373" lon="4.80893">
        <ele>154.43</ele>
        <time>2014-02-16T11:26:18Z</time>
      </trkpt>
      <trkpt lat="45.77372" lon="4.80894">
        <ele>154.43</ele>
        <time>2014-02-16T11:26:33Z</time>
      </trkpt>
      <trkpt lat="45.77385" lon="4.80929">
        <ele>154.91</ele>
        <time>2014-02-16T11:26:45Z</time>
      </trkpt>
      <trkpt lat="45.7739" lon="4.80942">
        <ele>154.91</ele>
        <time>2014-02-16T11:26:53Z</time>
      </trkpt>
      <trkpt lat="45.77397" lon="4.80942">
        <ele>155.39</ele>
        <time>2014-02-16T11:26:57Z</time>
      </trkpt>
      <trkpt lat="45.77419" lon="4.80925">
        <ele>154.43</ele>
        <time>2014-02-16T11:27:10Z</time>
      </trkpt>
      <trkpt lat="45.77435" lon="4.80909">
        <ele>154.91</ele>
        <time>2014-02-16T11:27:20Z</time>
      </trkpt>
      <trkpt lat="45.77471" lon="4.80883">
        <ele>154.91</ele>
        <time>2014-02-16T11:27:34Z</time>
      </trkpt>
      <trkpt lat="45.77477" lon="4.8088">
        <ele>154.91</ele>
        <time>2014-02-16T11:27:36Z</time>
      </trkpt>
      <trkpt lat="45.77486" lon="4.80895">
        <ele>156.83</ele>
        <time>2014-02-16T11:27:43Z</time>
      </trkpt>
      <trkpt lat="45.77483" lon="4.80942">
        <ele>157.79</ele>
        <time>2014-02-16T11:27:57Z</time>
      </trkpt>
      <trkpt lat="45.77481" lon="4.80983">
        <ele>157.79</ele>
        <time>2014-02-16T11:28:08Z</time>
      </trkpt>
      <trkpt lat="45.77476" lon="4.81033">
        <ele>156.83</ele>
        <time>2014-02-16T11:28:22Z</time>
      </trkpt>
      <trkpt lat="45.77473" lon="4.81077">
        <ele>156.83</ele>
        <time>2014-02-16T11:28:35Z</time>
      </trkpt>
      <trkpt lat="45.77467" lon="4.81105">
        <ele>155.87</ele>
        <time>2014-02-16T11:28:47Z</time>
      </trkpt>
      <trkpt lat="45.77476" lon="4.81106">
        <ele>156.35</ele>
        <time>2014-02-16T11:29:11Z</time>
      </trkpt>
      <trkpt lat="45.77492" lon="4.81135">
        <ele>155.39</ele>
        <time>2014-02-16T11:29:23Z</time>
      </trkpt>
      <trkpt lat="45.77492" lon="4.81143">
        <ele>155.87</ele>
        <time>2014-02-16T11:29:26Z</time>
      </trkpt>
      <trkpt lat="45.77491" lon="4.81202">
        <ele>155.87</ele>
        <time>2014-02-16T11:29:45Z</time>
      </trkpt>
      <trkpt lat="45.77486" lon="4.81244">
        <ele>155.87</ele>
        <time>2014-02-16T11:29:58Z</time>
      </trkpt>
      <trkpt lat="45.77486" lon="4.81284">
        <ele>157.31</ele>
        <time>2014-02-16T11:30:11Z</time>
      </trkpt>
      <trkpt lat="45.77481" lon="4.81332">
        <ele>156.35</ele>
        <time>2014-02-16T11:30:25Z</time>
      </trkpt>
      <trkpt lat="45.7748" lon="4.81379">
        <ele>157.31</ele>
        <time>2014-02-16T11:30:39Z</time>
      </trkpt>
      <trkpt lat="45.77486" lon="4.81425">
        <ele>155.87</ele>
        <time>2014-02-16T11:30:53Z</time>
      </trkpt>
      <trkpt lat="45.77509" lon="4.81532">
        <ele>156.35</ele>
        <time>2014-02-16T11:31:15Z</time>
      </trkpt>
    </trkseg>
  </trk>
  <trk>
    <name><![CDATA[ACTIVE LOG: 16 FEV 2014 12:31]]></name>
    <trkseg>
      <trkpt lat="45.77522" lon="4.81594">
        <ele>156.35</ele>
        <time>2014-02-16T11:31:28Z</time>
      </trkpt>
      <trkpt lat="45.77522" lon="4.81594">
        <ele>156.83</ele>
        <time>2014-02-16T11:41:02Z</time>
      </trkpt>
      <trkpt lat="45.77299" lon="4.83682">
        <ele>139.05</ele>
        <time>2014-02-16T11:41:06Z</time>
      </trkpt>
      <trkpt lat="45.77297" lon="4.83687">
        <ele>139.05</ele>
        <time>2014-02-16T11:41:07Z</time>
      </trkpt>
      <trkpt lat="45.77286" lon="4.83757">
        <ele>140.01</ele>
        <time>2014-02-16T11:41:19Z</time>
      </trkpt>
      <trkpt lat="45.77284" lon="4.83783">
        <ele>140.49</ele>
        <time>2014-02-16T11:41:27Z</time>
      </trkpt>
      <trkpt lat="45.7728" lon="4.83816">
        <ele>141.93</ele>
        <time>2014-02-16T11:41:35Z</time>
      </trkpt>
      <trkpt lat="45.7728" lon="4.8382">
        <ele>141.93</ele>
        <time>2014-02-16T11:41:36Z</time>
      </trkpt>
      <trkpt lat="45.77276" lon="4.83861">
        <ele>142.89</ele>
        <time>2014-02-16T11:41:45Z</time>
      </trkpt>
      <trkpt lat="45.77265" lon="4.83888">
        <ele>143.85</ele>
        <time>2014-02-16T11:41:55Z</time>
      </trkpt>
      <trkpt lat="45.77262" lon="4.83923">
        <ele>143.85</ele>
        <time>2014-02-16T11:42:04Z</time>
      </trkpt>
      <trkpt lat="45.77256" lon="4.83957">
        <ele>144.34</ele>
        <time>2014-02-16T11:42:14Z</time>
      </trkpt>
      <trkpt lat="45.77255" lon="4.83989">
        <ele>143.85</ele>
        <time>2014-02-16T11:42:22Z</time>
      </trkpt>
      <trkpt lat="45.77251" lon="4.84036">
        <ele>143.85</ele>
        <time>2014-02-16T11:42:35Z</time>
      </trkpt>
      <trkpt lat="45.77247" lon="4.84076">
        <ele>143.37</ele>
        <time>2014-02-16T11:42:45Z</time>
      </trkpt>
      <trkpt lat="45.77248" lon="4.84113">
        <ele>142.89</ele>
        <time>2014-02-16T11:42:54Z</time>
      </trkpt>
      <trkpt lat="45.77248" lon="4.84145">
        <ele>141.93</ele>
        <time>2014-02-16T11:43:02Z</time>
      </trkpt>
      <trkpt lat="45.77243" lon="4.84153">
        <ele>141.45</ele>
        <time>2014-02-16T11:43:08Z</time>
      </trkpt>
      <trkpt lat="45.77238" lon="4.84148">
        <ele>141.93</ele>
        <time>2014-02-16T11:43:10Z</time>
      </trkpt>
      <trkpt lat="45.77244" lon="4.84172">
        <ele>141.45</ele>
        <time>2014-02-16T11:43:18Z</time>
      </trkpt>
      <trkpt lat="45.77248" lon="4.84221">
        <ele>141.45</ele>
        <time>2014-02-16T11:43:30Z</time>
      </trkpt>
      <trkpt lat="45.77256" lon="4.84256">
        <ele>141.45</ele>
        <time>2014-02-16T11:43:40Z</time>
      </trkpt>
      <trkpt lat="45.77273" lon="4.84288">
        <ele>141.93</ele>
        <time>2014-02-16T11:43:49Z</time>
      </trkpt>
      <trkpt lat="45.7723" lon="4.84333">
        <ele>142.41</ele>
        <time>2014-02-16T11:44:03Z</time>
      </trkpt>
      <trkpt lat="45.7719" lon="4.84349">
        <ele>142.89</ele>
        <time>2014-02-16T11:44:17Z</time>
      </trkpt>
      <trkpt lat="45.77187" lon="4.84349">
        <ele>142.89</ele>
        <time>2014-02-16T11:44:18Z</time>
      </trkpt>
      <trkpt lat="45.77179" lon="4.84385">
        <ele>143.37</ele>
        <time>2014-02-16T11:44:29Z</time>
      </trkpt>
      <trkpt lat="45.77175" lon="4.84426">
        <ele>144.34</ele>
        <time>2014-02-16T11:44:41Z</time>
      </trkpt>
      <trkpt lat="45.7717" lon="4.8447">
        <ele>144.82</ele>
        <time>2014-02-16T11:44:56Z</time>
      </trkpt>
      <trkpt lat="45.77179" lon="4.84479">
        <ele>144.82</ele>
        <time>2014-02-16T11:45:00Z</time>
      </trkpt>
      <trkpt lat="45.77171" lon="4.84546">
        <ele>145.3</ele>
        <time>2014-02-16T11:45:12Z</time>
      </trkpt>
      <trkpt lat="45.77166" lon="4.84558">
        <ele>145.78</ele>
        <time>2014-02-16T11:45:14Z</time>
      </trkpt>
      <trkpt lat="45.77163" lon="4.84588">
        <ele>145.78</ele>
        <time>2014-02-16T11:45:26Z</time>
      </trkpt>
      <trkpt lat="45.77161" lon="4.84594">
        <ele>146.26</ele>
        <time>2014-02-16T11:45:29Z</time>
      </trkpt>
      <trkpt lat="45.77167" lon="4.84643">
        <ele>146.74</ele>
        <time>2014-02-16T11:45:42Z</time>
      </trkpt>
      <trkpt lat="45.77174" lon="4.84653">
        <ele>147.7</ele>
        <time>2014-02-16T11:45:56Z</time>
      </trkpt>
    </trkseg>
  </trk>
  <trk>
    <name><![CDATA[ACTIVE LOG: 23 FEV 2014 10:06]]></name>
    <trkseg>
      <trkpt lat="45.77713" lon="4.84515">
        <ele>94.83</ele>
        <time>2014-02-23T09:06:22Z</time>
      </trkpt>
      <trkpt lat="45.77714" lon="4.84518">
        <ele>94.83</ele>
        <time>2014-02-23T09:06:23Z</time>
      </trkpt>
      <trkpt lat="45.77685" lon="4.84565">
        <ele>94.83</ele>
        <time>2014-02-23T09:06:43Z</time>
      </trkpt>
      <trkpt lat="45.77663" lon="4.84603">
        <ele>94.35</ele>
        <time>2014-02-23T09:06:56Z</time>
      </trkpt>
      <trkpt lat="45.77634" lon="4.84646">
        <ele>94.83</ele>
        <time>2014-02-23T09:07:09Z</time>
      </trkpt>
      <trkpt lat="45.77617" lon="4.84684">
        <ele>95.31</ele>
        <time>2014-02-23T09:07:21Z</time>
      </trkpt>
      <trkpt lat="45.77597" lon="4.84725">
        <ele>95.31</ele>
        <time>2014-02-23T09:07:33Z</time>
      </trkpt>
      <trkpt lat="45.77583" lon="4.8477">
        <ele>96.27</ele>
        <time>2014-02-23T09:07:46Z</time>
      </trkpt>
      <trkpt lat="45.77567" lon="4.84806">
        <ele>96.27</ele>
        <time>2014-02-23T09:07:58Z</time>
      </trkpt>
      <trkpt lat="45.77552" lon="4.84863">
        <ele>97.23</ele>
        <time>2014-02-23T09:08:11Z</time>
      </trkpt>
      <trkpt lat="45.77536" lon="4.84908">
        <ele>97.71</ele>
        <time>2014-02-23T09:08:24Z</time>
      </trkpt>
      <trkpt lat="45.77514" lon="4.84946">
        <ele>98.67</ele>
        <time>2014-02-23T09:08:36Z</time>
      </trkpt>
      <trkpt lat="45.77495" lon="4.84987">
        <ele>99.15</ele>
        <time>2014-02-23T09:08:49Z</time>
      </trkpt>
      <trkpt lat="45.77475" lon="4.85027">
        <ele>100.11</ele>
        <time>2014-02-23T09:09:02Z</time>
      </trkpt>
      <trkpt lat="45.77451" lon="4.85072">
        <ele>100.6</ele>
        <time>2014-02-23T09:09:15Z</time>
      </trkpt>
      <trkpt lat="45.77434" lon="4.85111">
        <ele>101.08</ele>
        <time>2014-02-23T09:09:27Z</time>
      </trkpt>
      <trkpt lat="45.77406" lon="4.85138">
        <ele>101.08</ele>
        <time>2014-02-23T09:09:39Z</time>
      </trkpt>
      <trkpt lat="45.7738" lon="4.85148">
        <ele>103</ele>
        <time>2014-02-23T09:09:51Z</time>
      </trkpt>
      <trkpt lat="45.77353" lon="4.85171">
        <ele>102.52</ele>
        <time>2014-02-23T09:10:04Z</time>
      </trkpt>
      <trkpt lat="45.77342" lon="4.85203">
        <ele>103</ele>
        <time>2014-02-23T09:10:12Z</time>
      </trkpt>
      <trkpt lat="45.7734" lon="4.85252">
        <ele>103</ele>
        <time>2014-02-23T09:10:24Z</time>
      </trkpt>
      <trkpt lat="45.77326" lon="4.85292">
        <ele>102.52</ele>
        <time>2014-02-23T09:10:37Z</time>
      </trkpt>
      <trkpt lat="45.77318" lon="4.85326">
        <ele>103</ele>
        <time>2014-02-23T09:10:49Z</time>
      </trkpt>
      <trkpt lat="45.77301" lon="4.85362">
        <ele>103</ele>
        <time>2014-02-23T09:10:59Z</time>
      </trkpt>
      <trkpt lat="45.77304" lon="4.85391">
        <ele>103.96</ele>
        <time>2014-02-23T09:11:10Z</time>
      </trkpt>
      <trkpt lat="45.77319" lon="4.85403">
        <ele>103.96</ele>
        <time>2014-02-23T09:11:15Z</time>
      </trkpt>
      <trkpt lat="45.77355" lon="4.85423">
        <ele>103.48</ele>
        <time>2014-02-23T09:11:29Z</time>
      </trkpt>
      <trkpt lat="45.77366" lon="4.85457">
        <ele>103.96</ele>
        <time>2014-02-23T09:11:42Z</time>
      </trkpt>
      <trkpt lat="45.77373" lon="4.85496">
        <ele>103.96</ele>
        <time>2014-02-23T09:11:53Z</time>
      </trkpt>
      <trkpt lat="45.77377" lon="4.85534">
        <ele>103.96</ele>
        <time>2014-02-23T09:12:03Z</time>
      </trkpt>
      <trkpt lat="45.77392" lon="4.85559">
        <ele>103.48</ele>
        <time>2014-02-23T09:12:10Z</time>
      </trkpt>
      <trkpt lat="45.77408" lon="4.85577">
        <ele>103</ele>
        <time>2014-02-23T09:12:19Z</time>
      </trkpt>
      <trkpt lat="45.77415" lon="4.85624">
        <ele>103.96</ele>
        <time>2014-02-23T09:12:33Z</time>
      </trkpt>
      <trkpt lat="45.77429" lon="4.85664">
        <ele>103.96</ele>
        <time>2014-02-23T09:12:46Z</time>
      </trkpt>
      <trkpt lat="45.7745" lon="4.85688">
        <ele>103.96</ele>
        <time>2014-02-23T09:12:56Z</time>
      </trkpt>
      <trkpt lat="45.7749" lon="4.85709">
        <ele>103.48</ele>
        <time>2014-02-23T09:13:11Z</time>
      </trkpt>
      <trkpt lat="45.77529" lon="4.85724">
        <ele>103</ele>
        <time>2014-02-23T09:13:26Z</time>
      </trkpt>
      <trkpt lat="45.7757" lon="4.85733">
        <ele>102.04</ele>
        <time>2014-02-23T09:13:38Z</time>
      </trkpt>
      <trkpt lat="45.77592" lon="4.85755">
        <ele>102.04</ele>
        <time>2014-02-23T09:13:50Z</time>
      </trkpt>
      <trkpt lat="45.77616" lon="4.85782">
        <ele>102.04</ele>
        <time>2014-02-23T09:14:04Z</time>
      </trkpt>
      <trkpt lat="45.77637" lon="4.85803">
        <ele>102.52</ele>
        <time>2014-02-23T09:14:14Z</time>
      </trkpt>
      <trkpt lat="45.77664" lon="4.85825">
        <ele>102.04</ele>
        <time>2014-02-23T09:14:24Z</time>
      </trkpt>
      <trkpt lat="45.77672" lon="4.85841">
        <ele>102.52</ele>
        <time>2014-02-23T09:14:31Z</time>
      </trkpt>
      <trkpt lat="45.77687" lon="4.85855">
        <ele>102.04</ele>
        <time>2014-02-23T09:14:37Z</time>
      </trkpt>
      <trkpt lat="45.77716" lon="4.85852">
        <ele>102.52</ele>
        <time>2014-02-23T09:14:43Z</time>
      </trkpt>
      <trkpt lat="45.77741" lon="4.85847">
        <ele>102.52</ele>
        <time>2014-02-23T09:14:49Z</time>
      </trkpt>
      <trkpt lat="45.77753" lon="4.85849">
        <ele>102.52</ele>
        <time>2014-02-23T09:14:52Z</time>
      </trkpt>
      <trkpt lat="45.77762" lon="4.85848">
        <ele>102.52</ele>
        <time>2014-02-23T09:14:55Z</time>
      </trkpt>
      <trkpt lat="45.77781" lon="4.85833">
        <ele>102.52</ele>
        <time>2014-02-23T09:15:03Z</time>
      </trkpt>
      <trkpt lat="45.77816" lon="4.85847">
        <ele>102.52</ele>
        <time>2014-02-23T09:15:13Z</time>
      </trkpt>
      <trkpt lat="45.77835" lon="4.85854">
        <ele>102.04</ele>
        <time>2014-02-23T09:15:18Z</time>
      </trkpt>
      <trkpt lat="45.7786" lon="4.85869">
        <ele>103.48</ele>
        <time>2014-02-23T09:15:28Z</time>
      </trkpt>
      <trkpt lat="45.77864" lon="4.85873">
        <ele>103.48</ele>
        <time>2014-02-23T09:15:30Z</time>
      </trkpt>
      <trkpt lat="45.77889" lon="4.85872">
        <ele>102.52</ele>
        <time>2014-02-23T09:15:36Z</time>
      </trkpt>
      <trkpt lat="45.77914" lon="4.85872">
        <ele>103.48</ele>
        <time>2014-02-23T09:15:47Z</time>
      </trkpt>
      <trkpt lat="45.77942" lon="4.85876">
        <ele>103.96</ele>
        <time>2014-02-23T09:15:56Z</time>
      </trkpt>
      <trkpt lat="45.77946" lon="4.85877">
        <ele>103.96</ele>
        <time>2014-02-23T09:15:58Z</time>
      </trkpt>
      <trkpt lat="45.7799" lon="4.85876">
        <ele>104.44</ele>
        <time>2014-02-23T09:16:09Z</time>
      </trkpt>
      <trkpt lat="45.77996" lon="4.85875">
        <ele>104.44</ele>
        <time>2014-02-23T09:16:12Z</time>
      </trkpt>
      <trkpt lat="45.78019" lon="4.85869">
        <ele>105.4</ele>
        <time>2014-02-23T09:16:22Z</time>
      </trkpt>
      <trkpt lat="45.78026" lon="4.85868">
        <ele>105.4</ele>
        <time>2014-02-23T09:16:24Z</time>
      </trkpt>
      <trkpt lat="45.78059" lon="4.85869">
        <ele>106.36</ele>
        <time>2014-02-23T09:16:35Z</time>
      </trkpt>
      <trkpt lat="45.78085" lon="4.85871">
        <ele>106.84</ele>
        <time>2014-02-23T09:16:45Z</time>
      </trkpt>
      <trkpt lat="45.78116" lon="4.85868">
        <ele>107.32</ele>
        <time>2014-02-23T09:16:56Z</time>
      </trkpt>
      <trkpt lat="45.78148" lon="4.85863">
        <ele>108.29</ele>
        <time>2014-02-23T09:17:08Z</time>
      </trkpt>
      <trkpt lat="45.78177" lon="4.85859">
        <ele>108.77</ele>
        <time>2014-02-23T09:17:18Z</time>
      </trkpt>
      <trkpt lat="45.78194" lon="4.85853">
        <ele>108.77</ele>
        <time>2014-02-23T09:17:26Z</time>
      </trkpt>
      <trkpt lat="45.78221" lon="4.85876">
        <ele>110.21</ele>
        <time>2014-02-23T09:17:37Z</time>
      </trkpt>
      <trkpt lat="45.78249" lon="4.85885">
        <ele>110.69</ele>
        <time>2014-02-23T09:17:47Z</time>
      </trkpt>
      <trkpt lat="45.78293" lon="4.85876">
        <ele>111.17</ele>
        <time>2014-02-23T09:17:59Z</time>
      </trkpt>
      <trkpt lat="45.78295" lon="4.85877">
        <ele>111.17</ele>
        <time>2014-02-23T09:18:00Z</time>
      </trkpt>
      <trkpt lat="45.78323" lon="4.85872">
        <ele>111.17</ele>
        <time>2014-02-23T09:18:11Z</time>
      </trkpt>
      <trkpt lat="45.7836" lon="4.85875">
        <ele>111.17</ele>
        <time>2014-02-23T09:18:22Z</time>
      </trkpt>
      <trkpt lat="45.7838" lon="4.85887">
        <ele>113.09</ele>
        <time>2014-02-23T09:18:33Z</time>
      </trkpt>
      <trkpt lat="45.78417" lon="4.85897">
        <ele>114.53</ele>
        <time>2014-02-23T09:18:47Z</time>
      </trkpt>
      <trkpt lat="45.78452" lon="4.85905">
        <ele>115.98</ele>
        <time>2014-02-23T09:18:59Z</time>
      </trkpt>
      <trkpt lat="45.78461" lon="4.85881">
        <ele>116.94</ele>
        <time>2014-02-23T09:19:05Z</time>
      </trkpt>
      <trkpt lat="45.78468" lon="4.85848">
        <ele>116.94</ele>
        <time>2014-02-23T09:19:15Z</time>
      </trkpt>
      <trkpt lat="45.78475" lon="4.85796">
        <ele>116.94</ele>
        <time>2014-02-23T09:19:29Z</time>
      </trkpt>
      <trkpt lat="45.78471" lon="4.85742">
        <ele>115.98</ele>
        <time>2014-02-23T09:19:43Z</time>
      </trkpt>
      <trkpt lat="45.78447" lon="4.85688">
        <ele>115.01</ele>
        <time>2014-02-23T09:19:55Z</time>
      </trkpt>
      <trkpt lat="45.7843" lon="4.85645">
        <ele>115.5</ele>
        <time>2014-02-23T09:20:06Z</time>
      </trkpt>
      <trkpt lat="45.78443" lon="4.85623">
        <ele>116.94</ele>
        <time>2014-02-23T09:20:14Z</time>
      </trkpt>
      <trkpt lat="45.78445" lon="4.8562">
        <ele>117.42</ele>
        <time>2014-02-23T09:20:15Z</time>
      </trkpt>
      <trkpt lat="45.78458" lon="4.85582">
        <ele>117.42</ele>
        <time>2014-02-23T09:20:27Z</time>
      </trkpt>
      <trkpt lat="45.78463" lon="4.85572">
        <ele>117.42</ele>
        <time>2014-02-23T09:20:30Z</time>
      </trkpt>
      <trkpt lat="45.78461" lon="4.85537">
        <ele>118.86</ele>
        <time>2014-02-23T09:20:39Z</time>
      </trkpt>
      <trkpt lat="45.78451" lon="4.85481">
        <ele>119.34</ele>
        <time>2014-02-23T09:20:53Z</time>
      </trkpt>
      <trkpt lat="45.78441" lon="4.85429">
        <ele>120.3</ele>
        <time>2014-02-23T09:21:07Z</time>
      </trkpt>
      <trkpt lat="45.7844" lon="4.85397">
        <ele>120.78</ele>
        <time>2014-02-23T09:21:16Z</time>
      </trkpt>
      <trkpt lat="45.78414" lon="4.85341">
        <ele>122.22</ele>
        <time>2014-02-23T09:21:31Z</time>
      </trkpt>
      <trkpt lat="45.78391" lon="4.85291">
        <ele>123.67</ele>
        <time>2014-02-23T09:21:46Z</time>
      </trkpt>
      <trkpt lat="45.78384" lon="4.85267">
        <ele>123.67</ele>
        <time>2014-02-23T09:21:54Z</time>
      </trkpt>
      <trkpt lat="45.78368" lon="4.85237">
        <ele>124.63</ele>
        <time>2014-02-23T09:22:03Z</time>
      </trkpt>
      <trkpt lat="45.78354" lon="4.85207">
        <ele>125.11</ele>
        <time>2014-02-23T09:22:14Z</time>
      </trkpt>
      <trkpt lat="45.78344" lon="4.85187">
        <ele>125.11</ele>
        <time>2014-02-23T09:22:26Z</time>
      </trkpt>
      <trkpt lat="45.78333" lon="4.85157">
        <ele>126.55</ele>
        <time>2014-02-23T09:22:41Z</time>
      </trkpt>
      <trkpt lat="45.78314" lon="4.85122">
        <ele>127.03</ele>
        <time>2014-02-23T09:22:54Z</time>
      </trkpt>
      <trkpt lat="45.78288" lon="4.85078">
        <ele>128.47</ele>
        <time>2014-02-23T09:23:05Z</time>
      </trkpt>
      <trkpt lat="45.78273" lon="4.85038">
        <ele>128.95</ele>
        <time>2014-02-23T09:23:18Z</time>
      </trkpt>
      <trkpt lat="45.78252" lon="4.85013">
        <ele>130.88</ele>
        <time>2014-02-23T09:23:31Z</time>
      </trkpt>
      <trkpt lat="45.78227" lon="4.84999">
        <ele>131.36</ele>
        <time>2014-02-23T09:23:46Z</time>
      </trkpt>
      <trkpt lat="45.78219" lon="4.84976">
        <ele>131.36</ele>
        <time>2014-02-23T09:23:56Z</time>
      </trkpt>
      <trkpt lat="45.78211" lon="4.84947">
        <ele>133.76</ele>
        <time>2014-02-23T09:24:13Z</time>
      </trkpt>
      <trkpt lat="45.78206" lon="4.84941">
        <ele>133.28</ele>
        <time>2014-02-23T09:24:18Z</time>
      </trkpt>
      <trkpt lat="45.78183" lon="4.84915">
        <ele>131.84</ele>
        <time>2014-02-23T09:24:32Z</time>
      </trkpt>
      <trkpt lat="45.78146" lon="4.84874">
        <ele>131.84</ele>
        <time>2014-02-23T09:24:45Z</time>
      </trkpt>
      <trkpt lat="45.78121" lon="4.84853">
        <ele>132.8</ele>
        <time>2014-02-23T09:24:57Z</time>
      </trkpt>
      <trkpt lat="45.78095" lon="4.84821">
        <ele>132.8</ele>
        <time>2014-02-23T09:25:12Z</time>
      </trkpt>
      <trkpt lat="45.78062" lon="4.84792">
        <ele>133.28</ele>
        <time>2014-02-23T09:25:26Z</time>
      </trkpt>
      <trkpt lat="45.78028" lon="4.84763">
        <ele>133.28</ele>
        <time>2014-02-23T09:25:40Z</time>
      </trkpt>
      <trkpt lat="45.77991" lon="4.84736">
        <ele>135.2</ele>
        <time>2014-02-23T09:25:54Z</time>
      </trkpt>
      <trkpt lat="45.77966" lon="4.84719">
        <ele>135.2</ele>
        <time>2014-02-23T09:26:08Z</time>
      </trkpt>
      <trkpt lat="45.77941" lon="4.84694">
        <ele>136.16</ele>
        <time>2014-02-23T09:26:20Z</time>
      </trkpt>
      <trkpt lat="45.7788" lon="4.84648">
        <ele>138.09</ele>
        <time>2014-02-23T09:26:34Z</time>
      </trkpt>
      <trkpt lat="45.7781" lon="4.8462">
        <ele>136.64</ele>
        <time>2014-02-23T09:26:47Z</time>
      </trkpt>
      <trkpt lat="45.77819" lon="4.84578">
        <ele>139.05</ele>
        <time>2014-02-23T09:26:57Z</time>
      </trkpt>
      <trkpt lat="45.77822" lon="4.84572">
        <ele>139.05</ele>
        <time>2014-02-23T09:26:59Z</time>
      </trkpt>
      <trkpt lat="45.77842" lon="4.84546">
        <ele>140.01</ele>
        <time>2014-02-23T09:27:10Z</time>
      </trkpt>
      <trkpt lat="45.77809" lon="4.84463">
        <ele>141.93</ele>
        <time>2014-02-23T09:27:20Z</time>
      </trkpt>
      <trkpt lat="45.7782" lon="4.84449">
        <ele>141.93</ele>
        <time>2014-02-23T09:27:29Z</time>
      </trkpt>
      <trkpt lat="45.77822" lon="4.84443">
        <ele>141.93</ele>
        <time>2014-02-23T09:27:31Z</time>
      </trkpt>
      <trkpt lat="45.77829" lon="4.8441">
        <ele>143.85</ele>
        <time>2014-02-23T09:27:41Z</time>
      </trkpt>
      <trkpt lat="45.77837" lon="4.84373">
        <ele>144.34</ele>
        <time>2014-02-23T09:27:53Z</time>
      </trkpt>
      <trkpt lat="45.77846" lon="4.84343">
        <ele>147.22</ele>
        <time>2014-02-23T09:28:02Z</time>
      </trkpt>
      <trkpt lat="45.77857" lon="4.84322">
        <ele>147.22</ele>
        <time>2014-02-23T09:28:09Z</time>
      </trkpt>
      <trkpt lat="45.77876" lon="4.8429">
        <ele>147.7</ele>
        <time>2014-02-23T09:28:20Z</time>
      </trkpt>
      <trkpt lat="45.77886" lon="4.84267">
        <ele>147.7</ele>
        <time>2014-02-23T09:28:27Z</time>
      </trkpt>
      <trkpt lat="45.77893" lon="4.84243">
        <ele>147.22</ele>
        <time>2014-02-23T09:28:34Z</time>
      </trkpt>
      <trkpt lat="45.77898" lon="4.84213">
        <ele>147.22</ele>
        <time>2014-02-23T09:28:42Z</time>
      </trkpt>
      <trkpt lat="45.77909" lon="4.84177">
        <ele>147.22</ele>
        <time>2014-02-23T09:28:53Z</time>
      </trkpt>
      <trkpt lat="45.77918" lon="4.84161">
        <ele>147.22</ele>
        <time>2014-02-23T09:28:59Z</time>
      </trkpt>
      <trkpt lat="45.77934" lon="4.84136">
        <ele>146.74</ele>
        <time>2014-02-23T09:29:09Z</time>
      </trkpt>
      <trkpt lat="45.77937" lon="4.84136">
        <ele>146.74</ele>
        <time>2014-02-23T09:29:10Z</time>
      </trkpt>
      <trkpt lat="45.77966" lon="4.84146">
        <ele>145.3</ele>
        <time>2014-02-23T09:29:18Z</time>
      </trkpt>
      <trkpt lat="45.77974" lon="4.84149">
        <ele>145.3</ele>
        <time>2014-02-23T09:29:21Z</time>
      </trkpt>
      <trkpt lat="45.77986" lon="4.84149">
        <ele>145.3</ele>
        <time>2014-02-23T09:29:25Z</time>
      </trkpt>
      <trkpt lat="45.78025" lon="4.84167">
        <ele>145.78</ele>
        <time>2014-02-23T09:29:40Z</time>
      </trkpt>
      <trkpt lat="45.78046" lon="4.84176">
        <ele>145.78</ele>
        <time>2014-02-23T09:29:47Z</time>
      </trkpt>
      <trkpt lat="45.78072" lon="4.84188">
        <ele>146.26</ele>
        <time>2014-02-23T09:29:59Z</time>
      </trkpt>
      <trkpt lat="45.781" lon="4.8421">
        <ele>145.78</ele>
        <time>2014-02-23T09:30:12Z</time>
      </trkpt>
      <trkpt lat="45.78128" lon="4.84227">
        <ele>146.74</ele>
        <time>2014-02-23T09:30:23Z</time>
      </trkpt>
      <trkpt lat="45.78162" lon="4.8424">
        <ele>145.78</ele>
        <time>2014-02-23T09:30:35Z</time>
      </trkpt>
      <trkpt lat="45.78185" lon="4.8426">
        <ele>146.74</ele>
        <time>2014-02-23T09:30:46Z</time>
      </trkpt>
      <trkpt lat="45.78203" lon="4.84271">
        <ele>146.74</ele>
        <time>2014-02-23T09:30:54Z</time>
      </trkpt>
      <trkpt lat="45.78209" lon="4.84275">
        <ele>146.74</ele>
        <time>2014-02-23T09:30:56Z</time>
      </trkpt>
      <trkpt lat="45.78218" lon="4.84279">
        <ele>146.74</ele>
        <time>2014-02-23T09:30:59Z</time>
      </trkpt>
      <trkpt lat="45.78227" lon="4.84291">
        <ele>146.26</ele>
        <time>2014-02-23T09:31:03Z</time>
      </trkpt>
      <trkpt lat="45.78233" lon="4.84293">
        <ele>145.78</ele>
        <time>2014-02-23T09:31:05Z</time>
      </trkpt>
      <trkpt lat="45.78237" lon="4.84302">
        <ele>145.78</ele>
        <time>2014-02-23T09:31:07Z</time>
      </trkpt>
      <trkpt lat="45.78256" lon="4.84323">
        <ele>146.26</ele>
        <time>2014-02-23T09:31:17Z</time>
      </trkpt>
      <trkpt lat="45.78266" lon="4.84334">
        <ele>146.26</ele>
        <time>2014-02-23T09:31:21Z</time>
      </trkpt>
      <trkpt lat="45.7827" lon="4.84342">
        <ele>146.26</ele>
        <time>2014-02-23T09:31:23Z</time>
      </trkpt>
      <trkpt lat="45.78277" lon="4.84347">
        <ele>146.74</ele>
        <time>2014-02-23T09:31:26Z</time>
      </trkpt>
      <trkpt lat="45.78291" lon="4.8437">
        <ele>146.26</ele>
        <time>2014-02-23T09:31:34Z</time>
      </trkpt>
      <trkpt lat="45.78306" lon="4.84384">
        <ele>146.74</ele>
        <time>2014-02-23T09:31:40Z</time>
      </trkpt>
      <trkpt lat="45.78315" lon="4.84393">
        <ele>146.26</ele>
        <time>2014-02-23T09:31:43Z</time>
      </trkpt>
      <trkpt lat="45.78322" lon="4.84402">
        <ele>146.26</ele>
        <time>2014-02-23T09:31:47Z</time>
      </trkpt>
      <trkpt lat="45.78356" lon="4.84452">
        <ele>145.78</ele>
        <time>2014-02-23T09:32:03Z</time>
      </trkpt>
      <trkpt lat="45.78374" lon="4.84487">
        <ele>146.74</ele>
        <time>2014-02-23T09:32:12Z</time>
      </trkpt>
      <trkpt lat="45.78385" lon="4.84504">
        <ele>146.26</ele>
        <time>2014-02-23T09:32:18Z</time>
      </trkpt>
      <trkpt lat="45.78406" lon="4.84523">
        <ele>145.78</ele>
        <time>2014-02-23T09:32:26Z</time>
      </trkpt>
      <trkpt lat="45.78423" lon="4.8456">
        <ele>146.26</ele>
        <time>2014-02-23T09:32:35Z</time>
      </trkpt>
      <trkpt lat="45.78434" lon="4.84584">
        <ele>145.3</ele>
        <time>2014-02-23T09:32:42Z</time>
      </trkpt>
      <trkpt lat="45.78455" lon="4.84606">
        <ele>146.26</ele>
        <time>2014-02-23T09:32:51Z</time>
      </trkpt>
      <trkpt lat="45.78475" lon="4.8463">
        <ele>146.26</ele>
        <time>2014-02-23T09:33:01Z</time>
      </trkpt>
      <trkpt lat="45.78486" lon="4.84637">
        <ele>147.22</ele>
        <time>2014-02-23T09:33:05Z</time>
      </trkpt>
      <trkpt lat="45.78503" lon="4.84649">
        <ele>146.74</ele>
        <time>2014-02-23T09:33:13Z</time>
      </trkpt>
      <trkpt lat="45.78519" lon="4.84662">
        <ele>147.22</ele>
        <time>2014-02-23T09:33:21Z</time>
      </trkpt>
      <trkpt lat="45.78527" lon="4.84668">
        <ele>147.22</ele>
        <time>2014-02-23T09:33:27Z</time>
      </trkpt>
      <trkpt lat="45.78542" lon="4.84666">
        <ele>147.7</ele>
        <time>2014-02-23T09:33:39Z</time>
      </trkpt>
      <trkpt lat="45.78545" lon="4.84658">
        <ele>148.66</ele>
        <time>2014-02-23T09:33:44Z</time>
      </trkpt>
      <trkpt lat="45.78546" lon="4.84643">
        <ele>149.62</ele>
        <time>2014-02-23T09:33:55Z</time>
      </trkpt>
      <trkpt lat="45.78546" lon="4.84615">
        <ele>149.62</ele>
        <time>2014-02-23T09:34:12Z</time>
      </trkpt>
      <trkpt lat="45.78547" lon="4.84597">
        <ele>148.66</ele>
        <time>2014-02-23T09:34:31Z</time>
      </trkpt>
      <trkpt lat="45.78549" lon="4.84588">
        <ele>148.66</ele>
        <time>2014-02-23T09:34:46Z</time>
      </trkpt>
      <trkpt lat="45.78549" lon="4.84574">
        <ele>148.66</ele>
        <time>2014-02-23T09:35:03Z</time>
      </trkpt>
      <trkpt lat="45.78553" lon="4.84574">
        <ele>148.18</ele>
        <time>2014-02-23T09:35:19Z</time>
      </trkpt>
      <trkpt lat="45.78556" lon="4.84564">
        <ele>148.18</ele>
        <time>2014-02-23T09:35:30Z</time>
      </trkpt>
      <trkpt lat="45.78567" lon="4.84529">
        <ele>150.58</ele>
        <time>2014-02-23T09:35:40Z</time>
      </trkpt>
      <trkpt lat="45.78594" lon="4.84465">
        <ele>153.95</ele>
        <time>2014-02-23T09:35:54Z</time>
      </trkpt>
      <trkpt lat="45.78621" lon="4.84433">
        <ele>157.31</ele>
        <time>2014-02-23T09:36:06Z</time>
      </trkpt>
      <trkpt lat="45.78626" lon="4.84439">
        <ele>158.27</ele>
        <time>2014-02-23T09:36:08Z</time>
      </trkpt>
      <trkpt lat="45.78641" lon="4.84431">
        <ele>161.64</ele>
        <time>2014-02-23T09:36:17Z</time>
      </trkpt>
      <trkpt lat="45.78644" lon="4.84423">
        <ele>163.56</ele>
        <time>2014-02-23T09:36:23Z</time>
      </trkpt>
      <trkpt lat="45.78653" lon="4.84403">
        <ele>166.45</ele>
        <time>2014-02-23T09:36:36Z</time>
      </trkpt>
      <trkpt lat="45.78656" lon="4.84386">
        <ele>169.33</ele>
        <time>2014-02-23T09:36:44Z</time>
      </trkpt>
      <trkpt lat="45.78685" lon="4.84372">
        <ele>172.21</ele>
        <time>2014-02-23T09:36:56Z</time>
      </trkpt>
      <trkpt lat="45.78733" lon="4.84404">
        <ele>174.14</ele>
        <time>2014-02-23T09:37:04Z</time>
      </trkpt>
      <trkpt lat="45.78764" lon="4.84417">
        <ele>177.5</ele>
        <time>2014-02-23T09:37:16Z</time>
      </trkpt>
      <trkpt lat="45.78777" lon="4.84427">
        <ele>177.5</ele>
        <time>2014-02-23T09:37:24Z</time>
      </trkpt>
      <trkpt lat="45.78798" lon="4.84445">
        <ele>180.87</ele>
        <time>2014-02-23T09:37:37Z</time>
      </trkpt>
      <trkpt lat="45.78817" lon="4.84435">
        <ele>183.27</ele>
        <time>2014-02-23T09:37:49Z</time>
      </trkpt>
      <trkpt lat="45.78818" lon="4.84435">
        <ele>183.27</ele>
        <time>2014-02-23T09:37:50Z</time>
      </trkpt>
      <trkpt lat="45.78802" lon="4.84432">
        <ele>183.27</ele>
        <time>2014-02-23T09:38:02Z</time>
      </trkpt>
      <trkpt lat="45.78766" lon="4.84438">
        <ele>183.75</ele>
        <time>2014-02-23T09:38:15Z</time>
      </trkpt>
      <trkpt lat="45.78746" lon="4.84431">
        <ele>186.15</ele>
        <time>2014-02-23T09:38:27Z</time>
      </trkpt>
      <trkpt lat="45.78735" lon="4.84411">
        <ele>188.56</ele>
        <time>2014-02-23T09:38:39Z</time>
      </trkpt>
      <trkpt lat="45.78735" lon="4.84411">
        <ele>190</ele>
        <time>2014-02-23T09:38:41Z</time>
      </trkpt>
      <trkpt lat="45.78744" lon="4.84403">
        <ele>192.4</ele>
        <time>2014-02-23T09:38:52Z</time>
      </trkpt>
      <trkpt lat="45.78751" lon="4.8439">
        <ele>194.32</ele>
        <time>2014-02-23T09:38:56Z</time>
      </trkpt>
      <trkpt lat="45.78758" lon="4.84386">
        <ele>195.77</ele>
        <time>2014-02-23T09:39:00Z</time>
      </trkpt>
      <trkpt lat="45.78783" lon="4.84374">
        <ele>199.13</ele>
        <time>2014-02-23T09:39:14Z</time>
      </trkpt>
      <trkpt lat="45.78783" lon="4.84365">
        <ele>199.13</ele>
        <time>2014-02-23T09:39:15Z</time>
      </trkpt>
      <trkpt lat="45.78801" lon="4.84315">
        <ele>199.61</ele>
        <time>2014-02-23T09:39:33Z</time>
      </trkpt>
      <trkpt lat="45.78802" lon="4.8431">
        <ele>199.61</ele>
        <time>2014-02-23T09:39:38Z</time>
      </trkpt>
      <trkpt lat="45.78816" lon="4.84294">
        <ele>203.46</ele>
        <time>2014-02-23T09:39:49Z</time>
      </trkpt>
      <trkpt lat="45.78827" lon="4.84277">
        <ele>206.82</ele>
        <time>2014-02-23T09:40:01Z</time>
      </trkpt>
      <trkpt lat="45.78829" lon="4.84278">
        <ele>208.74</ele>
        <time>2014-02-23T09:40:08Z</time>
      </trkpt>
      <trkpt lat="45.78813" lon="4.84336">
        <ele>208.74</ele>
        <time>2014-02-23T09:40:17Z</time>
      </trkpt>
      <trkpt lat="45.78806" lon="4.84348">
        <ele>207.3</ele>
        <time>2014-02-23T09:40:29Z</time>
      </trkpt>
      <trkpt lat="45.78804" lon="4.8435">
        <ele>207.3</ele>
        <time>2014-02-23T09:40:30Z</time>
      </trkpt>
      <trkpt lat="45.78792" lon="4.84363">
        <ele>205.38</ele>
        <time>2014-02-23T09:40:35Z</time>
      </trkpt>
      <trkpt lat="45.78791" lon="4.84364">
        <ele>204.9</ele>
        <time>2014-02-23T09:40:36Z</time>
      </trkpt>
      <trkpt lat="45.78792" lon="4.84327">
        <ele>206.34</ele>
        <time>2014-02-23T09:40:49Z</time>
      </trkpt>
      <trkpt lat="45.78786" lon="4.84308">
        <ele>208.74</ele>
        <time>2014-02-23T09:41:02Z</time>
      </trkpt>
      <trkpt lat="45.78777" lon="4.84281">
        <ele>209.7</ele>
        <time>2014-02-23T09:41:16Z</time>
      </trkpt>
      <trkpt lat="45.78766" lon="4.84267">
        <ele>210.19</ele>
        <time>2014-02-23T09:41:25Z</time>
      </trkpt>
      <trkpt lat="45.78759" lon="4.84246">
        <ele>210.67</ele>
        <time>2014-02-23T09:41:35Z</time>
      </trkpt>
      <trkpt lat="45.78756" lon="4.84233">
        <ele>209.7</ele>
        <time>2014-02-23T09:41:42Z</time>
      </trkpt>
      <trkpt lat="45.78755" lon="4.84218">
        <ele>209.7</ele>
        <time>2014-02-23T09:41:49Z</time>
      </trkpt>
      <trkpt lat="45.78716" lon="4.84165">
        <ele>207.78</ele>
        <time>2014-02-23T09:41:59Z</time>
      </trkpt>
      <trkpt lat="45.78702" lon="4.84141">
        <ele>206.82</ele>
        <time>2014-02-23T09:42:06Z</time>
      </trkpt>
      <trkpt lat="45.7869" lon="4.84114">
        <ele>205.38</ele>
        <time>2014-02-23T09:42:15Z</time>
      </trkpt>
      <trkpt lat="45.78675" lon="4.84081">
        <ele>206.34</ele>
        <time>2014-02-23T09:42:24Z</time>
      </trkpt>
      <trkpt lat="45.7866" lon="4.84055">
        <ele>203.94</ele>
        <time>2014-02-23T09:42:33Z</time>
      </trkpt>
      <trkpt lat="45.78641" lon="4.84011">
        <ele>204.9</ele>
        <time>2014-02-23T09:42:47Z</time>
      </trkpt>
      <trkpt lat="45.78626" lon="4.83989">
        <ele>204.42</ele>
        <time>2014-02-23T09:42:54Z</time>
      </trkpt>
      <trkpt lat="45.78609" lon="4.83958">
        <ele>203.94</ele>
        <time>2014-02-23T09:43:04Z</time>
      </trkpt>
      <trkpt lat="45.78593" lon="4.8393">
        <ele>204.9</ele>
        <time>2014-02-23T09:43:13Z</time>
      </trkpt>
      <trkpt lat="45.78583" lon="4.83907">
        <ele>204.42</ele>
        <time>2014-02-23T09:43:21Z</time>
      </trkpt>
      <trkpt lat="45.78572" lon="4.83879">
        <ele>205.38</ele>
        <time>2014-02-23T09:43:31Z</time>
      </trkpt>
      <trkpt lat="45.78557" lon="4.83851">
        <ele>205.38</ele>
        <time>2014-02-23T09:43:40Z</time>
      </trkpt>
      <trkpt lat="45.78543" lon="4.8383">
        <ele>205.86</ele>
        <time>2014-02-23T09:43:47Z</time>
      </trkpt>
      <trkpt lat="45.7853" lon="4.83803">
        <ele>206.34</ele>
        <time>2014-02-23T09:43:56Z</time>
      </trkpt>
      <trkpt lat="45.78515" lon="4.83773">
        <ele>207.3</ele>
        <time>2014-02-23T09:44:07Z</time>
      </trkpt>
      <trkpt lat="45.78503" lon="4.83757">
        <ele>207.78</ele>
        <time>2014-02-23T09:44:13Z</time>
      </trkpt>
      <trkpt lat="45.78489" lon="4.83768">
        <ele>207.3</ele>
        <time>2014-02-23T09:44:19Z</time>
      </trkpt>
      <trkpt lat="45.78481" lon="4.83816">
        <ele>205.38</ele>
        <time>2014-02-23T09:44:31Z</time>
      </trkpt>
      <trkpt lat="45.78466" lon="4.83871">
        <ele>203.94</ele>
        <time>2014-02-23T09:44:44Z</time>
      </trkpt>
      <trkpt lat="45.78457" lon="4.83917">
        <ele>202.98</ele>
        <time>2014-02-23T09:44:57Z</time>
      </trkpt>
      <trkpt lat="45.78443" lon="4.83956">
        <ele>202.49</ele>
        <time>2014-02-23T09:45:09Z</time>
      </trkpt>
      <trkpt lat="45.78442" lon="4.83959">
        <ele>202.98</ele>
        <time>2014-02-23T09:45:10Z</time>
      </trkpt>
      <trkpt lat="45.78425" lon="4.84013">
        <ele>202.01</ele>
        <time>2014-02-23T09:45:25Z</time>
      </trkpt>
      <trkpt lat="45.78413" lon="4.84054">
        <ele>202.01</ele>
        <time>2014-02-23T09:45:37Z</time>
      </trkpt>
      <trkpt lat="45.7839" lon="4.84072">
        <ele>201.53</ele>
        <time>2014-02-23T09:45:52Z</time>
      </trkpt>
      <trkpt lat="45.78375" lon="4.84059">
        <ele>202.01</ele>
        <time>2014-02-23T09:45:59Z</time>
      </trkpt>
      <trkpt lat="45.78342" lon="4.84057">
        <ele>202.49</ele>
        <time>2014-02-23T09:46:14Z</time>
      </trkpt>
      <trkpt lat="45.78301" lon="4.84059">
        <ele>202.01</ele>
        <time>2014-02-23T09:46:28Z</time>
      </trkpt>
      <trkpt lat="45.7827" lon="4.84074">
        <ele>202.01</ele>
        <time>2014-02-23T09:46:41Z</time>
      </trkpt>
      <trkpt lat="45.78239" lon="4.8408">
        <ele>200.09</ele>
        <time>2014-02-23T09:46:53Z</time>
      </trkpt>
      <trkpt lat="45.78235" lon="4.8408">
        <ele>200.09</ele>
        <time>2014-02-23T09:46:54Z</time>
      </trkpt>
      <trkpt lat="45.78229" lon="4.84071">
        <ele>199.13</ele>
        <time>2014-02-23T09:46:58Z</time>
      </trkpt>
      <trkpt lat="45.78221" lon="4.84038">
        <ele>195.77</ele>
        <time>2014-02-23T09:47:07Z</time>
      </trkpt>
      <trkpt lat="45.78219" lon="4.8404">
        <ele>194.8</ele>
        <time>2014-02-23T09:47:09Z</time>
      </trkpt>
      <trkpt lat="45.78206" lon="4.84042">
        <ele>191.92</ele>
        <time>2014-02-23T09:47:13Z</time>
      </trkpt>
      <trkpt lat="45.7819" lon="4.84042">
        <ele>189.04</ele>
        <time>2014-02-23T09:47:17Z</time>
      </trkpt>
      <trkpt lat="45.78181" lon="4.8404">
        <ele>186.15</ele>
        <time>2014-02-23T09:47:21Z</time>
      </trkpt>
      <trkpt lat="45.78168" lon="4.84043">
        <ele>183.27</ele>
        <time>2014-02-23T09:47:25Z</time>
      </trkpt>
      <trkpt lat="45.78153" lon="4.84061">
        <ele>184.23</ele>
        <time>2014-02-23T09:47:37Z</time>
      </trkpt>
      <trkpt lat="45.7814" lon="4.8407">
        <ele>187.11</ele>
        <time>2014-02-23T09:47:44Z</time>
      </trkpt>
      <trkpt lat="45.78109" lon="4.84085">
        <ele>189.52</ele>
        <time>2014-02-23T09:47:57Z</time>
      </trkpt>
      <trkpt lat="45.78123" lon="4.84093">
        <ele>188.56</ele>
        <time>2014-02-23T09:48:00Z</time>
      </trkpt>
      <trkpt lat="45.78115" lon="4.84103">
        <ele>186.63</ele>
        <time>2014-02-23T09:48:05Z</time>
      </trkpt>
      <trkpt lat="45.78096" lon="4.8411">
        <ele>183.75</ele>
        <time>2014-02-23T09:48:13Z</time>
      </trkpt>
      <trkpt lat="45.78089" lon="4.84112">
        <ele>182.31</ele>
        <time>2014-02-23T09:48:16Z</time>
      </trkpt>
      <trkpt lat="45.78059" lon="4.84104">
        <ele>179.42</ele>
        <time>2014-02-23T09:48:28Z</time>
      </trkpt>
      <trkpt lat="45.78059" lon="4.84094">
        <ele>178.46</ele>
        <time>2014-02-23T09:48:31Z</time>
      </trkpt>
      <trkpt lat="45.78086" lon="4.84053">
        <ele>175.58</ele>
        <time>2014-02-23T09:48:46Z</time>
      </trkpt>
      <trkpt lat="45.78106" lon="4.84019">
        <ele>173.66</ele>
        <time>2014-02-23T09:49:00Z</time>
      </trkpt>
      <trkpt lat="45.78155" lon="4.83968">
        <ele>172.21</ele>
        <time>2014-02-23T09:49:17Z</time>
      </trkpt>
      <trkpt lat="45.78163" lon="4.83934">
        <ele>171.73</ele>
        <time>2014-02-23T09:49:29Z</time>
      </trkpt>
      <trkpt lat="45.78162" lon="4.83933">
        <ele>171.73</ele>
        <time>2014-02-23T09:49:30Z</time>
      </trkpt>
      <trkpt lat="45.78144" lon="4.83949">
        <ele>171.25</ele>
        <time>2014-02-23T09:49:42Z</time>
      </trkpt>
      <trkpt lat="45.7811" lon="4.83977">
        <ele>168.37</ele>
        <time>2014-02-23T09:49:55Z</time>
      </trkpt>
      <trkpt lat="45.78084" lon="4.83999">
        <ele>165.48</ele>
        <time>2014-02-23T09:50:05Z</time>
      </trkpt>
      <trkpt lat="45.78074" lon="4.84013">
        <ele>164.04</ele>
        <time>2014-02-23T09:50:12Z</time>
      </trkpt>
      <trkpt lat="45.78082" lon="4.84008">
        <ele>163.08</ele>
        <time>2014-02-23T09:50:16Z</time>
      </trkpt>
      <trkpt lat="45.7808" lon="4.84006">
        <ele>159.72</ele>
        <time>2014-02-23T09:50:29Z</time>
      </trkpt>
      <trkpt lat="45.78081" lon="4.84005">
        <ele>159.72</ele>
        <time>2014-02-23T09:50:30Z</time>
      </trkpt>
      <trkpt lat="45.78061" lon="4.84024">
        <ele>156.35</ele>
        <time>2014-02-23T09:50:40Z</time>
      </trkpt>
      <trkpt lat="45.78037" lon="4.84055">
        <ele>152.99</ele>
        <time>2014-02-23T09:50:51Z</time>
      </trkpt>
      <trkpt lat="45.7801" lon="4.84077">
        <ele>150.1</ele>
        <time>2014-02-23T09:51:02Z</time>
      </trkpt>
      <trkpt lat="45.77986" lon="4.84095">
        <ele>146.74</ele>
        <time>2014-02-23T09:51:11Z</time>
      </trkpt>
      <trkpt lat="45.77956" lon="4.84116">
        <ele>143.85</ele>
        <time>2014-02-23T09:51:24Z</time>
      </trkpt>
      <trkpt lat="45.77951" lon="4.84115">
        <ele>143.85</ele>
        <time>2014-02-23T09:51:43Z</time>
      </trkpt>
      <trkpt lat="45.77951" lon="4.84115">
        <ele>144.82</ele>
        <time>2014-02-23T09:52:02Z</time>
      </trkpt>
      <trkpt lat="45.77948" lon="4.84116">
        <ele>144.82</ele>
        <time>2014-02-23T09:52:05Z</time>
      </trkpt>
      <trkpt lat="45.77918" lon="4.8409">
        <ele>144.82</ele>
        <time>2014-02-23T09:52:20Z</time>
      </trkpt>
      <trkpt lat="45.77901" lon="4.84072">
        <ele>145.3</ele>
        <time>2014-02-23T09:52:30Z</time>
      </trkpt>
      <trkpt lat="45.77885" lon="4.84062">
        <ele>148.18</ele>
        <time>2014-02-23T09:52:43Z</time>
      </trkpt>
      <trkpt lat="45.77884" lon="4.84061">
        <ele>148.66</ele>
        <time>2014-02-23T09:52:45Z</time>
      </trkpt>
      <trkpt lat="45.77882" lon="4.84058">
        <ele>150.58</ele>
        <time>2014-02-23T09:52:49Z</time>
      </trkpt>
      <trkpt lat="45.7788" lon="4.84055">
        <ele>152.99</ele>
        <time>2014-02-23T09:52:53Z</time>
      </trkpt>
      <trkpt lat="45.77877" lon="4.8405">
        <ele>154.91</ele>
        <time>2014-02-23T09:52:57Z</time>
      </trkpt>
      <trkpt lat="45.77872" lon="4.84038">
        <ele>158.27</ele>
        <time>2014-02-23T09:53:05Z</time>
      </trkpt>
      <trkpt lat="45.7787" lon="4.84031">
        <ele>161.64</ele>
        <time>2014-02-23T09:53:11Z</time>
      </trkpt>
      <trkpt lat="45.77865" lon="4.84019">
        <ele>164.52</ele>
        <time>2014-02-23T09:53:18Z</time>
      </trkpt>
      <trkpt lat="45.77853" lon="4.84006">
        <ele>167.41</ele>
        <time>2014-02-23T09:53:25Z</time>
      </trkpt>
      <trkpt lat="45.77852" lon="4.84003">
        <ele>168.85</ele>
        <time>2014-02-23T09:53:28Z</time>
      </trkpt>
      <trkpt lat="45.77848" lon="4.84">
        <ele>170.29</ele>
        <time>2014-02-23T09:53:31Z</time>
      </trkpt>
      <trkpt lat="45.77829" lon="4.83992">
        <ele>173.66</ele>
        <time>2014-02-23T09:53:41Z</time>
      </trkpt>
      <trkpt lat="45.7782" lon="4.83992">
        <ele>176.54</ele>
        <time>2014-02-23T09:53:49Z</time>
      </trkpt>
      <trkpt lat="45.77813" lon="4.8399">
        <ele>179.9</ele>
        <time>2014-02-23T09:53:58Z</time>
      </trkpt>
      <trkpt lat="45.7781" lon="4.83994">
        <ele>181.35</ele>
        <time>2014-02-23T09:54:03Z</time>
      </trkpt>
      <trkpt lat="45.77807" lon="4.83984">
        <ele>183.27</ele>
        <time>2014-02-23T09:54:08Z</time>
      </trkpt>
      <trkpt lat="45.77796" lon="4.83983">
        <ele>186.63</ele>
        <time>2014-02-23T09:54:20Z</time>
      </trkpt>
      <trkpt lat="45.77796" lon="4.83982">
        <ele>187.59</ele>
        <time>2014-02-23T09:54:22Z</time>
      </trkpt>
      <trkpt lat="45.77796" lon="4.8398">
        <ele>188.56</ele>
        <time>2014-02-23T09:54:25Z</time>
      </trkpt>
      <trkpt lat="45.77785" lon="4.83952">
        <ele>192.4</ele>
        <time>2014-02-23T09:54:36Z</time>
      </trkpt>
      <trkpt lat="45.77773" lon="4.83936">
        <ele>195.28</ele>
        <time>2014-02-23T09:54:44Z</time>
      </trkpt>
      <trkpt lat="45.77767" lon="4.83924">
        <ele>198.17</ele>
        <time>2014-02-23T09:54:50Z</time>
      </trkpt>
      <trkpt lat="45.77764" lon="4.83917">
        <ele>200.57</ele>
        <time>2014-02-23T09:54:54Z</time>
      </trkpt>
      <trkpt lat="45.77757" lon="4.83909">
        <ele>203.46</ele>
        <time>2014-02-23T09:54:58Z</time>
      </trkpt>
      <trkpt lat="45.77754" lon="4.83899">
        <ele>205.86</ele>
        <time>2014-02-23T09:55:02Z</time>
      </trkpt>
      <trkpt lat="45.77753" lon="4.83893">
        <ele>207.3</ele>
        <time>2014-02-23T09:55:05Z</time>
      </trkpt>
      <trkpt lat="45.77752" lon="4.83891">
        <ele>209.7</ele>
        <time>2014-02-23T09:55:11Z</time>
      </trkpt>
      <trkpt lat="45.77741" lon="4.83875">
        <ele>210.67</ele>
        <time>2014-02-23T09:55:25Z</time>
      </trkpt>
      <trkpt lat="45.77754" lon="4.83881">
        <ele>210.67</ele>
        <time>2014-02-23T09:55:30Z</time>
      </trkpt>
      <trkpt lat="45.77773" lon="4.83895">
        <ele>209.22</ele>
        <time>2014-02-23T09:55:44Z</time>
      </trkpt>
      <trkpt lat="45.7778" lon="4.83908">
        <ele>205.86</ele>
        <time>2014-02-23T09:55:53Z</time>
      </trkpt>
      <trkpt lat="45.77785" lon="4.83922">
        <ele>202.49</ele>
        <time>2014-02-23T09:56:02Z</time>
      </trkpt>
      <trkpt lat="45.77782" lon="4.83919">
        <ele>202.49</ele>
        <time>2014-02-23T09:56:11Z</time>
      </trkpt>
      <trkpt lat="45.77772" lon="4.83907">
        <ele>205.86</ele>
        <time>2014-02-23T09:56:21Z</time>
      </trkpt>
      <trkpt lat="45.77768" lon="4.83887">
        <ele>209.22</ele>
        <time>2014-02-23T09:56:32Z</time>
      </trkpt>
      <trkpt lat="45.77758" lon="4.83887">
        <ele>211.63</ele>
        <time>2014-02-23T09:56:41Z</time>
      </trkpt>
      <trkpt lat="45.77749" lon="4.83878">
        <ele>212.11</ele>
        <time>2014-02-23T09:56:47Z</time>
      </trkpt>
      <trkpt lat="45.7772" lon="4.83863">
        <ele>213.55</ele>
        <time>2014-02-23T09:57:07Z</time>
      </trkpt>
      <trkpt lat="45.77711" lon="4.83829">
        <ele>214.51</ele>
        <time>2014-02-23T09:57:19Z</time>
      </trkpt>
      <trkpt lat="45.77711" lon="4.83824">
        <ele>214.51</ele>
        <time>2014-02-23T09:57:20Z</time>
      </trkpt>
      <trkpt lat="45.77684" lon="4.83776">
        <ele>215.95</ele>
        <time>2014-02-23T09:57:36Z</time>
      </trkpt>
      <trkpt lat="45.77659" lon="4.83732">
        <ele>217.4</ele>
        <time>2014-02-23T09:57:51Z</time>
      </trkpt>
      <trkpt lat="45.77645" lon="4.83702">
        <ele>219.8</ele>
        <time>2014-02-23T09:58:03Z</time>
      </trkpt>
      <trkpt lat="45.77655" lon="4.83672">
        <ele>221.24</ele>
        <time>2014-02-23T09:58:14Z</time>
      </trkpt>
      <trkpt lat="45.77651" lon="4.83616">
        <ele>222.68</ele>
        <time>2014-02-23T09:58:29Z</time>
      </trkpt>
      <trkpt lat="45.77629" lon="4.83602">
        <ele>222.2</ele>
        <time>2014-02-23T09:58:40Z</time>
      </trkpt>
      <trkpt lat="45.77621" lon="4.83602">
        <ele>218.84</ele>
        <time>2014-02-23T09:58:48Z</time>
      </trkpt>
      <trkpt lat="45.77619" lon="4.83602">
        <ele>218.84</ele>
        <time>2014-02-23T09:58:49Z</time>
      </trkpt>
      <trkpt lat="45.77615" lon="4.836">
        <ele>217.4</ele>
        <time>2014-02-23T09:58:52Z</time>
      </trkpt>
      <trkpt lat="45.77607" lon="4.83599">
        <ele>215.47</ele>
        <time>2014-02-23T09:58:57Z</time>
      </trkpt>
      <trkpt lat="45.77593" lon="4.83615">
        <ele>212.11</ele>
        <time>2014-02-23T09:59:07Z</time>
      </trkpt>
      <trkpt lat="45.77587" lon="4.83695">
        <ele>208.74</ele>
        <time>2014-02-23T09:59:21Z</time>
      </trkpt>
      <trkpt lat="45.77593" lon="4.83737">
        <ele>205.38</ele>
        <time>2014-02-23T09:59:31Z</time>
      </trkpt>
      <trkpt lat="45.77592" lon="4.83753">
        <ele>204.9</ele>
        <time>2014-02-23T09:59:35Z</time>
      </trkpt>
      <trkpt lat="45.77582" lon="4.83784">
        <ele>203.46</ele>
        <time>2014-02-23T09:59:47Z</time>
      </trkpt>
      <trkpt lat="45.77585" lon="4.83805">
        <ele>202.49</ele>
        <time>2014-02-23T09:59:55Z</time>
      </trkpt>
      <trkpt lat="45.7758" lon="4.83823">
        <ele>198.65</ele>
        <time>2014-02-23T10:00:06Z</time>
      </trkpt>
      <trkpt lat="45.77573" lon="4.83831">
        <ele>195.77</ele>
        <time>2014-02-23T10:00:13Z</time>
      </trkpt>
      <trkpt lat="45.77564" lon="4.83845">
        <ele>192.4</ele>
        <time>2014-02-23T10:00:22Z</time>
      </trkpt>
      <trkpt lat="45.77558" lon="4.83855">
        <ele>189.04</ele>
        <time>2014-02-23T10:00:28Z</time>
      </trkpt>
      <trkpt lat="45.77554" lon="4.83865">
        <ele>186.15</ele>
        <time>2014-02-23T10:00:36Z</time>
      </trkpt>
      <trkpt lat="45.77561" lon="4.83866">
        <ele>182.31</ele>
        <time>2014-02-23T10:00:43Z</time>
      </trkpt>
      <trkpt lat="45.7756" lon="4.83867">
        <ele>182.31</ele>
        <time>2014-02-23T10:00:44Z</time>
      </trkpt>
      <trkpt lat="45.77557" lon="4.83867">
        <ele>181.35</ele>
        <time>2014-02-23T10:00:47Z</time>
      </trkpt>
      <trkpt lat="45.77531" lon="4.83861">
        <ele>180.87</ele>
        <time>2014-02-23T10:00:58Z</time>
      </trkpt>
      <trkpt lat="45.77535" lon="4.83817">
        <ele>178.46</ele>
        <time>2014-02-23T10:01:08Z</time>
      </trkpt>
      <trkpt lat="45.77538" lon="4.83785">
        <ele>176.54</ele>
        <time>2014-02-23T10:01:16Z</time>
      </trkpt>
      <trkpt lat="45.77534" lon="4.83775">
        <ele>176.06</ele>
        <time>2014-02-23T10:01:20Z</time>
      </trkpt>
      <trkpt lat="45.77521" lon="4.83795">
        <ele>172.69</ele>
        <time>2014-02-23T10:01:30Z</time>
      </trkpt>
      <trkpt lat="45.7752" lon="4.83795">
        <ele>172.69</ele>
        <time>2014-02-23T10:01:31Z</time>
      </trkpt>
      <trkpt lat="45.7751" lon="4.83792">
        <ele>170.77</ele>
        <time>2014-02-23T10:01:35Z</time>
      </trkpt>
      <trkpt lat="45.77496" lon="4.83782">
        <ele>168.37</ele>
        <time>2014-02-23T10:01:41Z</time>
      </trkpt>
      <trkpt lat="45.77469" lon="4.83766">
        <ele>165</ele>
        <time>2014-02-23T10:01:52Z</time>
      </trkpt>
      <trkpt lat="45.77443" lon="4.83756">
        <ele>162.12</ele>
        <time>2014-02-23T10:02:00Z</time>
      </trkpt>
      <trkpt lat="45.77425" lon="4.83768">
        <ele>159.72</ele>
        <time>2014-02-23T10:02:09Z</time>
      </trkpt>
      <trkpt lat="45.77421" lon="4.8378">
        <ele>162.6</ele>
        <time>2014-02-23T10:02:16Z</time>
      </trkpt>
      <trkpt lat="45.77421" lon="4.83779">
        <ele>163.08</ele>
        <time>2014-02-23T10:02:17Z</time>
      </trkpt>
      <trkpt lat="45.7742" lon="4.83776">
        <ele>164.52</ele>
        <time>2014-02-23T10:02:20Z</time>
      </trkpt>
      <trkpt lat="45.77416" lon="4.83757">
        <ele>167.89</ele>
        <time>2014-02-23T10:02:30Z</time>
      </trkpt>
      <trkpt lat="45.77418" lon="4.83752">
        <ele>168.85</ele>
        <time>2014-02-23T10:02:32Z</time>
      </trkpt>
      <trkpt lat="45.7742" lon="4.8375">
        <ele>170.77</ele>
        <time>2014-02-23T10:02:36Z</time>
      </trkpt>
      <trkpt lat="45.77421" lon="4.83748">
        <ele>171.73</ele>
        <time>2014-02-23T10:02:38Z</time>
      </trkpt>
      <trkpt lat="45.77424" lon="4.83748">
        <ele>173.66</ele>
        <time>2014-02-23T10:02:44Z</time>
      </trkpt>
      <trkpt lat="45.77427" lon="4.83745">
        <ele>175.1</ele>
        <time>2014-02-23T10:02:47Z</time>
      </trkpt>
      <trkpt lat="45.77419" lon="4.83735">
        <ele>177.02</ele>
        <time>2014-02-23T10:02:56Z</time>
      </trkpt>
      <trkpt lat="45.77424" lon="4.83729">
        <ele>178.94</ele>
        <time>2014-02-23T10:03:01Z</time>
      </trkpt>
      <trkpt lat="45.77442" lon="4.83719">
        <ele>183.27</ele>
        <time>2014-02-23T10:03:11Z</time>
      </trkpt>
      <trkpt lat="45.77452" lon="4.83722">
        <ele>186.15</ele>
        <time>2014-02-23T10:03:19Z</time>
      </trkpt>
      <trkpt lat="45.77452" lon="4.83723">
        <ele>186.15</ele>
        <time>2014-02-23T10:03:20Z</time>
      </trkpt>
      <trkpt lat="45.7746" lon="4.83715">
        <ele>190</ele>
        <time>2014-02-23T10:03:30Z</time>
      </trkpt>
      <trkpt lat="45.77469" lon="4.83704">
        <ele>193.36</ele>
        <time>2014-02-23T10:03:40Z</time>
      </trkpt>
      <trkpt lat="45.77472" lon="4.83694">
        <ele>195.77</ele>
        <time>2014-02-23T10:03:46Z</time>
      </trkpt>
      <trkpt lat="45.77475" lon="4.83684">
        <ele>198.65</ele>
        <time>2014-02-23T10:03:54Z</time>
      </trkpt>
      <trkpt lat="45.77474" lon="4.83672">
        <ele>202.01</ele>
        <time>2014-02-23T10:04:02Z</time>
      </trkpt>
      <trkpt lat="45.77476" lon="4.8366">
        <ele>204.42</ele>
        <time>2014-02-23T10:04:10Z</time>
      </trkpt>
      <trkpt lat="45.77479" lon="4.83652">
        <ele>205.86</ele>
        <time>2014-02-23T10:04:15Z</time>
      </trkpt>
      <trkpt lat="45.77481" lon="4.83631">
        <ele>209.22</ele>
        <time>2014-02-23T10:04:28Z</time>
      </trkpt>
      <trkpt lat="45.77483" lon="4.83624">
        <ele>212.11</ele>
        <time>2014-02-23T10:04:36Z</time>
      </trkpt>
      <trkpt lat="45.77481" lon="4.83628">
        <ele>213.55</ele>
        <time>2014-02-23T10:04:39Z</time>
      </trkpt>
      <trkpt lat="45.77482" lon="4.83618">
        <ele>216.91</ele>
        <time>2014-02-23T10:04:50Z</time>
      </trkpt>
      <trkpt lat="45.7748" lon="4.83612">
        <ele>217.4</ele>
        <time>2014-02-23T10:04:53Z</time>
      </trkpt>
      <trkpt lat="45.77441" lon="4.83612">
        <ele>215.47</ele>
        <time>2014-02-23T10:05:10Z</time>
      </trkpt>
      <trkpt lat="45.77415" lon="4.83614">
        <ele>212.59</ele>
        <time>2014-02-23T10:05:20Z</time>
      </trkpt>
      <trkpt lat="45.77414" lon="4.83612">
        <ele>212.11</ele>
        <time>2014-02-23T10:05:21Z</time>
      </trkpt>
      <trkpt lat="45.77421" lon="4.83588">
        <ele>214.51</ele>
        <time>2014-02-23T10:05:30Z</time>
      </trkpt>
      <trkpt lat="45.77423" lon="4.83582">
        <ele>216.91</ele>
        <time>2014-02-23T10:05:33Z</time>
      </trkpt>
      <trkpt lat="45.77428" lon="4.83559">
        <ele>219.8</ele>
        <time>2014-02-23T10:05:42Z</time>
      </trkpt>
      <trkpt lat="45.77429" lon="4.83553">
        <ele>221.72</ele>
        <time>2014-02-23T10:05:45Z</time>
      </trkpt>
      <trkpt lat="45.7743" lon="4.83544">
        <ele>224.12</ele>
        <time>2014-02-23T10:05:49Z</time>
      </trkpt>
      <trkpt lat="45.77432" lon="4.83536">
        <ele>225.57</ele>
        <time>2014-02-23T10:05:52Z</time>
      </trkpt>
      <trkpt lat="45.77433" lon="4.8353">
        <ele>227.49</ele>
        <time>2014-02-23T10:05:56Z</time>
      </trkpt>
      <trkpt lat="45.7744" lon="4.83525">
        <ele>227.97</ele>
        <time>2014-02-23T10:06:02Z</time>
      </trkpt>
      <trkpt lat="45.77458" lon="4.83538">
        <ele>227.97</ele>
        <time>2014-02-23T10:06:09Z</time>
      </trkpt>
      <trkpt lat="45.77475" lon="4.83538">
        <ele>227.97</ele>
        <time>2014-02-23T10:06:21Z</time>
      </trkpt>
      <trkpt lat="45.77482" lon="4.83536">
        <ele>227.97</ele>
        <time>2014-02-23T10:06:25Z</time>
      </trkpt>
      <trkpt lat="45.77487" lon="4.83541">
        <ele>227.97</ele>
        <time>2014-02-23T10:06:29Z</time>
      </trkpt>
      <trkpt lat="45.77488" lon="4.83556">
        <ele>224.12</ele>
        <time>2014-02-23T10:06:40Z</time>
      </trkpt>
      <trkpt lat="45.77488" lon="4.83552">
        <ele>224.12</ele>
        <time>2014-02-23T10:06:54Z</time>
      </trkpt>
      <trkpt lat="45.77489" lon="4.83549">
        <ele>225.09</ele>
        <time>2014-02-23T10:06:57Z</time>
      </trkpt>
      <trkpt lat="45.77485" lon="4.83538">
        <ele>228.45</ele>
        <time>2014-02-23T10:07:06Z</time>
      </trkpt>
      <trkpt lat="45.77483" lon="4.83527">
        <ele>228.93</ele>
        <time>2014-02-23T10:07:11Z</time>
      </trkpt>
      <trkpt lat="45.77482" lon="4.83495">
        <ele>231.33</ele>
        <time>2014-02-23T10:07:25Z</time>
      </trkpt>
      <trkpt lat="45.77451" lon="4.8348">
        <ele>231.81</ele>
        <time>2014-02-23T10:07:41Z</time>
      </trkpt>
      <trkpt lat="45.7744" lon="4.83444">
        <ele>232.78</ele>
        <time>2014-02-23T10:07:52Z</time>
      </trkpt>
      <trkpt lat="45.77455" lon="4.83401">
        <ele>232.3</ele>
        <time>2014-02-23T10:08:05Z</time>
      </trkpt>
      <trkpt lat="45.7745" lon="4.83365">
        <ele>232.78</ele>
        <time>2014-02-23T10:08:14Z</time>
      </trkpt>
      <trkpt lat="45.77444" lon="4.83322">
        <ele>232.78</ele>
        <time>2014-02-23T10:08:25Z</time>
      </trkpt>
      <trkpt lat="45.77435" lon="4.83288">
        <ele>233.26</ele>
        <time>2014-02-23T10:08:36Z</time>
      </trkpt>
      <trkpt lat="45.77425" lon="4.83225">
        <ele>233.74</ele>
        <time>2014-02-23T10:08:52Z</time>
      </trkpt>
      <trkpt lat="45.77414" lon="4.83222">
        <ele>233.74</ele>
        <time>2014-02-23T10:08:55Z</time>
      </trkpt>
      <trkpt lat="45.77392" lon="4.83221">
        <ele>233.74</ele>
        <time>2014-02-23T10:09:00Z</time>
      </trkpt>
      <trkpt lat="45.77385" lon="4.83222">
        <ele>233.26</ele>
        <time>2014-02-23T10:09:03Z</time>
      </trkpt>
      <trkpt lat="45.77378" lon="4.83219">
        <ele>233.26</ele>
        <time>2014-02-23T10:09:06Z</time>
      </trkpt>
      <trkpt lat="45.77369" lon="4.83218">
        <ele>233.26</ele>
        <time>2014-02-23T10:09:08Z</time>
      </trkpt>
      <trkpt lat="45.77347" lon="4.83205">
        <ele>231.81</ele>
        <time>2014-02-23T10:09:19Z</time>
      </trkpt>
      <trkpt lat="45.77317" lon="4.83196">
        <ele>229.41</ele>
        <time>2014-02-23T10:09:29Z</time>
      </trkpt>
      <trkpt lat="45.77281" lon="4.8318">
        <ele>227.97</ele>
        <time>2014-02-23T10:09:40Z</time>
      </trkpt>
      <trkpt lat="45.77243" lon="4.83146">
        <ele>225.57</ele>
        <time>2014-02-23T10:09:54Z</time>
      </trkpt>
      <trkpt lat="45.77215" lon="4.83183">
        <ele>222.68</ele>
        <time>2014-02-23T10:10:06Z</time>
      </trkpt>
      <trkpt lat="45.77193" lon="4.83214">
        <ele>220.28</ele>
        <time>2014-02-23T10:10:17Z</time>
      </trkpt>
      <trkpt lat="45.7718" lon="4.83244">
        <ele>216.43</ele>
        <time>2014-02-23T10:10:26Z</time>
      </trkpt>
      <trkpt lat="45.77179" lon="4.83251">
        <ele>215.95</ele>
        <time>2014-02-23T10:10:28Z</time>
      </trkpt>
      <trkpt lat="45.77179" lon="4.83283">
        <ele>213.07</ele>
        <time>2014-02-23T10:10:38Z</time>
      </trkpt>
      <trkpt lat="45.7718" lon="4.83296">
        <ele>210.67</ele>
        <time>2014-02-23T10:10:47Z</time>
      </trkpt>
      <trkpt lat="45.7717" lon="4.83306">
        <ele>207.78</ele>
        <time>2014-02-23T10:10:52Z</time>
      </trkpt>
      <trkpt lat="45.77169" lon="4.83308">
        <ele>206.82</ele>
        <time>2014-02-23T10:10:54Z</time>
      </trkpt>
      <trkpt lat="45.77147" lon="4.83315">
        <ele>204.42</ele>
        <time>2014-02-23T10:11:09Z</time>
      </trkpt>
      <trkpt lat="45.77133" lon="4.83317">
        <ele>201.05</ele>
        <time>2014-02-23T10:11:19Z</time>
      </trkpt>
      <trkpt lat="45.77114" lon="4.8332">
        <ele>199.13</ele>
        <time>2014-02-23T10:11:32Z</time>
      </trkpt>
      <trkpt lat="45.77103" lon="4.83322">
        <ele>196.73</ele>
        <time>2014-02-23T10:11:39Z</time>
      </trkpt>
      <trkpt lat="45.77093" lon="4.83323">
        <ele>193.36</ele>
        <time>2014-02-23T10:11:48Z</time>
      </trkpt>
      <trkpt lat="45.77062" lon="4.83331">
        <ele>191.44</ele>
        <time>2014-02-23T10:11:56Z</time>
      </trkpt>
      <trkpt lat="45.77035" lon="4.83337">
        <ele>189.04</ele>
        <time>2014-02-23T10:12:08Z</time>
      </trkpt>
      <trkpt lat="45.77036" lon="4.83342">
        <ele>188.08</ele>
        <time>2014-02-23T10:12:12Z</time>
      </trkpt>
      <trkpt lat="45.77025" lon="4.83341">
        <ele>185.19</ele>
        <time>2014-02-23T10:12:17Z</time>
      </trkpt>
      <trkpt lat="45.7701" lon="4.83334">
        <ele>181.83</ele>
        <time>2014-02-23T10:12:30Z</time>
      </trkpt>
      <trkpt lat="45.77009" lon="4.83332">
        <ele>180.87</ele>
        <time>2014-02-23T10:12:32Z</time>
      </trkpt>
      <trkpt lat="45.77007" lon="4.83326">
        <ele>177.5</ele>
        <time>2014-02-23T10:12:39Z</time>
      </trkpt>
      <trkpt lat="45.77006" lon="4.83326">
        <ele>175.58</ele>
        <time>2014-02-23T10:12:43Z</time>
      </trkpt>
      <trkpt lat="45.76979" lon="4.83312">
        <ele>174.14</ele>
        <time>2014-02-23T10:12:56Z</time>
      </trkpt>
      <trkpt lat="45.76979" lon="4.83265">
        <ele>174.62</ele>
        <time>2014-02-23T10:13:07Z</time>
      </trkpt>
      <trkpt lat="45.7695" lon="4.832">
        <ele>175.58</ele>
        <time>2014-02-23T10:13:21Z</time>
      </trkpt>
      <trkpt lat="45.76963" lon="4.83166">
        <ele>176.54</ele>
        <time>2014-02-23T10:13:33Z</time>
      </trkpt>
      <trkpt lat="45.76927" lon="4.83177">
        <ele>173.66</ele>
        <time>2014-02-23T10:13:48Z</time>
      </trkpt>
      <trkpt lat="45.7692" lon="4.83182">
        <ele>173.17</ele>
        <time>2014-02-23T10:13:50Z</time>
      </trkpt>
      <trkpt lat="45.7691" lon="4.83173">
        <ele>171.25</ele>
        <time>2014-02-23T10:13:55Z</time>
      </trkpt>
      <trkpt lat="45.76901" lon="4.83128">
        <ele>169.81</ele>
        <time>2014-02-23T10:14:10Z</time>
      </trkpt>
      <trkpt lat="45.76896" lon="4.83056">
        <ele>168.85</ele>
        <time>2014-02-23T10:14:27Z</time>
      </trkpt>
      <trkpt lat="45.76891" lon="4.83032">
        <ele>168.85</ele>
        <time>2014-02-23T10:14:32Z</time>
      </trkpt>
      <trkpt lat="45.76888" lon="4.82974">
        <ele>168.37</ele>
        <time>2014-02-23T10:14:47Z</time>
      </trkpt>
      <trkpt lat="45.76879" lon="4.82913">
        <ele>168.85</ele>
        <time>2014-02-23T10:15:03Z</time>
      </trkpt>
      <trkpt lat="45.76897" lon="4.8285">
        <ele>168.37</ele>
        <time>2014-02-23T10:15:15Z</time>
      </trkpt>
      <trkpt lat="45.76877" lon="4.82805">
        <ele>167.89</ele>
        <time>2014-02-23T10:15:27Z</time>
      </trkpt>
      <trkpt lat="45.76866" lon="4.82802">
        <ele>167.89</ele>
        <time>2014-02-23T10:15:30Z</time>
      </trkpt>
      <trkpt lat="45.76837" lon="4.82808">
        <ele>167.41</ele>
        <time>2014-02-23T10:15:34Z</time>
      </trkpt>
      <trkpt lat="45.76828" lon="4.82798">
        <ele>166.93</ele>
        <time>2014-02-23T10:15:39Z</time>
      </trkpt>
      <trkpt lat="45.76802" lon="4.82761">
        <ele>166.93</ele>
        <time>2014-02-23T10:15:52Z</time>
      </trkpt>
      <trkpt lat="45.76802" lon="4.82756">
        <ele>168.85</ele>
        <time>2014-02-23T10:16:37Z</time>
      </trkpt>
      <trkpt lat="45.76803" lon="4.82755">
        <ele>169.33</ele>
        <time>2014-02-23T10:16:39Z</time>
      </trkpt>
      <trkpt lat="45.7681" lon="4.82725">
        <ele>169.33</ele>
        <time>2014-02-23T10:16:49Z</time>
      </trkpt>
      <trkpt lat="45.76821" lon="4.82686">
        <ele>169.33</ele>
        <time>2014-02-23T10:16:59Z</time>
      </trkpt>
      <trkpt lat="45.76824" lon="4.82644">
        <ele>169.81</ele>
        <time>2014-02-23T10:17:11Z</time>
      </trkpt>
      <trkpt lat="45.76827" lon="4.82602">
        <ele>169.81</ele>
        <time>2014-02-23T10:17:23Z</time>
      </trkpt>
      <trkpt lat="45.7683" lon="4.82562">
        <ele>170.29</ele>
        <time>2014-02-23T10:17:33Z</time>
      </trkpt>
      <trkpt lat="45.76839" lon="4.82516">
        <ele>170.29</ele>
        <time>2014-02-23T10:17:43Z</time>
      </trkpt>
      <trkpt lat="45.76845" lon="4.82475">
        <ele>170.29</ele>
        <time>2014-02-23T10:17:54Z</time>
      </trkpt>
      <trkpt lat="45.76853" lon="4.82446">
        <ele>170.77</ele>
        <time>2014-02-23T10:18:00Z</time>
      </trkpt>
      <trkpt lat="45.76861" lon="4.82425">
        <ele>170.77</ele>
        <time>2014-02-23T10:18:04Z</time>
      </trkpt>
      <trkpt lat="45.76868" lon="4.82391">
        <ele>170.77</ele>
        <time>2014-02-23T10:18:11Z</time>
      </trkpt>
      <trkpt lat="45.76894" lon="4.82326">
        <ele>170.77</ele>
        <time>2014-02-23T10:18:24Z</time>
      </trkpt>
      <trkpt lat="45.76912" lon="4.82298">
        <ele>170.77</ele>
        <time>2014-02-23T10:18:29Z</time>
      </trkpt>
      <trkpt lat="45.76933" lon="4.82252">
        <ele>171.25</ele>
        <time>2014-02-23T10:18:39Z</time>
      </trkpt>
      <trkpt lat="45.76951" lon="4.8219">
        <ele>170.77</ele>
        <time>2014-02-23T10:18:53Z</time>
      </trkpt>
      <trkpt lat="45.76972" lon="4.82152">
        <ele>170.29</ele>
        <time>2014-02-23T10:18:59Z</time>
      </trkpt>
      <trkpt lat="45.7698" lon="4.82123">
        <ele>170.29</ele>
        <time>2014-02-23T10:19:06Z</time>
      </trkpt>
      <trkpt lat="45.76948" lon="4.821">
        <ele>169.81</ele>
        <time>2014-02-23T10:19:17Z</time>
      </trkpt>
      <trkpt lat="45.7695" lon="4.8208">
        <ele>169.81</ele>
        <time>2014-02-23T10:19:21Z</time>
      </trkpt>
      <trkpt lat="45.76974" lon="4.82013">
        <ele>169.81</ele>
        <time>2014-02-23T10:19:34Z</time>
      </trkpt>
      <trkpt lat="45.76975" lon="4.81978">
        <ele>169.81</ele>
        <time>2014-02-23T10:19:44Z</time>
      </trkpt>
      <trkpt lat="45.76977" lon="4.81936">
        <ele>169.33</ele>
        <time>2014-02-23T10:19:56Z</time>
      </trkpt>
      <trkpt lat="45.76974" lon="4.81894">
        <ele>168.37</ele>
        <time>2014-02-23T10:20:08Z</time>
      </trkpt>
      <trkpt lat="45.76975" lon="4.81865">
        <ele>167.41</ele>
        <time>2014-02-23T10:20:17Z</time>
      </trkpt>
      <trkpt lat="45.76982" lon="4.81811">
        <ele>166.45</ele>
        <time>2014-02-23T10:20:30Z</time>
      </trkpt>
      <trkpt lat="45.76987" lon="4.81762">
        <ele>165.96</ele>
        <time>2014-02-23T10:20:45Z</time>
      </trkpt>
      <trkpt lat="45.77004" lon="4.81713">
        <ele>165.48</ele>
        <time>2014-02-23T10:20:58Z</time>
      </trkpt>
      <trkpt lat="45.76826" lon="4.81754">
        <ele>164.04</ele>
        <time>2014-02-23T10:21:07Z</time>
      </trkpt>
      <trkpt lat="45.76829" lon="4.81727">
        <ele>163.56</ele>
        <time>2014-02-23T10:21:18Z</time>
      </trkpt>
      <trkpt lat="45.76841" lon="4.81688">
        <ele>163.08</ele>
        <time>2014-02-23T10:21:31Z</time>
      </trkpt>
      <trkpt lat="45.76863" lon="4.81657">
        <ele>162.6</ele>
        <time>2014-02-23T10:21:44Z</time>
      </trkpt>
      <trkpt lat="45.76889" lon="4.8163">
        <ele>163.08</ele>
        <time>2014-02-23T10:21:57Z</time>
      </trkpt>
      <trkpt lat="45.76907" lon="4.81561">
        <ele>162.12</ele>
        <time>2014-02-23T10:22:10Z</time>
      </trkpt>
      <trkpt lat="45.76922" lon="4.81541">
        <ele>162.12</ele>
        <time>2014-02-23T10:22:17Z</time>
      </trkpt>
      <trkpt lat="45.76954" lon="4.81525">
        <ele>161.64</ele>
        <time>2014-02-23T10:22:29Z</time>
      </trkpt>
      <trkpt lat="45.7699" lon="4.81511">
        <ele>161.64</ele>
        <time>2014-02-23T10:22:43Z</time>
      </trkpt>
      <trkpt lat="45.77012" lon="4.81487">
        <ele>161.64</ele>
        <time>2014-02-23T10:22:54Z</time>
      </trkpt>
      <trkpt lat="45.77036" lon="4.81464">
        <ele>161.64</ele>
        <time>2014-02-23T10:23:04Z</time>
      </trkpt>
      <trkpt lat="45.77064" lon="4.81447">
        <ele>161.16</ele>
        <time>2014-02-23T10:23:14Z</time>
      </trkpt>
      <trkpt lat="45.77095" lon="4.8143">
        <ele>160.2</ele>
        <time>2014-02-23T10:23:26Z</time>
      </trkpt>
      <trkpt lat="45.77099" lon="4.81429">
        <ele>160.2</ele>
        <time>2014-02-23T10:23:27Z</time>
      </trkpt>
      <trkpt lat="45.77118" lon="4.81422">
        <ele>160.2</ele>
        <time>2014-02-23T10:23:32Z</time>
      </trkpt>
      <trkpt lat="45.77126" lon="4.81408">
        <ele>160.2</ele>
        <time>2014-02-23T10:23:36Z</time>
      </trkpt>
      <trkpt lat="45.77131" lon="4.81396">
        <ele>159.72</ele>
        <time>2014-02-23T10:23:41Z</time>
      </trkpt>
      <trkpt lat="45.77165" lon="4.81421">
        <ele>162.6</ele>
        <time>2014-02-23T10:23:51Z</time>
      </trkpt>
      <trkpt lat="45.77166" lon="4.81429">
        <ele>165.96</ele>
        <time>2014-02-23T10:23:57Z</time>
      </trkpt>
      <trkpt lat="45.77155" lon="4.81438">
        <ele>168.37</ele>
        <time>2014-02-23T10:24:05Z</time>
      </trkpt>
      <trkpt lat="45.77153" lon="4.81451">
        <ele>171.25</ele>
        <time>2014-02-23T10:24:15Z</time>
      </trkpt>
      <trkpt lat="45.77147" lon="4.81459">
        <ele>174.62</ele>
        <time>2014-02-23T10:24:24Z</time>
      </trkpt>
      <trkpt lat="45.77146" lon="4.81459">
        <ele>175.58</ele>
        <time>2014-02-23T10:24:26Z</time>
      </trkpt>
      <trkpt lat="45.77147" lon="4.81458">
        <ele>178.94</ele>
        <time>2014-02-23T10:24:35Z</time>
      </trkpt>
      <trkpt lat="45.77149" lon="4.81472">
        <ele>182.31</ele>
        <time>2014-02-23T10:24:45Z</time>
      </trkpt>
      <trkpt lat="45.77154" lon="4.8148">
        <ele>184.23</ele>
        <time>2014-02-23T10:24:51Z</time>
      </trkpt>
      <trkpt lat="45.77145" lon="4.8149">
        <ele>187.59</ele>
        <time>2014-02-23T10:25:00Z</time>
      </trkpt>
      <trkpt lat="45.77139" lon="4.81514">
        <ele>190.48</ele>
        <time>2014-02-23T10:25:10Z</time>
      </trkpt>
      <trkpt lat="45.77139" lon="4.81516">
        <ele>191.44</ele>
        <time>2014-02-23T10:25:12Z</time>
      </trkpt>
      <trkpt lat="45.77142" lon="4.81526">
        <ele>193.84</ele>
        <time>2014-02-23T10:25:20Z</time>
      </trkpt>
      <trkpt lat="45.77163" lon="4.81542">
        <ele>197.69</ele>
        <time>2014-02-23T10:25:34Z</time>
      </trkpt>
      <trkpt lat="45.77186" lon="4.81545">
        <ele>198.17</ele>
        <time>2014-02-23T10:25:48Z</time>
      </trkpt>
      <trkpt lat="45.77197" lon="4.81544">
        <ele>198.17</ele>
        <time>2014-02-23T10:25:54Z</time>
      </trkpt>
      <trkpt lat="45.77207" lon="4.81549">
        <ele>197.69</ele>
        <time>2014-02-23T10:25:59Z</time>
      </trkpt>
      <trkpt lat="45.77218" lon="4.81556">
        <ele>197.69</ele>
        <time>2014-02-23T10:26:05Z</time>
      </trkpt>
      <trkpt lat="45.77249" lon="4.81562">
        <ele>198.17</ele>
        <time>2014-02-23T10:26:19Z</time>
      </trkpt>
      <trkpt lat="45.77254" lon="4.81564">
        <ele>198.17</ele>
        <time>2014-02-23T10:26:23Z</time>
      </trkpt>
      <trkpt lat="45.77283" lon="4.81563">
        <ele>197.21</ele>
        <time>2014-02-23T10:26:37Z</time>
      </trkpt>
      <trkpt lat="45.77312" lon="4.81561">
        <ele>197.21</ele>
        <time>2014-02-23T10:26:48Z</time>
      </trkpt>
      <trkpt lat="45.77336" lon="4.81559">
        <ele>197.21</ele>
        <time>2014-02-23T10:26:58Z</time>
      </trkpt>
      <trkpt lat="45.7737" lon="4.81532">
        <ele>194.8</ele>
        <time>2014-02-23T10:27:10Z</time>
      </trkpt>
      <trkpt lat="45.77402" lon="4.81511">
        <ele>196.25</ele>
        <time>2014-02-23T10:27:22Z</time>
      </trkpt>
      <trkpt lat="45.7741" lon="4.81507">
        <ele>197.21</ele>
        <time>2014-02-23T10:27:28Z</time>
      </trkpt>
      <trkpt lat="45.7742" lon="4.81518">
        <ele>197.69</ele>
        <time>2014-02-23T10:27:34Z</time>
      </trkpt>
      <trkpt lat="45.77422" lon="4.81519">
        <ele>197.69</ele>
        <time>2014-02-23T10:27:38Z</time>
      </trkpt>
      <trkpt lat="45.77439" lon="4.81511">
        <ele>197.69</ele>
        <time>2014-02-23T10:27:46Z</time>
      </trkpt>
      <trkpt lat="45.77468" lon="4.81512">
        <ele>196.73</ele>
        <time>2014-02-23T10:27:58Z</time>
      </trkpt>
      <trkpt lat="45.77484" lon="4.81515">
        <ele>200.09</ele>
        <time>2014-02-23T10:28:08Z</time>
      </trkpt>
      <trkpt lat="45.77488" lon="4.81514">
        <ele>200.09</ele>
        <time>2014-02-23T10:28:09Z</time>
      </trkpt>
      <trkpt lat="45.77506" lon="4.81517">
        <ele>203.46</ele>
        <time>2014-02-23T10:28:18Z</time>
      </trkpt>
      <trkpt lat="45.77512" lon="4.81517">
        <ele>204.42</ele>
        <time>2014-02-23T10:28:21Z</time>
      </trkpt>
      <trkpt lat="45.77528" lon="4.81519">
        <ele>205.38</ele>
        <time>2014-02-23T10:28:28Z</time>
      </trkpt>
      <trkpt lat="45.77566" lon="4.81505">
        <ele>202.98</ele>
        <time>2014-02-23T10:28:41Z</time>
      </trkpt>
      <trkpt lat="45.776" lon="4.81495">
        <ele>201.53</ele>
        <time>2014-02-23T10:28:51Z</time>
      </trkpt>
      <trkpt lat="45.77624" lon="4.81505">
        <ele>204.9</ele>
        <time>2014-02-23T10:29:02Z</time>
      </trkpt>
      <trkpt lat="45.77642" lon="4.81524">
        <ele>207.78</ele>
        <time>2014-02-23T10:29:12Z</time>
      </trkpt>
      <trkpt lat="45.7765" lon="4.81543">
        <ele>211.15</ele>
        <time>2014-02-23T10:29:21Z</time>
      </trkpt>
      <trkpt lat="45.77653" lon="4.81552">
        <ele>212.59</ele>
        <time>2014-02-23T10:29:25Z</time>
      </trkpt>
      <trkpt lat="45.7764" lon="4.81554">
        <ele>214.99</ele>
        <time>2014-02-23T10:29:32Z</time>
      </trkpt>
      <trkpt lat="45.77641" lon="4.81518">
        <ele>216.91</ele>
        <time>2014-02-23T10:29:45Z</time>
      </trkpt>
      <trkpt lat="45.77658" lon="4.81537">
        <ele>218.36</ele>
        <time>2014-02-23T10:29:54Z</time>
      </trkpt>
      <trkpt lat="45.77658" lon="4.81585">
        <ele>219.8</ele>
        <time>2014-02-23T10:30:08Z</time>
      </trkpt>
      <trkpt lat="45.77661" lon="4.81625">
        <ele>222.68</ele>
        <time>2014-02-23T10:30:22Z</time>
      </trkpt>
      <trkpt lat="45.77641" lon="4.81639">
        <ele>223.16</ele>
        <time>2014-02-23T10:30:27Z</time>
      </trkpt>
      <trkpt lat="45.77608" lon="4.81656">
        <ele>223.64</ele>
        <time>2014-02-23T10:30:39Z</time>
      </trkpt>
      <trkpt lat="45.77581" lon="4.81643">
        <ele>220.76</ele>
        <time>2014-02-23T10:30:51Z</time>
      </trkpt>
      <trkpt lat="45.77578" lon="4.81645">
        <ele>220.76</ele>
        <time>2014-02-23T10:30:53Z</time>
      </trkpt>
      <trkpt lat="45.77567" lon="4.81652">
        <ele>223.16</ele>
        <time>2014-02-23T10:31:00Z</time>
      </trkpt>
      <trkpt lat="45.77555" lon="4.8166">
        <ele>225.09</ele>
        <time>2014-02-23T10:31:09Z</time>
      </trkpt>
      <trkpt lat="45.7756" lon="4.81677">
        <ele>225.09</ele>
        <time>2014-02-23T10:31:20Z</time>
      </trkpt>
      <trkpt lat="45.77545" lon="4.81697">
        <ele>225.57</ele>
        <time>2014-02-23T10:31:30Z</time>
      </trkpt>
      <trkpt lat="45.77539" lon="4.81727">
        <ele>227.01</ele>
        <time>2014-02-23T10:31:43Z</time>
      </trkpt>
      <trkpt lat="45.77528" lon="4.81776">
        <ele>227.49</ele>
        <time>2014-02-23T10:31:56Z</time>
      </trkpt>
      <trkpt lat="45.77533" lon="4.81784">
        <ele>227.49</ele>
        <time>2014-02-23T10:32:00Z</time>
      </trkpt>
      <trkpt lat="45.77553" lon="4.81811">
        <ele>227.97</ele>
        <time>2014-02-23T10:32:15Z</time>
      </trkpt>
      <trkpt lat="45.77565" lon="4.81834">
        <ele>227.97</ele>
        <time>2014-02-23T10:32:22Z</time>
      </trkpt>
      <trkpt lat="45.77568" lon="4.81829">
        <ele>227.49</ele>
        <time>2014-02-23T10:32:31Z</time>
      </trkpt>
      <trkpt lat="45.77568" lon="4.81804">
        <ele>226.53</ele>
        <time>2014-02-23T10:32:47Z</time>
      </trkpt>
      <trkpt lat="45.77564" lon="4.81753">
        <ele>226.05</ele>
        <time>2014-02-23T10:32:58Z</time>
      </trkpt>
      <trkpt lat="45.77572" lon="4.81731">
        <ele>225.57</ele>
        <time>2014-02-23T10:33:05Z</time>
      </trkpt>
      <trkpt lat="45.77578" lon="4.81706">
        <ele>225.57</ele>
        <time>2014-02-23T10:33:12Z</time>
      </trkpt>
      <trkpt lat="45.77591" lon="4.81673">
        <ele>224.61</ele>
        <time>2014-02-23T10:33:21Z</time>
      </trkpt>
      <trkpt lat="45.7761" lon="4.81657">
        <ele>223.64</ele>
        <time>2014-02-23T10:33:30Z</time>
      </trkpt>
      <trkpt lat="45.77617" lon="4.81655">
        <ele>223.16</ele>
        <time>2014-02-23T10:33:33Z</time>
      </trkpt>
      <trkpt lat="45.77644" lon="4.81655">
        <ele>222.68</ele>
        <time>2014-02-23T10:33:44Z</time>
      </trkpt>
      <trkpt lat="45.7767" lon="4.81647">
        <ele>221.72</ele>
        <time>2014-02-23T10:33:54Z</time>
      </trkpt>
      <trkpt lat="45.77705" lon="4.81635">
        <ele>220.76</ele>
        <time>2014-02-23T10:34:07Z</time>
      </trkpt>
      <trkpt lat="45.77731" lon="4.81631">
        <ele>220.28</ele>
        <time>2014-02-23T10:34:17Z</time>
      </trkpt>
      <trkpt lat="45.77758" lon="4.81625">
        <ele>219.32</ele>
        <time>2014-02-23T10:34:27Z</time>
      </trkpt>
      <trkpt lat="45.77787" lon="4.81621">
        <ele>219.32</ele>
        <time>2014-02-23T10:34:37Z</time>
      </trkpt>
      <trkpt lat="45.77818" lon="4.81622">
        <ele>218.84</ele>
        <time>2014-02-23T10:34:49Z</time>
      </trkpt>
      <trkpt lat="45.7785" lon="4.8161">
        <ele>217.88</ele>
        <time>2014-02-23T10:35:02Z</time>
      </trkpt>
      <trkpt lat="45.77852" lon="4.81607">
        <ele>217.88</ele>
        <time>2014-02-23T10:35:03Z</time>
      </trkpt>
      <trkpt lat="45.77867" lon="4.81543">
        <ele>215.47</ele>
        <time>2014-02-23T10:35:18Z</time>
      </trkpt>
      <trkpt lat="45.77875" lon="4.81491">
        <ele>214.03</ele>
        <time>2014-02-23T10:35:31Z</time>
      </trkpt>
      <trkpt lat="45.77882" lon="4.8144">
        <ele>212.59</ele>
        <time>2014-02-23T10:35:43Z</time>
      </trkpt>
      <trkpt lat="45.77888" lon="4.8138">
        <ele>211.63</ele>
        <time>2014-02-23T10:35:57Z</time>
      </trkpt>
      <trkpt lat="45.77896" lon="4.81376">
        <ele>211.63</ele>
        <time>2014-02-23T10:36:00Z</time>
      </trkpt>
      <trkpt lat="45.77957" lon="4.81379">
        <ele>210.67</ele>
        <time>2014-02-23T10:36:12Z</time>
      </trkpt>
      <trkpt lat="45.77973" lon="4.81407">
        <ele>211.63</ele>
        <time>2014-02-23T10:36:25Z</time>
      </trkpt>
      <trkpt lat="45.77961" lon="4.81444">
        <ele>212.59</ele>
        <time>2014-02-23T10:36:36Z</time>
      </trkpt>
      <trkpt lat="45.77962" lon="4.81494">
        <ele>213.55</ele>
        <time>2014-02-23T10:36:49Z</time>
      </trkpt>
      <trkpt lat="45.77962" lon="4.81536">
        <ele>214.51</ele>
        <time>2014-02-23T10:37:02Z</time>
      </trkpt>
      <trkpt lat="45.77967" lon="4.8157">
        <ele>216.43</ele>
        <time>2014-02-23T10:37:13Z</time>
      </trkpt>
      <trkpt lat="45.7797" lon="4.81581">
        <ele>217.88</ele>
        <time>2014-02-23T10:37:20Z</time>
      </trkpt>
      <trkpt lat="45.78006" lon="4.81568">
        <ele>218.84</ele>
        <time>2014-02-23T10:37:33Z</time>
      </trkpt>
      <trkpt lat="45.78031" lon="4.81566">
        <ele>218.84</ele>
        <time>2014-02-23T10:37:43Z</time>
      </trkpt>
      <trkpt lat="45.78073" lon="4.81575">
        <ele>219.8</ele>
        <time>2014-02-23T10:37:54Z</time>
      </trkpt>
      <trkpt lat="45.781" lon="4.81589">
        <ele>219.8</ele>
        <time>2014-02-23T10:38:04Z</time>
      </trkpt>
      <trkpt lat="45.78124" lon="4.81602">
        <ele>219.8</ele>
        <time>2014-02-23T10:38:16Z</time>
      </trkpt>
      <trkpt lat="45.78163" lon="4.81612">
        <ele>217.88</ele>
        <time>2014-02-23T10:38:28Z</time>
      </trkpt>
      <trkpt lat="45.78167" lon="4.81609">
        <ele>216.43</ele>
        <time>2014-02-23T10:38:31Z</time>
      </trkpt>
      <trkpt lat="45.78158" lon="4.81604">
        <ele>214.99</ele>
        <time>2014-02-23T10:38:34Z</time>
      </trkpt>
      <trkpt lat="45.78151" lon="4.81599">
        <ele>213.55</ele>
        <time>2014-02-23T10:38:37Z</time>
      </trkpt>
      <trkpt lat="45.78149" lon="4.8159">
        <ele>212.59</ele>
        <time>2014-02-23T10:38:40Z</time>
      </trkpt>
      <trkpt lat="45.78159" lon="4.81595">
        <ele>211.15</ele>
        <time>2014-02-23T10:38:44Z</time>
      </trkpt>
      <trkpt lat="45.78165" lon="4.81595">
        <ele>210.67</ele>
        <time>2014-02-23T10:38:46Z</time>
      </trkpt>
      <trkpt lat="45.78168" lon="4.81596">
        <ele>210.19</ele>
        <time>2014-02-23T10:38:47Z</time>
      </trkpt>
      <trkpt lat="45.78169" lon="4.8159">
        <ele>208.74</ele>
        <time>2014-02-23T10:38:50Z</time>
      </trkpt>
      <trkpt lat="45.78149" lon="4.81574">
        <ele>206.34</ele>
        <time>2014-02-23T10:39:00Z</time>
      </trkpt>
      <trkpt lat="45.78159" lon="4.81573">
        <ele>205.86</ele>
        <time>2014-02-23T10:39:04Z</time>
      </trkpt>
      <trkpt lat="45.78174" lon="4.81572">
        <ele>203.46</ele>
        <time>2014-02-23T10:39:10Z</time>
      </trkpt>
      <trkpt lat="45.78176" lon="4.8156">
        <ele>201.53</ele>
        <time>2014-02-23T10:39:14Z</time>
      </trkpt>
      <trkpt lat="45.78183" lon="4.8155">
        <ele>198.65</ele>
        <time>2014-02-23T10:39:18Z</time>
      </trkpt>
      <trkpt lat="45.78178" lon="4.81542">
        <ele>197.21</ele>
        <time>2014-02-23T10:39:21Z</time>
      </trkpt>
      <trkpt lat="45.78175" lon="4.8154">
        <ele>196.25</ele>
        <time>2014-02-23T10:39:23Z</time>
      </trkpt>
      <trkpt lat="45.78168" lon="4.81517">
        <ele>193.84</ele>
        <time>2014-02-23T10:39:33Z</time>
      </trkpt>
      <trkpt lat="45.78198" lon="4.81525">
        <ele>190</ele>
        <time>2014-02-23T10:39:42Z</time>
      </trkpt>
      <trkpt lat="45.78234" lon="4.81547">
        <ele>191.92</ele>
        <time>2014-02-23T10:39:55Z</time>
      </trkpt>
      <trkpt lat="45.78251" lon="4.81572">
        <ele>195.28</ele>
        <time>2014-02-23T10:40:07Z</time>
      </trkpt>
      <trkpt lat="45.78256" lon="4.81585">
        <ele>198.65</ele>
        <time>2014-02-23T10:40:19Z</time>
      </trkpt>
      <trkpt lat="45.78255" lon="4.81589">
        <ele>199.13</ele>
        <time>2014-02-23T10:40:22Z</time>
      </trkpt>
      <trkpt lat="45.78263" lon="4.81617">
        <ele>202.01</ele>
        <time>2014-02-23T10:40:33Z</time>
      </trkpt>
      <trkpt lat="45.78288" lon="4.8164">
        <ele>204.9</ele>
        <time>2014-02-23T10:40:44Z</time>
      </trkpt>
      <trkpt lat="45.78265" lon="4.8168">
        <ele>207.3</ele>
        <time>2014-02-23T10:40:53Z</time>
      </trkpt>
      <trkpt lat="45.78258" lon="4.8172">
        <ele>210.67</ele>
        <time>2014-02-23T10:41:06Z</time>
      </trkpt>
      <trkpt lat="45.78252" lon="4.8174">
        <ele>214.03</ele>
        <time>2014-02-23T10:41:18Z</time>
      </trkpt>
      <trkpt lat="45.78243" lon="4.81746">
        <ele>214.99</ele>
        <time>2014-02-23T10:41:22Z</time>
      </trkpt>
      <trkpt lat="45.78223" lon="4.81778">
        <ele>218.36</ele>
        <time>2014-02-23T10:41:37Z</time>
      </trkpt>
      <trkpt lat="45.78204" lon="4.81823">
        <ele>221.72</ele>
        <time>2014-02-23T10:41:51Z</time>
      </trkpt>
      <trkpt lat="45.78216" lon="4.8184">
        <ele>224.12</ele>
        <time>2014-02-23T10:42:01Z</time>
      </trkpt>
      <trkpt lat="45.78241" lon="4.81827">
        <ele>225.57</ele>
        <time>2014-02-23T10:42:13Z</time>
      </trkpt>
      <trkpt lat="45.78282" lon="4.81812">
        <ele>226.53</ele>
        <time>2014-02-23T10:42:28Z</time>
      </trkpt>
      <trkpt lat="45.78308" lon="4.81802">
        <ele>226.05</ele>
        <time>2014-02-23T10:42:38Z</time>
      </trkpt>
      <trkpt lat="45.78316" lon="4.81804">
        <ele>226.05</ele>
        <time>2014-02-23T10:42:41Z</time>
      </trkpt>
      <trkpt lat="45.7834" lon="4.81794">
        <ele>226.53</ele>
        <time>2014-02-23T10:42:53Z</time>
      </trkpt>
      <trkpt lat="45.78343" lon="4.81794">
        <ele>226.53</ele>
        <time>2014-02-23T10:42:54Z</time>
      </trkpt>
      <trkpt lat="45.78362" lon="4.81823">
        <ele>226.05</ele>
        <time>2014-02-23T10:43:06Z</time>
      </trkpt>
      <trkpt lat="45.7837" lon="4.81869">
        <ele>226.05</ele>
        <time>2014-02-23T10:43:20Z</time>
      </trkpt>
      <trkpt lat="45.78374" lon="4.81917">
        <ele>226.53</ele>
        <time>2014-02-23T10:43:33Z</time>
      </trkpt>
      <trkpt lat="45.78374" lon="4.81963">
        <ele>227.01</ele>
        <time>2014-02-23T10:43:46Z</time>
      </trkpt>
      <trkpt lat="45.78379" lon="4.82008">
        <ele>227.01</ele>
        <time>2014-02-23T10:44:01Z</time>
      </trkpt>
      <trkpt lat="45.78378" lon="4.82054">
        <ele>227.49</ele>
        <time>2014-02-23T10:44:15Z</time>
      </trkpt>
      <trkpt lat="45.78394" lon="4.82048">
        <ele>227.01</ele>
        <time>2014-02-23T10:44:24Z</time>
      </trkpt>
      <trkpt lat="45.78424" lon="4.82047">
        <ele>227.01</ele>
        <time>2014-02-23T10:44:35Z</time>
      </trkpt>
      <trkpt lat="45.78452" lon="4.82067">
        <ele>226.53</ele>
        <time>2014-02-23T10:44:45Z</time>
      </trkpt>
      <trkpt lat="45.78455" lon="4.82095">
        <ele>226.05</ele>
        <time>2014-02-23T10:44:51Z</time>
      </trkpt>
      <trkpt lat="45.78469" lon="4.82099">
        <ele>226.05</ele>
        <time>2014-02-23T10:44:57Z</time>
      </trkpt>
      <trkpt lat="45.78496" lon="4.8209">
        <ele>222.2</ele>
        <time>2014-02-23T10:45:05Z</time>
      </trkpt>
      <trkpt lat="45.78499" lon="4.82091">
        <ele>222.2</ele>
        <time>2014-02-23T10:45:06Z</time>
      </trkpt>
      <trkpt lat="45.78511" lon="4.82098">
        <ele>218.84</ele>
        <time>2014-02-23T10:45:13Z</time>
      </trkpt>
      <trkpt lat="45.78529" lon="4.82091">
        <ele>216.91</ele>
        <time>2014-02-23T10:45:20Z</time>
      </trkpt>
      <trkpt lat="45.78548" lon="4.82086">
        <ele>212.59</ele>
        <time>2014-02-23T10:45:27Z</time>
      </trkpt>
      <trkpt lat="45.78561" lon="4.82082">
        <ele>209.22</ele>
        <time>2014-02-23T10:45:32Z</time>
      </trkpt>
      <trkpt lat="45.78564" lon="4.82082">
        <ele>209.22</ele>
        <time>2014-02-23T10:45:33Z</time>
      </trkpt>
      <trkpt lat="45.78579" lon="4.82076">
        <ele>205.86</ele>
        <time>2014-02-23T10:45:38Z</time>
      </trkpt>
      <trkpt lat="45.78582" lon="4.82075">
        <ele>205.86</ele>
        <time>2014-02-23T10:45:39Z</time>
      </trkpt>
      <trkpt lat="45.78594" lon="4.82072">
        <ele>202.49</ele>
        <time>2014-02-23T10:45:43Z</time>
      </trkpt>
      <trkpt lat="45.78597" lon="4.8207">
        <ele>202.49</ele>
        <time>2014-02-23T10:45:44Z</time>
      </trkpt>
      <trkpt lat="45.78602" lon="4.82068">
        <ele>201.05</ele>
        <time>2014-02-23T10:45:46Z</time>
      </trkpt>
      <trkpt lat="45.78611" lon="4.82065">
        <ele>198.65</ele>
        <time>2014-02-23T10:45:50Z</time>
      </trkpt>
      <trkpt lat="45.78617" lon="4.82063">
        <ele>197.21</ele>
        <time>2014-02-23T10:45:52Z</time>
      </trkpt>
      <trkpt lat="45.78622" lon="4.8206">
        <ele>195.77</ele>
        <time>2014-02-23T10:45:54Z</time>
      </trkpt>
      <trkpt lat="45.78626" lon="4.82058">
        <ele>192.88</ele>
        <time>2014-02-23T10:45:56Z</time>
      </trkpt>
      <trkpt lat="45.78629" lon="4.82058">
        <ele>192.88</ele>
        <time>2014-02-23T10:45:57Z</time>
      </trkpt>
      <trkpt lat="45.78634" lon="4.82057">
        <ele>190.96</ele>
        <time>2014-02-23T10:45:59Z</time>
      </trkpt>
      <trkpt lat="45.78638" lon="4.82059">
        <ele>189.52</ele>
        <time>2014-02-23T10:46:01Z</time>
      </trkpt>
      <trkpt lat="45.78643" lon="4.82061">
        <ele>188.08</ele>
        <time>2014-02-23T10:46:03Z</time>
      </trkpt>
      <trkpt lat="45.78647" lon="4.82062">
        <ele>186.63</ele>
        <time>2014-02-23T10:46:05Z</time>
      </trkpt>
      <trkpt lat="45.78651" lon="4.82063">
        <ele>185.19</ele>
        <time>2014-02-23T10:46:07Z</time>
      </trkpt>
      <trkpt lat="45.78655" lon="4.82064">
        <ele>183.75</ele>
        <time>2014-02-23T10:46:09Z</time>
      </trkpt>
      <trkpt lat="45.78664" lon="4.82065">
        <ele>181.35</ele>
        <time>2014-02-23T10:46:12Z</time>
      </trkpt>
      <trkpt lat="45.78675" lon="4.82064">
        <ele>177.98</ele>
        <time>2014-02-23T10:46:17Z</time>
      </trkpt>
      <trkpt lat="45.7869" lon="4.82053">
        <ele>174.62</ele>
        <time>2014-02-23T10:46:23Z</time>
      </trkpt>
      <trkpt lat="45.78699" lon="4.82046">
        <ele>172.21</ele>
        <time>2014-02-23T10:46:27Z</time>
      </trkpt>
      <trkpt lat="45.78711" lon="4.82039">
        <ele>168.85</ele>
        <time>2014-02-23T10:46:32Z</time>
      </trkpt>
      <trkpt lat="45.78714" lon="4.82038">
        <ele>168.85</ele>
        <time>2014-02-23T10:46:33Z</time>
      </trkpt>
      <trkpt lat="45.78734" lon="4.82048">
        <ele>165.48</ele>
        <time>2014-02-23T10:46:39Z</time>
      </trkpt>
      <trkpt lat="45.78739" lon="4.82061">
        <ele>164.04</ele>
        <time>2014-02-23T10:46:43Z</time>
      </trkpt>
      <trkpt lat="45.78764" lon="4.82089">
        <ele>160.2</ele>
        <time>2014-02-23T10:46:53Z</time>
      </trkpt>
      <trkpt lat="45.78767" lon="4.82098">
        <ele>159.72</ele>
        <time>2014-02-23T10:46:55Z</time>
      </trkpt>
      <trkpt lat="45.78813" lon="4.82127">
        <ele>157.31</ele>
        <time>2014-02-23T10:47:08Z</time>
      </trkpt>
      <trkpt lat="45.78817" lon="4.82134">
        <ele>156.83</ele>
        <time>2014-02-23T10:47:10Z</time>
      </trkpt>
      <trkpt lat="45.7883" lon="4.82143">
        <ele>156.83</ele>
        <time>2014-02-23T10:47:14Z</time>
      </trkpt>
      <trkpt lat="45.78824" lon="4.82179">
        <ele>156.35</ele>
        <time>2014-02-23T10:47:25Z</time>
      </trkpt>
      <trkpt lat="45.78789" lon="4.82204">
        <ele>156.83</ele>
        <time>2014-02-23T10:47:35Z</time>
      </trkpt>
      <trkpt lat="45.78766" lon="4.82226">
        <ele>157.31</ele>
        <time>2014-02-23T10:47:46Z</time>
      </trkpt>
      <trkpt lat="45.78756" lon="4.82259">
        <ele>159.72</ele>
        <time>2014-02-23T10:48:00Z</time>
      </trkpt>
      <trkpt lat="45.78748" lon="4.82259">
        <ele>162.6</ele>
        <time>2014-02-23T10:48:11Z</time>
      </trkpt>
      <trkpt lat="45.78739" lon="4.82244">
        <ele>165.48</ele>
        <time>2014-02-23T10:48:21Z</time>
      </trkpt>
      <trkpt lat="45.78739" lon="4.82241">
        <ele>165.96</ele>
        <time>2014-02-23T10:48:22Z</time>
      </trkpt>
      <trkpt lat="45.78735" lon="4.8222">
        <ele>168.37</ele>
        <time>2014-02-23T10:48:32Z</time>
      </trkpt>
      <trkpt lat="45.78733" lon="4.8221">
        <ele>169.33</ele>
        <time>2014-02-23T10:48:36Z</time>
      </trkpt>
      <trkpt lat="45.78724" lon="4.8219">
        <ele>172.69</ele>
        <time>2014-02-23T10:48:47Z</time>
      </trkpt>
      <trkpt lat="45.78713" lon="4.8217">
        <ele>176.06</ele>
        <time>2014-02-23T10:48:58Z</time>
      </trkpt>
      <trkpt lat="45.787" lon="4.82157">
        <ele>179.42</ele>
        <time>2014-02-23T10:49:08Z</time>
      </trkpt>
      <trkpt lat="45.78695" lon="4.82156">
        <ele>180.38</ele>
        <time>2014-02-23T10:49:11Z</time>
      </trkpt>
      <trkpt lat="45.78696" lon="4.82158">
        <ele>180.87</ele>
        <time>2014-02-23T10:49:12Z</time>
      </trkpt>
      <trkpt lat="45.78697" lon="4.82189">
        <ele>184.71</ele>
        <time>2014-02-23T10:49:24Z</time>
      </trkpt>
      <trkpt lat="45.78697" lon="4.82207">
        <ele>187.59</ele>
        <time>2014-02-23T10:49:34Z</time>
      </trkpt>
      <trkpt lat="45.78696" lon="4.82209">
        <ele>189.52</ele>
        <time>2014-02-23T10:49:39Z</time>
      </trkpt>
      <trkpt lat="45.78695" lon="4.82201">
        <ele>191.44</ele>
        <time>2014-02-23T10:49:44Z</time>
      </trkpt>
      <trkpt lat="45.7869" lon="4.82181">
        <ele>194.8</ele>
        <time>2014-02-23T10:49:53Z</time>
      </trkpt>
      <trkpt lat="45.78689" lon="4.82179">
        <ele>194.8</ele>
        <time>2014-02-23T10:49:54Z</time>
      </trkpt>
      <trkpt lat="45.78677" lon="4.82165">
        <ele>197.69</ele>
        <time>2014-02-23T10:50:03Z</time>
      </trkpt>
      <trkpt lat="45.78653" lon="4.8217">
        <ele>200.09</ele>
        <time>2014-02-23T10:50:09Z</time>
      </trkpt>
      <trkpt lat="45.7864" lon="4.82178">
        <ele>202.98</ele>
        <time>2014-02-23T10:50:18Z</time>
      </trkpt>
      <trkpt lat="45.78629" lon="4.82185">
        <ele>205.86</ele>
        <time>2014-02-23T10:50:27Z</time>
      </trkpt>
      <trkpt lat="45.78621" lon="4.82197">
        <ele>208.74</ele>
        <time>2014-02-23T10:50:35Z</time>
      </trkpt>
      <trkpt lat="45.78615" lon="4.82208">
        <ele>212.11</ele>
        <time>2014-02-23T10:50:44Z</time>
      </trkpt>
      <trkpt lat="45.78614" lon="4.82213">
        <ele>212.59</ele>
        <time>2014-02-23T10:50:47Z</time>
      </trkpt>
      <trkpt lat="45.78613" lon="4.82238">
        <ele>216.91</ele>
        <time>2014-02-23T10:50:59Z</time>
      </trkpt>
      <trkpt lat="45.78609" lon="4.82258">
        <ele>219.32</ele>
        <time>2014-02-23T10:51:07Z</time>
      </trkpt>
      <trkpt lat="45.78604" lon="4.82275">
        <ele>222.68</ele>
        <time>2014-02-23T10:51:16Z</time>
      </trkpt>
      <trkpt lat="45.78602" lon="4.82281">
        <ele>224.12</ele>
        <time>2014-02-23T10:51:20Z</time>
      </trkpt>
      <trkpt lat="45.78605" lon="4.82298">
        <ele>227.97</ele>
        <time>2014-02-23T10:51:29Z</time>
      </trkpt>
      <trkpt lat="45.78608" lon="4.82314">
        <ele>231.33</ele>
        <time>2014-02-23T10:51:39Z</time>
      </trkpt>
      <trkpt lat="45.78608" lon="4.82316">
        <ele>232.3</ele>
        <time>2014-02-23T10:51:41Z</time>
      </trkpt>
      <trkpt lat="45.78603" lon="4.82321">
        <ele>235.66</ele>
        <time>2014-02-23T10:51:50Z</time>
      </trkpt>
      <trkpt lat="45.78602" lon="4.82321">
        <ele>235.66</ele>
        <time>2014-02-23T10:51:51Z</time>
      </trkpt>
      <trkpt lat="45.7857" lon="4.82322">
        <ele>239.02</ele>
        <time>2014-02-23T10:52:08Z</time>
      </trkpt>
      <trkpt lat="45.78547" lon="4.82333">
        <ele>240.95</ele>
        <time>2014-02-23T10:52:22Z</time>
      </trkpt>
      <trkpt lat="45.78522" lon="4.82342">
        <ele>242.39</ele>
        <time>2014-02-23T10:52:35Z</time>
      </trkpt>
      <trkpt lat="45.78498" lon="4.82354">
        <ele>243.83</ele>
        <time>2014-02-23T10:52:47Z</time>
      </trkpt>
      <trkpt lat="45.78482" lon="4.82355">
        <ele>244.31</ele>
        <time>2014-02-23T10:52:56Z</time>
      </trkpt>
      <trkpt lat="45.78465" lon="4.8236">
        <ele>245.75</ele>
        <time>2014-02-23T10:53:06Z</time>
      </trkpt>
      <trkpt lat="45.78455" lon="4.82364">
        <ele>246.23</ele>
        <time>2014-02-23T10:53:11Z</time>
      </trkpt>
      <trkpt lat="45.78437" lon="4.82391">
        <ele>248.16</ele>
        <time>2014-02-23T10:53:24Z</time>
      </trkpt>
      <trkpt lat="45.78428" lon="4.82435">
        <ele>249.6</ele>
        <time>2014-02-23T10:53:39Z</time>
      </trkpt>
      <trkpt lat="45.78425" lon="4.82444">
        <ele>249.6</ele>
        <time>2014-02-23T10:53:42Z</time>
      </trkpt>
      <trkpt lat="45.78406" lon="4.82487">
        <ele>249.12</ele>
        <time>2014-02-23T10:53:55Z</time>
      </trkpt>
      <trkpt lat="45.78386" lon="4.82514">
        <ele>248.16</ele>
        <time>2014-02-23T10:54:07Z</time>
      </trkpt>
      <trkpt lat="45.78354" lon="4.82504">
        <ele>248.16</ele>
        <time>2014-02-23T10:54:20Z</time>
      </trkpt>
      <trkpt lat="45.78324" lon="4.82497">
        <ele>248.16</ele>
        <time>2014-02-23T10:54:33Z</time>
      </trkpt>
      <trkpt lat="45.78286" lon="4.82501">
        <ele>247.68</ele>
        <time>2014-02-23T10:54:47Z</time>
      </trkpt>
      <trkpt lat="45.78239" lon="4.82519">
        <ele>247.68</ele>
        <time>2014-02-23T10:55:03Z</time>
      </trkpt>
      <trkpt lat="45.78219" lon="4.82512">
        <ele>247.2</ele>
        <time>2014-02-23T10:55:12Z</time>
      </trkpt>
      <trkpt lat="45.78214" lon="4.82509">
        <ele>247.2</ele>
        <time>2014-02-23T10:55:15Z</time>
      </trkpt>
      <trkpt lat="45.782" lon="4.82499">
        <ele>247.2</ele>
        <time>2014-02-23T10:55:22Z</time>
      </trkpt>
      <trkpt lat="45.78171" lon="4.82518">
        <ele>246.72</ele>
        <time>2014-02-23T10:55:33Z</time>
      </trkpt>
      <trkpt lat="45.78164" lon="4.82514">
        <ele>246.72</ele>
        <time>2014-02-23T10:55:36Z</time>
      </trkpt>
      <trkpt lat="45.7813" lon="4.82531">
        <ele>246.23</ele>
        <time>2014-02-23T10:55:49Z</time>
      </trkpt>
      <trkpt lat="45.78096" lon="4.82522">
        <ele>245.27</ele>
        <time>2014-02-23T10:56:02Z</time>
      </trkpt>
      <trkpt lat="45.78066" lon="4.82517">
        <ele>244.79</ele>
        <time>2014-02-23T10:56:15Z</time>
      </trkpt>
      <trkpt lat="45.78017" lon="4.82522">
        <ele>243.83</ele>
        <time>2014-02-23T10:56:31Z</time>
      </trkpt>
      <trkpt lat="45.77984" lon="4.82538">
        <ele>244.31</ele>
        <time>2014-02-23T10:56:43Z</time>
      </trkpt>
      <trkpt lat="45.7798" lon="4.82539">
        <ele>243.83</ele>
        <time>2014-02-23T10:56:45Z</time>
      </trkpt>
      <trkpt lat="45.77977" lon="4.82542">
        <ele>243.83</ele>
        <time>2014-02-23T10:56:50Z</time>
      </trkpt>
      <trkpt lat="45.77988" lon="4.82587">
        <ele>242.87</ele>
        <time>2014-02-23T10:57:05Z</time>
      </trkpt>
      <trkpt lat="45.7799" lon="4.82642">
        <ele>241.43</ele>
        <time>2014-02-23T10:57:21Z</time>
      </trkpt>
      <trkpt lat="45.77991" lon="4.82687">
        <ele>240.95</ele>
        <time>2014-02-23T10:57:34Z</time>
      </trkpt>
      <trkpt lat="45.77995" lon="4.82719">
        <ele>239.99</ele>
        <time>2014-02-23T10:57:44Z</time>
      </trkpt>
      <trkpt lat="45.77995" lon="4.82769">
        <ele>239.99</ele>
        <time>2014-02-23T10:58:00Z</time>
      </trkpt>
      <trkpt lat="45.77996" lon="4.82816">
        <ele>239.99</ele>
        <time>2014-02-23T10:58:13Z</time>
      </trkpt>
      <trkpt lat="45.77996" lon="4.82859">
        <ele>239.99</ele>
        <time>2014-02-23T10:58:25Z</time>
      </trkpt>
      <trkpt lat="45.77992" lon="4.82915">
        <ele>239.99</ele>
        <time>2014-02-23T10:58:41Z</time>
      </trkpt>
      <trkpt lat="45.7799" lon="4.82966">
        <ele>239.99</ele>
        <time>2014-02-23T10:58:55Z</time>
      </trkpt>
      <trkpt lat="45.77993" lon="4.83025">
        <ele>239.99</ele>
        <time>2014-02-23T10:59:09Z</time>
      </trkpt>
      <trkpt lat="45.77977" lon="4.83085">
        <ele>239.51</ele>
        <time>2014-02-23T10:59:23Z</time>
      </trkpt>
      <trkpt lat="45.7797" lon="4.83128">
        <ele>238.06</ele>
        <time>2014-02-23T10:59:32Z</time>
      </trkpt>
      <trkpt lat="45.77967" lon="4.83183">
        <ele>236.62</ele>
        <time>2014-02-23T10:59:43Z</time>
      </trkpt>
      <trkpt lat="45.77965" lon="4.83224">
        <ele>235.18</ele>
        <time>2014-02-23T10:59:53Z</time>
      </trkpt>
      <trkpt lat="45.77946" lon="4.83237">
        <ele>235.18</ele>
        <time>2014-02-23T10:59:59Z</time>
      </trkpt>
      <trkpt lat="45.77916" lon="4.83216">
        <ele>234.7</ele>
        <time>2014-02-23T11:00:09Z</time>
      </trkpt>
      <trkpt lat="45.77877" lon="4.83213">
        <ele>235.18</ele>
        <time>2014-02-23T11:00:23Z</time>
      </trkpt>
      <trkpt lat="45.77835" lon="4.83219">
        <ele>235.66</ele>
        <time>2014-02-23T11:00:39Z</time>
      </trkpt>
      <trkpt lat="45.7782" lon="4.83224">
        <ele>236.14</ele>
        <time>2014-02-23T11:00:44Z</time>
      </trkpt>
      <trkpt lat="45.77777" lon="4.83227">
        <ele>237.1</ele>
        <time>2014-02-23T11:00:58Z</time>
      </trkpt>
      <trkpt lat="45.77757" lon="4.83227">
        <ele>238.06</ele>
        <time>2014-02-23T11:01:09Z</time>
      </trkpt>
      <trkpt lat="45.77718" lon="4.8323">
        <ele>238.54</ele>
        <time>2014-02-23T11:01:21Z</time>
      </trkpt>
      <trkpt lat="45.77689" lon="4.83228">
        <ele>239.51</ele>
        <time>2014-02-23T11:01:33Z</time>
      </trkpt>
      <trkpt lat="45.77659" lon="4.8323">
        <ele>240.47</ele>
        <time>2014-02-23T11:01:47Z</time>
      </trkpt>
      <trkpt lat="45.77616" lon="4.83238">
        <ele>240.95</ele>
        <time>2014-02-23T11:02:00Z</time>
      </trkpt>
      <trkpt lat="45.77582" lon="4.83249">
        <ele>241.43</ele>
        <time>2014-02-23T11:02:12Z</time>
      </trkpt>
      <trkpt lat="45.77564" lon="4.83255">
        <ele>241.91</ele>
        <time>2014-02-23T11:02:25Z</time>
      </trkpt>
      <trkpt lat="45.77538" lon="4.8326">
        <ele>242.87</ele>
        <time>2014-02-23T11:02:37Z</time>
      </trkpt>
      <trkpt lat="45.77526" lon="4.83257">
        <ele>243.35</ele>
        <time>2014-02-23T11:02:43Z</time>
      </trkpt>
      <trkpt lat="45.77506" lon="4.83235">
        <ele>244.31</ele>
        <time>2014-02-23T11:02:56Z</time>
      </trkpt>
      <trkpt lat="45.77488" lon="4.83217">
        <ele>245.75</ele>
        <time>2014-02-23T11:03:05Z</time>
      </trkpt>
      <trkpt lat="45.77476" lon="4.83207">
        <ele>246.23</ele>
        <time>2014-02-23T11:03:10Z</time>
      </trkpt>
      <trkpt lat="45.77473" lon="4.83204">
        <ele>246.23</ele>
        <time>2014-02-23T11:03:14Z</time>
      </trkpt>
      <trkpt lat="45.7744" lon="4.83179">
        <ele>247.2</ele>
        <time>2014-02-23T11:03:27Z</time>
      </trkpt>
      <trkpt lat="45.77424" lon="4.83175">
        <ele>247.2</ele>
        <time>2014-02-23T11:03:39Z</time>
      </trkpt>
      <trkpt lat="45.77423" lon="4.83174">
        <ele>249.6</ele>
        <time>2014-02-23T11:04:42Z</time>
      </trkpt>
      <trkpt lat="45.77433" lon="4.83123">
        <ele>250.08</ele>
        <time>2014-02-23T11:04:53Z</time>
      </trkpt>
      <trkpt lat="45.77429" lon="4.83089">
        <ele>250.56</ele>
        <time>2014-02-23T11:05:04Z</time>
      </trkpt>
      <trkpt lat="45.77429" lon="4.83087">
        <ele>250.56</ele>
        <time>2014-02-23T11:05:06Z</time>
      </trkpt>
      <trkpt lat="45.7743" lon="4.83053">
        <ele>250.56</ele>
        <time>2014-02-23T11:05:18Z</time>
      </trkpt>
      <trkpt lat="45.77429" lon="4.83017">
        <ele>251.04</ele>
        <time>2014-02-23T11:05:29Z</time>
      </trkpt>
      <trkpt lat="45.77417" lon="4.82987">
        <ele>251.52</ele>
        <time>2014-02-23T11:05:40Z</time>
      </trkpt>
      <trkpt lat="45.77386" lon="4.82982">
        <ele>251.52</ele>
        <time>2014-02-23T11:05:50Z</time>
      </trkpt>
      <trkpt lat="45.77355" lon="4.82994">
        <ele>252</ele>
        <time>2014-02-23T11:06:02Z</time>
      </trkpt>
      <trkpt lat="45.77349" lon="4.82968">
        <ele>252.48</ele>
        <time>2014-02-23T11:06:12Z</time>
      </trkpt>
      <trkpt lat="45.77351" lon="4.82961">
        <ele>252.96</ele>
        <time>2014-02-23T11:06:14Z</time>
      </trkpt>
      <trkpt lat="45.77339" lon="4.8294">
        <ele>253.44</ele>
        <time>2014-02-23T11:06:22Z</time>
      </trkpt>
      <trkpt lat="45.77308" lon="4.82937">
        <ele>253.93</ele>
        <time>2014-02-23T11:06:34Z</time>
      </trkpt>
      <trkpt lat="45.77293" lon="4.82908">
        <ele>253.44</ele>
        <time>2014-02-23T11:06:45Z</time>
      </trkpt>
      <trkpt lat="45.77287" lon="4.8286">
        <ele>252.48</ele>
        <time>2014-02-23T11:06:58Z</time>
      </trkpt>
      <trkpt lat="45.77291" lon="4.82812">
        <ele>251.52</ele>
        <time>2014-02-23T11:07:09Z</time>
      </trkpt>
      <trkpt lat="45.77294" lon="4.82792">
        <ele>251.04</ele>
        <time>2014-02-23T11:07:20Z</time>
      </trkpt>
      <trkpt lat="45.77295" lon="4.82745">
        <ele>250.56</ele>
        <time>2014-02-23T11:07:33Z</time>
      </trkpt>
      <trkpt lat="45.77297" lon="4.82725">
        <ele>250.08</ele>
        <time>2014-02-23T11:07:39Z</time>
      </trkpt>
      <trkpt lat="45.77316" lon="4.82728">
        <ele>250.56</ele>
        <time>2014-02-23T11:07:48Z</time>
      </trkpt>
      <trkpt lat="45.7732" lon="4.82713">
        <ele>251.52</ele>
        <time>2014-02-23T11:07:55Z</time>
      </trkpt>
      <trkpt lat="45.77322" lon="4.82684">
        <ele>249.12</ele>
        <time>2014-02-23T11:08:04Z</time>
      </trkpt>
      <trkpt lat="45.77319" lon="4.82678">
        <ele>248.16</ele>
        <time>2014-02-23T11:08:06Z</time>
      </trkpt>
      <trkpt lat="45.77306" lon="4.82685">
        <ele>246.23</ele>
        <time>2014-02-23T11:08:11Z</time>
      </trkpt>
      <trkpt lat="45.77284" lon="4.82705">
        <ele>243.35</ele>
        <time>2014-02-23T11:08:22Z</time>
      </trkpt>
      <trkpt lat="45.77288" lon="4.82667">
        <ele>240.47</ele>
        <time>2014-02-23T11:08:31Z</time>
      </trkpt>
      <trkpt lat="45.77278" lon="4.82672">
        <ele>238.54</ele>
        <time>2014-02-23T11:08:36Z</time>
      </trkpt>
      <trkpt lat="45.77277" lon="4.82667">
        <ele>238.06</ele>
        <time>2014-02-23T11:08:38Z</time>
      </trkpt>
      <trkpt lat="45.77276" lon="4.82649">
        <ele>236.14</ele>
        <time>2014-02-23T11:08:43Z</time>
      </trkpt>
      <trkpt lat="45.77267" lon="4.82668">
        <ele>234.7</ele>
        <time>2014-02-23T11:08:50Z</time>
      </trkpt>
      <trkpt lat="45.77261" lon="4.82686">
        <ele>230.37</ele>
        <time>2014-02-23T11:09:00Z</time>
      </trkpt>
      <trkpt lat="45.77258" lon="4.82688">
        <ele>229.41</ele>
        <time>2014-02-23T11:09:02Z</time>
      </trkpt>
      <trkpt lat="45.77239" lon="4.82688">
        <ele>226.05</ele>
        <time>2014-02-23T11:09:13Z</time>
      </trkpt>
      <trkpt lat="45.77211" lon="4.82667">
        <ele>224.12</ele>
        <time>2014-02-23T11:09:23Z</time>
      </trkpt>
      <trkpt lat="45.77185" lon="4.82646">
        <ele>222.2</ele>
        <time>2014-02-23T11:09:33Z</time>
      </trkpt>
      <trkpt lat="45.77189" lon="4.82613">
        <ele>221.72</ele>
        <time>2014-02-23T11:09:44Z</time>
      </trkpt>
      <trkpt lat="45.77189" lon="4.82592">
        <ele>222.2</ele>
        <time>2014-02-23T11:09:50Z</time>
      </trkpt>
      <trkpt lat="45.77165" lon="4.82584">
        <ele>221.72</ele>
        <time>2014-02-23T11:10:02Z</time>
      </trkpt>
      <trkpt lat="45.77128" lon="4.82582">
        <ele>219.32</ele>
        <time>2014-02-23T11:10:15Z</time>
      </trkpt>
      <trkpt lat="45.77096" lon="4.82582">
        <ele>217.88</ele>
        <time>2014-02-23T11:10:26Z</time>
      </trkpt>
      <trkpt lat="45.77045" lon="4.82586">
        <ele>215.95</ele>
        <time>2014-02-23T11:10:40Z</time>
      </trkpt>
      <trkpt lat="45.7701" lon="4.82592">
        <ele>213.55</ele>
        <time>2014-02-23T11:10:55Z</time>
      </trkpt>
      <trkpt lat="45.77001" lon="4.82592">
        <ele>211.15</ele>
        <time>2014-02-23T11:11:01Z</time>
      </trkpt>
      <trkpt lat="45.76994" lon="4.82593">
        <ele>208.74</ele>
        <time>2014-02-23T11:11:05Z</time>
      </trkpt>
      <trkpt lat="45.76965" lon="4.8258">
        <ele>205.86</ele>
        <time>2014-02-23T11:11:15Z</time>
      </trkpt>
      <trkpt lat="45.76951" lon="4.8259">
        <ele>205.38</ele>
        <time>2014-02-23T11:11:20Z</time>
      </trkpt>
      <trkpt lat="45.76938" lon="4.8256">
        <ele>203.46</ele>
        <time>2014-02-23T11:11:31Z</time>
      </trkpt>
      <trkpt lat="45.76938" lon="4.82527">
        <ele>203.94</ele>
        <time>2014-02-23T11:11:42Z</time>
      </trkpt>
      <trkpt lat="45.76951" lon="4.8248">
        <ele>205.86</ele>
        <time>2014-02-23T11:11:54Z</time>
      </trkpt>
      <trkpt lat="45.76954" lon="4.82438">
        <ele>208.26</ele>
        <time>2014-02-23T11:12:06Z</time>
      </trkpt>
      <trkpt lat="45.76945" lon="4.82414">
        <ele>210.19</ele>
        <time>2014-02-23T11:12:17Z</time>
      </trkpt>
      <trkpt lat="45.7694" lon="4.82407">
        <ele>210.19</ele>
        <time>2014-02-23T11:12:20Z</time>
      </trkpt>
      <trkpt lat="45.76914" lon="4.82401">
        <ele>209.22</ele>
        <time>2014-02-23T11:12:31Z</time>
      </trkpt>
      <trkpt lat="45.769" lon="4.82393">
        <ele>206.82</ele>
        <time>2014-02-23T11:12:37Z</time>
      </trkpt>
      <trkpt lat="45.76891" lon="4.82392">
        <ele>205.38</ele>
        <time>2014-02-23T11:12:41Z</time>
      </trkpt>
      <trkpt lat="45.76883" lon="4.82396">
        <ele>202.98</ele>
        <time>2014-02-23T11:12:45Z</time>
      </trkpt>
      <trkpt lat="45.76883" lon="4.82406">
        <ele>201.05</ele>
        <time>2014-02-23T11:12:48Z</time>
      </trkpt>
      <trkpt lat="45.76896" lon="4.82416">
        <ele>198.17</ele>
        <time>2014-02-23T11:12:54Z</time>
      </trkpt>
      <trkpt lat="45.76917" lon="4.82427">
        <ele>194.32</ele>
        <time>2014-02-23T11:13:02Z</time>
      </trkpt>
      <trkpt lat="45.76928" lon="4.82445">
        <ele>191.44</ele>
        <time>2014-02-23T11:13:09Z</time>
      </trkpt>
      <trkpt lat="45.76927" lon="4.82462">
        <ele>188.08</ele>
        <time>2014-02-23T11:13:17Z</time>
      </trkpt>
      <trkpt lat="45.76925" lon="4.8246">
        <ele>187.11</ele>
        <time>2014-02-23T11:13:19Z</time>
      </trkpt>
      <trkpt lat="45.76923" lon="4.82459">
        <ele>186.15</ele>
        <time>2014-02-23T11:13:21Z</time>
      </trkpt>
      <trkpt lat="45.76919" lon="4.82451">
        <ele>185.67</ele>
        <time>2014-02-23T11:13:23Z</time>
      </trkpt>
      <trkpt lat="45.76913" lon="4.82448">
        <ele>184.23</ele>
        <time>2014-02-23T11:13:25Z</time>
      </trkpt>
      <trkpt lat="45.76908" lon="4.82458">
        <ele>182.31</ele>
        <time>2014-02-23T11:13:30Z</time>
      </trkpt>
      <trkpt lat="45.76905" lon="4.82468">
        <ele>179.9</ele>
        <time>2014-02-23T11:13:33Z</time>
      </trkpt>
      <trkpt lat="45.76888" lon="4.8247">
        <ele>177.02</ele>
        <time>2014-02-23T11:13:40Z</time>
      </trkpt>
      <trkpt lat="45.76882" lon="4.82473">
        <ele>176.06</ele>
        <time>2014-02-23T11:13:42Z</time>
      </trkpt>
      <trkpt lat="45.76867" lon="4.82478">
        <ele>172.69</ele>
        <time>2014-02-23T11:13:48Z</time>
      </trkpt>
      <trkpt lat="45.76842" lon="4.8248">
        <ele>170.77</ele>
        <time>2014-02-23T11:13:59Z</time>
      </trkpt>
      <trkpt lat="45.76843" lon="4.82488">
        <ele>170.29</ele>
        <time>2014-02-23T11:14:01Z</time>
      </trkpt>
      <trkpt lat="45.76846" lon="4.82529">
        <ele>170.29</ele>
        <time>2014-02-23T11:14:14Z</time>
      </trkpt>
      <trkpt lat="45.7685" lon="4.82572">
        <ele>170.77</ele>
        <time>2014-02-23T11:14:26Z</time>
      </trkpt>
      <trkpt lat="45.7684" lon="4.82621">
        <ele>170.77</ele>
        <time>2014-02-23T11:14:41Z</time>
      </trkpt>
      <trkpt lat="45.76839" lon="4.82647">
        <ele>170.77</ele>
        <time>2014-02-23T11:14:48Z</time>
      </trkpt>
      <trkpt lat="45.76839" lon="4.82676">
        <ele>170.77</ele>
        <time>2014-02-23T11:14:57Z</time>
      </trkpt>
      <trkpt lat="45.76828" lon="4.8271">
        <ele>170.29</ele>
        <time>2014-02-23T11:15:05Z</time>
      </trkpt>
      <trkpt lat="45.76821" lon="4.82742">
        <ele>170.29</ele>
        <time>2014-02-23T11:15:13Z</time>
      </trkpt>
      <trkpt lat="45.76812" lon="4.82777">
        <ele>170.29</ele>
        <time>2014-02-23T11:15:23Z</time>
      </trkpt>
      <trkpt lat="45.76801" lon="4.82813">
        <ele>170.29</ele>
        <time>2014-02-23T11:15:35Z</time>
      </trkpt>
      <trkpt lat="45.76796" lon="4.82822">
        <ele>171.25</ele>
        <time>2014-02-23T11:15:45Z</time>
      </trkpt>
      <trkpt lat="45.76787" lon="4.82818">
        <ele>172.21</ele>
        <time>2014-02-23T11:15:51Z</time>
      </trkpt>
      <trkpt lat="45.76752" lon="4.82782">
        <ele>171.73</ele>
        <time>2014-02-23T11:16:02Z</time>
      </trkpt>
      <trkpt lat="45.76725" lon="4.82764">
        <ele>171.73</ele>
        <time>2014-02-23T11:16:11Z</time>
      </trkpt>
      <trkpt lat="45.76708" lon="4.82768">
        <ele>169.81</ele>
        <time>2014-02-23T11:16:22Z</time>
      </trkpt>
      <trkpt lat="45.76701" lon="4.82776">
        <ele>169.81</ele>
        <time>2014-02-23T11:16:26Z</time>
      </trkpt>
      <trkpt lat="45.76686" lon="4.82803">
        <ele>169.81</ele>
        <time>2014-02-23T11:16:37Z</time>
      </trkpt>
      <trkpt lat="45.76664" lon="4.82828">
        <ele>169.33</ele>
        <time>2014-02-23T11:16:49Z</time>
      </trkpt>
      <trkpt lat="45.76649" lon="4.82843">
        <ele>169.81</ele>
        <time>2014-02-23T11:16:59Z</time>
      </trkpt>
      <trkpt lat="45.76631" lon="4.82838">
        <ele>170.29</ele>
        <time>2014-02-23T11:17:11Z</time>
      </trkpt>
      <trkpt lat="45.7663" lon="4.82836">
        <ele>170.29</ele>
        <time>2014-02-23T11:17:12Z</time>
      </trkpt>
      <trkpt lat="45.76617" lon="4.82791">
        <ele>171.25</ele>
        <time>2014-02-23T11:17:27Z</time>
      </trkpt>
      <trkpt lat="45.76602" lon="4.8276">
        <ele>172.21</ele>
        <time>2014-02-23T11:17:38Z</time>
      </trkpt>
      <trkpt lat="45.76589" lon="4.82715">
        <ele>174.14</ele>
        <time>2014-02-23T11:17:53Z</time>
      </trkpt>
      <trkpt lat="45.76584" lon="4.82687">
        <ele>176.54</ele>
        <time>2014-02-23T11:18:05Z</time>
      </trkpt>
      <trkpt lat="45.76577" lon="4.82665">
        <ele>179.42</ele>
        <time>2014-02-23T11:18:14Z</time>
      </trkpt>
      <trkpt lat="45.76574" lon="4.82673">
        <ele>179.9</ele>
        <time>2014-02-23T11:18:16Z</time>
      </trkpt>
      <trkpt lat="45.76549" lon="4.82707">
        <ele>181.35</ele>
        <time>2014-02-23T11:18:28Z</time>
      </trkpt>
      <trkpt lat="45.76521" lon="4.82716">
        <ele>184.71</ele>
        <time>2014-02-23T11:18:42Z</time>
      </trkpt>
      <trkpt lat="45.76502" lon="4.82713">
        <ele>187.11</ele>
        <time>2014-02-23T11:18:54Z</time>
      </trkpt>
      <trkpt lat="45.76495" lon="4.82706">
        <ele>188.56</ele>
        <time>2014-02-23T11:18:59Z</time>
      </trkpt>
      <trkpt lat="45.76473" lon="4.82673">
        <ele>191.92</ele>
        <time>2014-02-23T11:19:12Z</time>
      </trkpt>
      <trkpt lat="45.76451" lon="4.82668">
        <ele>194.8</ele>
        <time>2014-02-23T11:19:26Z</time>
      </trkpt>
      <trkpt lat="45.76423" lon="4.82672">
        <ele>198.17</ele>
        <time>2014-02-23T11:19:40Z</time>
      </trkpt>
      <trkpt lat="45.76398" lon="4.82659">
        <ele>202.01</ele>
        <time>2014-02-23T11:19:53Z</time>
      </trkpt>
      <trkpt lat="45.76369" lon="4.82649">
        <ele>205.38</ele>
        <time>2014-02-23T11:20:08Z</time>
      </trkpt>
      <trkpt lat="45.7634" lon="4.82664">
        <ele>208.26</ele>
        <time>2014-02-23T11:20:22Z</time>
      </trkpt>
      <trkpt lat="45.7632" lon="4.82667">
        <ele>211.15</ele>
        <time>2014-02-23T11:20:33Z</time>
      </trkpt>
      <trkpt lat="45.76305" lon="4.82659">
        <ele>214.51</ele>
        <time>2014-02-23T11:20:44Z</time>
      </trkpt>
      <trkpt lat="45.76293" lon="4.82638">
        <ele>217.88</ele>
        <time>2014-02-23T11:20:57Z</time>
      </trkpt>
      <trkpt lat="45.76282" lon="4.82583">
        <ele>221.24</ele>
        <time>2014-02-23T11:21:10Z</time>
      </trkpt>
      <trkpt lat="45.76262" lon="4.82562">
        <ele>225.09</ele>
        <time>2014-02-23T11:21:23Z</time>
      </trkpt>
      <trkpt lat="45.76264" lon="4.82572">
        <ele>224.61</ele>
        <time>2014-02-23T11:21:37Z</time>
      </trkpt>
      <trkpt lat="45.76266" lon="4.82573">
        <ele>220.76</ele>
        <time>2014-02-23T11:21:45Z</time>
      </trkpt>
      <trkpt lat="45.76265" lon="4.82574">
        <ele>218.84</ele>
        <time>2014-02-23T11:21:49Z</time>
      </trkpt>
      <trkpt lat="45.7626" lon="4.82572">
        <ele>214.99</ele>
        <time>2014-02-23T11:21:54Z</time>
      </trkpt>
      <trkpt lat="45.76259" lon="4.82573">
        <ele>214.99</ele>
        <time>2014-02-23T11:21:55Z</time>
      </trkpt>
      <trkpt lat="45.76256" lon="4.82579">
        <ele>213.55</ele>
        <time>2014-02-23T11:21:57Z</time>
      </trkpt>
      <trkpt lat="45.76254" lon="4.82584">
        <ele>212.11</ele>
        <time>2014-02-23T11:21:59Z</time>
      </trkpt>
      <trkpt lat="45.76251" lon="4.82586">
        <ele>210.67</ele>
        <time>2014-02-23T11:22:01Z</time>
      </trkpt>
      <trkpt lat="45.76248" lon="4.8259">
        <ele>209.22</ele>
        <time>2014-02-23T11:22:03Z</time>
      </trkpt>
      <trkpt lat="45.76245" lon="4.82603">
        <ele>205.86</ele>
        <time>2014-02-23T11:22:08Z</time>
      </trkpt>
      <trkpt lat="45.76239" lon="4.82609">
        <ele>203.94</ele>
        <time>2014-02-23T11:22:12Z</time>
      </trkpt>
      <trkpt lat="45.76231" lon="4.82615">
        <ele>200.09</ele>
        <time>2014-02-23T11:22:17Z</time>
      </trkpt>
      <trkpt lat="45.76231" lon="4.82616">
        <ele>200.09</ele>
        <time>2014-02-23T11:22:18Z</time>
      </trkpt>
      <trkpt lat="45.76228" lon="4.82618">
        <ele>198.65</ele>
        <time>2014-02-23T11:22:20Z</time>
      </trkpt>
      <trkpt lat="45.76224" lon="4.82618">
        <ele>197.69</ele>
        <time>2014-02-23T11:22:22Z</time>
      </trkpt>
      <trkpt lat="45.76223" lon="4.8262">
        <ele>196.25</ele>
        <time>2014-02-23T11:22:24Z</time>
      </trkpt>
      <trkpt lat="45.76213" lon="4.82618">
        <ele>192.88</ele>
        <time>2014-02-23T11:22:29Z</time>
      </trkpt>
      <trkpt lat="45.76208" lon="4.82619">
        <ele>190</ele>
        <time>2014-02-23T11:22:35Z</time>
      </trkpt>
      <trkpt lat="45.76206" lon="4.82627">
        <ele>186.63</ele>
        <time>2014-02-23T11:22:40Z</time>
      </trkpt>
      <trkpt lat="45.76202" lon="4.82625">
        <ele>186.63</ele>
        <time>2014-02-23T11:22:41Z</time>
      </trkpt>
      <trkpt lat="45.76195" lon="4.82629">
        <ele>186.63</ele>
        <time>2014-02-23T11:22:50Z</time>
      </trkpt>
      <trkpt lat="45.7619" lon="4.82612">
        <ele>186.63</ele>
        <time>2014-02-23T11:22:54Z</time>
      </trkpt>
      <trkpt lat="45.76165" lon="4.82599">
        <ele>185.67</ele>
        <time>2014-02-23T11:23:06Z</time>
      </trkpt>
      <trkpt lat="45.76146" lon="4.82596">
        <ele>185.67</ele>
        <time>2014-02-23T11:23:14Z</time>
      </trkpt>
      <trkpt lat="45.76125" lon="4.82592">
        <ele>184.71</ele>
        <time>2014-02-23T11:23:24Z</time>
      </trkpt>
      <trkpt lat="45.76097" lon="4.82579">
        <ele>184.71</ele>
        <time>2014-02-23T11:23:37Z</time>
      </trkpt>
      <trkpt lat="45.76094" lon="4.82587">
        <ele>184.71</ele>
        <time>2014-02-23T11:23:39Z</time>
      </trkpt>
      <trkpt lat="45.7609" lon="4.82645">
        <ele>182.31</ele>
        <time>2014-02-23T11:23:54Z</time>
      </trkpt>
      <trkpt lat="45.76057" lon="4.8267">
        <ele>181.35</ele>
        <time>2014-02-23T11:24:08Z</time>
      </trkpt>
      <trkpt lat="45.76039" lon="4.82683">
        <ele>181.35</ele>
        <time>2014-02-23T11:24:15Z</time>
      </trkpt>
      <trkpt lat="45.76027" lon="4.8267">
        <ele>181.35</ele>
        <time>2014-02-23T11:24:20Z</time>
      </trkpt>
      <trkpt lat="45.76009" lon="4.8267">
        <ele>181.83</ele>
        <time>2014-02-23T11:24:29Z</time>
      </trkpt>
      <trkpt lat="45.76004" lon="4.82672">
        <ele>181.83</ele>
        <time>2014-02-23T11:24:31Z</time>
      </trkpt>
      <trkpt lat="45.75977" lon="4.82662">
        <ele>182.31</ele>
        <time>2014-02-23T11:24:45Z</time>
      </trkpt>
      <trkpt lat="45.75971" lon="4.8265">
        <ele>182.31</ele>
        <time>2014-02-23T11:24:49Z</time>
      </trkpt>
      <trkpt lat="45.75946" lon="4.82615">
        <ele>185.19</ele>
        <time>2014-02-23T11:25:08Z</time>
      </trkpt>
      <trkpt lat="45.75941" lon="4.8258">
        <ele>187.59</ele>
        <time>2014-02-23T11:25:22Z</time>
      </trkpt>
      <trkpt lat="45.7592" lon="4.82559">
        <ele>190.96</ele>
        <time>2014-02-23T11:25:37Z</time>
      </trkpt>
      <trkpt lat="45.75914" lon="4.82549">
        <ele>191.44</ele>
        <time>2014-02-23T11:25:40Z</time>
      </trkpt>
      <trkpt lat="45.75919" lon="4.82512">
        <ele>194.8</ele>
        <time>2014-02-23T11:25:50Z</time>
      </trkpt>
      <trkpt lat="45.75904" lon="4.82507">
        <ele>198.17</ele>
        <time>2014-02-23T11:26:01Z</time>
      </trkpt>
      <trkpt lat="45.75875" lon="4.82516">
        <ele>201.05</ele>
        <time>2014-02-23T11:26:12Z</time>
      </trkpt>
      <trkpt lat="45.7587" lon="4.82497">
        <ele>204.42</ele>
        <time>2014-02-23T11:26:22Z</time>
      </trkpt>
      <trkpt lat="45.75863" lon="4.82491">
        <ele>207.78</ele>
        <time>2014-02-23T11:26:33Z</time>
      </trkpt>
      <trkpt lat="45.75851" lon="4.82486">
        <ele>210.67</ele>
        <time>2014-02-23T11:26:45Z</time>
      </trkpt>
      <trkpt lat="45.75839" lon="4.82472">
        <ele>214.03</ele>
        <time>2014-02-23T11:26:56Z</time>
      </trkpt>
      <trkpt lat="45.75831" lon="4.82462">
        <ele>216.91</ele>
        <time>2014-02-23T11:27:06Z</time>
      </trkpt>
      <trkpt lat="45.75827" lon="4.82454">
        <ele>220.28</ele>
        <time>2014-02-23T11:27:17Z</time>
      </trkpt>
      <trkpt lat="45.75813" lon="4.82439">
        <ele>223.16</ele>
        <time>2014-02-23T11:27:27Z</time>
      </trkpt>
      <trkpt lat="45.75799" lon="4.82425">
        <ele>226.53</ele>
        <time>2014-02-23T11:27:39Z</time>
      </trkpt>
      <trkpt lat="45.75798" lon="4.82425">
        <ele>227.01</ele>
        <time>2014-02-23T11:27:40Z</time>
      </trkpt>
      <trkpt lat="45.75787" lon="4.82392">
        <ele>230.37</ele>
        <time>2014-02-23T11:27:54Z</time>
      </trkpt>
      <trkpt lat="45.75771" lon="4.82371">
        <ele>233.26</ele>
        <time>2014-02-23T11:28:07Z</time>
      </trkpt>
      <trkpt lat="45.75771" lon="4.82353">
        <ele>236.62</ele>
        <time>2014-02-23T11:28:19Z</time>
      </trkpt>
      <trkpt lat="45.75775" lon="4.82334">
        <ele>237.1</ele>
        <time>2014-02-23T11:28:22Z</time>
      </trkpt>
      <trkpt lat="45.75781" lon="4.82315">
        <ele>240.47</ele>
        <time>2014-02-23T11:28:34Z</time>
      </trkpt>
      <trkpt lat="45.75773" lon="4.82293">
        <ele>243.83</ele>
        <time>2014-02-23T11:28:49Z</time>
      </trkpt>
      <trkpt lat="45.75771" lon="4.8229">
        <ele>244.79</ele>
        <time>2014-02-23T11:28:53Z</time>
      </trkpt>
      <trkpt lat="45.75773" lon="4.8227">
        <ele>247.68</ele>
        <time>2014-02-23T11:29:06Z</time>
      </trkpt>
      <trkpt lat="45.75765" lon="4.82228">
        <ele>251.04</ele>
        <time>2014-02-23T11:29:20Z</time>
      </trkpt>
      <trkpt lat="45.75757" lon="4.82205">
        <ele>253.93</ele>
        <time>2014-02-23T11:29:31Z</time>
      </trkpt>
      <trkpt lat="45.75748" lon="4.82206">
        <ele>254.89</ele>
        <time>2014-02-23T11:29:37Z</time>
      </trkpt>
      <trkpt lat="45.75774" lon="4.82225">
        <ele>257.77</ele>
        <time>2014-02-23T11:29:50Z</time>
      </trkpt>
      <trkpt lat="45.7578" lon="4.82219">
        <ele>258.25</ele>
        <time>2014-02-23T11:29:53Z</time>
      </trkpt>
      <trkpt lat="45.75798" lon="4.82207">
        <ele>260.17</ele>
        <time>2014-02-23T11:30:05Z</time>
      </trkpt>
      <trkpt lat="45.758" lon="4.82193">
        <ele>261.14</ele>
        <time>2014-02-23T11:30:09Z</time>
      </trkpt>
      <trkpt lat="45.75798" lon="4.82193">
        <ele>262.58</ele>
        <time>2014-02-23T11:30:23Z</time>
      </trkpt>
      <trkpt lat="45.75808" lon="4.82197">
        <ele>262.58</ele>
        <time>2014-02-23T11:30:27Z</time>
      </trkpt>
      <trkpt lat="45.75814" lon="4.82185">
        <ele>264.02</ele>
        <time>2014-02-23T11:30:35Z</time>
      </trkpt>
      <trkpt lat="45.75822" lon="4.82158">
        <ele>267.38</ele>
        <time>2014-02-23T11:30:47Z</time>
      </trkpt>
      <trkpt lat="45.75828" lon="4.82135">
        <ele>270.75</ele>
        <time>2014-02-23T11:30:59Z</time>
      </trkpt>
      <trkpt lat="45.75836" lon="4.82119">
        <ele>273.63</ele>
        <time>2014-02-23T11:31:10Z</time>
      </trkpt>
      <trkpt lat="45.75861" lon="4.82127">
        <ele>275.07</ele>
        <time>2014-02-23T11:31:25Z</time>
      </trkpt>
      <trkpt lat="45.7588" lon="4.82133">
        <ele>276.52</ele>
        <time>2014-02-23T11:31:39Z</time>
      </trkpt>
      <trkpt lat="45.75905" lon="4.82142">
        <ele>277.96</ele>
        <time>2014-02-23T11:31:50Z</time>
      </trkpt>
      <trkpt lat="45.75912" lon="4.82143">
        <ele>278.44</ele>
        <time>2014-02-23T11:31:55Z</time>
      </trkpt>
      <trkpt lat="45.75925" lon="4.82146">
        <ele>279.4</ele>
        <time>2014-02-23T11:32:01Z</time>
      </trkpt>
      <trkpt lat="45.75954" lon="4.82163">
        <ele>281.8</ele>
        <time>2014-02-23T11:32:17Z</time>
      </trkpt>
      <trkpt lat="45.75963" lon="4.82174">
        <ele>283.25</ele>
        <time>2014-02-23T11:32:24Z</time>
      </trkpt>
      <trkpt lat="45.75963" lon="4.8219">
        <ele>284.21</ele>
        <time>2014-02-23T11:32:29Z</time>
      </trkpt>
      <trkpt lat="45.75968" lon="4.82227">
        <ele>286.13</ele>
        <time>2014-02-23T11:32:42Z</time>
      </trkpt>
      <trkpt lat="45.75988" lon="4.82263">
        <ele>288.53</ele>
        <time>2014-02-23T11:32:56Z</time>
      </trkpt>
      <trkpt lat="45.75999" lon="4.82265">
        <ele>288.53</ele>
        <time>2014-02-23T11:33:02Z</time>
      </trkpt>
      <trkpt lat="45.76011" lon="4.82266">
        <ele>288.53</ele>
        <time>2014-02-23T11:33:08Z</time>
      </trkpt>
      <trkpt lat="45.76019" lon="4.82265">
        <ele>289.97</ele>
        <time>2014-02-23T11:33:12Z</time>
      </trkpt>
      <trkpt lat="45.76036" lon="4.8229">
        <ele>291.9</ele>
        <time>2014-02-23T11:33:28Z</time>
      </trkpt>
      <trkpt lat="45.76045" lon="4.82316">
        <ele>291.9</ele>
        <time>2014-02-23T11:33:37Z</time>
      </trkpt>
      <trkpt lat="45.7605" lon="4.8232">
        <ele>291.42</ele>
        <time>2014-02-23T11:33:40Z</time>
      </trkpt>
      <trkpt lat="45.76065" lon="4.82329">
        <ele>291.9</ele>
        <time>2014-02-23T11:33:47Z</time>
      </trkpt>
      <trkpt lat="45.76069" lon="4.8233">
        <ele>292.38</ele>
        <time>2014-02-23T11:33:50Z</time>
      </trkpt>
      <trkpt lat="45.76087" lon="4.82339">
        <ele>292.86</ele>
        <time>2014-02-23T11:33:57Z</time>
      </trkpt>
      <trkpt lat="45.76098" lon="4.82339">
        <ele>293.82</ele>
        <time>2014-02-23T11:34:02Z</time>
      </trkpt>
      <trkpt lat="45.76113" lon="4.82333">
        <ele>295.74</ele>
        <time>2014-02-23T11:34:13Z</time>
      </trkpt>
      <trkpt lat="45.76131" lon="4.82315">
        <ele>296.7</ele>
        <time>2014-02-23T11:34:24Z</time>
      </trkpt>
      <trkpt lat="45.76157" lon="4.8231">
        <ele>296.7</ele>
        <time>2014-02-23T11:34:33Z</time>
      </trkpt>
      <trkpt lat="45.76174" lon="4.82312">
        <ele>296.22</ele>
        <time>2014-02-23T11:34:41Z</time>
      </trkpt>
      <trkpt lat="45.7618" lon="4.82302">
        <ele>297.67</ele>
        <time>2014-02-23T11:34:50Z</time>
      </trkpt>
      <trkpt lat="45.76197" lon="4.82296">
        <ele>301.51</ele>
        <time>2014-02-23T11:34:59Z</time>
      </trkpt>
      <trkpt lat="45.76211" lon="4.82297">
        <ele>304.39</ele>
        <time>2014-02-23T11:35:07Z</time>
      </trkpt>
      <trkpt lat="45.76213" lon="4.82297">
        <ele>304.39</ele>
        <time>2014-02-23T11:35:08Z</time>
      </trkpt>
      <trkpt lat="45.76231" lon="4.82307">
        <ele>302.95</ele>
        <time>2014-02-23T11:35:17Z</time>
      </trkpt>
      <trkpt lat="45.76239" lon="4.82304">
        <ele>301.51</ele>
        <time>2014-02-23T11:35:21Z</time>
      </trkpt>
      <trkpt lat="45.76248" lon="4.82305">
        <ele>304.39</ele>
        <time>2014-02-23T11:35:28Z</time>
      </trkpt>
      <trkpt lat="45.76251" lon="4.82295">
        <ele>307.28</ele>
        <time>2014-02-23T11:35:36Z</time>
      </trkpt>
      <trkpt lat="45.76255" lon="4.82297">
        <ele>308.24</ele>
        <time>2014-02-23T11:35:39Z</time>
      </trkpt>
      <trkpt lat="45.76263" lon="4.82297">
        <ele>310.64</ele>
        <time>2014-02-23T11:35:44Z</time>
      </trkpt>
      <trkpt lat="45.76264" lon="4.82296">
        <ele>313.05</ele>
        <time>2014-02-23T11:35:48Z</time>
      </trkpt>
      <trkpt lat="45.7627" lon="4.82289">
        <ele>313.53</ele>
        <time>2014-02-23T11:36:03Z</time>
      </trkpt>
      <trkpt lat="45.76288" lon="4.82258">
        <ele>313.05</ele>
        <time>2014-02-23T11:36:24Z</time>
      </trkpt>
      <trkpt lat="45.76298" lon="4.82229">
        <ele>312.57</ele>
        <time>2014-02-23T11:36:42Z</time>
      </trkpt>
      <trkpt lat="45.76299" lon="4.82221">
        <ele>312.57</ele>
        <time>2014-02-23T11:36:52Z</time>
      </trkpt>
      <trkpt lat="45.76309" lon="4.82217">
        <ele>311.6</ele>
        <time>2014-02-23T11:37:01Z</time>
      </trkpt>
      <trkpt lat="45.76315" lon="4.82219">
        <ele>311.6</ele>
        <time>2014-02-23T11:37:07Z</time>
      </trkpt>
      <trkpt lat="45.76337" lon="4.82229">
        <ele>310.64</ele>
        <time>2014-02-23T11:37:25Z</time>
      </trkpt>
      <trkpt lat="45.76354" lon="4.82224">
        <ele>310.16</ele>
        <time>2014-02-23T11:37:38Z</time>
      </trkpt>
      <trkpt lat="45.76361" lon="4.82182">
        <ele>309.2</ele>
        <time>2014-02-23T11:37:51Z</time>
      </trkpt>
      <trkpt lat="45.7634" lon="4.82155">
        <ele>308.24</ele>
        <time>2014-02-23T11:38:02Z</time>
      </trkpt>
      <trkpt lat="45.76328" lon="4.82123">
        <ele>307.76</ele>
        <time>2014-02-23T11:38:11Z</time>
      </trkpt>
      <trkpt lat="45.7632" lon="4.82084">
        <ele>305.84</ele>
        <time>2014-02-23T11:38:21Z</time>
      </trkpt>
      <trkpt lat="45.76311" lon="4.82047">
        <ele>303.91</ele>
        <time>2014-02-23T11:38:31Z</time>
      </trkpt>
      <trkpt lat="45.76307" lon="4.82013">
        <ele>301.51</ele>
        <time>2014-02-23T11:38:41Z</time>
      </trkpt>
      <trkpt lat="45.76307" lon="4.81998">
        <ele>301.51</ele>
        <time>2014-02-23T11:38:44Z</time>
      </trkpt>
      <trkpt lat="45.76313" lon="4.8196">
        <ele>300.07</ele>
        <time>2014-02-23T11:38:52Z</time>
      </trkpt>
      <trkpt lat="45.76323" lon="4.81919">
        <ele>299.59</ele>
        <time>2014-02-23T11:39:02Z</time>
      </trkpt>
      <trkpt lat="45.76333" lon="4.81881">
        <ele>299.11</ele>
        <time>2014-02-23T11:39:11Z</time>
      </trkpt>
      <trkpt lat="45.76335" lon="4.81856">
        <ele>299.11</ele>
        <time>2014-02-23T11:39:20Z</time>
      </trkpt>
      <trkpt lat="45.76333" lon="4.81805">
        <ele>300.07</ele>
        <time>2014-02-23T11:39:37Z</time>
      </trkpt>
      <trkpt lat="45.76333" lon="4.81755">
        <ele>300.55</ele>
        <time>2014-02-23T11:39:51Z</time>
      </trkpt>
      <trkpt lat="45.76332" lon="4.81715">
        <ele>301.51</ele>
        <time>2014-02-23T11:40:03Z</time>
      </trkpt>
      <trkpt lat="45.76327" lon="4.81671">
        <ele>302.47</ele>
        <time>2014-02-23T11:40:16Z</time>
      </trkpt>
      <trkpt lat="45.7632" lon="4.81618">
        <ele>303.43</ele>
        <time>2014-02-23T11:40:31Z</time>
      </trkpt>
      <trkpt lat="45.76315" lon="4.81566">
        <ele>303.91</ele>
        <time>2014-02-23T11:40:46Z</time>
      </trkpt>
      <trkpt lat="45.76306" lon="4.81522">
        <ele>304.39</ele>
        <time>2014-02-23T11:40:59Z</time>
      </trkpt>
      <trkpt lat="45.76303" lon="4.81485">
        <ele>303.91</ele>
        <time>2014-02-23T11:41:11Z</time>
      </trkpt>
      <trkpt lat="45.76301" lon="4.81444">
        <ele>304.88</ele>
        <time>2014-02-23T11:41:22Z</time>
      </trkpt>
      <trkpt lat="45.76307" lon="4.81418">
        <ele>305.36</ele>
        <time>2014-02-23T11:41:33Z</time>
      </trkpt>
      <trkpt lat="45.76307" lon="4.81419">
        <ele>305.36</ele>
        <time>2014-02-23T11:41:34Z</time>
      </trkpt>
      <trkpt lat="45.76311" lon="4.81421">
        <ele>305.84</ele>
        <time>2014-02-23T11:41:38Z</time>
      </trkpt>
      <trkpt lat="45.76327" lon="4.8138">
        <ele>302.95</ele>
        <time>2014-02-23T11:41:51Z</time>
      </trkpt>
      <trkpt lat="45.76343" lon="4.8134">
        <ele>302.47</ele>
        <time>2014-02-23T11:42:06Z</time>
      </trkpt>
      <trkpt lat="45.76366" lon="4.81345">
        <ele>300.55</ele>
        <time>2014-02-23T11:42:14Z</time>
      </trkpt>
      <trkpt lat="45.76377" lon="4.8133">
        <ele>298.63</ele>
        <time>2014-02-23T11:42:23Z</time>
      </trkpt>
      <trkpt lat="45.76397" lon="4.81308">
        <ele>297.67</ele>
        <time>2014-02-23T11:42:32Z</time>
      </trkpt>
      <trkpt lat="45.76416" lon="4.81292">
        <ele>295.26</ele>
        <time>2014-02-23T11:42:42Z</time>
      </trkpt>
      <trkpt lat="45.76437" lon="4.81268">
        <ele>293.34</ele>
        <time>2014-02-23T11:42:52Z</time>
      </trkpt>
      <trkpt lat="45.76456" lon="4.81237">
        <ele>289.97</ele>
        <time>2014-02-23T11:43:03Z</time>
      </trkpt>
      <trkpt lat="45.76468" lon="4.81215">
        <ele>288.05</ele>
        <time>2014-02-23T11:43:11Z</time>
      </trkpt>
      <trkpt lat="45.76483" lon="4.81183">
        <ele>286.13</ele>
        <time>2014-02-23T11:43:21Z</time>
      </trkpt>
      <trkpt lat="45.76499" lon="4.81146">
        <ele>283.73</ele>
        <time>2014-02-23T11:43:32Z</time>
      </trkpt>
      <trkpt lat="45.7652" lon="4.8111">
        <ele>280.84</ele>
        <time>2014-02-23T11:43:44Z</time>
      </trkpt>
      <trkpt lat="45.7653" lon="4.81069">
        <ele>277.96</ele>
        <time>2014-02-23T11:43:55Z</time>
      </trkpt>
      <trkpt lat="45.76551" lon="4.81037">
        <ele>275.56</ele>
        <time>2014-02-23T11:44:06Z</time>
      </trkpt>
      <trkpt lat="45.76578" lon="4.81012">
        <ele>272.67</ele>
        <time>2014-02-23T11:44:19Z</time>
      </trkpt>
      <trkpt lat="45.76601" lon="4.80975">
        <ele>269.79</ele>
        <time>2014-02-23T11:44:31Z</time>
      </trkpt>
      <trkpt lat="45.76633" lon="4.80959">
        <ele>266.9</ele>
        <time>2014-02-23T11:44:43Z</time>
      </trkpt>
      <trkpt lat="45.76673" lon="4.80947">
        <ele>264.02</ele>
        <time>2014-02-23T11:44:56Z</time>
      </trkpt>
      <trkpt lat="45.767" lon="4.80945">
        <ele>261.14</ele>
        <time>2014-02-23T11:45:08Z</time>
      </trkpt>
      <trkpt lat="45.76726" lon="4.80947">
        <ele>259.69</ele>
        <time>2014-02-23T11:45:18Z</time>
      </trkpt>
      <trkpt lat="45.76764" lon="4.80961">
        <ele>257.29</ele>
        <time>2014-02-23T11:45:30Z</time>
      </trkpt>
      <trkpt lat="45.76795" lon="4.80965">
        <ele>254.41</ele>
        <time>2014-02-23T11:45:42Z</time>
      </trkpt>
      <trkpt lat="45.76823" lon="4.80969">
        <ele>252.48</ele>
        <time>2014-02-23T11:45:53Z</time>
      </trkpt>
      <trkpt lat="45.76857" lon="4.80968">
        <ele>250.08</ele>
        <time>2014-02-23T11:46:05Z</time>
      </trkpt>
      <trkpt lat="45.76887" lon="4.80974">
        <ele>247.2</ele>
        <time>2014-02-23T11:46:17Z</time>
      </trkpt>
      <trkpt lat="45.76906" lon="4.80984">
        <ele>245.27</ele>
        <time>2014-02-23T11:46:25Z</time>
      </trkpt>
      <trkpt lat="45.76932" lon="4.81011">
        <ele>243.35</ele>
        <time>2014-02-23T11:46:36Z</time>
      </trkpt>
      <trkpt lat="45.76953" lon="4.81006">
        <ele>241.43</ele>
        <time>2014-02-23T11:46:45Z</time>
      </trkpt>
      <trkpt lat="45.76955" lon="4.81007">
        <ele>241.43</ele>
        <time>2014-02-23T11:46:46Z</time>
      </trkpt>
      <trkpt lat="45.76984" lon="4.81003">
        <ele>239.51</ele>
        <time>2014-02-23T11:46:58Z</time>
      </trkpt>
      <trkpt lat="45.76997" lon="4.80966">
        <ele>236.62</ele>
        <time>2014-02-23T11:47:11Z</time>
      </trkpt>
      <trkpt lat="45.76987" lon="4.80952">
        <ele>236.14</ele>
        <time>2014-02-23T11:47:17Z</time>
      </trkpt>
      <trkpt lat="45.76974" lon="4.80917">
        <ele>234.7</ele>
        <time>2014-02-23T11:47:30Z</time>
      </trkpt>
      <trkpt lat="45.76976" lon="4.80913">
        <ele>234.7</ele>
        <time>2014-02-23T11:47:32Z</time>
      </trkpt>
      <trkpt lat="45.76995" lon="4.80908">
        <ele>231.33</ele>
        <time>2014-02-23T11:47:40Z</time>
      </trkpt>
      <trkpt lat="45.76997" lon="4.80907">
        <ele>231.33</ele>
        <time>2014-02-23T11:47:41Z</time>
      </trkpt>
      <trkpt lat="45.77007" lon="4.80907">
        <ele>228.93</ele>
        <time>2014-02-23T11:47:45Z</time>
      </trkpt>
      <trkpt lat="45.77014" lon="4.80908">
        <ele>227.49</ele>
        <time>2014-02-23T11:47:48Z</time>
      </trkpt>
      <trkpt lat="45.77024" lon="4.80907">
        <ele>225.09</ele>
        <time>2014-02-23T11:47:52Z</time>
      </trkpt>
      <trkpt lat="45.77034" lon="4.80904">
        <ele>222.68</ele>
        <time>2014-02-23T11:47:56Z</time>
      </trkpt>
      <trkpt lat="45.77043" lon="4.80899">
        <ele>220.28</ele>
        <time>2014-02-23T11:48:00Z</time>
      </trkpt>
      <trkpt lat="45.77048" lon="4.80896">
        <ele>218.36</ele>
        <time>2014-02-23T11:48:02Z</time>
      </trkpt>
      <trkpt lat="45.77053" lon="4.80897">
        <ele>217.4</ele>
        <time>2014-02-23T11:48:04Z</time>
      </trkpt>
      <trkpt lat="45.77063" lon="4.80895">
        <ele>215.95</ele>
        <time>2014-02-23T11:48:07Z</time>
      </trkpt>
      <trkpt lat="45.77075" lon="4.80894">
        <ele>213.55</ele>
        <time>2014-02-23T11:48:11Z</time>
      </trkpt>
      <trkpt lat="45.77085" lon="4.80895">
        <ele>211.63</ele>
        <time>2014-02-23T11:48:15Z</time>
      </trkpt>
      <trkpt lat="45.77094" lon="4.8089">
        <ele>209.7</ele>
        <time>2014-02-23T11:48:19Z</time>
      </trkpt>
      <trkpt lat="45.771" lon="4.80887">
        <ele>208.26</ele>
        <time>2014-02-23T11:48:22Z</time>
      </trkpt>
      <trkpt lat="45.77108" lon="4.80884">
        <ele>205.86</ele>
        <time>2014-02-23T11:48:26Z</time>
      </trkpt>
      <trkpt lat="45.77117" lon="4.8088">
        <ele>203.46</ele>
        <time>2014-02-23T11:48:30Z</time>
      </trkpt>
      <trkpt lat="45.77137" lon="4.80875">
        <ele>200.09</ele>
        <time>2014-02-23T11:48:39Z</time>
      </trkpt>
      <trkpt lat="45.7716" lon="4.80869">
        <ele>197.21</ele>
        <time>2014-02-23T11:48:48Z</time>
      </trkpt>
      <trkpt lat="45.77186" lon="4.80862">
        <ele>193.84</ele>
        <time>2014-02-23T11:48:58Z</time>
      </trkpt>
      <trkpt lat="45.77206" lon="4.80866">
        <ele>191.92</ele>
        <time>2014-02-23T11:49:05Z</time>
      </trkpt>
      <trkpt lat="45.77235" lon="4.80856">
        <ele>188.56</ele>
        <time>2014-02-23T11:49:16Z</time>
      </trkpt>
      <trkpt lat="45.77243" lon="4.80853">
        <ele>187.59</ele>
        <time>2014-02-23T11:49:19Z</time>
      </trkpt>
      <trkpt lat="45.77266" lon="4.80849">
        <ele>186.15</ele>
        <time>2014-02-23T11:49:29Z</time>
      </trkpt>
      <trkpt lat="45.77293" lon="4.8083">
        <ele>184.23</ele>
        <time>2014-02-23T11:49:42Z</time>
      </trkpt>
      <trkpt lat="45.77322" lon="4.80812">
        <ele>182.79</ele>
        <time>2014-02-23T11:49:53Z</time>
      </trkpt>
      <trkpt lat="45.77343" lon="4.80823">
        <ele>181.83</ele>
        <time>2014-02-23T11:50:04Z</time>
      </trkpt>
      <trkpt lat="45.77358" lon="4.80844">
        <ele>180.87</ele>
        <time>2014-02-23T11:50:14Z</time>
      </trkpt>
      <trkpt lat="45.77361" lon="4.80865">
        <ele>180.38</ele>
        <time>2014-02-23T11:50:27Z</time>
      </trkpt>
      <trkpt lat="45.77362" lon="4.80869">
        <ele>180.38</ele>
        <time>2014-02-23T11:50:32Z</time>
      </trkpt>
      <trkpt lat="45.77385" lon="4.80903">
        <ele>180.38</ele>
        <time>2014-02-23T11:50:42Z</time>
      </trkpt>
      <trkpt lat="45.77385" lon="4.80928">
        <ele>180.87</ele>
        <time>2014-02-23T11:50:51Z</time>
      </trkpt>
      <trkpt lat="45.77393" lon="4.80943">
        <ele>180.87</ele>
        <time>2014-02-23T11:50:58Z</time>
      </trkpt>
      <trkpt lat="45.77414" lon="4.80927">
        <ele>181.35</ele>
        <time>2014-02-23T11:51:10Z</time>
      </trkpt>
      <trkpt lat="45.77418" lon="4.80922">
        <ele>181.35</ele>
        <time>2014-02-23T11:51:12Z</time>
      </trkpt>
      <trkpt lat="45.77451" lon="4.80892">
        <ele>180.87</ele>
        <time>2014-02-23T11:51:24Z</time>
      </trkpt>
      <trkpt lat="45.77477" lon="4.80876">
        <ele>181.35</ele>
        <time>2014-02-23T11:51:34Z</time>
      </trkpt>
      <trkpt lat="45.77487" lon="4.80898">
        <ele>182.31</ele>
        <time>2014-02-23T11:51:42Z</time>
      </trkpt>
      <trkpt lat="45.77484" lon="4.80932">
        <ele>183.27</ele>
        <time>2014-02-23T11:51:51Z</time>
      </trkpt>
      <trkpt lat="45.77481" lon="4.80978">
        <ele>183.75</ele>
        <time>2014-02-23T11:52:02Z</time>
      </trkpt>
      <trkpt lat="45.77483" lon="4.81013">
        <ele>183.75</ele>
        <time>2014-02-23T11:52:13Z</time>
      </trkpt>
      <trkpt lat="45.77497" lon="4.81024">
        <ele>183.75</ele>
        <time>2014-02-23T11:52:21Z</time>
      </trkpt>
      <trkpt lat="45.77498" lon="4.81055">
        <ele>183.75</ele>
        <time>2014-02-23T11:52:30Z</time>
      </trkpt>
      <trkpt lat="45.77503" lon="4.81081">
        <ele>183.27</ele>
        <time>2014-02-23T11:52:38Z</time>
      </trkpt>
      <trkpt lat="45.775" lon="4.81126">
        <ele>182.31</ele>
        <time>2014-02-23T11:52:48Z</time>
      </trkpt>
      <trkpt lat="45.77496" lon="4.81165">
        <ele>182.31</ele>
        <time>2014-02-23T11:52:58Z</time>
      </trkpt>
      <trkpt lat="45.77495" lon="4.81197">
        <ele>181.83</ele>
        <time>2014-02-23T11:53:07Z</time>
      </trkpt>
      <trkpt lat="45.77488" lon="4.81227">
        <ele>182.79</ele>
        <time>2014-02-23T11:53:16Z</time>
      </trkpt>
      <trkpt lat="45.77485" lon="4.81246">
        <ele>182.31</ele>
        <time>2014-02-23T11:53:22Z</time>
      </trkpt>
      <trkpt lat="45.77483" lon="4.81287">
        <ele>182.79</ele>
        <time>2014-02-23T11:53:33Z</time>
      </trkpt>
      <trkpt lat="45.77481" lon="4.81316">
        <ele>182.79</ele>
        <time>2014-02-23T11:53:42Z</time>
      </trkpt>
      <trkpt lat="45.7748" lon="4.81347">
        <ele>182.79</ele>
        <time>2014-02-23T11:53:51Z</time>
      </trkpt>
      <trkpt lat="45.77474" lon="4.81382">
        <ele>182.79</ele>
        <time>2014-02-23T11:53:59Z</time>
      </trkpt>
      <trkpt lat="45.77476" lon="4.81427">
        <ele>182.79</ele>
        <time>2014-02-23T11:54:09Z</time>
      </trkpt>
      <trkpt lat="45.77483" lon="4.81493">
        <ele>182.31</ele>
        <time>2014-02-23T11:54:21Z</time>
      </trkpt>
      <trkpt lat="45.77464" lon="4.8163">
        <ele>182.31</ele>
        <time>2014-02-23T11:54:38Z</time>
      </trkpt>
    </trkseg>
  </trk>
  <trk>
    <name><![CDATA[ACTIVE LOG: 23 FEV 2014 12:55]]></name>
    <trkseg>
      <trkpt lat="45.77464" lon="4.81801">
        <ele>182.79</ele>
        <time>2014-02-23T11:55:02Z</time>
      </trkpt>
      <trkpt lat="45.77464" lon="4.81801">
        <ele>181.83</ele>
        <time>2014-02-23T12:04:21Z</time>
      </trkpt>
      <trkpt lat="45.77291" lon="4.837">
        <ele>163.56</ele>
        <time>2014-02-23T12:04:24Z</time>
      </trkpt>
      <trkpt lat="45.77291" lon="4.83706">
        <ele>164.04</ele>
        <time>2014-02-23T12:04:25Z</time>
      </trkpt>
      <trkpt lat="45.77289" lon="4.83749">
        <ele>165</ele>
        <time>2014-02-23T12:04:37Z</time>
      </trkpt>
      <trkpt lat="45.77288" lon="4.83778">
        <ele>165.48</ele>
        <time>2014-02-23T12:04:47Z</time>
      </trkpt>
      <trkpt lat="45.77287" lon="4.838">
        <ele>166.45</ele>
        <time>2014-02-23T12:04:55Z</time>
      </trkpt>
      <trkpt lat="45.77286" lon="4.8382">
        <ele>167.41</ele>
        <time>2014-02-23T12:05:02Z</time>
      </trkpt>
      <trkpt lat="45.77286" lon="4.83833">
        <ele>168.37</ele>
        <time>2014-02-23T12:05:07Z</time>
      </trkpt>
      <trkpt lat="45.77292" lon="4.83831">
        <ele>168.37</ele>
        <time>2014-02-23T12:05:14Z</time>
      </trkpt>
      <trkpt lat="45.7729" lon="4.83839">
        <ele>167.89</ele>
        <time>2014-02-23T12:05:16Z</time>
      </trkpt>
      <trkpt lat="45.77284" lon="4.83836">
        <ele>168.85</ele>
        <time>2014-02-23T12:05:27Z</time>
      </trkpt>
      <trkpt lat="45.77275" lon="4.83862">
        <ele>168.85</ele>
        <time>2014-02-23T12:05:35Z</time>
      </trkpt>
      <trkpt lat="45.77273" lon="4.83903">
        <ele>168.85</ele>
        <time>2014-02-23T12:05:46Z</time>
      </trkpt>
      <trkpt lat="45.77271" lon="4.83938">
        <ele>168.85</ele>
        <time>2014-02-23T12:05:55Z</time>
      </trkpt>
      <trkpt lat="45.77268" lon="4.83967">
        <ele>168.37</ele>
        <time>2014-02-23T12:06:05Z</time>
      </trkpt>
      <trkpt lat="45.77267" lon="4.83994">
        <ele>167.89</ele>
        <time>2014-02-23T12:06:13Z</time>
      </trkpt>
      <trkpt lat="45.77267" lon="4.84029">
        <ele>167.41</ele>
        <time>2014-02-23T12:06:22Z</time>
      </trkpt>
      <trkpt lat="45.77266" lon="4.84069">
        <ele>166.45</ele>
        <time>2014-02-23T12:06:31Z</time>
      </trkpt>
      <trkpt lat="45.77261" lon="4.84117">
        <ele>165.48</ele>
        <time>2014-02-23T12:06:40Z</time>
      </trkpt>
      <trkpt lat="45.77269" lon="4.84161">
        <ele>164.04</ele>
        <time>2014-02-23T12:06:49Z</time>
      </trkpt>
      <trkpt lat="45.77275" lon="4.8418">
        <ele>164.04</ele>
        <time>2014-02-23T12:06:55Z</time>
      </trkpt>
      <trkpt lat="45.77286" lon="4.84228">
        <ele>163.08</ele>
        <time>2014-02-23T12:07:08Z</time>
      </trkpt>
      <trkpt lat="45.77298" lon="4.84281">
        <ele>163.08</ele>
        <time>2014-02-23T12:07:21Z</time>
      </trkpt>
      <trkpt lat="45.77259" lon="4.84318">
        <ele>162.12</ele>
        <time>2014-02-23T12:07:33Z</time>
      </trkpt>
      <trkpt lat="45.77233" lon="4.8434">
        <ele>162.12</ele>
        <time>2014-02-23T12:07:51Z</time>
      </trkpt>
      <trkpt lat="45.77195" lon="4.84356">
        <ele>161.64</ele>
        <time>2014-02-23T12:08:03Z</time>
      </trkpt>
      <trkpt lat="45.77199" lon="4.84379">
        <ele>161.64</ele>
        <time>2014-02-23T12:08:10Z</time>
      </trkpt>
      <trkpt lat="45.77206" lon="4.84434">
        <ele>161.16</ele>
        <time>2014-02-23T12:08:25Z</time>
      </trkpt>
      <trkpt lat="45.77163" lon="4.84445">
        <ele>161.16</ele>
        <time>2014-02-23T12:08:40Z</time>
      </trkpt>
      <trkpt lat="45.7714" lon="4.84446">
        <ele>161.16</ele>
        <time>2014-02-23T12:08:49Z</time>
      </trkpt>
      <trkpt lat="45.77128" lon="4.84428">
        <ele>161.16</ele>
        <time>2014-02-23T12:08:56Z</time>
      </trkpt>
      <trkpt lat="45.77123" lon="4.84369">
        <ele>161.16</ele>
        <time>2014-02-23T12:09:09Z</time>
      </trkpt>
      <trkpt lat="45.77144" lon="4.8435">
        <ele>160.68</ele>
        <time>2014-02-23T12:09:21Z</time>
      </trkpt>
      <trkpt lat="45.77171" lon="4.84361">
        <ele>160.68</ele>
        <time>2014-02-23T12:09:33Z</time>
      </trkpt>
      <trkpt lat="45.77175" lon="4.84404">
        <ele>161.16</ele>
        <time>2014-02-23T12:09:44Z</time>
      </trkpt>
      <trkpt lat="45.77182" lon="4.84438">
        <ele>161.16</ele>
        <time>2014-02-23T12:09:53Z</time>
      </trkpt>
      <trkpt lat="45.77183" lon="4.84457">
        <ele>160.68</ele>
        <time>2014-02-23T12:10:06Z</time>
      </trkpt>
    </trkseg>
  </trk>
  <trk>
    <name><![CDATA[ACTIVE LOG: 23 FEV 2014 13:13]]></name>
    <trkseg>
      <trkpt lat="45.77183" lon="4.84458">
        <ele>162.6</ele>
        <time>2014-02-23T12:13:07Z</time>
      </trkpt>
      <trkpt lat="45.77185" lon="4.84467">
        <ele>163.08</ele>
        <time>2014-02-23T12:14:12Z</time>
      </trkpt>
      <trkpt lat="45.77191" lon="4.8452">
        <ele>163.56</ele>
        <time>2014-02-23T12:14:34Z</time>
      </trkpt>
      <trkpt lat="45.7719" lon="4.84527">
        <ele>163.08</ele>
        <time>2014-02-23T12:14:40Z</time>
      </trkpt>
      <trkpt lat="45.77179" lon="4.84538">
        <ele>163.56</ele>
        <time>2014-02-23T12:14:48Z</time>
      </trkpt>
      <trkpt lat="45.77181" lon="4.84547">
        <ele>163.56</ele>
        <time>2014-02-23T12:14:54Z</time>
      </trkpt>
      <trkpt lat="45.77163" lon="4.84557">
        <ele>163.08</ele>
        <time>2014-02-23T12:15:03Z</time>
      </trkpt>
      <trkpt lat="45.7717" lon="4.84585">
        <ele>163.56</ele>
        <time>2014-02-23T12:15:17Z</time>
      </trkpt>
      <trkpt lat="45.77176" lon="4.84616">
        <ele>164.04</ele>
        <time>2014-02-23T12:15:31Z</time>
      </trkpt>
      <trkpt lat="45.7718" lon="4.84632">
        <ele>164.52</ele>
        <time>2014-02-23T12:15:46Z</time>
      </trkpt>
      <trkpt lat="45.77181" lon="4.84632">
        <ele>164.52</ele>
        <time>2014-02-23T12:16:07Z</time>
      </trkpt>
      <trkpt lat="45.7718" lon="4.84644">
        <ele>168.37</ele>
        <time>2014-02-23T12:16:21Z</time>
      </trkpt>
      <trkpt lat="45.77166" lon="4.84673">
        <ele>171.73</ele>
        <time>2014-02-23T12:16:31Z</time>
      </trkpt>
      <trkpt lat="45.77175" lon="4.8466">
        <ele>173.17</ele>
        <time>2014-02-23T12:16:35Z</time>
      </trkpt>
      <trkpt lat="45.77181" lon="4.84637">
        <ele>176.54</ele>
        <time>2014-02-23T12:16:46Z</time>
      </trkpt>
      <trkpt lat="45.77159" lon="4.84655">
        <ele>177.5</ele>
        <time>2014-02-23T12:17:01Z</time>
      </trkpt>
      <trkpt lat="45.77161" lon="4.84674">
        <ele>177.5</ele>
        <time>2014-02-23T12:17:16Z</time>
      </trkpt>
      <trkpt lat="45.77185" lon="4.84607">
        <ele>177.02</ele>
        <time>2014-02-23T12:17:28Z</time>
      </trkpt>
    </trkseg>
  </trk>
  <trk>
    <name><![CDATA[09-FEV-14: 08 FEV 2014 22:56]]></name>
    <trkseg>
      <trkpt lat="45.76231" lon="4.86945">
        <ele>177.5</ele>
        <time>2014-02-08T21:56:54Z</time>
      </trkpt>
      <trkpt lat="45.76231" lon="4.86945">
        <ele>240.95</ele>
        <time>2014-02-08T21:58:37Z</time>
      </trkpt>
      <trkpt lat="45.76231" lon="4.86945">
        <ele>177.5</ele>
        <time>2014-02-09T08:29:30Z</time>
      </trkpt>
      <trkpt lat="45.76231" lon="4.86945">
        <ele>214.99</ele>
        <time>2014-02-09T08:29:33Z</time>
      </trkpt>
      <trkpt lat="45.76231" lon="4.86945">
        <ele>177.5</ele>
        <time>2014-02-09T08:53:21Z</time>
      </trkpt>
      <trkpt lat="45.76231" lon="4.86945">
        <ele>201.05</ele>
        <time>2014-02-09T08:53:22Z</time>
      </trkpt>
      <trkpt lat="45.76231" lon="4.86945">
        <ele>197.69</ele>
        <time>2014-02-09T08:56:18Z</time>
      </trkpt>
      <trkpt lat="45.77713" lon="4.84504">
        <ele>200.09</ele>
        <time>2014-02-09T08:59:53Z</time>
      </trkpt>
      <trkpt lat="45.77733" lon="4.84497">
        <ele>198.17</ele>
        <time>2014-02-09T09:00:53Z</time>
      </trkpt>
      <trkpt lat="45.77758" lon="4.84478">
        <ele>198.17</ele>
        <time>2014-02-09T09:01:05Z</time>
      </trkpt>
      <trkpt lat="45.77803" lon="4.84465">
        <ele>198.65</ele>
        <time>2014-02-09T09:01:24Z</time>
      </trkpt>
      <trkpt lat="45.77812" lon="4.84431">
        <ele>199.13</ele>
        <time>2014-02-09T09:01:35Z</time>
      </trkpt>
      <trkpt lat="45.77844" lon="4.8434">
        <ele>201.05</ele>
        <time>2014-02-09T09:02:02Z</time>
      </trkpt>
      <trkpt lat="45.77855" lon="4.84298">
        <ele>201.05</ele>
        <time>2014-02-09T09:02:13Z</time>
      </trkpt>
      <trkpt lat="45.77887" lon="4.8421">
        <ele>201.05</ele>
        <time>2014-02-09T09:02:39Z</time>
      </trkpt>
      <trkpt lat="45.77902" lon="4.84158">
        <ele>199.13</ele>
        <time>2014-02-09T09:02:54Z</time>
      </trkpt>
      <trkpt lat="45.77924" lon="4.84126">
        <ele>198.65</ele>
        <time>2014-02-09T09:03:06Z</time>
      </trkpt>
      <trkpt lat="45.7793" lon="4.84124">
        <ele>198.17</ele>
        <time>2014-02-09T09:03:09Z</time>
      </trkpt>
      <trkpt lat="45.77977" lon="4.84167">
        <ele>197.21</ele>
        <time>2014-02-09T09:03:28Z</time>
      </trkpt>
      <trkpt lat="45.78007" lon="4.84177">
        <ele>197.21</ele>
        <time>2014-02-09T09:03:38Z</time>
      </trkpt>
      <trkpt lat="45.78035" lon="4.84199">
        <ele>196.73</ele>
        <time>2014-02-09T09:03:49Z</time>
      </trkpt>
      <trkpt lat="45.78059" lon="4.84227">
        <ele>197.21</ele>
        <time>2014-02-09T09:03:59Z</time>
      </trkpt>
      <trkpt lat="45.78087" lon="4.84242">
        <ele>196.73</ele>
        <time>2014-02-09T09:04:10Z</time>
      </trkpt>
      <trkpt lat="45.78151" lon="4.84289">
        <ele>196.73</ele>
        <time>2014-02-09T09:04:34Z</time>
      </trkpt>
      <trkpt lat="45.78177" lon="4.84313">
        <ele>196.73</ele>
        <time>2014-02-09T09:04:43Z</time>
      </trkpt>
      <trkpt lat="45.78215" lon="4.8436">
        <ele>197.21</ele>
        <time>2014-02-09T09:05:01Z</time>
      </trkpt>
      <trkpt lat="45.78267" lon="4.84394">
        <ele>196.25</ele>
        <time>2014-02-09T09:05:19Z</time>
      </trkpt>
      <trkpt lat="45.78293" lon="4.84424">
        <ele>196.25</ele>
        <time>2014-02-09T09:05:31Z</time>
      </trkpt>
      <trkpt lat="45.78346" lon="4.84476">
        <ele>196.25</ele>
        <time>2014-02-09T09:05:52Z</time>
      </trkpt>
      <trkpt lat="45.78376" lon="4.84512">
        <ele>195.77</ele>
        <time>2014-02-09T09:06:04Z</time>
      </trkpt>
      <trkpt lat="45.78396" lon="4.84549">
        <ele>195.28</ele>
        <time>2014-02-09T09:06:14Z</time>
      </trkpt>
      <trkpt lat="45.78449" lon="4.84617">
        <ele>194.32</ele>
        <time>2014-02-09T09:06:39Z</time>
      </trkpt>
      <trkpt lat="45.78475" lon="4.84647">
        <ele>194.8</ele>
        <time>2014-02-09T09:06:51Z</time>
      </trkpt>
      <trkpt lat="45.78514" lon="4.84705">
        <ele>195.28</ele>
        <time>2014-02-09T09:07:09Z</time>
      </trkpt>
      <trkpt lat="45.78524" lon="4.84712">
        <ele>195.28</ele>
        <time>2014-02-09T09:07:16Z</time>
      </trkpt>
      <trkpt lat="45.78544" lon="4.84697">
        <ele>196.73</ele>
        <time>2014-02-09T09:07:27Z</time>
      </trkpt>
      <trkpt lat="45.78563" lon="4.84667">
        <ele>202.01</ele>
        <time>2014-02-09T09:07:43Z</time>
      </trkpt>
      <trkpt lat="45.7857" lon="4.8466">
        <ele>203.46</ele>
        <time>2014-02-09T09:07:48Z</time>
      </trkpt>
      <trkpt lat="45.7858" lon="4.84654">
        <ele>206.82</ele>
        <time>2014-02-09T09:07:55Z</time>
      </trkpt>
      <trkpt lat="45.78593" lon="4.84641">
        <ele>209.7</ele>
        <time>2014-02-09T09:08:05Z</time>
      </trkpt>
      <trkpt lat="45.7861" lon="4.84637">
        <ele>213.07</ele>
        <time>2014-02-09T09:08:14Z</time>
      </trkpt>
      <trkpt lat="45.78625" lon="4.84617">
        <ele>215.95</ele>
        <time>2014-02-09T09:08:26Z</time>
      </trkpt>
      <trkpt lat="45.78649" lon="4.84594">
        <ele>222.68</ele>
        <time>2014-02-09T09:08:54Z</time>
      </trkpt>
      <trkpt lat="45.78696" lon="4.84559">
        <ele>231.33</ele>
        <time>2014-02-09T09:09:25Z</time>
      </trkpt>
      <trkpt lat="45.78713" lon="4.84551">
        <ele>234.22</ele>
        <time>2014-02-09T09:09:38Z</time>
      </trkpt>
      <trkpt lat="45.78728" lon="4.84538">
        <ele>237.1</ele>
        <time>2014-02-09T09:09:49Z</time>
      </trkpt>
      <trkpt lat="45.7872" lon="4.84531">
        <ele>239.51</ele>
        <time>2014-02-09T09:10:03Z</time>
      </trkpt>
      <trkpt lat="45.78696" lon="4.84529">
        <ele>241.43</ele>
        <time>2014-02-09T09:10:15Z</time>
      </trkpt>
      <trkpt lat="45.7867" lon="4.84523">
        <ele>243.83</ele>
        <time>2014-02-09T09:10:29Z</time>
      </trkpt>
      <trkpt lat="45.78657" lon="4.84508">
        <ele>246.72</ele>
        <time>2014-02-09T09:10:39Z</time>
      </trkpt>
      <trkpt lat="45.7866" lon="4.84486">
        <ele>249.6</ele>
        <time>2014-02-09T09:10:47Z</time>
      </trkpt>
      <trkpt lat="45.78685" lon="4.84443">
        <ele>256.81</ele>
        <time>2014-02-09T09:11:09Z</time>
      </trkpt>
      <trkpt lat="45.78711" lon="4.84409">
        <ele>261.14</ele>
        <time>2014-02-09T09:11:27Z</time>
      </trkpt>
      <trkpt lat="45.78745" lon="4.84353">
        <ele>263.06</ele>
        <time>2014-02-09T09:11:53Z</time>
      </trkpt>
      <trkpt lat="45.7876" lon="4.84334">
        <ele>265.46</ele>
        <time>2014-02-09T09:12:04Z</time>
      </trkpt>
      <trkpt lat="45.78771" lon="4.84319">
        <ele>268.83</ele>
        <time>2014-02-09T09:12:12Z</time>
      </trkpt>
      <trkpt lat="45.78776" lon="4.8431">
        <ele>270.75</ele>
        <time>2014-02-09T09:12:17Z</time>
      </trkpt>
      <trkpt lat="45.78769" lon="4.84304">
        <ele>272.19</ele>
        <time>2014-02-09T09:12:26Z</time>
      </trkpt>
      <trkpt lat="45.78771" lon="4.843">
        <ele>272.67</ele>
        <time>2014-02-09T09:12:30Z</time>
      </trkpt>
      <trkpt lat="45.78758" lon="4.84274">
        <ele>273.15</ele>
        <time>2014-02-09T09:12:49Z</time>
      </trkpt>
      <trkpt lat="45.78745" lon="4.84255">
        <ele>273.15</ele>
        <time>2014-02-09T09:13:03Z</time>
      </trkpt>
      <trkpt lat="45.78728" lon="4.84222">
        <ele>271.71</ele>
        <time>2014-02-09T09:13:14Z</time>
      </trkpt>
      <trkpt lat="45.78713" lon="4.84188">
        <ele>269.79</ele>
        <time>2014-02-09T09:13:24Z</time>
      </trkpt>
      <trkpt lat="45.78696" lon="4.84154">
        <ele>267.38</ele>
        <time>2014-02-09T09:13:35Z</time>
      </trkpt>
      <trkpt lat="45.78645" lon="4.84034">
        <ele>265.46</ele>
        <time>2014-02-09T09:14:11Z</time>
      </trkpt>
      <trkpt lat="45.78623" lon="4.83991">
        <ele>264.5</ele>
        <time>2014-02-09T09:14:24Z</time>
      </trkpt>
      <trkpt lat="45.78604" lon="4.83963">
        <ele>264.5</ele>
        <time>2014-02-09T09:14:33Z</time>
      </trkpt>
      <trkpt lat="45.78578" lon="4.83894">
        <ele>264.5</ele>
        <time>2014-02-09T09:14:53Z</time>
      </trkpt>
      <trkpt lat="45.78509" lon="4.83757">
        <ele>264.5</ele>
        <time>2014-02-09T09:15:37Z</time>
      </trkpt>
      <trkpt lat="45.78492" lon="4.83731">
        <ele>264.02</ele>
        <time>2014-02-09T09:15:46Z</time>
      </trkpt>
      <trkpt lat="45.78484" lon="4.83692">
        <ele>265.94</ele>
        <time>2014-02-09T09:15:58Z</time>
      </trkpt>
      <trkpt lat="45.78473" lon="4.83624">
        <ele>266.9</ele>
        <time>2014-02-09T09:16:17Z</time>
      </trkpt>
      <trkpt lat="45.78451" lon="4.83581">
        <ele>266.42</ele>
        <time>2014-02-09T09:16:31Z</time>
      </trkpt>
      <trkpt lat="45.78391" lon="4.83497">
        <ele>261.62</ele>
        <time>2014-02-09T09:17:00Z</time>
      </trkpt>
      <trkpt lat="45.78355" lon="4.83474">
        <ele>259.21</ele>
        <time>2014-02-09T09:17:12Z</time>
      </trkpt>
      <trkpt lat="45.78336" lon="4.83491">
        <ele>258.25</ele>
        <time>2014-02-09T09:17:21Z</time>
      </trkpt>
      <trkpt lat="45.78314" lon="4.83521">
        <ele>255.37</ele>
        <time>2014-02-09T09:17:34Z</time>
      </trkpt>
      <trkpt lat="45.7831" lon="4.83562">
        <ele>252.48</ele>
        <time>2014-02-09T09:17:45Z</time>
      </trkpt>
      <trkpt lat="45.78303" lon="4.83579">
        <ele>249.12</ele>
        <time>2014-02-09T09:17:54Z</time>
      </trkpt>
      <trkpt lat="45.78301" lon="4.83615">
        <ele>243.35</ele>
        <time>2014-02-09T09:18:06Z</time>
      </trkpt>
      <trkpt lat="45.7831" lon="4.83671">
        <ele>241.43</ele>
        <time>2014-02-09T09:18:21Z</time>
      </trkpt>
      <trkpt lat="45.78301" lon="4.83725">
        <ele>239.51</ele>
        <time>2014-02-09T09:18:33Z</time>
      </trkpt>
      <trkpt lat="45.78288" lon="4.83785">
        <ele>233.26</ele>
        <time>2014-02-09T09:18:47Z</time>
      </trkpt>
      <trkpt lat="45.78267" lon="4.83862">
        <ele>230.85</ele>
        <time>2014-02-09T09:19:06Z</time>
      </trkpt>
      <trkpt lat="45.7822" lon="4.8389">
        <ele>226.05</ele>
        <time>2014-02-09T09:19:23Z</time>
      </trkpt>
      <trkpt lat="45.78179" lon="4.83937">
        <ele>219.32</ele>
        <time>2014-02-09T09:19:41Z</time>
      </trkpt>
      <trkpt lat="45.78143" lon="4.83952">
        <ele>219.32</ele>
        <time>2014-02-09T09:19:54Z</time>
      </trkpt>
      <trkpt lat="45.7813" lon="4.83969">
        <ele>216.91</ele>
        <time>2014-02-09T09:20:00Z</time>
      </trkpt>
      <trkpt lat="45.78085" lon="4.8401">
        <ele>211.15</ele>
        <time>2014-02-09T09:20:20Z</time>
      </trkpt>
      <trkpt lat="45.78087" lon="4.84014">
        <ele>211.15</ele>
        <time>2014-02-09T09:20:21Z</time>
      </trkpt>
      <trkpt lat="45.78089" lon="4.84006">
        <ele>208.74</ele>
        <time>2014-02-09T09:20:28Z</time>
      </trkpt>
      <trkpt lat="45.78091" lon="4.84016">
        <ele>207.78</ele>
        <time>2014-02-09T09:20:32Z</time>
      </trkpt>
      <trkpt lat="45.78093" lon="4.84004">
        <ele>206.34</ele>
        <time>2014-02-09T09:20:38Z</time>
      </trkpt>
      <trkpt lat="45.78065" lon="4.84023">
        <ele>202.98</ele>
        <time>2014-02-09T09:20:47Z</time>
      </trkpt>
      <trkpt lat="45.78024" lon="4.84072">
        <ele>196.73</ele>
        <time>2014-02-09T09:21:06Z</time>
      </trkpt>
      <trkpt lat="45.77992" lon="4.84102">
        <ele>191.92</ele>
        <time>2014-02-09T09:21:19Z</time>
      </trkpt>
      <trkpt lat="45.77958" lon="4.84115">
        <ele>189.04</ele>
        <time>2014-02-09T09:21:32Z</time>
      </trkpt>
      <trkpt lat="45.77952" lon="4.84104">
        <ele>188.56</ele>
        <time>2014-02-09T09:21:35Z</time>
      </trkpt>
      <trkpt lat="45.7793" lon="4.84087">
        <ele>187.59</ele>
        <time>2014-02-09T09:21:43Z</time>
      </trkpt>
      <trkpt lat="45.77906" lon="4.84072">
        <ele>187.59</ele>
        <time>2014-02-09T09:21:53Z</time>
      </trkpt>
      <trkpt lat="45.77894" lon="4.84053">
        <ele>188.56</ele>
        <time>2014-02-09T09:22:04Z</time>
      </trkpt>
      <trkpt lat="45.77896" lon="4.84019">
        <ele>192.4</ele>
        <time>2014-02-09T09:22:19Z</time>
      </trkpt>
      <trkpt lat="45.77896" lon="4.84008">
        <ele>195.77</ele>
        <time>2014-02-09T09:22:24Z</time>
      </trkpt>
      <trkpt lat="45.77887" lon="4.83993">
        <ele>199.13</ele>
        <time>2014-02-09T09:22:35Z</time>
      </trkpt>
      <trkpt lat="45.77883" lon="4.83971">
        <ele>202.49</ele>
        <time>2014-02-09T09:22:48Z</time>
      </trkpt>
      <trkpt lat="45.77879" lon="4.83959">
        <ele>205.86</ele>
        <time>2014-02-09T09:22:58Z</time>
      </trkpt>
      <trkpt lat="45.77874" lon="4.83956">
        <ele>209.22</ele>
        <time>2014-02-09T09:23:07Z</time>
      </trkpt>
      <trkpt lat="45.77868" lon="4.83956">
        <ele>213.07</ele>
        <time>2014-02-09T09:23:27Z</time>
      </trkpt>
      <trkpt lat="45.77864" lon="4.83956">
        <ele>219.8</ele>
        <time>2014-02-09T09:23:59Z</time>
      </trkpt>
      <trkpt lat="45.77859" lon="4.83954">
        <ele>226.05</ele>
        <time>2014-02-09T09:24:24Z</time>
      </trkpt>
      <trkpt lat="45.77814" lon="4.83922">
        <ele>228.45</ele>
        <time>2014-02-09T09:24:38Z</time>
      </trkpt>
      <trkpt lat="45.77782" lon="4.83888">
        <ele>235.66</ele>
        <time>2014-02-09T09:25:06Z</time>
      </trkpt>
      <trkpt lat="45.77769" lon="4.83866">
        <ele>242.39</ele>
        <time>2014-02-09T09:25:33Z</time>
      </trkpt>
      <trkpt lat="45.77767" lon="4.83873">
        <ele>242.39</ele>
        <time>2014-02-09T09:25:37Z</time>
      </trkpt>
      <trkpt lat="45.77756" lon="4.83875">
        <ele>243.35</ele>
        <time>2014-02-09T09:25:42Z</time>
      </trkpt>
      <trkpt lat="45.77737" lon="4.83875">
        <ele>244.79</ele>
        <time>2014-02-09T09:25:59Z</time>
      </trkpt>
      <trkpt lat="45.77716" lon="4.83868">
        <ele>245.75</ele>
        <time>2014-02-09T09:26:20Z</time>
      </trkpt>
      <trkpt lat="45.77707" lon="4.83879">
        <ele>245.75</ele>
        <time>2014-02-09T09:26:37Z</time>
      </trkpt>
      <trkpt lat="45.77718" lon="4.83849">
        <ele>245.75</ele>
        <time>2014-02-09T09:27:15Z</time>
      </trkpt>
      <trkpt lat="45.77705" lon="4.83845">
        <ele>245.75</ele>
        <time>2014-02-09T09:28:16Z</time>
      </trkpt>
      <trkpt lat="45.77692" lon="4.838">
        <ele>248.16</ele>
        <time>2014-02-09T09:28:51Z</time>
      </trkpt>
      <trkpt lat="45.77653" lon="4.83718">
        <ele>250.56</ele>
        <time>2014-02-09T09:29:18Z</time>
      </trkpt>
      <trkpt lat="45.77643" lon="4.83682">
        <ele>252</ele>
        <time>2014-02-09T09:29:31Z</time>
      </trkpt>
      <trkpt lat="45.77643" lon="4.83671">
        <ele>251.52</ele>
        <time>2014-02-09T09:29:34Z</time>
      </trkpt>
      <trkpt lat="45.77651" lon="4.83624">
        <ele>252.96</ele>
        <time>2014-02-09T09:29:47Z</time>
      </trkpt>
      <trkpt lat="45.77625" lon="4.83607">
        <ele>251.52</ele>
        <time>2014-02-09T09:30:01Z</time>
      </trkpt>
      <trkpt lat="45.77615" lon="4.83602">
        <ele>248.64</ele>
        <time>2014-02-09T09:30:09Z</time>
      </trkpt>
      <trkpt lat="45.77597" lon="4.83611">
        <ele>243.35</ele>
        <time>2014-02-09T09:30:19Z</time>
      </trkpt>
      <trkpt lat="45.77597" lon="4.83643">
        <ele>239.02</ele>
        <time>2014-02-09T09:30:32Z</time>
      </trkpt>
      <trkpt lat="45.77589" lon="4.83677">
        <ele>235.66</ele>
        <time>2014-02-09T09:30:42Z</time>
      </trkpt>
      <trkpt lat="45.776" lon="4.8374">
        <ele>232.78</ele>
        <time>2014-02-09T09:30:55Z</time>
      </trkpt>
      <trkpt lat="45.77593" lon="4.83813">
        <ele>229.89</ele>
        <time>2014-02-09T09:31:15Z</time>
      </trkpt>
      <trkpt lat="45.7758" lon="4.83821">
        <ele>226.53</ele>
        <time>2014-02-09T09:31:23Z</time>
      </trkpt>
      <trkpt lat="45.77555" lon="4.83841">
        <ele>220.28</ele>
        <time>2014-02-09T09:31:38Z</time>
      </trkpt>
      <trkpt lat="45.77548" lon="4.83853">
        <ele>215.47</ele>
        <time>2014-02-09T09:31:47Z</time>
      </trkpt>
      <trkpt lat="45.77552" lon="4.83864">
        <ele>212.11</ele>
        <time>2014-02-09T09:31:58Z</time>
      </trkpt>
      <trkpt lat="45.77552" lon="4.83862">
        <ele>210.19</ele>
        <time>2014-02-09T09:32:04Z</time>
      </trkpt>
      <trkpt lat="45.77546" lon="4.83858">
        <ele>208.26</ele>
        <time>2014-02-09T09:32:12Z</time>
      </trkpt>
      <trkpt lat="45.77531" lon="4.83834">
        <ele>206.34</ele>
        <time>2014-02-09T09:32:32Z</time>
      </trkpt>
      <trkpt lat="45.7754" lon="4.83795">
        <ele>204.42</ele>
        <time>2014-02-09T09:32:44Z</time>
      </trkpt>
      <trkpt lat="45.77535" lon="4.83772">
        <ele>202.98</ele>
        <time>2014-02-09T09:32:51Z</time>
      </trkpt>
      <trkpt lat="45.77512" lon="4.83776">
        <ele>198.65</ele>
        <time>2014-02-09T09:33:06Z</time>
      </trkpt>
      <trkpt lat="45.77507" lon="4.8377">
        <ele>196.73</ele>
        <time>2014-02-09T09:33:09Z</time>
      </trkpt>
      <trkpt lat="45.77475" lon="4.83757">
        <ele>192.88</ele>
        <time>2014-02-09T09:33:23Z</time>
      </trkpt>
      <trkpt lat="45.77454" lon="4.83761">
        <ele>189.52</ele>
        <time>2014-02-09T09:33:32Z</time>
      </trkpt>
      <trkpt lat="45.77432" lon="4.8374">
        <ele>186.15</ele>
        <time>2014-02-09T09:33:41Z</time>
      </trkpt>
      <trkpt lat="45.77432" lon="4.8374">
        <ele>187.59</ele>
        <time>2014-02-09T09:33:52Z</time>
      </trkpt>
      <trkpt lat="45.77426" lon="4.83753">
        <ele>190.96</ele>
        <time>2014-02-09T09:34:00Z</time>
      </trkpt>
      <trkpt lat="45.77419" lon="4.83735">
        <ele>192.88</ele>
        <time>2014-02-09T09:34:13Z</time>
      </trkpt>
      <trkpt lat="45.77424" lon="4.83731">
        <ele>196.73</ele>
        <time>2014-02-09T09:34:24Z</time>
      </trkpt>
      <trkpt lat="45.77424" lon="4.83735">
        <ele>197.21</ele>
        <time>2014-02-09T09:34:26Z</time>
      </trkpt>
      <trkpt lat="45.77428" lon="4.83733">
        <ele>199.61</ele>
        <time>2014-02-09T09:34:34Z</time>
      </trkpt>
      <trkpt lat="45.7743" lon="4.83731">
        <ele>200.09</ele>
        <time>2014-02-09T09:34:36Z</time>
      </trkpt>
      <trkpt lat="45.77424" lon="4.83725">
        <ele>202.01</ele>
        <time>2014-02-09T09:34:46Z</time>
      </trkpt>
      <trkpt lat="45.77428" lon="4.83714">
        <ele>204.9</ele>
        <time>2014-02-09T09:34:55Z</time>
      </trkpt>
      <trkpt lat="45.7743" lon="4.83714">
        <ele>206.82</ele>
        <time>2014-02-09T09:34:58Z</time>
      </trkpt>
      <trkpt lat="45.77437" lon="4.8371">
        <ele>207.78</ele>
        <time>2014-02-09T09:35:03Z</time>
      </trkpt>
      <trkpt lat="45.77456" lon="4.8371">
        <ele>213.07</ele>
        <time>2014-02-09T09:35:29Z</time>
      </trkpt>
      <trkpt lat="45.77464" lon="4.83692">
        <ele>217.4</ele>
        <time>2014-02-09T09:35:47Z</time>
      </trkpt>
      <trkpt lat="45.77464" lon="4.83675">
        <ele>223.64</ele>
        <time>2014-02-09T09:36:09Z</time>
      </trkpt>
      <trkpt lat="45.77469" lon="4.83669">
        <ele>226.53</ele>
        <time>2014-02-09T09:36:18Z</time>
      </trkpt>
      <trkpt lat="45.77473" lon="4.83656">
        <ele>229.41</ele>
        <time>2014-02-09T09:36:31Z</time>
      </trkpt>
      <trkpt lat="45.77477" lon="4.83624">
        <ele>232.3</ele>
        <time>2014-02-09T09:36:47Z</time>
      </trkpt>
      <trkpt lat="45.77473" lon="4.83613">
        <ele>236.62</ele>
        <time>2014-02-09T09:37:01Z</time>
      </trkpt>
      <trkpt lat="45.77473" lon="4.8362">
        <ele>238.06</ele>
        <time>2014-02-09T09:37:04Z</time>
      </trkpt>
      <trkpt lat="45.77479" lon="4.83624">
        <ele>239.02</ele>
        <time>2014-02-09T09:37:11Z</time>
      </trkpt>
      <trkpt lat="45.77479" lon="4.83615">
        <ele>239.99</ele>
        <time>2014-02-09T09:37:16Z</time>
      </trkpt>
      <trkpt lat="45.77488" lon="4.83592">
        <ele>241.91</ele>
        <time>2014-02-09T09:37:31Z</time>
      </trkpt>
      <trkpt lat="45.77482" lon="4.83544">
        <ele>245.27</ele>
        <time>2014-02-09T09:37:57Z</time>
      </trkpt>
      <trkpt lat="45.77479" lon="4.83519">
        <ele>250.08</ele>
        <time>2014-02-09T09:38:12Z</time>
      </trkpt>
      <trkpt lat="45.77479" lon="4.83497">
        <ele>251.04</ele>
        <time>2014-02-09T09:38:21Z</time>
      </trkpt>
      <trkpt lat="45.77471" lon="4.83482">
        <ele>252.96</ele>
        <time>2014-02-09T09:38:30Z</time>
      </trkpt>
      <trkpt lat="45.77456" lon="4.83474">
        <ele>253.44</ele>
        <time>2014-02-09T09:38:39Z</time>
      </trkpt>
      <trkpt lat="45.77445" lon="4.83461">
        <ele>252.96</ele>
        <time>2014-02-09T09:38:47Z</time>
      </trkpt>
      <trkpt lat="45.77424" lon="4.83465">
        <ele>252</ele>
        <time>2014-02-09T09:38:58Z</time>
      </trkpt>
      <trkpt lat="45.77396" lon="4.83461">
        <ele>245.27</ele>
        <time>2014-02-09T09:39:10Z</time>
      </trkpt>
      <trkpt lat="45.77364" lon="4.83467">
        <ele>242.39</ele>
        <time>2014-02-09T09:39:21Z</time>
      </trkpt>
      <trkpt lat="45.7734" lon="4.83465">
        <ele>239.02</ele>
        <time>2014-02-09T09:39:30Z</time>
      </trkpt>
      <trkpt lat="45.77329" lon="4.83461">
        <ele>237.1</ele>
        <time>2014-02-09T09:39:34Z</time>
      </trkpt>
      <trkpt lat="45.77308" lon="4.83467">
        <ele>234.22</ele>
        <time>2014-02-09T09:39:41Z</time>
      </trkpt>
      <trkpt lat="45.77271" lon="4.83456">
        <ele>233.26</ele>
        <time>2014-02-09T09:39:53Z</time>
      </trkpt>
      <trkpt lat="45.77246" lon="4.83459">
        <ele>232.78</ele>
        <time>2014-02-09T09:40:04Z</time>
      </trkpt>
      <trkpt lat="45.77224" lon="4.83459">
        <ele>229.89</ele>
        <time>2014-02-09T09:40:18Z</time>
      </trkpt>
      <trkpt lat="45.77218" lon="4.83407">
        <ele>228.45</ele>
        <time>2014-02-09T09:40:31Z</time>
      </trkpt>
      <trkpt lat="45.7722" lon="4.83377">
        <ele>227.49</ele>
        <time>2014-02-09T09:40:39Z</time>
      </trkpt>
      <trkpt lat="45.77246" lon="4.83321">
        <ele>225.57</ele>
        <time>2014-02-09T09:40:51Z</time>
      </trkpt>
      <trkpt lat="45.77239" lon="4.83313">
        <ele>225.09</ele>
        <time>2014-02-09T09:40:54Z</time>
      </trkpt>
      <trkpt lat="45.77136" lon="4.83332">
        <ele>221.72</ele>
        <time>2014-02-09T09:41:07Z</time>
      </trkpt>
      <trkpt lat="45.7711" lon="4.83353">
        <ele>220.28</ele>
        <time>2014-02-09T09:41:18Z</time>
      </trkpt>
      <trkpt lat="45.77093" lon="4.83349">
        <ele>216.91</ele>
        <time>2014-02-09T09:41:24Z</time>
      </trkpt>
      <trkpt lat="45.77078" lon="4.83358">
        <ele>213.07</ele>
        <time>2014-02-09T09:41:35Z</time>
      </trkpt>
      <trkpt lat="45.77063" lon="4.8336">
        <ele>210.19</ele>
        <time>2014-02-09T09:41:40Z</time>
      </trkpt>
      <trkpt lat="45.77033" lon="4.83353">
        <ele>207.78</ele>
        <time>2014-02-09T09:41:48Z</time>
      </trkpt>
      <trkpt lat="45.7702" lon="4.83343">
        <ele>206.82</ele>
        <time>2014-02-09T09:41:54Z</time>
      </trkpt>
      <trkpt lat="45.77014" lon="4.83358">
        <ele>205.38</ele>
        <time>2014-02-09T09:42:03Z</time>
      </trkpt>
      <trkpt lat="45.77007" lon="4.83353">
        <ele>202.98</ele>
        <time>2014-02-09T09:42:08Z</time>
      </trkpt>
      <trkpt lat="45.76999" lon="4.83338">
        <ele>201.05</ele>
        <time>2014-02-09T09:42:13Z</time>
      </trkpt>
      <trkpt lat="45.76999" lon="4.83343">
        <ele>200.09</ele>
        <time>2014-02-09T09:42:22Z</time>
      </trkpt>
      <trkpt lat="45.7699" lon="4.83336">
        <ele>194.32</ele>
        <time>2014-02-09T09:42:36Z</time>
      </trkpt>
      <trkpt lat="45.76984" lon="4.83321">
        <ele>192.88</ele>
        <time>2014-02-09T09:42:49Z</time>
      </trkpt>
      <trkpt lat="45.76982" lon="4.83261">
        <ele>193.84</ele>
        <time>2014-02-09T09:43:03Z</time>
      </trkpt>
      <trkpt lat="45.76975" lon="4.83218">
        <ele>194.32</ele>
        <time>2014-02-09T09:43:16Z</time>
      </trkpt>
      <trkpt lat="45.76982" lon="4.83186">
        <ele>194.8</ele>
        <time>2014-02-09T09:43:24Z</time>
      </trkpt>
      <trkpt lat="45.76949" lon="4.83195">
        <ele>194.8</ele>
        <time>2014-02-09T09:43:29Z</time>
      </trkpt>
      <trkpt lat="45.769" lon="4.83223">
        <ele>191.92</ele>
        <time>2014-02-09T09:43:38Z</time>
      </trkpt>
      <trkpt lat="45.76872" lon="4.83218">
        <ele>189.04</ele>
        <time>2014-02-09T09:43:50Z</time>
      </trkpt>
      <trkpt lat="45.76874" lon="4.83218">
        <ele>189.52</ele>
        <time>2014-02-09T09:43:51Z</time>
      </trkpt>
      <trkpt lat="45.76877" lon="4.83201">
        <ele>187.59</ele>
        <time>2014-02-09T09:44:00Z</time>
      </trkpt>
      <trkpt lat="45.76866" lon="4.83205">
        <ele>186.15</ele>
        <time>2014-02-09T09:44:03Z</time>
      </trkpt>
      <trkpt lat="45.76816" lon="4.83195">
        <ele>185.19</ele>
        <time>2014-02-09T09:44:14Z</time>
      </trkpt>
      <trkpt lat="45.76797" lon="4.83184">
        <ele>185.19</ele>
        <time>2014-02-09T09:44:19Z</time>
      </trkpt>
      <trkpt lat="45.76797" lon="4.83158">
        <ele>183.75</ele>
        <time>2014-02-09T09:44:25Z</time>
      </trkpt>
      <trkpt lat="45.76812" lon="4.83092">
        <ele>184.23</ele>
        <time>2014-02-09T09:44:40Z</time>
      </trkpt>
      <trkpt lat="45.76831" lon="4.83049">
        <ele>183.75</ele>
        <time>2014-02-09T09:44:53Z</time>
      </trkpt>
      <trkpt lat="45.76838" lon="4.82993">
        <ele>183.27</ele>
        <time>2014-02-09T09:45:07Z</time>
      </trkpt>
      <trkpt lat="45.76827" lon="4.82939">
        <ele>182.79</ele>
        <time>2014-02-09T09:45:23Z</time>
      </trkpt>
      <trkpt lat="45.76836" lon="4.82888">
        <ele>182.79</ele>
        <time>2014-02-09T09:45:40Z</time>
      </trkpt>
      <trkpt lat="45.76834" lon="4.8283">
        <ele>181.83</ele>
        <time>2014-02-09T09:45:56Z</time>
      </trkpt>
      <trkpt lat="45.76778" lon="4.82813">
        <ele>180.38</ele>
        <time>2014-02-09T09:46:10Z</time>
      </trkpt>
      <trkpt lat="45.76756" lon="4.82804">
        <ele>182.79</ele>
        <time>2014-02-09T09:46:21Z</time>
      </trkpt>
      <trkpt lat="45.76741" lon="4.82791">
        <ele>185.19</ele>
        <time>2014-02-09T09:46:37Z</time>
      </trkpt>
      <trkpt lat="45.76718" lon="4.82761">
        <ele>183.75</ele>
        <time>2014-02-09T09:46:54Z</time>
      </trkpt>
      <trkpt lat="45.76698" lon="4.82781">
        <ele>182.31</ele>
        <time>2014-02-09T09:47:06Z</time>
      </trkpt>
      <trkpt lat="45.76677" lon="4.82813">
        <ele>182.79</ele>
        <time>2014-02-09T09:47:19Z</time>
      </trkpt>
      <trkpt lat="45.7666" lon="4.82832">
        <ele>182.79</ele>
        <time>2014-02-09T09:47:27Z</time>
      </trkpt>
      <trkpt lat="45.76645" lon="4.82841">
        <ele>182.79</ele>
        <time>2014-02-09T09:47:33Z</time>
      </trkpt>
      <trkpt lat="45.76636" lon="4.82834">
        <ele>183.27</ele>
        <time>2014-02-09T09:47:37Z</time>
      </trkpt>
      <trkpt lat="45.76634" lon="4.82798">
        <ele>182.31</ele>
        <time>2014-02-09T09:47:47Z</time>
      </trkpt>
      <trkpt lat="45.7663" lon="4.82757">
        <ele>183.27</ele>
        <time>2014-02-09T09:47:59Z</time>
      </trkpt>
      <trkpt lat="45.76619" lon="4.82759">
        <ele>184.71</ele>
        <time>2014-02-09T09:48:08Z</time>
      </trkpt>
      <trkpt lat="45.76595" lon="4.82718">
        <ele>186.15</ele>
        <time>2014-02-09T09:48:21Z</time>
      </trkpt>
      <trkpt lat="45.76585" lon="4.82705">
        <ele>187.59</ele>
        <time>2014-02-09T09:48:32Z</time>
      </trkpt>
      <trkpt lat="45.76587" lon="4.82675">
        <ele>190.48</ele>
        <time>2014-02-09T09:48:50Z</time>
      </trkpt>
      <trkpt lat="45.76568" lon="4.82656">
        <ele>191.92</ele>
        <time>2014-02-09T09:49:02Z</time>
      </trkpt>
      <trkpt lat="45.76546" lon="4.8265">
        <ele>194.32</ele>
        <time>2014-02-09T09:49:19Z</time>
      </trkpt>
      <trkpt lat="45.76516" lon="4.82654">
        <ele>197.21</ele>
        <time>2014-02-09T09:49:36Z</time>
      </trkpt>
      <trkpt lat="45.7649" lon="4.82665">
        <ele>200.09</ele>
        <time>2014-02-09T09:49:48Z</time>
      </trkpt>
      <trkpt lat="45.76465" lon="4.82641">
        <ele>202.49</ele>
        <time>2014-02-09T09:50:04Z</time>
      </trkpt>
      <trkpt lat="45.76454" lon="4.82645">
        <ele>205.86</ele>
        <time>2014-02-09T09:50:16Z</time>
      </trkpt>
      <trkpt lat="45.76422" lon="4.82647">
        <ele>209.22</ele>
        <time>2014-02-09T09:50:32Z</time>
      </trkpt>
      <trkpt lat="45.76394" lon="4.82635">
        <ele>212.11</ele>
        <time>2014-02-09T09:50:48Z</time>
      </trkpt>
      <trkpt lat="45.76372" lon="4.82635">
        <ele>214.51</ele>
        <time>2014-02-09T09:51:05Z</time>
      </trkpt>
      <trkpt lat="45.76349" lon="4.82622">
        <ele>217.88</ele>
        <time>2014-02-09T09:51:17Z</time>
      </trkpt>
      <trkpt lat="45.76316" lon="4.82559">
        <ele>225.09</ele>
        <time>2014-02-09T09:51:49Z</time>
      </trkpt>
      <trkpt lat="45.7631" lon="4.82538">
        <ele>227.01</ele>
        <time>2014-02-09T09:52:01Z</time>
      </trkpt>
      <trkpt lat="45.76289" lon="4.82519">
        <ele>229.89</ele>
        <time>2014-02-09T09:52:14Z</time>
      </trkpt>
      <trkpt lat="45.76269" lon="4.82491">
        <ele>232.78</ele>
        <time>2014-02-09T09:52:31Z</time>
      </trkpt>
      <trkpt lat="45.76259" lon="4.82474">
        <ele>234.22</ele>
        <time>2014-02-09T09:52:41Z</time>
      </trkpt>
      <trkpt lat="45.76254" lon="4.82465">
        <ele>236.62</ele>
        <time>2014-02-09T09:52:49Z</time>
      </trkpt>
      <trkpt lat="45.76244" lon="4.82441">
        <ele>238.06</ele>
        <time>2014-02-09T09:52:59Z</time>
      </trkpt>
      <trkpt lat="45.76235" lon="4.82435">
        <ele>240.95</ele>
        <time>2014-02-09T09:53:10Z</time>
      </trkpt>
      <trkpt lat="45.76228" lon="4.82424">
        <ele>244.31</ele>
        <time>2014-02-09T09:53:19Z</time>
      </trkpt>
      <trkpt lat="45.76228" lon="4.82405">
        <ele>246.23</ele>
        <time>2014-02-09T09:53:29Z</time>
      </trkpt>
      <trkpt lat="45.76241" lon="4.82379">
        <ele>250.08</ele>
        <time>2014-02-09T09:53:45Z</time>
      </trkpt>
      <trkpt lat="45.76248" lon="4.82377">
        <ele>251.52</ele>
        <time>2014-02-09T09:53:49Z</time>
      </trkpt>
      <trkpt lat="45.76269" lon="4.82381">
        <ele>253.44</ele>
        <time>2014-02-09T09:54:03Z</time>
      </trkpt>
      <trkpt lat="45.76284" lon="4.8239">
        <ele>255.37</ele>
        <time>2014-02-09T09:54:16Z</time>
      </trkpt>
      <trkpt lat="45.76254" lon="4.82377">
        <ele>258.73</ele>
        <time>2014-02-09T09:54:36Z</time>
      </trkpt>
      <trkpt lat="45.76239" lon="4.82362">
        <ele>261.62</ele>
        <time>2014-02-09T09:54:49Z</time>
      </trkpt>
      <trkpt lat="45.76248" lon="4.82336">
        <ele>264.02</ele>
        <time>2014-02-09T09:55:04Z</time>
      </trkpt>
      <trkpt lat="45.76263" lon="4.82358">
        <ele>265.46</ele>
        <time>2014-02-09T09:55:18Z</time>
      </trkpt>
      <trkpt lat="45.76271" lon="4.82364">
        <ele>266.9</ele>
        <time>2014-02-09T09:55:23Z</time>
      </trkpt>
      <trkpt lat="45.76274" lon="4.82369">
        <ele>266.9</ele>
        <time>2014-02-09T09:55:24Z</time>
      </trkpt>
      <trkpt lat="45.76284" lon="4.82364">
        <ele>268.35</ele>
        <time>2014-02-09T09:55:34Z</time>
      </trkpt>
      <trkpt lat="45.76267" lon="4.82347">
        <ele>270.75</ele>
        <time>2014-02-09T09:55:47Z</time>
      </trkpt>
      <trkpt lat="45.7625" lon="4.82336">
        <ele>273.15</ele>
        <time>2014-02-09T09:55:59Z</time>
      </trkpt>
      <trkpt lat="45.76241" lon="4.82328">
        <ele>274.11</ele>
        <time>2014-02-09T09:56:06Z</time>
      </trkpt>
      <trkpt lat="45.76246" lon="4.82321">
        <ele>274.59</ele>
        <time>2014-02-09T09:56:11Z</time>
      </trkpt>
      <trkpt lat="45.76256" lon="4.82328">
        <ele>278.44</ele>
        <time>2014-02-09T09:56:23Z</time>
      </trkpt>
      <trkpt lat="45.76284" lon="4.82332">
        <ele>281.32</ele>
        <time>2014-02-09T09:56:40Z</time>
      </trkpt>
      <trkpt lat="45.76289" lon="4.82326">
        <ele>283.73</ele>
        <time>2014-02-09T09:56:47Z</time>
      </trkpt>
      <trkpt lat="45.76269" lon="4.82323">
        <ele>287.57</ele>
        <time>2014-02-09T09:57:03Z</time>
      </trkpt>
      <trkpt lat="45.76259" lon="4.82311">
        <ele>289.49</ele>
        <time>2014-02-09T09:57:12Z</time>
      </trkpt>
      <trkpt lat="45.76263" lon="4.82308">
        <ele>290.94</ele>
        <time>2014-02-09T09:57:15Z</time>
      </trkpt>
      <trkpt lat="45.76291" lon="4.82311">
        <ele>293.34</ele>
        <time>2014-02-09T09:57:31Z</time>
      </trkpt>
      <trkpt lat="45.76304" lon="4.82304">
        <ele>294.3</ele>
        <time>2014-02-09T09:57:44Z</time>
      </trkpt>
      <trkpt lat="45.76295" lon="4.82296">
        <ele>298.63</ele>
        <time>2014-02-09T09:57:57Z</time>
      </trkpt>
      <trkpt lat="45.76291" lon="4.82304">
        <ele>298.63</ele>
        <time>2014-02-09T09:58:07Z</time>
      </trkpt>
      <trkpt lat="45.76291" lon="4.82302">
        <ele>298.15</ele>
        <time>2014-02-09T09:58:21Z</time>
      </trkpt>
      <trkpt lat="45.76293" lon="4.82302">
        <ele>298.15</ele>
        <time>2014-02-09T09:58:31Z</time>
      </trkpt>
      <trkpt lat="45.76291" lon="4.823">
        <ele>298.15</ele>
        <time>2014-02-09T09:58:50Z</time>
      </trkpt>
      <trkpt lat="45.76286" lon="4.82276">
        <ele>298.63</ele>
        <time>2014-02-09T09:59:03Z</time>
      </trkpt>
      <trkpt lat="45.76293" lon="4.82225">
        <ele>297.67</ele>
        <time>2014-02-09T09:59:19Z</time>
      </trkpt>
      <trkpt lat="45.76321" lon="4.8222">
        <ele>297.18</ele>
        <time>2014-02-09T09:59:32Z</time>
      </trkpt>
      <trkpt lat="45.76351" lon="4.8222">
        <ele>295.74</ele>
        <time>2014-02-09T09:59:45Z</time>
      </trkpt>
      <trkpt lat="45.76355" lon="4.82173">
        <ele>294.3</ele>
        <time>2014-02-09T09:59:58Z</time>
      </trkpt>
      <trkpt lat="45.76338" lon="4.82145">
        <ele>293.82</ele>
        <time>2014-02-09T10:00:08Z</time>
      </trkpt>
      <trkpt lat="45.76312" lon="4.82075">
        <ele>290.94</ele>
        <time>2014-02-09T10:00:28Z</time>
      </trkpt>
      <trkpt lat="45.76306" lon="4.82038">
        <ele>289.49</ele>
        <time>2014-02-09T10:00:37Z</time>
      </trkpt>
      <trkpt lat="45.76299" lon="4.81989">
        <ele>286.13</ele>
        <time>2014-02-09T10:00:49Z</time>
      </trkpt>
      <trkpt lat="45.76334" lon="4.81875">
        <ele>282.77</ele>
        <time>2014-02-09T10:01:19Z</time>
      </trkpt>
      <trkpt lat="45.76338" lon="4.81851">
        <ele>285.65</ele>
        <time>2014-02-09T10:01:26Z</time>
      </trkpt>
      <trkpt lat="45.76336" lon="4.81708">
        <ele>287.57</ele>
        <time>2014-02-09T10:02:07Z</time>
      </trkpt>
      <trkpt lat="45.76329" lon="4.81669">
        <ele>288.05</ele>
        <time>2014-02-09T10:02:19Z</time>
      </trkpt>
      <trkpt lat="45.76349" lon="4.81652">
        <ele>282.77</ele>
        <time>2014-02-09T10:02:35Z</time>
      </trkpt>
      <trkpt lat="45.76353" lon="4.81639">
        <ele>279.4</ele>
        <time>2014-02-09T10:02:43Z</time>
      </trkpt>
      <trkpt lat="45.76362" lon="4.81622">
        <ele>276.04</ele>
        <time>2014-02-09T10:02:53Z</time>
      </trkpt>
      <trkpt lat="45.76368" lon="4.81624">
        <ele>275.07</ele>
        <time>2014-02-09T10:02:55Z</time>
      </trkpt>
      <trkpt lat="45.76381" lon="4.81637">
        <ele>272.67</ele>
        <time>2014-02-09T10:03:01Z</time>
      </trkpt>
      <trkpt lat="45.76398" lon="4.8166">
        <ele>268.83</ele>
        <time>2014-02-09T10:03:12Z</time>
      </trkpt>
      <trkpt lat="45.76394" lon="4.8168">
        <ele>267.38</ele>
        <time>2014-02-09T10:03:20Z</time>
      </trkpt>
      <trkpt lat="45.764" lon="4.81675">
        <ele>264.02</ele>
        <time>2014-02-09T10:03:26Z</time>
      </trkpt>
      <trkpt lat="45.76402" lon="4.81645">
        <ele>261.62</ele>
        <time>2014-02-09T10:03:37Z</time>
      </trkpt>
      <trkpt lat="45.76413" lon="4.81654">
        <ele>260.17</ele>
        <time>2014-02-09T10:03:41Z</time>
      </trkpt>
      <trkpt lat="45.76426" lon="4.81656">
        <ele>257.77</ele>
        <time>2014-02-09T10:03:45Z</time>
      </trkpt>
      <trkpt lat="45.76432" lon="4.8166">
        <ele>256.81</ele>
        <time>2014-02-09T10:03:48Z</time>
      </trkpt>
      <trkpt lat="45.76437" lon="4.8166">
        <ele>256.33</ele>
        <time>2014-02-09T10:03:50Z</time>
      </trkpt>
      <trkpt lat="45.76439" lon="4.8165">
        <ele>253.93</ele>
        <time>2014-02-09T10:03:56Z</time>
      </trkpt>
      <trkpt lat="45.76439" lon="4.81669">
        <ele>251.52</ele>
        <time>2014-02-09T10:04:06Z</time>
      </trkpt>
      <trkpt lat="45.76432" lon="4.81686">
        <ele>249.6</ele>
        <time>2014-02-09T10:04:18Z</time>
      </trkpt>
      <trkpt lat="45.76456" lon="4.81682">
        <ele>246.72</ele>
        <time>2014-02-09T10:04:29Z</time>
      </trkpt>
      <trkpt lat="45.7648" lon="4.81697">
        <ele>240.95</ele>
        <time>2014-02-09T10:04:49Z</time>
      </trkpt>
      <trkpt lat="45.76482" lon="4.81695">
        <ele>240.47</ele>
        <time>2014-02-09T10:04:51Z</time>
      </trkpt>
      <trkpt lat="45.76501" lon="4.81712">
        <ele>233.26</ele>
        <time>2014-02-09T10:05:08Z</time>
      </trkpt>
      <trkpt lat="45.76507" lon="4.8171">
        <ele>231.33</ele>
        <time>2014-02-09T10:05:16Z</time>
      </trkpt>
      <trkpt lat="45.76507" lon="4.81703">
        <ele>229.41</ele>
        <time>2014-02-09T10:05:22Z</time>
      </trkpt>
      <trkpt lat="45.76512" lon="4.81701">
        <ele>227.97</ele>
        <time>2014-02-09T10:05:25Z</time>
      </trkpt>
      <trkpt lat="45.76525" lon="4.81682">
        <ele>226.05</ele>
        <time>2014-02-09T10:05:35Z</time>
      </trkpt>
      <trkpt lat="45.76525" lon="4.81673">
        <ele>227.01</ele>
        <time>2014-02-09T10:05:39Z</time>
      </trkpt>
      <trkpt lat="45.76518" lon="4.81675">
        <ele>230.37</ele>
        <time>2014-02-09T10:05:51Z</time>
      </trkpt>
      <trkpt lat="45.76512" lon="4.81671">
        <ele>231.81</ele>
        <time>2014-02-09T10:05:55Z</time>
      </trkpt>
      <trkpt lat="45.76495" lon="4.81648">
        <ele>239.51</ele>
        <time>2014-02-09T10:06:24Z</time>
      </trkpt>
      <trkpt lat="45.76471" lon="4.81626">
        <ele>246.23</ele>
        <time>2014-02-09T10:06:54Z</time>
      </trkpt>
      <trkpt lat="45.76456" lon="4.81607">
        <ele>252</ele>
        <time>2014-02-09T10:07:16Z</time>
      </trkpt>
      <trkpt lat="45.76437" lon="4.81596">
        <ele>257.77</ele>
        <time>2014-02-09T10:07:34Z</time>
      </trkpt>
      <trkpt lat="45.7643" lon="4.8159">
        <ele>259.69</ele>
        <time>2014-02-09T10:07:42Z</time>
      </trkpt>
      <trkpt lat="45.76417" lon="4.81585">
        <ele>262.58</ele>
        <time>2014-02-09T10:08:00Z</time>
      </trkpt>
      <trkpt lat="45.76396" lon="4.81577">
        <ele>272.19</ele>
        <time>2014-02-09T10:08:33Z</time>
      </trkpt>
      <trkpt lat="45.76392" lon="4.8157">
        <ele>272.67</ele>
        <time>2014-02-09T10:08:41Z</time>
      </trkpt>
      <trkpt lat="45.76383" lon="4.81542">
        <ele>277.96</ele>
        <time>2014-02-09T10:09:05Z</time>
      </trkpt>
      <trkpt lat="45.76377" lon="4.81489">
        <ele>288.53</ele>
        <time>2014-02-09T10:09:39Z</time>
      </trkpt>
      <trkpt lat="45.76351" lon="4.81502">
        <ele>289.97</ele>
        <time>2014-02-09T10:10:01Z</time>
      </trkpt>
      <trkpt lat="45.76327" lon="4.81504">
        <ele>290.94</ele>
        <time>2014-02-09T10:10:16Z</time>
      </trkpt>
      <trkpt lat="45.76325" lon="4.81508">
        <ele>291.42</ele>
        <time>2014-02-09T10:10:23Z</time>
      </trkpt>
      <trkpt lat="45.76327" lon="4.81517">
        <ele>291.9</ele>
        <time>2014-02-09T10:10:27Z</time>
      </trkpt>
      <trkpt lat="45.76331" lon="4.81562">
        <ele>290.94</ele>
        <time>2014-02-09T10:10:41Z</time>
      </trkpt>
      <trkpt lat="45.76331" lon="4.81609">
        <ele>289.97</ele>
        <time>2014-02-09T10:10:57Z</time>
      </trkpt>
      <trkpt lat="45.76329" lon="4.81639">
        <ele>289.97</ele>
        <time>2014-02-09T10:11:06Z</time>
      </trkpt>
      <trkpt lat="45.76331" lon="4.81678">
        <ele>289.97</ele>
        <time>2014-02-09T10:11:20Z</time>
      </trkpt>
      <trkpt lat="45.76342" lon="4.81774">
        <ele>288.05</ele>
        <time>2014-02-09T10:11:49Z</time>
      </trkpt>
      <trkpt lat="45.76351" lon="4.81806">
        <ele>286.61</ele>
        <time>2014-02-09T10:11:59Z</time>
      </trkpt>
      <trkpt lat="45.76347" lon="4.81858">
        <ele>286.61</ele>
        <time>2014-02-09T10:12:10Z</time>
      </trkpt>
      <trkpt lat="45.76327" lon="4.81916">
        <ele>286.13</ele>
        <time>2014-02-09T10:12:23Z</time>
      </trkpt>
      <trkpt lat="45.76304" lon="4.81999">
        <ele>287.09</ele>
        <time>2014-02-09T10:12:48Z</time>
      </trkpt>
      <trkpt lat="45.76306" lon="4.82025">
        <ele>288.53</ele>
        <time>2014-02-09T10:13:00Z</time>
      </trkpt>
      <trkpt lat="45.76344" lon="4.8215">
        <ele>293.82</ele>
        <time>2014-02-09T10:13:49Z</time>
      </trkpt>
      <trkpt lat="45.76362" lon="4.82175">
        <ele>293.82</ele>
        <time>2014-02-09T10:14:00Z</time>
      </trkpt>
      <trkpt lat="45.76364" lon="4.82208">
        <ele>293.82</ele>
        <time>2014-02-09T10:14:10Z</time>
      </trkpt>
      <trkpt lat="45.7637" lon="4.82225">
        <ele>294.78</ele>
        <time>2014-02-09T10:14:19Z</time>
      </trkpt>
      <trkpt lat="45.76372" lon="4.82225">
        <ele>294.3</ele>
        <time>2014-02-09T10:14:20Z</time>
      </trkpt>
      <trkpt lat="45.76381" lon="4.82235">
        <ele>294.3</ele>
        <time>2014-02-09T10:14:25Z</time>
      </trkpt>
      <trkpt lat="45.76396" lon="4.82272">
        <ele>292.86</ele>
        <time>2014-02-09T10:14:40Z</time>
      </trkpt>
      <trkpt lat="45.76402" lon="4.82272">
        <ele>291.42</ele>
        <time>2014-02-09T10:14:44Z</time>
      </trkpt>
      <trkpt lat="45.76422" lon="4.82263">
        <ele>289.49</ele>
        <time>2014-02-09T10:14:50Z</time>
      </trkpt>
      <trkpt lat="45.76449" lon="4.82274">
        <ele>285.65</ele>
        <time>2014-02-09T10:15:03Z</time>
      </trkpt>
      <trkpt lat="45.76456" lon="4.82276">
        <ele>282.28</ele>
        <time>2014-02-09T10:15:10Z</time>
      </trkpt>
      <trkpt lat="45.76467" lon="4.82283">
        <ele>278.92</ele>
        <time>2014-02-09T10:15:17Z</time>
      </trkpt>
      <trkpt lat="45.76486" lon="4.823">
        <ele>273.15</ele>
        <time>2014-02-09T10:15:30Z</time>
      </trkpt>
      <trkpt lat="45.76501" lon="4.82308">
        <ele>269.79</ele>
        <time>2014-02-09T10:15:38Z</time>
      </trkpt>
      <trkpt lat="45.76522" lon="4.8233">
        <ele>263.54</ele>
        <time>2014-02-09T10:15:56Z</time>
      </trkpt>
      <trkpt lat="45.76535" lon="4.82345">
        <ele>258.73</ele>
        <time>2014-02-09T10:16:06Z</time>
      </trkpt>
      <trkpt lat="45.76535" lon="4.82354">
        <ele>257.29</ele>
        <time>2014-02-09T10:16:10Z</time>
      </trkpt>
      <trkpt lat="45.76552" lon="4.82375">
        <ele>250.08</ele>
        <time>2014-02-09T10:16:29Z</time>
      </trkpt>
      <trkpt lat="45.76578" lon="4.82401">
        <ele>236.14</ele>
        <time>2014-02-09T10:17:08Z</time>
      </trkpt>
      <trkpt lat="45.76589" lon="4.82416">
        <ele>233.26</ele>
        <time>2014-02-09T10:17:17Z</time>
      </trkpt>
      <trkpt lat="45.76621" lon="4.82444">
        <ele>224.61</ele>
        <time>2014-02-09T10:17:42Z</time>
      </trkpt>
      <trkpt lat="45.76628" lon="4.82448">
        <ele>222.68</ele>
        <time>2014-02-09T10:17:47Z</time>
      </trkpt>
      <trkpt lat="45.76638" lon="4.82478">
        <ele>219.32</ele>
        <time>2014-02-09T10:17:55Z</time>
      </trkpt>
      <trkpt lat="45.76645" lon="4.8254">
        <ele>216.43</ele>
        <time>2014-02-09T10:18:13Z</time>
      </trkpt>
      <trkpt lat="45.76628" lon="4.82549">
        <ele>213.55</ele>
        <time>2014-02-09T10:18:21Z</time>
      </trkpt>
      <trkpt lat="45.76621" lon="4.82555">
        <ele>211.15</ele>
        <time>2014-02-09T10:18:25Z</time>
      </trkpt>
      <trkpt lat="45.76615" lon="4.82581">
        <ele>208.26</ele>
        <time>2014-02-09T10:18:32Z</time>
      </trkpt>
      <trkpt lat="45.76619" lon="4.82613">
        <ele>200.57</ele>
        <time>2014-02-09T10:18:48Z</time>
      </trkpt>
      <trkpt lat="45.76628" lon="4.82669">
        <ele>197.21</ele>
        <time>2014-02-09T10:18:56Z</time>
      </trkpt>
      <trkpt lat="45.76634" lon="4.82686">
        <ele>195.77</ele>
        <time>2014-02-09T10:19:01Z</time>
      </trkpt>
      <trkpt lat="45.76636" lon="4.8268">
        <ele>192.4</ele>
        <time>2014-02-09T10:19:05Z</time>
      </trkpt>
      <trkpt lat="45.76621" lon="4.82688">
        <ele>189.04</ele>
        <time>2014-02-09T10:19:12Z</time>
      </trkpt>
      <trkpt lat="45.76598" lon="4.82716">
        <ele>186.15</ele>
        <time>2014-02-09T10:19:21Z</time>
      </trkpt>
      <trkpt lat="45.76608" lon="4.82742">
        <ele>184.23</ele>
        <time>2014-02-09T10:19:33Z</time>
      </trkpt>
      <trkpt lat="45.76619" lon="4.82781">
        <ele>181.83</ele>
        <time>2014-02-09T10:19:50Z</time>
      </trkpt>
      <trkpt lat="45.76623" lon="4.82819">
        <ele>178.46</ele>
        <time>2014-02-09T10:20:02Z</time>
      </trkpt>
      <trkpt lat="45.76638" lon="4.8286">
        <ele>178.46</ele>
        <time>2014-02-09T10:20:16Z</time>
      </trkpt>
      <trkpt lat="45.76645" lon="4.82905">
        <ele>179.9</ele>
        <time>2014-02-09T10:20:29Z</time>
      </trkpt>
      <trkpt lat="45.76662" lon="4.82933">
        <ele>180.87</ele>
        <time>2014-02-09T10:20:39Z</time>
      </trkpt>
      <trkpt lat="45.76673" lon="4.82969">
        <ele>180.87</ele>
        <time>2014-02-09T10:20:50Z</time>
      </trkpt>
      <trkpt lat="45.76686" lon="4.82995">
        <ele>179.9</ele>
        <time>2014-02-09T10:21:00Z</time>
      </trkpt>
      <trkpt lat="45.76698" lon="4.83006">
        <ele>178.46</ele>
        <time>2014-02-09T10:21:08Z</time>
      </trkpt>
      <trkpt lat="45.76718" lon="4.83027">
        <ele>178.94</ele>
        <time>2014-02-09T10:21:17Z</time>
      </trkpt>
      <trkpt lat="45.7672" lon="4.83059">
        <ele>178.94</ele>
        <time>2014-02-09T10:21:27Z</time>
      </trkpt>
      <trkpt lat="45.76756" lon="4.8309">
        <ele>178.46</ele>
        <time>2014-02-09T10:21:44Z</time>
      </trkpt>
      <trkpt lat="45.76774" lon="4.83109">
        <ele>178.94</ele>
        <time>2014-02-09T10:21:58Z</time>
      </trkpt>
      <trkpt lat="45.7678" lon="4.83117">
        <ele>179.42</ele>
        <time>2014-02-09T10:22:01Z</time>
      </trkpt>
      <trkpt lat="45.76804" lon="4.83177">
        <ele>179.42</ele>
        <time>2014-02-09T10:22:23Z</time>
      </trkpt>
      <trkpt lat="45.76806" lon="4.83229">
        <ele>178.46</ele>
        <time>2014-02-09T10:22:38Z</time>
      </trkpt>
      <trkpt lat="45.76804" lon="4.8328">
        <ele>176.54</ele>
        <time>2014-02-09T10:22:50Z</time>
      </trkpt>
      <trkpt lat="45.7681" lon="4.83347">
        <ele>177.02</ele>
        <time>2014-02-09T10:23:06Z</time>
      </trkpt>
      <trkpt lat="45.76825" lon="4.83398">
        <ele>176.06</ele>
        <time>2014-02-09T10:23:19Z</time>
      </trkpt>
      <trkpt lat="45.76834" lon="4.8345">
        <ele>176.06</ele>
        <time>2014-02-09T10:23:32Z</time>
      </trkpt>
      <trkpt lat="45.76838" lon="4.83493">
        <ele>175.58</ele>
        <time>2014-02-09T10:23:45Z</time>
      </trkpt>
      <trkpt lat="45.76827" lon="4.83538">
        <ele>174.62</ele>
        <time>2014-02-09T10:23:57Z</time>
      </trkpt>
      <trkpt lat="45.76838" lon="4.83598">
        <ele>176.06</ele>
        <time>2014-02-09T10:24:13Z</time>
      </trkpt>
      <trkpt lat="45.76814" lon="4.83667">
        <ele>177.5</ele>
        <time>2014-02-09T10:24:22Z</time>
      </trkpt>
      <trkpt lat="45.76844" lon="4.83774">
        <ele>176.54</ele>
        <time>2014-02-09T10:24:53Z</time>
      </trkpt>
      <trkpt lat="45.76859" lon="4.83776">
        <ele>177.98</ele>
        <time>2014-02-09T10:25:16Z</time>
      </trkpt>
      <trkpt lat="45.76857" lon="4.83826">
        <ele>177.5</ele>
        <time>2014-02-09T10:25:45Z</time>
      </trkpt>
      <trkpt lat="45.76872" lon="4.83868">
        <ele>178.94</ele>
        <time>2014-02-09T10:25:58Z</time>
      </trkpt>
      <trkpt lat="45.76872" lon="4.83976">
        <ele>180.38</ele>
        <time>2014-02-09T10:26:22Z</time>
      </trkpt>
      <trkpt lat="45.76877" lon="4.84019">
        <ele>179.9</ele>
        <time>2014-02-09T10:26:32Z</time>
      </trkpt>
      <trkpt lat="45.76877" lon="4.84057">
        <ele>178.94</ele>
        <time>2014-02-09T10:26:41Z</time>
      </trkpt>
      <trkpt lat="45.76892" lon="4.84096">
        <ele>176.54</ele>
        <time>2014-02-09T10:26:52Z</time>
      </trkpt>
      <trkpt lat="45.76898" lon="4.841">
        <ele>176.06</ele>
        <time>2014-02-09T10:26:55Z</time>
      </trkpt>
      <trkpt lat="45.7693" lon="4.84092">
        <ele>172.69</ele>
        <time>2014-02-09T10:27:06Z</time>
      </trkpt>
      <trkpt lat="45.76939" lon="4.84083">
        <ele>172.21</ele>
        <time>2014-02-09T10:27:10Z</time>
      </trkpt>
      <trkpt lat="45.76986" lon="4.84083">
        <ele>172.69</ele>
        <time>2014-02-09T10:27:27Z</time>
      </trkpt>
      <trkpt lat="45.77055" lon="4.84077">
        <ele>172.69</ele>
        <time>2014-02-09T10:27:49Z</time>
      </trkpt>
      <trkpt lat="45.77093" lon="4.84079">
        <ele>173.66</ele>
        <time>2014-02-09T10:28:02Z</time>
      </trkpt>
      <trkpt lat="45.7711" lon="4.84074">
        <ele>172.69</ele>
        <time>2014-02-09T10:28:08Z</time>
      </trkpt>
      <trkpt lat="45.77123" lon="4.84109">
        <ele>173.66</ele>
        <time>2014-02-09T10:28:20Z</time>
      </trkpt>
      <trkpt lat="45.7713" lon="4.8416">
        <ele>172.69</ele>
        <time>2014-02-09T10:28:32Z</time>
      </trkpt>
      <trkpt lat="45.77132" lon="4.84216">
        <ele>172.21</ele>
        <time>2014-02-09T10:28:46Z</time>
      </trkpt>
      <trkpt lat="45.77143" lon="4.8427">
        <ele>173.17</ele>
        <time>2014-02-09T10:29:00Z</time>
      </trkpt>
      <trkpt lat="45.77147" lon="4.84313">
        <ele>172.69</ele>
        <time>2014-02-09T10:29:11Z</time>
      </trkpt>
      <trkpt lat="45.77153" lon="4.84325">
        <ele>171.73</ele>
        <time>2014-02-09T10:29:22Z</time>
      </trkpt>
      <trkpt lat="45.77188" lon="4.8442">
        <ele>172.21</ele>
        <time>2014-02-09T10:29:51Z</time>
      </trkpt>
      <trkpt lat="45.77192" lon="4.84439">
        <ele>174.14</ele>
        <time>2014-02-09T10:30:03Z</time>
      </trkpt>
    </trkseg>
  </trk>
  <trk>
    <name><![CDATA[16-FEV-14: 16 FEV 2014 10:42]]></name>
    <trkseg>
      <trkpt lat="45.77177" lon="4.84617">
        <ele>136.16</ele>
        <time>2014-02-16T09:42:39Z</time>
      </trkpt>
      <trkpt lat="45.77183" lon="4.84622">
        <ele>139.53</ele>
        <time>2014-02-16T09:43:34Z</time>
      </trkpt>
      <trkpt lat="45.77177" lon="4.84615">
        <ele>139.05</ele>
        <time>2014-02-16T09:43:51Z</time>
      </trkpt>
      <trkpt lat="45.7717" lon="4.84577">
        <ele>139.53</ele>
        <time>2014-02-16T09:44:05Z</time>
      </trkpt>
      <trkpt lat="45.77166" lon="4.846">
        <ele>140.01</ele>
        <time>2014-02-16T09:44:27Z</time>
      </trkpt>
      <trkpt lat="45.77213" lon="4.84579">
        <ele>140.49</ele>
        <time>2014-02-16T09:44:40Z</time>
      </trkpt>
      <trkpt lat="45.77246" lon="4.84574">
        <ele>140.97</ele>
        <time>2014-02-16T09:44:51Z</time>
      </trkpt>
      <trkpt lat="45.77269" lon="4.84589">
        <ele>141.45</ele>
        <time>2014-02-16T09:45:07Z</time>
      </trkpt>
      <trkpt lat="45.77286" lon="4.84607">
        <ele>142.41</ele>
        <time>2014-02-16T09:45:20Z</time>
      </trkpt>
      <trkpt lat="45.77286" lon="4.84664">
        <ele>143.37</ele>
        <time>2014-02-16T09:45:39Z</time>
      </trkpt>
      <trkpt lat="45.77331" lon="4.84643">
        <ele>143.37</ele>
        <time>2014-02-16T09:45:49Z</time>
      </trkpt>
      <trkpt lat="45.77319" lon="4.8466">
        <ele>144.34</ele>
        <time>2014-02-16T09:45:55Z</time>
      </trkpt>
      <trkpt lat="45.77323" lon="4.8468">
        <ele>144.82</ele>
        <time>2014-02-16T09:46:07Z</time>
      </trkpt>
      <trkpt lat="45.77389" lon="4.84634">
        <ele>145.78</ele>
        <time>2014-02-16T09:46:20Z</time>
      </trkpt>
      <trkpt lat="45.77407" lon="4.84664">
        <ele>147.22</ele>
        <time>2014-02-16T09:46:38Z</time>
      </trkpt>
      <trkpt lat="45.77411" lon="4.84712">
        <ele>148.18</ele>
        <time>2014-02-16T09:46:51Z</time>
      </trkpt>
      <trkpt lat="45.77494" lon="4.84662">
        <ele>149.62</ele>
        <time>2014-02-16T09:47:04Z</time>
      </trkpt>
      <trkpt lat="45.77533" lon="4.84673">
        <ele>150.58</ele>
        <time>2014-02-16T09:47:18Z</time>
      </trkpt>
      <trkpt lat="45.77533" lon="4.84718">
        <ele>152.03</ele>
        <time>2014-02-16T09:47:29Z</time>
      </trkpt>
      <trkpt lat="45.77552" lon="4.84703">
        <ele>152.99</ele>
        <time>2014-02-16T09:47:45Z</time>
      </trkpt>
      <trkpt lat="45.77567" lon="4.8471">
        <ele>154.91</ele>
        <time>2014-02-16T09:48:01Z</time>
      </trkpt>
      <trkpt lat="45.77664" lon="4.84574">
        <ele>157.79</ele>
        <time>2014-02-16T09:48:34Z</time>
      </trkpt>
      <trkpt lat="45.77688" lon="4.84553">
        <ele>158.27</ele>
        <time>2014-02-16T09:48:58Z</time>
      </trkpt>
      <trkpt lat="45.77705" lon="4.84531">
        <ele>160.2</ele>
        <time>2014-02-16T09:49:57Z</time>
      </trkpt>
      <trkpt lat="45.77711" lon="4.84525">
        <ele>162.6</ele>
        <time>2014-02-16T09:50:50Z</time>
      </trkpt>
      <trkpt lat="45.77716" lon="4.84534">
        <ele>163.08</ele>
        <time>2014-02-16T09:51:10Z</time>
      </trkpt>
      <trkpt lat="45.77713" lon="4.84542">
        <ele>163.08</ele>
        <time>2014-02-16T09:51:19Z</time>
      </trkpt>
      <trkpt lat="45.77683" lon="4.84579">
        <ele>163.08</ele>
        <time>2014-02-16T09:51:36Z</time>
      </trkpt>
      <trkpt lat="45.7764" lon="4.84645">
        <ele>162.12</ele>
        <time>2014-02-16T09:52:00Z</time>
      </trkpt>
      <trkpt lat="45.77604" lon="4.84716">
        <ele>162.12</ele>
        <time>2014-02-16T09:52:25Z</time>
      </trkpt>
      <trkpt lat="45.77572" lon="4.84802">
        <ele>160.2</ele>
        <time>2014-02-16T09:52:52Z</time>
      </trkpt>
      <trkpt lat="45.7755" lon="4.84849">
        <ele>161.64</ele>
        <time>2014-02-16T09:53:06Z</time>
      </trkpt>
      <trkpt lat="45.77522" lon="4.84928">
        <ele>162.12</ele>
        <time>2014-02-16T09:53:31Z</time>
      </trkpt>
      <trkpt lat="45.77488" lon="4.85006">
        <ele>162.6</ele>
        <time>2014-02-16T09:53:57Z</time>
      </trkpt>
      <trkpt lat="45.77426" lon="4.85137">
        <ele>161.64</ele>
        <time>2014-02-16T09:54:41Z</time>
      </trkpt>
      <trkpt lat="45.77404" lon="4.85147">
        <ele>161.64</ele>
        <time>2014-02-16T09:54:51Z</time>
      </trkpt>
      <trkpt lat="45.77374" lon="4.85152">
        <ele>162.6</ele>
        <time>2014-02-16T09:55:04Z</time>
      </trkpt>
      <trkpt lat="45.77355" lon="4.85182">
        <ele>162.6</ele>
        <time>2014-02-16T09:55:15Z</time>
      </trkpt>
      <trkpt lat="45.77349" lon="4.85207">
        <ele>162.12</ele>
        <time>2014-02-16T09:55:24Z</time>
      </trkpt>
      <trkpt lat="45.77351" lon="4.8525">
        <ele>162.12</ele>
        <time>2014-02-16T09:55:36Z</time>
      </trkpt>
      <trkpt lat="45.77314" lon="4.85345">
        <ele>163.08</ele>
        <time>2014-02-16T09:56:06Z</time>
      </trkpt>
      <trkpt lat="45.77301" lon="4.85385">
        <ele>162.12</ele>
        <time>2014-02-16T09:56:18Z</time>
      </trkpt>
      <trkpt lat="45.77295" lon="4.85411">
        <ele>162.6</ele>
        <time>2014-02-16T09:56:26Z</time>
      </trkpt>
      <trkpt lat="45.77321" lon="4.85439">
        <ele>162.6</ele>
        <time>2014-02-16T09:56:38Z</time>
      </trkpt>
      <trkpt lat="45.77353" lon="4.85482">
        <ele>162.6</ele>
        <time>2014-02-16T09:56:57Z</time>
      </trkpt>
      <trkpt lat="45.77357" lon="4.85544">
        <ele>162.12</ele>
        <time>2014-02-16T09:57:15Z</time>
      </trkpt>
      <trkpt lat="45.77366" lon="4.85622">
        <ele>162.6</ele>
        <time>2014-02-16T09:57:37Z</time>
      </trkpt>
      <trkpt lat="45.77381" lon="4.85639">
        <ele>162.12</ele>
        <time>2014-02-16T09:57:44Z</time>
      </trkpt>
      <trkpt lat="45.77391" lon="4.85673">
        <ele>162.6</ele>
        <time>2014-02-16T09:57:55Z</time>
      </trkpt>
      <trkpt lat="45.77398" lon="4.85718">
        <ele>162.6</ele>
        <time>2014-02-16T09:58:10Z</time>
      </trkpt>
      <trkpt lat="45.77407" lon="4.8575">
        <ele>163.08</ele>
        <time>2014-02-16T09:58:21Z</time>
      </trkpt>
      <trkpt lat="45.77419" lon="4.8578">
        <ele>163.08</ele>
        <time>2014-02-16T09:58:32Z</time>
      </trkpt>
      <trkpt lat="45.77458" lon="4.85812">
        <ele>163.08</ele>
        <time>2014-02-16T09:58:48Z</time>
      </trkpt>
      <trkpt lat="45.7754" lon="4.8584">
        <ele>163.08</ele>
        <time>2014-02-16T09:59:24Z</time>
      </trkpt>
      <trkpt lat="45.776" lon="4.85843">
        <ele>163.08</ele>
        <time>2014-02-16T09:59:47Z</time>
      </trkpt>
      <trkpt lat="45.77628" lon="4.8584">
        <ele>164.04</ele>
        <time>2014-02-16T09:59:59Z</time>
      </trkpt>
      <trkpt lat="45.77658" lon="4.85834">
        <ele>163.56</ele>
        <time>2014-02-16T10:00:12Z</time>
      </trkpt>
      <trkpt lat="45.77743" lon="4.85849">
        <ele>164.04</ele>
        <time>2014-02-16T10:00:49Z</time>
      </trkpt>
      <trkpt lat="45.77778" lon="4.85836">
        <ele>163.56</ele>
        <time>2014-02-16T10:01:02Z</time>
      </trkpt>
      <trkpt lat="45.77814" lon="4.85843">
        <ele>163.56</ele>
        <time>2014-02-16T10:01:17Z</time>
      </trkpt>
      <trkpt lat="45.77874" lon="4.8586">
        <ele>163.08</ele>
        <time>2014-02-16T10:01:42Z</time>
      </trkpt>
      <trkpt lat="45.77945" lon="4.8587">
        <ele>163.56</ele>
        <time>2014-02-16T10:02:08Z</time>
      </trkpt>
      <trkpt lat="45.78065" lon="4.8587">
        <ele>163.08</ele>
        <time>2014-02-16T10:02:56Z</time>
      </trkpt>
      <trkpt lat="45.78196" lon="4.8586">
        <ele>162.6</ele>
        <time>2014-02-16T10:03:48Z</time>
      </trkpt>
      <trkpt lat="45.78222" lon="4.85875">
        <ele>163.56</ele>
        <time>2014-02-16T10:04:01Z</time>
      </trkpt>
      <trkpt lat="45.78254" lon="4.85877">
        <ele>164.52</ele>
        <time>2014-02-16T10:04:13Z</time>
      </trkpt>
      <trkpt lat="45.78342" lon="4.85877">
        <ele>163.56</ele>
        <time>2014-02-16T10:04:46Z</time>
      </trkpt>
      <trkpt lat="45.78379" lon="4.85881">
        <ele>163.56</ele>
        <time>2014-02-16T10:05:00Z</time>
      </trkpt>
      <trkpt lat="45.78449" lon="4.859">
        <ele>167.41</ele>
        <time>2014-02-16T10:05:30Z</time>
      </trkpt>
      <trkpt lat="45.78456" lon="4.85885">
        <ele>167.41</ele>
        <time>2014-02-16T10:05:37Z</time>
      </trkpt>
      <trkpt lat="45.78458" lon="4.85802">
        <ele>165</ele>
        <time>2014-02-16T10:06:01Z</time>
      </trkpt>
      <trkpt lat="45.78447" lon="4.85752">
        <ele>164.04</ele>
        <time>2014-02-16T10:06:14Z</time>
      </trkpt>
      <trkpt lat="45.78432" lon="4.85703">
        <ele>162.6</ele>
        <time>2014-02-16T10:06:27Z</time>
      </trkpt>
      <trkpt lat="45.78413" lon="4.85647">
        <ele>163.56</ele>
        <time>2014-02-16T10:06:42Z</time>
      </trkpt>
      <trkpt lat="45.78424" lon="4.85609">
        <ele>163.56</ele>
        <time>2014-02-16T10:06:54Z</time>
      </trkpt>
      <trkpt lat="45.78439" lon="4.85566">
        <ele>163.56</ele>
        <time>2014-02-16T10:07:07Z</time>
      </trkpt>
      <trkpt lat="45.78434" lon="4.85523">
        <ele>163.56</ele>
        <time>2014-02-16T10:07:19Z</time>
      </trkpt>
      <trkpt lat="45.78411" lon="4.85428">
        <ele>163.56</ele>
        <time>2014-02-16T10:07:43Z</time>
      </trkpt>
      <trkpt lat="45.78404" lon="4.85385">
        <ele>164.04</ele>
        <time>2014-02-16T10:07:56Z</time>
      </trkpt>
      <trkpt lat="45.78389" lon="4.85338">
        <ele>163.08</ele>
        <time>2014-02-16T10:08:10Z</time>
      </trkpt>
      <trkpt lat="45.78361" lon="4.85272">
        <ele>164.52</ele>
        <time>2014-02-16T10:08:31Z</time>
      </trkpt>
      <trkpt lat="45.78329" lon="4.85188">
        <ele>164.04</ele>
        <time>2014-02-16T10:08:59Z</time>
      </trkpt>
      <trkpt lat="45.78282" lon="4.85109">
        <ele>165.48</ele>
        <time>2014-02-16T10:09:24Z</time>
      </trkpt>
      <trkpt lat="45.78258" lon="4.85072">
        <ele>164.52</ele>
        <time>2014-02-16T10:09:37Z</time>
      </trkpt>
      <trkpt lat="45.78213" lon="4.84969">
        <ele>166.45</ele>
        <time>2014-02-16T10:10:13Z</time>
      </trkpt>
      <trkpt lat="45.78138" lon="4.84888">
        <ele>166.45</ele>
        <time>2014-02-16T10:10:55Z</time>
      </trkpt>
      <trkpt lat="45.78123" lon="4.8486">
        <ele>166.93</ele>
        <time>2014-02-16T10:11:08Z</time>
      </trkpt>
      <trkpt lat="45.78095" lon="4.84828">
        <ele>167.41</ele>
        <time>2014-02-16T10:11:21Z</time>
      </trkpt>
      <trkpt lat="45.78074" lon="4.84813">
        <ele>165.48</ele>
        <time>2014-02-16T10:11:33Z</time>
      </trkpt>
      <trkpt lat="45.78044" lon="4.84765">
        <ele>165</ele>
        <time>2014-02-16T10:11:49Z</time>
      </trkpt>
      <trkpt lat="45.78005" lon="4.84729">
        <ele>164.52</ele>
        <time>2014-02-16T10:12:10Z</time>
      </trkpt>
      <trkpt lat="45.77947" lon="4.84686">
        <ele>162.6</ele>
        <time>2014-02-16T10:12:36Z</time>
      </trkpt>
      <trkpt lat="45.77885" lon="4.84652">
        <ele>163.56</ele>
        <time>2014-02-16T10:13:04Z</time>
      </trkpt>
      <trkpt lat="45.77857" lon="4.84639">
        <ele>162.6</ele>
        <time>2014-02-16T10:13:18Z</time>
      </trkpt>
      <trkpt lat="45.77797" lon="4.846">
        <ele>164.04</ele>
        <time>2014-02-16T10:13:48Z</time>
      </trkpt>
      <trkpt lat="45.77769" lon="4.84589">
        <ele>163.08</ele>
        <time>2014-02-16T10:13:59Z</time>
      </trkpt>
      <trkpt lat="45.77741" lon="4.84587">
        <ele>162.12</ele>
        <time>2014-02-16T10:14:11Z</time>
      </trkpt>
      <trkpt lat="45.77737" lon="4.84583">
        <ele>162.12</ele>
        <time>2014-02-16T10:14:17Z</time>
      </trkpt>
      <trkpt lat="45.77761" lon="4.84564">
        <ele>161.64</ele>
        <time>2014-02-16T10:14:29Z</time>
      </trkpt>
      <trkpt lat="45.77797" lon="4.84544">
        <ele>161.64</ele>
        <time>2014-02-16T10:14:44Z</time>
      </trkpt>
      <trkpt lat="45.77816" lon="4.84529">
        <ele>161.64</ele>
        <time>2014-02-16T10:14:56Z</time>
      </trkpt>
      <trkpt lat="45.77818" lon="4.84501">
        <ele>162.12</ele>
        <time>2014-02-16T10:15:07Z</time>
      </trkpt>
      <trkpt lat="45.77836" lon="4.84463">
        <ele>163.08</ele>
        <time>2014-02-16T10:15:18Z</time>
      </trkpt>
      <trkpt lat="45.77881" lon="4.8431">
        <ele>162.6</ele>
        <time>2014-02-16T10:16:01Z</time>
      </trkpt>
      <trkpt lat="45.779" lon="4.84212">
        <ele>161.64</ele>
        <time>2014-02-16T10:16:21Z</time>
      </trkpt>
      <trkpt lat="45.77913" lon="4.84173">
        <ele>161.16</ele>
        <time>2014-02-16T10:16:32Z</time>
      </trkpt>
      <trkpt lat="45.77928" lon="4.84147">
        <ele>160.2</ele>
        <time>2014-02-16T10:16:41Z</time>
      </trkpt>
      <trkpt lat="45.77943" lon="4.84143">
        <ele>160.2</ele>
        <time>2014-02-16T10:16:47Z</time>
      </trkpt>
      <trkpt lat="45.77994" lon="4.84169">
        <ele>159.72</ele>
        <time>2014-02-16T10:17:10Z</time>
      </trkpt>
      <trkpt lat="45.78029" lon="4.84197">
        <ele>159.72</ele>
        <time>2014-02-16T10:17:26Z</time>
      </trkpt>
      <trkpt lat="45.78048" lon="4.84205">
        <ele>158.75</ele>
        <time>2014-02-16T10:17:33Z</time>
      </trkpt>
      <trkpt lat="45.78061" lon="4.84205">
        <ele>159.24</ele>
        <time>2014-02-16T10:17:39Z</time>
      </trkpt>
      <trkpt lat="45.78106" lon="4.84233">
        <ele>159.72</ele>
        <time>2014-02-16T10:18:01Z</time>
      </trkpt>
      <trkpt lat="45.78192" lon="4.8431">
        <ele>160.2</ele>
        <time>2014-02-16T10:18:40Z</time>
      </trkpt>
      <trkpt lat="45.78209" lon="4.84319">
        <ele>160.2</ele>
        <time>2014-02-16T10:18:47Z</time>
      </trkpt>
      <trkpt lat="45.78233" lon="4.8434">
        <ele>159.72</ele>
        <time>2014-02-16T10:19:00Z</time>
      </trkpt>
      <trkpt lat="45.78325" lon="4.84435">
        <ele>160.2</ele>
        <time>2014-02-16T10:19:44Z</time>
      </trkpt>
      <trkpt lat="45.78368" lon="4.84493">
        <ele>160.68</ele>
        <time>2014-02-16T10:20:08Z</time>
      </trkpt>
      <trkpt lat="45.78394" lon="4.84523">
        <ele>160.2</ele>
        <time>2014-02-16T10:20:21Z</time>
      </trkpt>
      <trkpt lat="45.78417" lon="4.84564">
        <ele>159.72</ele>
        <time>2014-02-16T10:20:34Z</time>
      </trkpt>
      <trkpt lat="45.78456" lon="4.84604">
        <ele>160.2</ele>
        <time>2014-02-16T10:20:54Z</time>
      </trkpt>
      <trkpt lat="45.78509" lon="4.8468">
        <ele>161.16</ele>
        <time>2014-02-16T10:21:24Z</time>
      </trkpt>
      <trkpt lat="45.78518" lon="4.84699">
        <ele>161.16</ele>
        <time>2014-02-16T10:21:32Z</time>
      </trkpt>
      <trkpt lat="45.78539" lon="4.84699">
        <ele>161.64</ele>
        <time>2014-02-16T10:21:42Z</time>
      </trkpt>
      <trkpt lat="45.78557" lon="4.84688">
        <ele>164.52</ele>
        <time>2014-02-16T10:21:55Z</time>
      </trkpt>
      <trkpt lat="45.7858" lon="4.8466">
        <ele>170.77</ele>
        <time>2014-02-16T10:22:12Z</time>
      </trkpt>
      <trkpt lat="45.78617" lon="4.84626">
        <ele>181.83</ele>
        <time>2014-02-16T10:22:37Z</time>
      </trkpt>
      <trkpt lat="45.78638" lon="4.84622">
        <ele>185.67</ele>
        <time>2014-02-16T10:22:46Z</time>
      </trkpt>
      <trkpt lat="45.78655" lon="4.84609">
        <ele>189.04</ele>
        <time>2014-02-16T10:22:56Z</time>
      </trkpt>
      <trkpt lat="45.78666" lon="4.84594">
        <ele>192.4</ele>
        <time>2014-02-16T10:23:04Z</time>
      </trkpt>
      <trkpt lat="45.78668" lon="4.84594">
        <ele>193.36</ele>
        <time>2014-02-16T10:23:05Z</time>
      </trkpt>
      <trkpt lat="45.78681" lon="4.84581">
        <ele>196.25</ele>
        <time>2014-02-16T10:23:15Z</time>
      </trkpt>
      <trkpt lat="45.78698" lon="4.8457">
        <ele>199.13</ele>
        <time>2014-02-16T10:23:25Z</time>
      </trkpt>
      <trkpt lat="45.78745" lon="4.84559">
        <ele>205.86</ele>
        <time>2014-02-16T10:23:43Z</time>
      </trkpt>
      <trkpt lat="45.78748" lon="4.84551">
        <ele>206.34</ele>
        <time>2014-02-16T10:23:46Z</time>
      </trkpt>
      <trkpt lat="45.78711" lon="4.84534">
        <ele>209.22</ele>
        <time>2014-02-16T10:24:01Z</time>
      </trkpt>
      <trkpt lat="45.78683" lon="4.84525">
        <ele>210.67</ele>
        <time>2014-02-16T10:24:13Z</time>
      </trkpt>
      <trkpt lat="45.78664" lon="4.84514">
        <ele>214.03</ele>
        <time>2014-02-16T10:24:22Z</time>
      </trkpt>
      <trkpt lat="45.78662" lon="4.8451">
        <ele>214.99</ele>
        <time>2014-02-16T10:24:24Z</time>
      </trkpt>
      <trkpt lat="45.78668" lon="4.84484">
        <ele>218.84</ele>
        <time>2014-02-16T10:24:33Z</time>
      </trkpt>
      <trkpt lat="45.78685" lon="4.84454">
        <ele>223.64</ele>
        <time>2014-02-16T10:24:45Z</time>
      </trkpt>
      <trkpt lat="45.78694" lon="4.84441">
        <ele>227.01</ele>
        <time>2014-02-16T10:24:52Z</time>
      </trkpt>
      <trkpt lat="45.78715" lon="4.84422">
        <ele>229.89</ele>
        <time>2014-02-16T10:25:02Z</time>
      </trkpt>
      <trkpt lat="45.78763" lon="4.84351">
        <ele>235.18</ele>
        <time>2014-02-16T10:25:29Z</time>
      </trkpt>
      <trkpt lat="45.78778" lon="4.84334">
        <ele>239.02</ele>
        <time>2014-02-16T10:25:37Z</time>
      </trkpt>
      <trkpt lat="45.78791" lon="4.84325">
        <ele>240.47</ele>
        <time>2014-02-16T10:25:41Z</time>
      </trkpt>
      <trkpt lat="45.78791" lon="4.84325">
        <ele>241.43</ele>
        <time>2014-02-16T10:25:43Z</time>
      </trkpt>
      <trkpt lat="45.78769" lon="4.84347">
        <ele>240.95</ele>
        <time>2014-02-16T10:25:52Z</time>
      </trkpt>
      <trkpt lat="45.78752" lon="4.84371">
        <ele>236.62</ele>
        <time>2014-02-16T10:25:59Z</time>
      </trkpt>
      <trkpt lat="45.78737" lon="4.84383">
        <ele>234.22</ele>
        <time>2014-02-16T10:26:03Z</time>
      </trkpt>
      <trkpt lat="45.78733" lon="4.84394">
        <ele>232.78</ele>
        <time>2014-02-16T10:26:06Z</time>
      </trkpt>
      <trkpt lat="45.78696" lon="4.84439">
        <ele>230.85</ele>
        <time>2014-02-16T10:26:25Z</time>
      </trkpt>
      <trkpt lat="45.78698" lon="4.84441">
        <ele>230.37</ele>
        <time>2014-02-16T10:26:31Z</time>
      </trkpt>
      <trkpt lat="45.78724" lon="4.84416">
        <ele>231.81</ele>
        <time>2014-02-16T10:26:43Z</time>
      </trkpt>
      <trkpt lat="45.78758" lon="4.84364">
        <ele>234.22</ele>
        <time>2014-02-16T10:27:07Z</time>
      </trkpt>
      <trkpt lat="45.78786" lon="4.8433">
        <ele>240.95</ele>
        <time>2014-02-16T10:27:22Z</time>
      </trkpt>
      <trkpt lat="45.78786" lon="4.84323">
        <ele>242.39</ele>
        <time>2014-02-16T10:27:27Z</time>
      </trkpt>
      <trkpt lat="45.78776" lon="4.84295">
        <ele>244.31</ele>
        <time>2014-02-16T10:27:45Z</time>
      </trkpt>
      <trkpt lat="45.78748" lon="4.84242">
        <ele>244.79</ele>
        <time>2014-02-16T10:28:08Z</time>
      </trkpt>
      <trkpt lat="45.78726" lon="4.84203">
        <ele>242.39</ele>
        <time>2014-02-16T10:28:22Z</time>
      </trkpt>
      <trkpt lat="45.78705" lon="4.84154">
        <ele>239.99</ele>
        <time>2014-02-16T10:28:38Z</time>
      </trkpt>
      <trkpt lat="45.78666" lon="4.84081">
        <ele>238.54</ele>
        <time>2014-02-16T10:29:03Z</time>
      </trkpt>
      <trkpt lat="45.78657" lon="4.84062">
        <ele>237.1</ele>
        <time>2014-02-16T10:29:10Z</time>
      </trkpt>
      <trkpt lat="45.78642" lon="4.84021">
        <ele>236.62</ele>
        <time>2014-02-16T10:29:24Z</time>
      </trkpt>
      <trkpt lat="45.78578" lon="4.83888">
        <ele>236.62</ele>
        <time>2014-02-16T10:30:11Z</time>
      </trkpt>
      <trkpt lat="45.78535" lon="4.83832">
        <ele>237.1</ele>
        <time>2014-02-16T10:30:35Z</time>
      </trkpt>
      <trkpt lat="45.78524" lon="4.83808">
        <ele>238.06</ele>
        <time>2014-02-16T10:30:44Z</time>
      </trkpt>
      <trkpt lat="45.78503" lon="4.83761">
        <ele>237.58</ele>
        <time>2014-02-16T10:31:04Z</time>
      </trkpt>
      <trkpt lat="45.78486" lon="4.83701">
        <ele>239.99</ele>
        <time>2014-02-16T10:31:26Z</time>
      </trkpt>
      <trkpt lat="45.78475" lon="4.83662">
        <ele>239.99</ele>
        <time>2014-02-16T10:31:36Z</time>
      </trkpt>
      <trkpt lat="45.78471" lon="4.83635">
        <ele>240.47</ele>
        <time>2014-02-16T10:31:46Z</time>
      </trkpt>
      <trkpt lat="45.78451" lon="4.83609">
        <ele>239.51</ele>
        <time>2014-02-16T10:31:59Z</time>
      </trkpt>
      <trkpt lat="45.78381" lon="4.8351">
        <ele>231.81</ele>
        <time>2014-02-16T10:32:42Z</time>
      </trkpt>
      <trkpt lat="45.78355" lon="4.83482">
        <ele>231.33</ele>
        <time>2014-02-16T10:32:53Z</time>
      </trkpt>
      <trkpt lat="45.78344" lon="4.8348">
        <ele>230.37</ele>
        <time>2014-02-16T10:32:58Z</time>
      </trkpt>
      <trkpt lat="45.78316" lon="4.83499">
        <ele>229.41</ele>
        <time>2014-02-16T10:33:14Z</time>
      </trkpt>
      <trkpt lat="45.78316" lon="4.83517">
        <ele>227.01</ele>
        <time>2014-02-16T10:33:19Z</time>
      </trkpt>
      <trkpt lat="45.78308" lon="4.83547">
        <ele>225.09</ele>
        <time>2014-02-16T10:33:30Z</time>
      </trkpt>
      <trkpt lat="45.78295" lon="4.83609">
        <ele>216.43</ele>
        <time>2014-02-16T10:34:00Z</time>
      </trkpt>
      <trkpt lat="45.7831" lon="4.83647">
        <ele>214.99</ele>
        <time>2014-02-16T10:34:13Z</time>
      </trkpt>
      <trkpt lat="45.78308" lon="4.83688">
        <ele>214.51</ele>
        <time>2014-02-16T10:34:24Z</time>
      </trkpt>
      <trkpt lat="45.78303" lon="4.8372">
        <ele>213.07</ele>
        <time>2014-02-16T10:34:33Z</time>
      </trkpt>
      <trkpt lat="45.78293" lon="4.83744">
        <ele>210.19</ele>
        <time>2014-02-16T10:34:41Z</time>
      </trkpt>
      <trkpt lat="45.78284" lon="4.83787">
        <ele>207.3</ele>
        <time>2014-02-16T10:34:53Z</time>
      </trkpt>
      <trkpt lat="45.78265" lon="4.83864">
        <ele>206.34</ele>
        <time>2014-02-16T10:35:15Z</time>
      </trkpt>
      <trkpt lat="45.78243" lon="4.83886">
        <ele>202.98</ele>
        <time>2014-02-16T10:35:27Z</time>
      </trkpt>
      <trkpt lat="45.78215" lon="4.83907">
        <ele>197.69</ele>
        <time>2014-02-16T10:35:41Z</time>
      </trkpt>
      <trkpt lat="45.7819" lon="4.83941">
        <ele>196.25</ele>
        <time>2014-02-16T10:35:59Z</time>
      </trkpt>
      <trkpt lat="45.78177" lon="4.83944">
        <ele>197.21</ele>
        <time>2014-02-16T10:36:10Z</time>
      </trkpt>
      <trkpt lat="45.78095" lon="4.8401">
        <ele>189.04</ele>
        <time>2014-02-16T10:36:46Z</time>
      </trkpt>
      <trkpt lat="45.78091" lon="4.84014">
        <ele>188.08</ele>
        <time>2014-02-16T10:36:48Z</time>
      </trkpt>
      <trkpt lat="45.78091" lon="4.84021">
        <ele>187.11</ele>
        <time>2014-02-16T10:36:50Z</time>
      </trkpt>
      <trkpt lat="45.78091" lon="4.84016">
        <ele>185.67</ele>
        <time>2014-02-16T10:36:55Z</time>
      </trkpt>
      <trkpt lat="45.78089" lon="4.84021">
        <ele>182.31</ele>
        <time>2014-02-16T10:37:06Z</time>
      </trkpt>
      <trkpt lat="45.78044" lon="4.84053">
        <ele>177.02</ele>
        <time>2014-02-16T10:37:29Z</time>
      </trkpt>
      <trkpt lat="45.77977" lon="4.84109">
        <ele>169.33</ele>
        <time>2014-02-16T10:37:57Z</time>
      </trkpt>
      <trkpt lat="45.77952" lon="4.84117">
        <ele>166.93</ele>
        <time>2014-02-16T10:38:09Z</time>
      </trkpt>
      <trkpt lat="45.77947" lon="4.84111">
        <ele>167.41</ele>
        <time>2014-02-16T10:38:14Z</time>
      </trkpt>
      <trkpt lat="45.77937" lon="4.84111">
        <ele>167.41</ele>
        <time>2014-02-16T10:38:18Z</time>
      </trkpt>
      <trkpt lat="45.77891" lon="4.84068">
        <ele>168.37</ele>
        <time>2014-02-16T10:38:45Z</time>
      </trkpt>
      <trkpt lat="45.77887" lon="4.84064">
        <ele>170.77</ele>
        <time>2014-02-16T10:38:50Z</time>
      </trkpt>
      <trkpt lat="45.77879" lon="4.8404">
        <ele>177.02</ele>
        <time>2014-02-16T10:39:04Z</time>
      </trkpt>
      <trkpt lat="45.77872" lon="4.84038">
        <ele>178.46</ele>
        <time>2014-02-16T10:39:08Z</time>
      </trkpt>
      <trkpt lat="45.77872" lon="4.84029">
        <ele>181.35</ele>
        <time>2014-02-16T10:39:13Z</time>
      </trkpt>
      <trkpt lat="45.77866" lon="4.84012">
        <ele>185.19</ele>
        <time>2014-02-16T10:39:23Z</time>
      </trkpt>
      <trkpt lat="45.77855" lon="4.8401">
        <ele>187.59</ele>
        <time>2014-02-16T10:39:28Z</time>
      </trkpt>
      <trkpt lat="45.77851" lon="4.83997">
        <ele>191.92</ele>
        <time>2014-02-16T10:39:39Z</time>
      </trkpt>
      <trkpt lat="45.77834" lon="4.83984">
        <ele>195.77</ele>
        <time>2014-02-16T10:39:50Z</time>
      </trkpt>
      <trkpt lat="45.77825" lon="4.83984">
        <ele>197.21</ele>
        <time>2014-02-16T10:39:54Z</time>
      </trkpt>
      <trkpt lat="45.77806" lon="4.83995">
        <ele>202.49</ele>
        <time>2014-02-16T10:40:06Z</time>
      </trkpt>
      <trkpt lat="45.77795" lon="4.83986">
        <ele>205.38</ele>
        <time>2014-02-16T10:40:16Z</time>
      </trkpt>
      <trkpt lat="45.77788" lon="4.83969">
        <ele>210.19</ele>
        <time>2014-02-16T10:40:28Z</time>
      </trkpt>
      <trkpt lat="45.77782" lon="4.83965">
        <ele>212.11</ele>
        <time>2014-02-16T10:40:33Z</time>
      </trkpt>
      <trkpt lat="45.77765" lon="4.83935">
        <ele>216.43</ele>
        <time>2014-02-16T10:40:45Z</time>
      </trkpt>
      <trkpt lat="45.77754" lon="4.83905">
        <ele>221.72</ele>
        <time>2014-02-16T10:40:57Z</time>
      </trkpt>
      <trkpt lat="45.77754" lon="4.83892">
        <ele>225.57</ele>
        <time>2014-02-16T10:41:04Z</time>
      </trkpt>
      <trkpt lat="45.77748" lon="4.83886">
        <ele>228.93</ele>
        <time>2014-02-16T10:41:11Z</time>
      </trkpt>
      <trkpt lat="45.77765" lon="4.83875">
        <ele>227.49</ele>
        <time>2014-02-16T10:41:20Z</time>
      </trkpt>
      <trkpt lat="45.77767" lon="4.83886">
        <ele>225.09</ele>
        <time>2014-02-16T10:41:24Z</time>
      </trkpt>
      <trkpt lat="45.77786" lon="4.83871">
        <ele>220.28</ele>
        <time>2014-02-16T10:41:32Z</time>
      </trkpt>
      <trkpt lat="45.77788" lon="4.83868">
        <ele>219.32</ele>
        <time>2014-02-16T10:41:33Z</time>
      </trkpt>
      <trkpt lat="45.77791" lon="4.83853">
        <ele>222.68</ele>
        <time>2014-02-16T10:41:44Z</time>
      </trkpt>
      <trkpt lat="45.77782" lon="4.83845">
        <ele>225.57</ele>
        <time>2014-02-16T10:41:51Z</time>
      </trkpt>
      <trkpt lat="45.7772" lon="4.83901">
        <ele>227.97</ele>
        <time>2014-02-16T10:42:11Z</time>
      </trkpt>
      <trkpt lat="45.77692" lon="4.83888">
        <ele>227.01</ele>
        <time>2014-02-16T10:42:30Z</time>
      </trkpt>
      <trkpt lat="45.77662" lon="4.83828">
        <ele>226.53</ele>
        <time>2014-02-16T10:42:58Z</time>
      </trkpt>
      <trkpt lat="45.77634" lon="4.83768">
        <ele>227.01</ele>
        <time>2014-02-16T10:43:23Z</time>
      </trkpt>
      <trkpt lat="45.77623" lon="4.83735">
        <ele>227.97</ele>
        <time>2014-02-16T10:43:34Z</time>
      </trkpt>
      <trkpt lat="45.77623" lon="4.83701">
        <ele>227.49</ele>
        <time>2014-02-16T10:43:46Z</time>
      </trkpt>
      <trkpt lat="45.77619" lon="4.83669">
        <ele>227.49</ele>
        <time>2014-02-16T10:43:56Z</time>
      </trkpt>
      <trkpt lat="45.77602" lon="4.8366">
        <ele>224.61</ele>
        <time>2014-02-16T10:44:08Z</time>
      </trkpt>
      <trkpt lat="45.776" lon="4.83656">
        <ele>221.24</ele>
        <time>2014-02-16T10:44:12Z</time>
      </trkpt>
      <trkpt lat="45.77593" lon="4.8365">
        <ele>216.43</ele>
        <time>2014-02-16T10:44:18Z</time>
      </trkpt>
      <trkpt lat="45.77591" lon="4.83647">
        <ele>215.95</ele>
        <time>2014-02-16T10:44:20Z</time>
      </trkpt>
      <trkpt lat="45.7758" lon="4.8365">
        <ele>213.55</ele>
        <time>2014-02-16T10:44:27Z</time>
      </trkpt>
      <trkpt lat="45.77572" lon="4.8366">
        <ele>211.63</ele>
        <time>2014-02-16T10:44:32Z</time>
      </trkpt>
      <trkpt lat="45.7757" lon="4.83673">
        <ele>209.22</ele>
        <time>2014-02-16T10:44:39Z</time>
      </trkpt>
      <trkpt lat="45.77572" lon="4.8369">
        <ele>205.38</ele>
        <time>2014-02-16T10:44:46Z</time>
      </trkpt>
      <trkpt lat="45.77576" lon="4.83697">
        <ele>204.9</ele>
        <time>2014-02-16T10:44:48Z</time>
      </trkpt>
      <trkpt lat="45.77578" lon="4.8369">
        <ele>201.53</ele>
        <time>2014-02-16T10:44:57Z</time>
      </trkpt>
      <trkpt lat="45.77634" lon="4.83688">
        <ele>198.65</ele>
        <time>2014-02-16T10:45:10Z</time>
      </trkpt>
      <trkpt lat="45.77651" lon="4.8371">
        <ele>195.77</ele>
        <time>2014-02-16T10:45:21Z</time>
      </trkpt>
      <trkpt lat="45.77649" lon="4.83727">
        <ele>191.92</ele>
        <time>2014-02-16T10:45:31Z</time>
      </trkpt>
      <trkpt lat="45.77636" lon="4.83753">
        <ele>182.31</ele>
        <time>2014-02-16T10:45:47Z</time>
      </trkpt>
      <trkpt lat="45.77628" lon="4.83765">
        <ele>177.02</ele>
        <time>2014-02-16T10:45:58Z</time>
      </trkpt>
      <trkpt lat="45.77625" lon="4.83772">
        <ele>175.1</ele>
        <time>2014-02-16T10:46:02Z</time>
      </trkpt>
      <trkpt lat="45.7763" lon="4.83772">
        <ele>170.77</ele>
        <time>2014-02-16T10:46:10Z</time>
      </trkpt>
      <trkpt lat="45.77628" lon="4.83772">
        <ele>169.33</ele>
        <time>2014-02-16T10:46:18Z</time>
      </trkpt>
      <trkpt lat="45.77602" lon="4.83753">
        <ele>165.96</ele>
        <time>2014-02-16T10:46:29Z</time>
      </trkpt>
      <trkpt lat="45.776" lon="4.83692">
        <ele>160.68</ele>
        <time>2014-02-16T10:46:46Z</time>
      </trkpt>
      <trkpt lat="45.77597" lon="4.83718">
        <ele>156.83</ele>
        <time>2014-02-16T10:46:56Z</time>
      </trkpt>
      <trkpt lat="45.77589" lon="4.83723">
        <ele>154.91</ele>
        <time>2014-02-16T10:47:00Z</time>
      </trkpt>
      <trkpt lat="45.77555" lon="4.83714">
        <ele>149.62</ele>
        <time>2014-02-16T10:47:15Z</time>
      </trkpt>
      <trkpt lat="45.77531" lon="4.83692">
        <ele>145.3</ele>
        <time>2014-02-16T10:47:27Z</time>
      </trkpt>
      <trkpt lat="45.7751" lon="4.83665">
        <ele>141.93</ele>
        <time>2014-02-16T10:47:37Z</time>
      </trkpt>
      <trkpt lat="45.77503" lon="4.83654">
        <ele>138.57</ele>
        <time>2014-02-16T10:47:43Z</time>
      </trkpt>
      <trkpt lat="45.7751" lon="4.83654">
        <ele>141.45</ele>
        <time>2014-02-16T10:47:52Z</time>
      </trkpt>
      <trkpt lat="45.77507" lon="4.83654">
        <ele>143.37</ele>
        <time>2014-02-16T10:47:56Z</time>
      </trkpt>
      <trkpt lat="45.7751" lon="4.83654">
        <ele>144.34</ele>
        <time>2014-02-16T10:47:59Z</time>
      </trkpt>
      <trkpt lat="45.7751" lon="4.83624">
        <ele>147.22</ele>
        <time>2014-02-16T10:48:13Z</time>
      </trkpt>
      <trkpt lat="45.77516" lon="4.83622">
        <ele>149.62</ele>
        <time>2014-02-16T10:48:22Z</time>
      </trkpt>
      <trkpt lat="45.77518" lon="4.83594">
        <ele>153.47</ele>
        <time>2014-02-16T10:48:35Z</time>
      </trkpt>
      <trkpt lat="45.77531" lon="4.83585">
        <ele>157.31</ele>
        <time>2014-02-16T10:48:44Z</time>
      </trkpt>
      <trkpt lat="45.77548" lon="4.83579">
        <ele>159.24</ele>
        <time>2014-02-16T10:48:58Z</time>
      </trkpt>
      <trkpt lat="45.77559" lon="4.8357">
        <ele>162.6</ele>
        <time>2014-02-16T10:49:07Z</time>
      </trkpt>
      <trkpt lat="45.77572" lon="4.83549">
        <ele>165.48</ele>
        <time>2014-02-16T10:49:20Z</time>
      </trkpt>
      <trkpt lat="45.7757" lon="4.83529">
        <ele>168.85</ele>
        <time>2014-02-16T10:49:32Z</time>
      </trkpt>
      <trkpt lat="45.77576" lon="4.83508">
        <ele>171.73</ele>
        <time>2014-02-16T10:49:40Z</time>
      </trkpt>
      <trkpt lat="45.7758" lon="4.83499">
        <ele>172.69</ele>
        <time>2014-02-16T10:49:44Z</time>
      </trkpt>
      <trkpt lat="45.77587" lon="4.83476">
        <ele>173.17</ele>
        <time>2014-02-16T10:49:57Z</time>
      </trkpt>
      <trkpt lat="45.77589" lon="4.83465">
        <ele>176.54</ele>
        <time>2014-02-16T10:50:05Z</time>
      </trkpt>
      <trkpt lat="45.77632" lon="4.83635">
        <ele>177.5</ele>
        <time>2014-02-16T10:50:16Z</time>
      </trkpt>
      <trkpt lat="45.77516" lon="4.83609">
        <ele>176.54</ele>
        <time>2014-02-16T10:50:28Z</time>
      </trkpt>
      <trkpt lat="45.7749" lon="4.83617">
        <ele>174.14</ele>
        <time>2014-02-16T10:50:37Z</time>
      </trkpt>
      <trkpt lat="45.77479" lon="4.83613">
        <ele>172.21</ele>
        <time>2014-02-16T10:50:44Z</time>
      </trkpt>
      <trkpt lat="45.77445" lon="4.83592">
        <ele>175.58</ele>
        <time>2014-02-16T10:50:57Z</time>
      </trkpt>
      <trkpt lat="45.77439" lon="4.83577">
        <ele>177.98</ele>
        <time>2014-02-16T10:51:02Z</time>
      </trkpt>
      <trkpt lat="45.77437" lon="4.83551">
        <ele>180.87</ele>
        <time>2014-02-16T10:51:10Z</time>
      </trkpt>
      <trkpt lat="45.77437" lon="4.83523">
        <ele>187.11</ele>
        <time>2014-02-16T10:51:20Z</time>
      </trkpt>
      <trkpt lat="45.77452" lon="4.83493">
        <ele>189.04</ele>
        <time>2014-02-16T10:51:29Z</time>
      </trkpt>
      <trkpt lat="45.77488" lon="4.83489">
        <ele>190</ele>
        <time>2014-02-16T10:51:41Z</time>
      </trkpt>
      <trkpt lat="45.77488" lon="4.83484">
        <ele>190</ele>
        <time>2014-02-16T10:51:44Z</time>
      </trkpt>
      <trkpt lat="45.77458" lon="4.83482">
        <ele>191.92</ele>
        <time>2014-02-16T10:52:00Z</time>
      </trkpt>
      <trkpt lat="45.77434" lon="4.83474">
        <ele>190.96</ele>
        <time>2014-02-16T10:52:11Z</time>
      </trkpt>
      <trkpt lat="45.77402" lon="4.83476">
        <ele>187.59</ele>
        <time>2014-02-16T10:52:22Z</time>
      </trkpt>
      <trkpt lat="45.77368" lon="4.83471">
        <ele>184.23</ele>
        <time>2014-02-16T10:52:36Z</time>
      </trkpt>
      <trkpt lat="45.77295" lon="4.83471">
        <ele>175.1</ele>
        <time>2014-02-16T10:53:10Z</time>
      </trkpt>
      <trkpt lat="45.77267" lon="4.83452">
        <ele>174.62</ele>
        <time>2014-02-16T10:53:24Z</time>
      </trkpt>
      <trkpt lat="45.77252" lon="4.8345">
        <ele>174.62</ele>
        <time>2014-02-16T10:53:34Z</time>
      </trkpt>
      <trkpt lat="45.77241" lon="4.83446">
        <ele>174.14</ele>
        <time>2014-02-16T10:53:39Z</time>
      </trkpt>
      <trkpt lat="45.77213" lon="4.83416">
        <ele>172.21</ele>
        <time>2014-02-16T10:53:53Z</time>
      </trkpt>
      <trkpt lat="45.77196" lon="4.83379">
        <ele>171.25</ele>
        <time>2014-02-16T10:54:04Z</time>
      </trkpt>
      <trkpt lat="45.77185" lon="4.83328">
        <ele>168.85</ele>
        <time>2014-02-16T10:54:20Z</time>
      </trkpt>
      <trkpt lat="45.77123" lon="4.83336">
        <ele>165</ele>
        <time>2014-02-16T10:54:41Z</time>
      </trkpt>
      <trkpt lat="45.77113" lon="4.83338">
        <ele>162.12</ele>
        <time>2014-02-16T10:54:49Z</time>
      </trkpt>
      <trkpt lat="45.77093" lon="4.83347">
        <ele>156.83</ele>
        <time>2014-02-16T10:55:02Z</time>
      </trkpt>
      <trkpt lat="45.7708" lon="4.83332">
        <ele>153.47</ele>
        <time>2014-02-16T10:55:10Z</time>
      </trkpt>
      <trkpt lat="45.77048" lon="4.83341">
        <ele>152.03</ele>
        <time>2014-02-16T10:55:22Z</time>
      </trkpt>
      <trkpt lat="45.77022" lon="4.83336">
        <ele>150.58</ele>
        <time>2014-02-16T10:55:34Z</time>
      </trkpt>
      <trkpt lat="45.77018" lon="4.83343">
        <ele>148.66</ele>
        <time>2014-02-16T10:55:42Z</time>
      </trkpt>
      <trkpt lat="45.77016" lon="4.83323">
        <ele>145.78</ele>
        <time>2014-02-16T10:55:53Z</time>
      </trkpt>
      <trkpt lat="45.77022" lon="4.83319">
        <ele>141.93</ele>
        <time>2014-02-16T10:56:00Z</time>
      </trkpt>
      <trkpt lat="45.77022" lon="4.83319">
        <ele>138.57</ele>
        <time>2014-02-16T10:56:08Z</time>
      </trkpt>
      <trkpt lat="45.77016" lon="4.83315">
        <ele>135.68</ele>
        <time>2014-02-16T10:56:23Z</time>
      </trkpt>
      <trkpt lat="45.77016" lon="4.83311">
        <ele>135.68</ele>
        <time>2014-02-16T10:56:26Z</time>
      </trkpt>
      <trkpt lat="45.7698" lon="4.83272">
        <ele>137.13</ele>
        <time>2014-02-16T10:56:40Z</time>
      </trkpt>
      <trkpt lat="45.7696" lon="4.83233">
        <ele>137.61</ele>
        <time>2014-02-16T10:56:53Z</time>
      </trkpt>
      <trkpt lat="45.76969" lon="4.83192">
        <ele>139.05</ele>
        <time>2014-02-16T10:57:06Z</time>
      </trkpt>
      <trkpt lat="45.76958" lon="4.83188">
        <ele>139.05</ele>
        <time>2014-02-16T10:57:14Z</time>
      </trkpt>
      <trkpt lat="45.76941" lon="4.83199">
        <ele>136.64</ele>
        <time>2014-02-16T10:57:23Z</time>
      </trkpt>
      <trkpt lat="45.76924" lon="4.83203">
        <ele>135.2</ele>
        <time>2014-02-16T10:57:28Z</time>
      </trkpt>
      <trkpt lat="45.76904" lon="4.83182">
        <ele>133.76</ele>
        <time>2014-02-16T10:57:35Z</time>
      </trkpt>
      <trkpt lat="45.76857" lon="4.83184">
        <ele>132.32</ele>
        <time>2014-02-16T10:57:45Z</time>
      </trkpt>
      <trkpt lat="45.76821" lon="4.83182">
        <ele>130.4</ele>
        <time>2014-02-16T10:58:02Z</time>
      </trkpt>
      <trkpt lat="45.76819" lon="4.8318">
        <ele>130.4</ele>
        <time>2014-02-16T10:58:03Z</time>
      </trkpt>
      <trkpt lat="45.76816" lon="4.83115">
        <ele>129.43</ele>
        <time>2014-02-16T10:58:19Z</time>
      </trkpt>
      <trkpt lat="45.76816" lon="4.83034">
        <ele>128.95</ele>
        <time>2014-02-16T10:58:44Z</time>
      </trkpt>
      <trkpt lat="45.76806" lon="4.82971">
        <ele>127.99</ele>
        <time>2014-02-16T10:59:02Z</time>
      </trkpt>
      <trkpt lat="45.7678" lon="4.82939">
        <ele>127.03</ele>
        <time>2014-02-16T10:59:11Z</time>
      </trkpt>
      <trkpt lat="45.76752" lon="4.82907">
        <ele>127.03</ele>
        <time>2014-02-16T10:59:23Z</time>
      </trkpt>
      <trkpt lat="45.76718" lon="4.82933">
        <ele>126.55</ele>
        <time>2014-02-16T10:59:36Z</time>
      </trkpt>
      <trkpt lat="45.76688" lon="4.82969">
        <ele>128.47</ele>
        <time>2014-02-16T10:59:49Z</time>
      </trkpt>
      <trkpt lat="45.76673" lon="4.82995">
        <ele>128.95</ele>
        <time>2014-02-16T10:59:58Z</time>
      </trkpt>
      <trkpt lat="45.76658" lon="4.82971">
        <ele>130.88</ele>
        <time>2014-02-16T11:00:06Z</time>
      </trkpt>
      <trkpt lat="45.76653" lon="4.82941">
        <ele>131.84</ele>
        <time>2014-02-16T11:00:15Z</time>
      </trkpt>
      <trkpt lat="45.7664" lon="4.82901">
        <ele>131.36</ele>
        <time>2014-02-16T11:00:30Z</time>
      </trkpt>
      <trkpt lat="45.76647" lon="4.82871">
        <ele>130.4</ele>
        <time>2014-02-16T11:00:38Z</time>
      </trkpt>
      <trkpt lat="45.76628" lon="4.8283">
        <ele>129.92</ele>
        <time>2014-02-16T11:00:54Z</time>
      </trkpt>
      <trkpt lat="45.76598" lon="4.82772">
        <ele>132.8</ele>
        <time>2014-02-16T11:01:14Z</time>
      </trkpt>
      <trkpt lat="45.76598" lon="4.82744">
        <ele>133.28</ele>
        <time>2014-02-16T11:01:24Z</time>
      </trkpt>
      <trkpt lat="45.76591" lon="4.82705">
        <ele>136.64</ele>
        <time>2014-02-16T11:01:37Z</time>
      </trkpt>
      <trkpt lat="45.76589" lon="4.82686">
        <ele>139.53</ele>
        <time>2014-02-16T11:01:43Z</time>
      </trkpt>
      <trkpt lat="45.76568" lon="4.82669">
        <ele>142.41</ele>
        <time>2014-02-16T11:01:56Z</time>
      </trkpt>
      <trkpt lat="45.76542" lon="4.82662">
        <ele>146.26</ele>
        <time>2014-02-16T11:02:10Z</time>
      </trkpt>
      <trkpt lat="45.76527" lon="4.82654">
        <ele>150.1</ele>
        <time>2014-02-16T11:02:24Z</time>
      </trkpt>
      <trkpt lat="45.76497" lon="4.82654">
        <ele>153.47</ele>
        <time>2014-02-16T11:02:34Z</time>
      </trkpt>
      <trkpt lat="45.76469" lon="4.82637">
        <ele>156.83</ele>
        <time>2014-02-16T11:02:48Z</time>
      </trkpt>
      <trkpt lat="45.76458" lon="4.82626">
        <ele>160.2</ele>
        <time>2014-02-16T11:02:58Z</time>
      </trkpt>
      <trkpt lat="45.76417" lon="4.8262">
        <ele>163.56</ele>
        <time>2014-02-16T11:03:12Z</time>
      </trkpt>
      <trkpt lat="45.76394" lon="4.82605">
        <ele>166.93</ele>
        <time>2014-02-16T11:03:24Z</time>
      </trkpt>
      <trkpt lat="45.76364" lon="4.8259">
        <ele>169.81</ele>
        <time>2014-02-16T11:03:36Z</time>
      </trkpt>
      <trkpt lat="45.76321" lon="4.82544">
        <ele>177.98</ele>
        <time>2014-02-16T11:04:04Z</time>
      </trkpt>
      <trkpt lat="45.76304" lon="4.82517">
        <ele>181.35</ele>
        <time>2014-02-16T11:04:15Z</time>
      </trkpt>
      <trkpt lat="45.76267" lon="4.82506">
        <ele>184.71</ele>
        <time>2014-02-16T11:04:29Z</time>
      </trkpt>
      <trkpt lat="45.76235" lon="4.82448">
        <ele>196.25</ele>
        <time>2014-02-16T11:04:58Z</time>
      </trkpt>
      <trkpt lat="45.76224" lon="4.82422">
        <ele>201.53</ele>
        <time>2014-02-16T11:05:12Z</time>
      </trkpt>
      <trkpt lat="45.76222" lon="4.82418">
        <ele>203.46</ele>
        <time>2014-02-16T11:05:15Z</time>
      </trkpt>
      <trkpt lat="45.76237" lon="4.82422">
        <ele>206.34</ele>
        <time>2014-02-16T11:05:23Z</time>
      </trkpt>
      <trkpt lat="45.76267" lon="4.82435">
        <ele>210.67</ele>
        <time>2014-02-16T11:05:37Z</time>
      </trkpt>
      <trkpt lat="45.76269" lon="4.82433">
        <ele>211.15</ele>
        <time>2014-02-16T11:05:40Z</time>
      </trkpt>
      <trkpt lat="45.76261" lon="4.82422">
        <ele>212.59</ele>
        <time>2014-02-16T11:05:47Z</time>
      </trkpt>
      <trkpt lat="45.76228" lon="4.82396">
        <ele>217.88</ele>
        <time>2014-02-16T11:06:02Z</time>
      </trkpt>
      <trkpt lat="45.76224" lon="4.82384">
        <ele>221.24</ele>
        <time>2014-02-16T11:06:11Z</time>
      </trkpt>
      <trkpt lat="45.76226" lon="4.82379">
        <ele>222.2</ele>
        <time>2014-02-16T11:06:15Z</time>
      </trkpt>
      <trkpt lat="45.76233" lon="4.82375">
        <ele>223.64</ele>
        <time>2014-02-16T11:06:20Z</time>
      </trkpt>
      <trkpt lat="45.76271" lon="4.82384">
        <ele>228.45</ele>
        <time>2014-02-16T11:06:37Z</time>
      </trkpt>
      <trkpt lat="45.76276" lon="4.82377">
        <ele>229.41</ele>
        <time>2014-02-16T11:06:41Z</time>
      </trkpt>
      <trkpt lat="45.76252" lon="4.82362">
        <ele>231.81</ele>
        <time>2014-02-16T11:06:52Z</time>
      </trkpt>
      <trkpt lat="45.76231" lon="4.82345">
        <ele>234.7</ele>
        <time>2014-02-16T11:07:02Z</time>
      </trkpt>
      <trkpt lat="45.76274" lon="4.82349">
        <ele>243.35</ele>
        <time>2014-02-16T11:07:25Z</time>
      </trkpt>
      <trkpt lat="45.76284" lon="4.82343">
        <ele>244.31</ele>
        <time>2014-02-16T11:07:29Z</time>
      </trkpt>
      <trkpt lat="45.76269" lon="4.82323">
        <ele>247.68</ele>
        <time>2014-02-16T11:07:38Z</time>
      </trkpt>
      <trkpt lat="45.76259" lon="4.82321">
        <ele>250.08</ele>
        <time>2014-02-16T11:07:42Z</time>
      </trkpt>
      <trkpt lat="45.76244" lon="4.82308">
        <ele>253.44</ele>
        <time>2014-02-16T11:07:51Z</time>
      </trkpt>
      <trkpt lat="45.76241" lon="4.823">
        <ele>255.37</ele>
        <time>2014-02-16T11:07:55Z</time>
      </trkpt>
      <trkpt lat="45.76261" lon="4.82306">
        <ele>261.14</ele>
        <time>2014-02-16T11:08:05Z</time>
      </trkpt>
      <trkpt lat="45.76261" lon="4.82304">
        <ele>262.1</ele>
        <time>2014-02-16T11:08:07Z</time>
      </trkpt>
      <trkpt lat="45.76297" lon="4.82306">
        <ele>262.1</ele>
        <time>2014-02-16T11:08:30Z</time>
      </trkpt>
      <trkpt lat="45.76293" lon="4.82317">
        <ele>259.69</ele>
        <time>2014-02-16T11:08:34Z</time>
      </trkpt>
      <trkpt lat="45.76284" lon="4.82319">
        <ele>258.25</ele>
        <time>2014-02-16T11:08:37Z</time>
      </trkpt>
      <trkpt lat="45.7625" lon="4.82323">
        <ele>255.85</ele>
        <time>2014-02-16T11:08:49Z</time>
      </trkpt>
      <trkpt lat="45.76235" lon="4.82328">
        <ele>255.37</ele>
        <time>2014-02-16T11:08:57Z</time>
      </trkpt>
      <trkpt lat="45.76267" lon="4.82349">
        <ele>251.52</ele>
        <time>2014-02-16T11:09:08Z</time>
      </trkpt>
      <trkpt lat="45.76274" lon="4.82351">
        <ele>249.12</ele>
        <time>2014-02-16T11:09:11Z</time>
      </trkpt>
      <trkpt lat="45.76256" lon="4.82332">
        <ele>250.08</ele>
        <time>2014-02-16T11:09:23Z</time>
      </trkpt>
      <trkpt lat="45.76248" lon="4.8233">
        <ele>252.48</ele>
        <time>2014-02-16T11:09:29Z</time>
      </trkpt>
      <trkpt lat="45.76237" lon="4.82321">
        <ele>254.89</ele>
        <time>2014-02-16T11:09:35Z</time>
      </trkpt>
      <trkpt lat="45.76237" lon="4.82321">
        <ele>257.77</ele>
        <time>2014-02-16T11:09:43Z</time>
      </trkpt>
      <trkpt lat="45.76263" lon="4.82334">
        <ele>259.69</ele>
        <time>2014-02-16T11:09:57Z</time>
      </trkpt>
      <trkpt lat="45.76282" lon="4.82328">
        <ele>261.62</ele>
        <time>2014-02-16T11:10:05Z</time>
      </trkpt>
      <trkpt lat="45.76286" lon="4.82308">
        <ele>264.02</ele>
        <time>2014-02-16T11:10:14Z</time>
      </trkpt>
      <trkpt lat="45.76282" lon="4.82306">
        <ele>266.9</ele>
        <time>2014-02-16T11:10:20Z</time>
      </trkpt>
      <trkpt lat="45.76301" lon="4.82274">
        <ele>268.83</ele>
        <time>2014-02-16T11:10:36Z</time>
      </trkpt>
      <trkpt lat="45.76316" lon="4.82218">
        <ele>269.31</ele>
        <time>2014-02-16T11:10:52Z</time>
      </trkpt>
      <trkpt lat="45.76323" lon="4.82212">
        <ele>269.31</ele>
        <time>2014-02-16T11:10:58Z</time>
      </trkpt>
      <trkpt lat="45.76327" lon="4.82214">
        <ele>269.31</ele>
        <time>2014-02-16T11:11:01Z</time>
      </trkpt>
      <trkpt lat="45.76353" lon="4.82212">
        <ele>269.31</ele>
        <time>2014-02-16T11:11:15Z</time>
      </trkpt>
      <trkpt lat="45.76389" lon="4.82216">
        <ele>269.31</ele>
        <time>2014-02-16T11:11:29Z</time>
      </trkpt>
      <trkpt lat="45.764" lon="4.82186">
        <ele>268.83</ele>
        <time>2014-02-16T11:11:41Z</time>
      </trkpt>
      <trkpt lat="45.764" lon="4.82173">
        <ele>268.83</ele>
        <time>2014-02-16T11:11:44Z</time>
      </trkpt>
      <trkpt lat="45.76368" lon="4.82141">
        <ele>268.35</ele>
        <time>2014-02-16T11:11:58Z</time>
      </trkpt>
      <trkpt lat="45.76327" lon="4.82083">
        <ele>266.42</ele>
        <time>2014-02-16T11:12:21Z</time>
      </trkpt>
      <trkpt lat="45.76312" lon="4.82045">
        <ele>265.46</ele>
        <time>2014-02-16T11:12:33Z</time>
      </trkpt>
      <trkpt lat="45.76306" lon="4.81997">
        <ele>262.58</ele>
        <time>2014-02-16T11:12:46Z</time>
      </trkpt>
      <trkpt lat="45.76319" lon="4.81935">
        <ele>261.62</ele>
        <time>2014-02-16T11:13:03Z</time>
      </trkpt>
      <trkpt lat="45.76336" lon="4.81862">
        <ele>262.1</ele>
        <time>2014-02-16T11:13:24Z</time>
      </trkpt>
      <trkpt lat="45.76342" lon="4.81736">
        <ele>264.98</ele>
        <time>2014-02-16T11:14:03Z</time>
      </trkpt>
      <trkpt lat="45.76342" lon="4.81699">
        <ele>266.42</ele>
        <time>2014-02-16T11:14:15Z</time>
      </trkpt>
      <trkpt lat="45.76331" lon="4.81652">
        <ele>267.86</ele>
        <time>2014-02-16T11:14:27Z</time>
      </trkpt>
      <trkpt lat="45.76329" lon="4.81512">
        <ele>270.27</ele>
        <time>2014-02-16T11:15:07Z</time>
      </trkpt>
      <trkpt lat="45.76312" lon="4.81435">
        <ele>271.71</ele>
        <time>2014-02-16T11:15:31Z</time>
      </trkpt>
      <trkpt lat="45.76301" lon="4.81394">
        <ele>273.15</ele>
        <time>2014-02-16T11:15:45Z</time>
      </trkpt>
      <trkpt lat="45.76299" lon="4.81351">
        <ele>273.63</ele>
        <time>2014-02-16T11:15:57Z</time>
      </trkpt>
      <trkpt lat="45.76312" lon="4.81332">
        <ele>272.67</ele>
        <time>2014-02-16T11:16:06Z</time>
      </trkpt>
      <trkpt lat="45.76323" lon="4.81324">
        <ele>272.19</ele>
        <time>2014-02-16T11:16:12Z</time>
      </trkpt>
      <trkpt lat="45.76355" lon="4.81328">
        <ele>269.31</ele>
        <time>2014-02-16T11:16:25Z</time>
      </trkpt>
      <trkpt lat="45.76383" lon="4.81319">
        <ele>267.38</ele>
        <time>2014-02-16T11:16:37Z</time>
      </trkpt>
      <trkpt lat="45.76411" lon="4.81289">
        <ele>264.02</ele>
        <time>2014-02-16T11:16:51Z</time>
      </trkpt>
      <trkpt lat="45.76415" lon="4.81287">
        <ele>262.58</ele>
        <time>2014-02-16T11:16:53Z</time>
      </trkpt>
      <trkpt lat="45.76439" lon="4.81266">
        <ele>261.14</ele>
        <time>2014-02-16T11:17:03Z</time>
      </trkpt>
      <trkpt lat="45.76458" lon="4.81242">
        <ele>258.73</ele>
        <time>2014-02-16T11:17:13Z</time>
      </trkpt>
      <trkpt lat="45.76473" lon="4.81214">
        <ele>256.81</ele>
        <time>2014-02-16T11:17:23Z</time>
      </trkpt>
      <trkpt lat="45.7652" lon="4.81081">
        <ele>250.08</ele>
        <time>2014-02-16T11:18:02Z</time>
      </trkpt>
      <trkpt lat="45.76561" lon="4.8104">
        <ele>245.27</ele>
        <time>2014-02-16T11:18:23Z</time>
      </trkpt>
      <trkpt lat="45.76585" lon="4.81">
        <ele>241.91</ele>
        <time>2014-02-16T11:18:44Z</time>
      </trkpt>
      <trkpt lat="45.766" lon="4.81006">
        <ele>240.47</ele>
        <time>2014-02-16T11:18:49Z</time>
      </trkpt>
      <trkpt lat="45.76621" lon="4.80993">
        <ele>239.99</ele>
        <time>2014-02-16T11:18:56Z</time>
      </trkpt>
      <trkpt lat="45.76651" lon="4.80965">
        <ele>236.14</ele>
        <time>2014-02-16T11:19:09Z</time>
      </trkpt>
      <trkpt lat="45.76692" lon="4.80948">
        <ele>233.74</ele>
        <time>2014-02-16T11:19:25Z</time>
      </trkpt>
      <trkpt lat="45.76711" lon="4.80946">
        <ele>232.3</ele>
        <time>2014-02-16T11:19:34Z</time>
      </trkpt>
      <trkpt lat="45.76756" lon="4.80957">
        <ele>228.45</ele>
        <time>2014-02-16T11:19:51Z</time>
      </trkpt>
      <trkpt lat="45.7681" lon="4.80965">
        <ele>224.61</ele>
        <time>2014-02-16T11:20:12Z</time>
      </trkpt>
      <trkpt lat="45.76834" lon="4.80972">
        <ele>223.64</ele>
        <time>2014-02-16T11:20:24Z</time>
      </trkpt>
      <trkpt lat="45.76851" lon="4.80974">
        <ele>222.2</ele>
        <time>2014-02-16T11:20:36Z</time>
      </trkpt>
      <trkpt lat="45.76855" lon="4.80972">
        <ele>221.72</ele>
        <time>2014-02-16T11:20:42Z</time>
      </trkpt>
      <trkpt lat="45.76879" lon="4.80976">
        <ele>219.32</ele>
        <time>2014-02-16T11:20:54Z</time>
      </trkpt>
      <trkpt lat="45.76913" lon="4.80978">
        <ele>218.36</ele>
        <time>2014-02-16T11:21:07Z</time>
      </trkpt>
      <trkpt lat="45.76939" lon="4.80995">
        <ele>215.95</ele>
        <time>2014-02-16T11:21:19Z</time>
      </trkpt>
      <trkpt lat="45.76971" lon="4.81004">
        <ele>213.07</ele>
        <time>2014-02-16T11:21:32Z</time>
      </trkpt>
      <trkpt lat="45.77001" lon="4.80989">
        <ele>210.19</ele>
        <time>2014-02-16T11:21:44Z</time>
      </trkpt>
      <trkpt lat="45.7699" lon="4.80963">
        <ele>208.74</ele>
        <time>2014-02-16T11:21:53Z</time>
      </trkpt>
      <trkpt lat="45.76984" lon="4.80929">
        <ele>207.3</ele>
        <time>2014-02-16T11:22:03Z</time>
      </trkpt>
      <trkpt lat="45.77007" lon="4.80909">
        <ele>206.34</ele>
        <time>2014-02-16T11:22:12Z</time>
      </trkpt>
      <trkpt lat="45.77027" lon="4.80914">
        <ele>205.38</ele>
        <time>2014-02-16T11:22:19Z</time>
      </trkpt>
      <trkpt lat="45.77048" lon="4.80931">
        <ele>203.94</ele>
        <time>2014-02-16T11:22:30Z</time>
      </trkpt>
      <trkpt lat="45.77089" lon="4.80944">
        <ele>200.57</ele>
        <time>2014-02-16T11:22:48Z</time>
      </trkpt>
      <trkpt lat="45.7716" lon="4.80952">
        <ele>196.73</ele>
        <time>2014-02-16T11:23:15Z</time>
      </trkpt>
      <trkpt lat="45.7722" lon="4.80965">
        <ele>193.36</ele>
        <time>2014-02-16T11:23:37Z</time>
      </trkpt>
      <trkpt lat="45.77233" lon="4.80939">
        <ele>189.52</ele>
        <time>2014-02-16T11:23:48Z</time>
      </trkpt>
      <trkpt lat="45.77224" lon="4.80933">
        <ele>187.11</ele>
        <time>2014-02-16T11:23:53Z</time>
      </trkpt>
      <trkpt lat="45.77205" lon="4.80933">
        <ele>184.23</ele>
        <time>2014-02-16T11:24:02Z</time>
      </trkpt>
      <trkpt lat="45.7719" lon="4.80916">
        <ele>182.79</ele>
        <time>2014-02-16T11:24:13Z</time>
      </trkpt>
      <trkpt lat="45.77181" lon="4.80903">
        <ele>179.42</ele>
        <time>2014-02-16T11:24:21Z</time>
      </trkpt>
      <trkpt lat="45.77183" lon="4.80894">
        <ele>176.54</ele>
        <time>2014-02-16T11:24:25Z</time>
      </trkpt>
      <trkpt lat="45.77185" lon="4.80892">
        <ele>176.54</ele>
        <time>2014-02-16T11:24:26Z</time>
      </trkpt>
      <trkpt lat="45.77188" lon="4.80884">
        <ele>173.17</ele>
        <time>2014-02-16T11:24:31Z</time>
      </trkpt>
      <trkpt lat="45.77196" lon="4.80875">
        <ele>169.33</ele>
        <time>2014-02-16T11:24:38Z</time>
      </trkpt>
      <trkpt lat="45.77209" lon="4.80866">
        <ele>165.96</ele>
        <time>2014-02-16T11:24:47Z</time>
      </trkpt>
      <trkpt lat="45.7725" lon="4.80851">
        <ele>160.68</ele>
        <time>2014-02-16T11:25:10Z</time>
      </trkpt>
      <trkpt lat="45.77282" lon="4.80843">
        <ele>159.24</ele>
        <time>2014-02-16T11:25:25Z</time>
      </trkpt>
      <trkpt lat="45.77312" lon="4.80824">
        <ele>156.83</ele>
        <time>2014-02-16T11:25:39Z</time>
      </trkpt>
      <trkpt lat="45.77342" lon="4.8083">
        <ele>155.39</ele>
        <time>2014-02-16T11:25:52Z</time>
      </trkpt>
      <trkpt lat="45.77372" lon="4.80892">
        <ele>154.43</ele>
        <time>2014-02-16T11:26:18Z</time>
      </trkpt>
      <trkpt lat="45.77389" lon="4.80942">
        <ele>154.91</ele>
        <time>2014-02-16T11:26:53Z</time>
      </trkpt>
      <trkpt lat="45.77396" lon="4.80942">
        <ele>155.39</ele>
        <time>2014-02-16T11:26:57Z</time>
      </trkpt>
      <trkpt lat="45.77419" lon="4.80924">
        <ele>154.43</ele>
        <time>2014-02-16T11:27:10Z</time>
      </trkpt>
      <trkpt lat="45.77434" lon="4.80909">
        <ele>154.91</ele>
        <time>2014-02-16T11:27:20Z</time>
      </trkpt>
      <trkpt lat="45.77477" lon="4.80879">
        <ele>154.91</ele>
        <time>2014-02-16T11:27:36Z</time>
      </trkpt>
      <trkpt lat="45.77486" lon="4.80897">
        <ele>156.83</ele>
        <time>2014-02-16T11:27:43Z</time>
      </trkpt>
      <trkpt lat="45.77484" lon="4.80942">
        <ele>157.79</ele>
        <time>2014-02-16T11:27:57Z</time>
      </trkpt>
      <trkpt lat="45.77473" lon="4.81077">
        <ele>156.83</ele>
        <time>2014-02-16T11:28:35Z</time>
      </trkpt>
      <trkpt lat="45.77467" lon="4.81105">
        <ele>155.87</ele>
        <time>2014-02-16T11:28:47Z</time>
      </trkpt>
      <trkpt lat="45.77475" lon="4.81107">
        <ele>156.35</ele>
        <time>2014-02-16T11:29:11Z</time>
      </trkpt>
      <trkpt lat="45.77492" lon="4.81135">
        <ele>155.39</ele>
        <time>2014-02-16T11:29:23Z</time>
      </trkpt>
      <trkpt lat="45.7749" lon="4.81201">
        <ele>155.87</ele>
        <time>2014-02-16T11:29:45Z</time>
      </trkpt>
      <trkpt lat="45.77486" lon="4.81244">
        <ele>155.87</ele>
        <time>2014-02-16T11:29:58Z</time>
      </trkpt>
      <trkpt lat="45.77486" lon="4.81283">
        <ele>157.31</ele>
        <time>2014-02-16T11:30:11Z</time>
      </trkpt>
      <trkpt lat="45.77482" lon="4.81332">
        <ele>156.35</ele>
        <time>2014-02-16T11:30:25Z</time>
      </trkpt>
      <trkpt lat="45.77479" lon="4.81379">
        <ele>157.31</ele>
        <time>2014-02-16T11:30:39Z</time>
      </trkpt>
      <trkpt lat="45.77486" lon="4.81424">
        <ele>155.87</ele>
        <time>2014-02-16T11:30:53Z</time>
      </trkpt>
      <trkpt lat="45.77522" lon="4.81594">
        <ele>156.35</ele>
        <time>2014-02-16T11:31:28Z</time>
      </trkpt>
      <trkpt lat="45.77299" lon="4.83682">
        <ele>139.05</ele>
        <time>2014-02-16T11:41:06Z</time>
      </trkpt>
      <trkpt lat="45.77284" lon="4.83783">
        <ele>140.49</ele>
        <time>2014-02-16T11:41:27Z</time>
      </trkpt>
      <trkpt lat="45.77276" lon="4.83862">
        <ele>142.89</ele>
        <time>2014-02-16T11:41:45Z</time>
      </trkpt>
      <trkpt lat="45.77265" lon="4.83888">
        <ele>143.85</ele>
        <time>2014-02-16T11:41:55Z</time>
      </trkpt>
      <trkpt lat="45.77256" lon="4.83956">
        <ele>144.34</ele>
        <time>2014-02-16T11:42:14Z</time>
      </trkpt>
      <trkpt lat="45.77248" lon="4.84077">
        <ele>143.37</ele>
        <time>2014-02-16T11:42:45Z</time>
      </trkpt>
      <trkpt lat="45.77248" lon="4.84145">
        <ele>141.93</ele>
        <time>2014-02-16T11:43:02Z</time>
      </trkpt>
      <trkpt lat="45.77243" lon="4.84152">
        <ele>141.45</ele>
        <time>2014-02-16T11:43:08Z</time>
      </trkpt>
      <trkpt lat="45.77237" lon="4.8415">
        <ele>141.93</ele>
        <time>2014-02-16T11:43:10Z</time>
      </trkpt>
      <trkpt lat="45.77243" lon="4.84171">
        <ele>141.45</ele>
        <time>2014-02-16T11:43:18Z</time>
      </trkpt>
      <trkpt lat="45.77248" lon="4.84222">
        <ele>141.45</ele>
        <time>2014-02-16T11:43:30Z</time>
      </trkpt>
      <trkpt lat="45.77256" lon="4.84257">
        <ele>141.45</ele>
        <time>2014-02-16T11:43:40Z</time>
      </trkpt>
      <trkpt lat="45.77273" lon="4.84287">
        <ele>141.93</ele>
        <time>2014-02-16T11:43:49Z</time>
      </trkpt>
      <trkpt lat="45.77231" lon="4.84334">
        <ele>142.41</ele>
        <time>2014-02-16T11:44:03Z</time>
      </trkpt>
      <trkpt lat="45.77188" lon="4.84349">
        <ele>142.89</ele>
        <time>2014-02-16T11:44:18Z</time>
      </trkpt>
      <trkpt lat="45.77179" lon="4.84386">
        <ele>143.37</ele>
        <time>2014-02-16T11:44:29Z</time>
      </trkpt>
      <trkpt lat="45.7717" lon="4.84469">
        <ele>144.82</ele>
        <time>2014-02-16T11:44:56Z</time>
      </trkpt>
      <trkpt lat="45.77179" lon="4.8448">
        <ele>144.82</ele>
        <time>2014-02-16T11:45:00Z</time>
      </trkpt>
      <trkpt lat="45.7717" lon="4.84546">
        <ele>145.3</ele>
        <time>2014-02-16T11:45:12Z</time>
      </trkpt>
      <trkpt lat="45.77166" lon="4.84557">
        <ele>145.78</ele>
        <time>2014-02-16T11:45:14Z</time>
      </trkpt>
      <trkpt lat="45.77162" lon="4.84594">
        <ele>146.26</ele>
        <time>2014-02-16T11:45:29Z</time>
      </trkpt>
      <trkpt lat="45.77166" lon="4.84643">
        <ele>146.74</ele>
        <time>2014-02-16T11:45:42Z</time>
      </trkpt>
      <trkpt lat="45.77175" lon="4.84654">
        <ele>147.7</ele>
        <time>2014-02-16T11:45:56Z</time>
      </trkpt>
      <trkpt lat="45.77183" lon="4.84649">
        <ele>150.1</ele>
        <time>2014-02-16T11:46:37Z</time>
      </trkpt>
      <trkpt lat="45.77183" lon="4.84643">
        <ele>150.58</ele>
        <time>2014-02-16T11:46:43Z</time>
      </trkpt>
      <trkpt lat="45.77158" lon="4.84594">
        <ele>151.54</ele>
        <time>2014-02-16T11:46:56Z</time>
      </trkpt>
      <trkpt lat="45.77158" lon="4.84594">
        <ele>247.68</ele>
        <time>2014-02-16T11:53:38Z</time>
      </trkpt>
      <trkpt lat="45.77158" lon="4.84594">
        <ele>165</ele>
        <time>2014-02-16T11:53:39Z</time>
      </trkpt>
    </trkseg>
  </trk>
  <trk>
    <name><![CDATA[19-JAN-14: 01 JAN 2014 14:41]]></name>
    <trkseg>
      <trkpt lat="45.76218" lon="4.86971">
        <ele>200.09</ele>
        <time>2014-01-01T13:41:13Z</time>
      </trkpt>
      <trkpt lat="45.76216" lon="4.86971">
        <ele>199.13</ele>
        <time>2014-01-01T13:41:15Z</time>
      </trkpt>
      <trkpt lat="45.76222" lon="4.86965">
        <ele>199.13</ele>
        <time>2014-01-01T13:43:00Z</time>
      </trkpt>
      <trkpt lat="45.7622" lon="4.86967">
        <ele>198.65</ele>
        <time>2014-01-01T13:43:15Z</time>
      </trkpt>
      <trkpt lat="45.7622" lon="4.86967">
        <ele>192.4</ele>
        <time>2014-01-01T13:44:11Z</time>
      </trkpt>
      <trkpt lat="45.7622" lon="4.86967">
        <ele>200.57</ele>
        <time>2014-01-01T13:44:13Z</time>
      </trkpt>
      <trkpt lat="45.7622" lon="4.86967">
        <ele>198.17</ele>
        <time>2014-01-01T13:44:30Z</time>
      </trkpt>
      <trkpt lat="45.76224" lon="4.86965">
        <ele>198.17</ele>
        <time>2014-01-01T13:44:44Z</time>
      </trkpt>
      <trkpt lat="45.76224" lon="4.86973">
        <ele>200.57</ele>
        <time>2014-01-01T13:45:19Z</time>
      </trkpt>
      <trkpt lat="45.7622" lon="4.86978">
        <ele>199.13</ele>
        <time>2014-01-01T13:47:32Z</time>
      </trkpt>
      <trkpt lat="45.76218" lon="4.86973">
        <ele>198.17</ele>
        <time>2014-01-01T13:47:41Z</time>
      </trkpt>
      <trkpt lat="45.76216" lon="4.86973">
        <ele>199.13</ele>
        <time>2014-01-01T13:49:09Z</time>
      </trkpt>
      <trkpt lat="45.7622" lon="4.86978">
        <ele>198.17</ele>
        <time>2014-01-01T13:50:46Z</time>
      </trkpt>
      <trkpt lat="45.7622" lon="4.86975">
        <ele>197.69</ele>
        <time>2014-01-01T13:50:53Z</time>
      </trkpt>
      <trkpt lat="45.7622" lon="4.86975">
        <ele>193.84</ele>
        <time>2014-01-19T13:05:31Z</time>
      </trkpt>
      <trkpt lat="45.7622" lon="4.86975">
        <ele>324.1</ele>
        <time>2014-01-19T13:05:33Z</time>
      </trkpt>
      <trkpt lat="45.76207" lon="4.86973">
        <ele>323.14</ele>
        <time>2014-01-19T13:07:03Z</time>
      </trkpt>
      <trkpt lat="45.76216" lon="4.86973">
        <ele>320.74</ele>
        <time>2014-01-19T13:08:00Z</time>
      </trkpt>
      <trkpt lat="45.76216" lon="4.86975">
        <ele>317.85</ele>
        <time>2014-01-19T13:08:38Z</time>
      </trkpt>
      <trkpt lat="45.76218" lon="4.86978">
        <ele>314.97</ele>
        <time>2014-01-19T13:09:25Z</time>
      </trkpt>
      <trkpt lat="45.76216" lon="4.86975">
        <ele>312.09</ele>
        <time>2014-01-19T13:10:08Z</time>
      </trkpt>
      <trkpt lat="45.76218" lon="4.86969">
        <ele>309.2</ele>
        <time>2014-01-19T13:11:05Z</time>
      </trkpt>
      <trkpt lat="45.76209" lon="4.86969">
        <ele>305.84</ele>
        <time>2014-01-19T13:11:51Z</time>
      </trkpt>
      <trkpt lat="45.76207" lon="4.86967">
        <ele>304.39</ele>
        <time>2014-01-19T13:12:21Z</time>
      </trkpt>
      <trkpt lat="45.76211" lon="4.86967">
        <ele>301.03</ele>
        <time>2014-01-19T13:13:06Z</time>
      </trkpt>
      <trkpt lat="45.76216" lon="4.86971">
        <ele>298.15</ele>
        <time>2014-01-19T13:13:56Z</time>
      </trkpt>
      <trkpt lat="45.7622" lon="4.86973">
        <ele>296.22</ele>
        <time>2014-01-19T13:14:30Z</time>
      </trkpt>
      <trkpt lat="45.7622" lon="4.86973">
        <ele>185.67</ele>
        <time>2014-01-19T13:14:41Z</time>
      </trkpt>
      <trkpt lat="45.7622" lon="4.86973">
        <ele>295.74</ele>
        <time>2014-01-19T13:14:43Z</time>
      </trkpt>
      <trkpt lat="45.7622" lon="4.86973">
        <ele>296.22</ele>
        <time>2014-01-19T13:14:48Z</time>
      </trkpt>
      <trkpt lat="45.7622" lon="4.86975">
        <ele>296.22</ele>
        <time>2014-01-19T13:14:58Z</time>
      </trkpt>
      <trkpt lat="45.76213" lon="4.86967">
        <ele>294.78</ele>
        <time>2014-01-19T13:15:26Z</time>
      </trkpt>
      <trkpt lat="45.76226" lon="4.86963">
        <ele>291.42</ele>
        <time>2014-01-19T13:16:08Z</time>
      </trkpt>
      <trkpt lat="45.76226" lon="4.86969">
        <ele>288.53</ele>
        <time>2014-01-19T13:17:08Z</time>
      </trkpt>
      <trkpt lat="45.7622" lon="4.86975">
        <ele>287.09</ele>
        <time>2014-01-19T13:17:21Z</time>
      </trkpt>
      <trkpt lat="45.7622" lon="4.86975">
        <ele>186.15</ele>
        <time>2014-01-19T13:17:32Z</time>
      </trkpt>
      <trkpt lat="45.7622" lon="4.86975">
        <ele>287.57</ele>
        <time>2014-01-19T13:17:34Z</time>
      </trkpt>
      <trkpt lat="45.7622" lon="4.86975">
        <ele>287.57</ele>
        <time>2014-01-19T13:17:37Z</time>
      </trkpt>
      <trkpt lat="45.76224" lon="4.86969">
        <ele>286.13</ele>
        <time>2014-01-19T13:17:57Z</time>
      </trkpt>
      <trkpt lat="45.76218" lon="4.86971">
        <ele>282.77</ele>
        <time>2014-01-19T13:18:45Z</time>
      </trkpt>
      <trkpt lat="45.76218" lon="4.86973">
        <ele>280.36</ele>
        <time>2014-01-19T13:19:36Z</time>
      </trkpt>
      <trkpt lat="45.76218" lon="4.86971">
        <ele>279.88</ele>
        <time>2014-01-19T13:19:55Z</time>
      </trkpt>
      <trkpt lat="45.76222" lon="4.86973">
        <ele>277</ele>
        <time>2014-01-19T13:20:39Z</time>
      </trkpt>
      <trkpt lat="45.76222" lon="4.86973">
        <ele>273.63</ele>
        <time>2014-01-19T13:21:40Z</time>
      </trkpt>
      <trkpt lat="45.7622" lon="4.86973">
        <ele>270.27</ele>
        <time>2014-01-19T13:22:50Z</time>
      </trkpt>
      <trkpt lat="45.76222" lon="4.86973">
        <ele>267.38</ele>
        <time>2014-01-19T13:24:02Z</time>
      </trkpt>
      <trkpt lat="45.7622" lon="4.86973">
        <ele>264.02</ele>
        <time>2014-01-19T13:25:10Z</time>
      </trkpt>
      <trkpt lat="45.7622" lon="4.86969">
        <ele>261.14</ele>
        <time>2014-01-19T13:26:28Z</time>
      </trkpt>
      <trkpt lat="45.76216" lon="4.86969">
        <ele>259.21</ele>
        <time>2014-01-19T13:27:15Z</time>
      </trkpt>
      <trkpt lat="45.76213" lon="4.86967">
        <ele>259.69</ele>
        <time>2014-01-19T13:27:29Z</time>
      </trkpt>
      <trkpt lat="45.76213" lon="4.86967">
        <ele>259.21</ele>
        <time>2014-01-19T13:27:34Z</time>
      </trkpt>
      <trkpt lat="45.76213" lon="4.86973">
        <ele>258.25</ele>
        <time>2014-01-19T13:27:57Z</time>
      </trkpt>
      <trkpt lat="45.76211" lon="4.86973">
        <ele>256.81</ele>
        <time>2014-01-19T13:28:22Z</time>
      </trkpt>
      <trkpt lat="45.76211" lon="4.86971">
        <ele>256.81</ele>
        <time>2014-01-19T13:28:24Z</time>
      </trkpt>
      <trkpt lat="45.76211" lon="4.86971">
        <ele>186.63</ele>
        <time>2014-01-19T13:28:55Z</time>
      </trkpt>
      <trkpt lat="45.76211" lon="4.86971">
        <ele>256.81</ele>
        <time>2014-01-19T13:28:57Z</time>
      </trkpt>
      <trkpt lat="45.76213" lon="4.86978">
        <ele>256.81</ele>
        <time>2014-01-19T13:28:58Z</time>
      </trkpt>
      <trkpt lat="45.76211" lon="4.8698">
        <ele>259.69</ele>
        <time>2014-01-19T13:29:01Z</time>
      </trkpt>
      <trkpt lat="45.76211" lon="4.8698">
        <ele>256.33</ele>
        <time>2014-01-19T13:29:02Z</time>
      </trkpt>
      <trkpt lat="45.76213" lon="4.86971">
        <ele>256.33</ele>
        <time>2014-01-19T13:29:03Z</time>
      </trkpt>
      <trkpt lat="45.76213" lon="4.86965">
        <ele>257.77</ele>
        <time>2014-01-19T13:29:05Z</time>
      </trkpt>
      <trkpt lat="45.76218" lon="4.86967">
        <ele>256.33</ele>
        <time>2014-01-19T13:29:55Z</time>
      </trkpt>
    </trkseg>
  </trk>
  <trk>
    <name><![CDATA[23-FEV-14: 16 FEV 2014 10:44]]></name>
    <trkseg>
      <trkpt lat="45.7717" lon="4.84577">
        <ele>139.53</ele>
        <time>2014-02-16T09:44:05Z</time>
      </trkpt>
      <trkpt lat="45.77166" lon="4.846">
        <ele>140.01</ele>
        <time>2014-02-16T09:44:27Z</time>
      </trkpt>
      <trkpt lat="45.77246" lon="4.84574">
        <ele>140.97</ele>
        <time>2014-02-16T09:44:51Z</time>
      </trkpt>
      <trkpt lat="45.77286" lon="4.84607">
        <ele>142.41</ele>
        <time>2014-02-16T09:45:20Z</time>
      </trkpt>
      <trkpt lat="45.77286" lon="4.84664">
        <ele>143.37</ele>
        <time>2014-02-16T09:45:39Z</time>
      </trkpt>
      <trkpt lat="45.77331" lon="4.84643">
        <ele>143.37</ele>
        <time>2014-02-16T09:45:49Z</time>
      </trkpt>
      <trkpt lat="45.77323" lon="4.8468">
        <ele>144.82</ele>
        <time>2014-02-16T09:46:07Z</time>
      </trkpt>
      <trkpt lat="45.77389" lon="4.84634">
        <ele>145.78</ele>
        <time>2014-02-16T09:46:20Z</time>
      </trkpt>
      <trkpt lat="45.77411" lon="4.84712">
        <ele>148.18</ele>
        <time>2014-02-16T09:46:51Z</time>
      </trkpt>
      <trkpt lat="45.77494" lon="4.84662">
        <ele>149.62</ele>
        <time>2014-02-16T09:47:04Z</time>
      </trkpt>
      <trkpt lat="45.77533" lon="4.84673">
        <ele>150.58</ele>
        <time>2014-02-16T09:47:18Z</time>
      </trkpt>
      <trkpt lat="45.77533" lon="4.84718">
        <ele>152.03</ele>
        <time>2014-02-16T09:47:29Z</time>
      </trkpt>
      <trkpt lat="45.77567" lon="4.8471">
        <ele>154.91</ele>
        <time>2014-02-16T09:48:01Z</time>
      </trkpt>
      <trkpt lat="45.77664" lon="4.84574">
        <ele>157.79</ele>
        <time>2014-02-16T09:48:34Z</time>
      </trkpt>
      <trkpt lat="45.77716" lon="4.84534">
        <ele>163.08</ele>
        <time>2014-02-16T09:51:10Z</time>
      </trkpt>
      <trkpt lat="45.77604" lon="4.84716">
        <ele>162.12</ele>
        <time>2014-02-16T09:52:25Z</time>
      </trkpt>
      <trkpt lat="45.77426" lon="4.85137">
        <ele>161.64</ele>
        <time>2014-02-16T09:54:41Z</time>
      </trkpt>
      <trkpt lat="45.77374" lon="4.85152">
        <ele>162.6</ele>
        <time>2014-02-16T09:55:04Z</time>
      </trkpt>
      <trkpt lat="45.77355" lon="4.85182">
        <ele>162.6</ele>
        <time>2014-02-16T09:55:15Z</time>
      </trkpt>
      <trkpt lat="45.77351" lon="4.8525">
        <ele>162.12</ele>
        <time>2014-02-16T09:55:36Z</time>
      </trkpt>
      <trkpt lat="45.77301" lon="4.85385">
        <ele>162.12</ele>
        <time>2014-02-16T09:56:18Z</time>
      </trkpt>
      <trkpt lat="45.77295" lon="4.85411">
        <ele>162.6</ele>
        <time>2014-02-16T09:56:26Z</time>
      </trkpt>
      <trkpt lat="45.77353" lon="4.85482">
        <ele>162.6</ele>
        <time>2014-02-16T09:56:57Z</time>
      </trkpt>
      <trkpt lat="45.77366" lon="4.85622">
        <ele>162.6</ele>
        <time>2014-02-16T09:57:37Z</time>
      </trkpt>
      <trkpt lat="45.77419" lon="4.8578">
        <ele>163.08</ele>
        <time>2014-02-16T09:58:32Z</time>
      </trkpt>
      <trkpt lat="45.77458" lon="4.85812">
        <ele>163.08</ele>
        <time>2014-02-16T09:58:48Z</time>
      </trkpt>
      <trkpt lat="45.7754" lon="4.8584">
        <ele>163.08</ele>
        <time>2014-02-16T09:59:24Z</time>
      </trkpt>
      <trkpt lat="45.77658" lon="4.85834">
        <ele>163.56</ele>
        <time>2014-02-16T10:00:12Z</time>
      </trkpt>
      <trkpt lat="45.77743" lon="4.85849">
        <ele>164.04</ele>
        <time>2014-02-16T10:00:49Z</time>
      </trkpt>
      <trkpt lat="45.77778" lon="4.85836">
        <ele>163.56</ele>
        <time>2014-02-16T10:01:02Z</time>
      </trkpt>
      <trkpt lat="45.77945" lon="4.8587">
        <ele>163.56</ele>
        <time>2014-02-16T10:02:08Z</time>
      </trkpt>
      <trkpt lat="45.78196" lon="4.8586">
        <ele>162.6</ele>
        <time>2014-02-16T10:03:48Z</time>
      </trkpt>
      <trkpt lat="45.78449" lon="4.859">
        <ele>167.41</ele>
        <time>2014-02-16T10:05:30Z</time>
      </trkpt>
      <trkpt lat="45.78458" lon="4.85802">
        <ele>165</ele>
        <time>2014-02-16T10:06:01Z</time>
      </trkpt>
      <trkpt lat="45.78413" lon="4.85647">
        <ele>163.56</ele>
        <time>2014-02-16T10:06:42Z</time>
      </trkpt>
      <trkpt lat="45.78434" lon="4.85523">
        <ele>163.56</ele>
        <time>2014-02-16T10:07:19Z</time>
      </trkpt>
      <trkpt lat="45.78404" lon="4.85385">
        <ele>164.04</ele>
        <time>2014-02-16T10:07:56Z</time>
      </trkpt>
      <trkpt lat="45.78329" lon="4.85188">
        <ele>164.04</ele>
        <time>2014-02-16T10:08:59Z</time>
      </trkpt>
      <trkpt lat="45.78213" lon="4.84969">
        <ele>166.45</ele>
        <time>2014-02-16T10:10:13Z</time>
      </trkpt>
      <trkpt lat="45.78005" lon="4.84729">
        <ele>164.52</ele>
        <time>2014-02-16T10:12:10Z</time>
      </trkpt>
      <trkpt lat="45.77797" lon="4.846">
        <ele>164.04</ele>
        <time>2014-02-16T10:13:48Z</time>
      </trkpt>
      <trkpt lat="45.77737" lon="4.84583">
        <ele>162.12</ele>
        <time>2014-02-16T10:14:17Z</time>
      </trkpt>
      <trkpt lat="45.77816" lon="4.84529">
        <ele>161.64</ele>
        <time>2014-02-16T10:14:56Z</time>
      </trkpt>
      <trkpt lat="45.779" lon="4.84212">
        <ele>161.64</ele>
        <time>2014-02-16T10:16:21Z</time>
      </trkpt>
      <trkpt lat="45.77943" lon="4.84143">
        <ele>160.2</ele>
        <time>2014-02-16T10:16:47Z</time>
      </trkpt>
      <trkpt lat="45.78106" lon="4.84233">
        <ele>159.72</ele>
        <time>2014-02-16T10:18:01Z</time>
      </trkpt>
      <trkpt lat="45.78233" lon="4.8434">
        <ele>159.72</ele>
        <time>2014-02-16T10:19:00Z</time>
      </trkpt>
      <trkpt lat="45.78325" lon="4.84435">
        <ele>160.2</ele>
        <time>2014-02-16T10:19:44Z</time>
      </trkpt>
      <trkpt lat="45.78518" lon="4.84699">
        <ele>161.16</ele>
        <time>2014-02-16T10:21:32Z</time>
      </trkpt>
      <trkpt lat="45.78557" lon="4.84688">
        <ele>164.52</ele>
        <time>2014-02-16T10:21:55Z</time>
      </trkpt>
      <trkpt lat="45.78681" lon="4.84581">
        <ele>196.25</ele>
        <time>2014-02-16T10:23:15Z</time>
      </trkpt>
      <trkpt lat="45.78745" lon="4.84559">
        <ele>205.86</ele>
        <time>2014-02-16T10:23:43Z</time>
      </trkpt>
      <trkpt lat="45.78662" lon="4.8451">
        <ele>214.99</ele>
        <time>2014-02-16T10:24:24Z</time>
      </trkpt>
      <trkpt lat="45.78685" lon="4.84454">
        <ele>223.64</ele>
        <time>2014-02-16T10:24:45Z</time>
      </trkpt>
      <trkpt lat="45.78791" lon="4.84325">
        <ele>241.43</ele>
        <time>2014-02-16T10:25:43Z</time>
      </trkpt>
      <trkpt lat="45.78696" lon="4.84439">
        <ele>230.85</ele>
        <time>2014-02-16T10:26:25Z</time>
      </trkpt>
      <trkpt lat="45.78786" lon="4.8433">
        <ele>240.95</ele>
        <time>2014-02-16T10:27:22Z</time>
      </trkpt>
      <trkpt lat="45.78776" lon="4.84295">
        <ele>244.31</ele>
        <time>2014-02-16T10:27:45Z</time>
      </trkpt>
      <trkpt lat="45.78578" lon="4.83888">
        <ele>236.62</ele>
        <time>2014-02-16T10:30:11Z</time>
      </trkpt>
      <trkpt lat="45.78524" lon="4.83808">
        <ele>238.06</ele>
        <time>2014-02-16T10:30:44Z</time>
      </trkpt>
      <trkpt lat="45.78471" lon="4.83635">
        <ele>240.47</ele>
        <time>2014-02-16T10:31:46Z</time>
      </trkpt>
      <trkpt lat="45.78355" lon="4.83482">
        <ele>231.33</ele>
        <time>2014-02-16T10:32:53Z</time>
      </trkpt>
      <trkpt lat="45.78316" lon="4.83499">
        <ele>229.41</ele>
        <time>2014-02-16T10:33:14Z</time>
      </trkpt>
      <trkpt lat="45.78295" lon="4.83609">
        <ele>216.43</ele>
        <time>2014-02-16T10:34:00Z</time>
      </trkpt>
      <trkpt lat="45.78308" lon="4.83688">
        <ele>214.51</ele>
        <time>2014-02-16T10:34:24Z</time>
      </trkpt>
      <trkpt lat="45.78265" lon="4.83864">
        <ele>206.34</ele>
        <time>2014-02-16T10:35:15Z</time>
      </trkpt>
      <trkpt lat="45.77977" lon="4.84109">
        <ele>169.33</ele>
        <time>2014-02-16T10:37:57Z</time>
      </trkpt>
      <trkpt lat="45.77937" lon="4.84111">
        <ele>167.41</ele>
        <time>2014-02-16T10:38:18Z</time>
      </trkpt>
      <trkpt lat="45.77887" lon="4.84064">
        <ele>170.77</ele>
        <time>2014-02-16T10:38:50Z</time>
      </trkpt>
      <trkpt lat="45.77851" lon="4.83997">
        <ele>191.92</ele>
        <time>2014-02-16T10:39:39Z</time>
      </trkpt>
      <trkpt lat="45.77825" lon="4.83984">
        <ele>197.21</ele>
        <time>2014-02-16T10:39:54Z</time>
      </trkpt>
      <trkpt lat="45.77806" lon="4.83995">
        <ele>202.49</ele>
        <time>2014-02-16T10:40:06Z</time>
      </trkpt>
      <trkpt lat="45.77782" lon="4.83965">
        <ele>212.11</ele>
        <time>2014-02-16T10:40:33Z</time>
      </trkpt>
      <trkpt lat="45.77748" lon="4.83886">
        <ele>228.93</ele>
        <time>2014-02-16T10:41:11Z</time>
      </trkpt>
      <trkpt lat="45.77786" lon="4.83871">
        <ele>220.28</ele>
        <time>2014-02-16T10:41:32Z</time>
      </trkpt>
      <trkpt lat="45.77782" lon="4.83845">
        <ele>225.57</ele>
        <time>2014-02-16T10:41:51Z</time>
      </trkpt>
      <trkpt lat="45.7772" lon="4.83901">
        <ele>227.97</ele>
        <time>2014-02-16T10:42:11Z</time>
      </trkpt>
      <trkpt lat="45.77692" lon="4.83888">
        <ele>227.01</ele>
        <time>2014-02-16T10:42:30Z</time>
      </trkpt>
      <trkpt lat="45.77623" lon="4.83735">
        <ele>227.97</ele>
        <time>2014-02-16T10:43:34Z</time>
      </trkpt>
      <trkpt lat="45.77619" lon="4.83669">
        <ele>227.49</ele>
        <time>2014-02-16T10:43:56Z</time>
      </trkpt>
      <trkpt lat="45.77591" lon="4.83647">
        <ele>215.95</ele>
        <time>2014-02-16T10:44:20Z</time>
      </trkpt>
      <trkpt lat="45.7757" lon="4.83673">
        <ele>209.22</ele>
        <time>2014-02-16T10:44:39Z</time>
      </trkpt>
      <trkpt lat="45.77576" lon="4.83697">
        <ele>204.9</ele>
        <time>2014-02-16T10:44:48Z</time>
      </trkpt>
      <trkpt lat="45.77634" lon="4.83688">
        <ele>198.65</ele>
        <time>2014-02-16T10:45:10Z</time>
      </trkpt>
      <trkpt lat="45.77651" lon="4.8371">
        <ele>195.77</ele>
        <time>2014-02-16T10:45:21Z</time>
      </trkpt>
      <trkpt lat="45.7763" lon="4.83772">
        <ele>170.77</ele>
        <time>2014-02-16T10:46:10Z</time>
      </trkpt>
      <trkpt lat="45.77602" lon="4.83753">
        <ele>165.96</ele>
        <time>2014-02-16T10:46:29Z</time>
      </trkpt>
      <trkpt lat="45.776" lon="4.83692">
        <ele>160.68</ele>
        <time>2014-02-16T10:46:46Z</time>
      </trkpt>
      <trkpt lat="45.77597" lon="4.83718">
        <ele>156.83</ele>
        <time>2014-02-16T10:46:56Z</time>
      </trkpt>
      <trkpt lat="45.77555" lon="4.83714">
        <ele>149.62</ele>
        <time>2014-02-16T10:47:15Z</time>
      </trkpt>
      <trkpt lat="45.77503" lon="4.83654">
        <ele>138.57</ele>
        <time>2014-02-16T10:47:43Z</time>
      </trkpt>
      <trkpt lat="45.77518" lon="4.83594">
        <ele>153.47</ele>
        <time>2014-02-16T10:48:35Z</time>
      </trkpt>
      <trkpt lat="45.77572" lon="4.83549">
        <ele>165.48</ele>
        <time>2014-02-16T10:49:20Z</time>
      </trkpt>
      <trkpt lat="45.77589" lon="4.83465">
        <ele>176.54</ele>
        <time>2014-02-16T10:50:05Z</time>
      </trkpt>
      <trkpt lat="45.77632" lon="4.83635">
        <ele>177.5</ele>
        <time>2014-02-16T10:50:16Z</time>
      </trkpt>
      <trkpt lat="45.77516" lon="4.83609">
        <ele>176.54</ele>
        <time>2014-02-16T10:50:28Z</time>
      </trkpt>
      <trkpt lat="45.7749" lon="4.83617">
        <ele>174.14</ele>
        <time>2014-02-16T10:50:37Z</time>
      </trkpt>
      <trkpt lat="45.77445" lon="4.83592">
        <ele>175.58</ele>
        <time>2014-02-16T10:50:57Z</time>
      </trkpt>
      <trkpt lat="45.77437" lon="4.83551">
        <ele>180.87</ele>
        <time>2014-02-16T10:51:10Z</time>
      </trkpt>
      <trkpt lat="45.77452" lon="4.83493">
        <ele>189.04</ele>
        <time>2014-02-16T10:51:29Z</time>
      </trkpt>
      <trkpt lat="45.77488" lon="4.83484">
        <ele>190</ele>
        <time>2014-02-16T10:51:44Z</time>
      </trkpt>
      <trkpt lat="45.77295" lon="4.83471">
        <ele>175.1</ele>
        <time>2014-02-16T10:53:10Z</time>
      </trkpt>
      <trkpt lat="45.77241" lon="4.83446">
        <ele>174.14</ele>
        <time>2014-02-16T10:53:39Z</time>
      </trkpt>
      <trkpt lat="45.77213" lon="4.83416">
        <ele>172.21</ele>
        <time>2014-02-16T10:53:53Z</time>
      </trkpt>
      <trkpt lat="45.77185" lon="4.83328">
        <ele>168.85</ele>
        <time>2014-02-16T10:54:20Z</time>
      </trkpt>
      <trkpt lat="45.77018" lon="4.83343">
        <ele>148.66</ele>
        <time>2014-02-16T10:55:42Z</time>
      </trkpt>
      <trkpt lat="45.77022" lon="4.83319">
        <ele>138.57</ele>
        <time>2014-02-16T10:56:08Z</time>
      </trkpt>
      <trkpt lat="45.7696" lon="4.83233">
        <ele>137.61</ele>
        <time>2014-02-16T10:56:53Z</time>
      </trkpt>
      <trkpt lat="45.76969" lon="4.83192">
        <ele>139.05</ele>
        <time>2014-02-16T10:57:06Z</time>
      </trkpt>
      <trkpt lat="45.76924" lon="4.83203">
        <ele>135.2</ele>
        <time>2014-02-16T10:57:28Z</time>
      </trkpt>
      <trkpt lat="45.76904" lon="4.83182">
        <ele>133.76</ele>
        <time>2014-02-16T10:57:35Z</time>
      </trkpt>
      <trkpt lat="45.76819" lon="4.8318">
        <ele>130.4</ele>
        <time>2014-02-16T10:58:03Z</time>
      </trkpt>
      <trkpt lat="45.76806" lon="4.82971">
        <ele>127.99</ele>
        <time>2014-02-16T10:59:02Z</time>
      </trkpt>
      <trkpt lat="45.76752" lon="4.82907">
        <ele>127.03</ele>
        <time>2014-02-16T10:59:23Z</time>
      </trkpt>
      <trkpt lat="45.76673" lon="4.82995">
        <ele>128.95</ele>
        <time>2014-02-16T10:59:58Z</time>
      </trkpt>
      <trkpt lat="45.7664" lon="4.82901">
        <ele>131.36</ele>
        <time>2014-02-16T11:00:30Z</time>
      </trkpt>
      <trkpt lat="45.76647" lon="4.82871">
        <ele>130.4</ele>
        <time>2014-02-16T11:00:38Z</time>
      </trkpt>
      <trkpt lat="45.76598" lon="4.82772">
        <ele>132.8</ele>
        <time>2014-02-16T11:01:14Z</time>
      </trkpt>
      <trkpt lat="45.76589" lon="4.82686">
        <ele>139.53</ele>
        <time>2014-02-16T11:01:43Z</time>
      </trkpt>
      <trkpt lat="45.76417" lon="4.8262">
        <ele>163.56</ele>
        <time>2014-02-16T11:03:12Z</time>
      </trkpt>
      <trkpt lat="45.76364" lon="4.8259">
        <ele>169.81</ele>
        <time>2014-02-16T11:03:36Z</time>
      </trkpt>
      <trkpt lat="45.76304" lon="4.82517">
        <ele>181.35</ele>
        <time>2014-02-16T11:04:15Z</time>
      </trkpt>
      <trkpt lat="45.76267" lon="4.82506">
        <ele>184.71</ele>
        <time>2014-02-16T11:04:29Z</time>
      </trkpt>
      <trkpt lat="45.76222" lon="4.82418">
        <ele>203.46</ele>
        <time>2014-02-16T11:05:15Z</time>
      </trkpt>
      <trkpt lat="45.76269" lon="4.82433">
        <ele>211.15</ele>
        <time>2014-02-16T11:05:40Z</time>
      </trkpt>
      <trkpt lat="45.76224" lon="4.82384">
        <ele>221.24</ele>
        <time>2014-02-16T11:06:11Z</time>
      </trkpt>
      <trkpt lat="45.76276" lon="4.82377">
        <ele>229.41</ele>
        <time>2014-02-16T11:06:41Z</time>
      </trkpt>
      <trkpt lat="45.76231" lon="4.82345">
        <ele>234.7</ele>
        <time>2014-02-16T11:07:02Z</time>
      </trkpt>
      <trkpt lat="45.76284" lon="4.82343">
        <ele>244.31</ele>
        <time>2014-02-16T11:07:29Z</time>
      </trkpt>
      <trkpt lat="45.76241" lon="4.823">
        <ele>255.37</ele>
        <time>2014-02-16T11:07:55Z</time>
      </trkpt>
      <trkpt lat="45.76297" lon="4.82306">
        <ele>262.1</ele>
        <time>2014-02-16T11:08:30Z</time>
      </trkpt>
      <trkpt lat="45.76235" lon="4.82328">
        <ele>255.37</ele>
        <time>2014-02-16T11:08:57Z</time>
      </trkpt>
      <trkpt lat="45.76274" lon="4.82351">
        <ele>249.12</ele>
        <time>2014-02-16T11:09:11Z</time>
      </trkpt>
      <trkpt lat="45.76237" lon="4.82321">
        <ele>257.77</ele>
        <time>2014-02-16T11:09:43Z</time>
      </trkpt>
      <trkpt lat="45.76282" lon="4.82328">
        <ele>261.62</ele>
        <time>2014-02-16T11:10:05Z</time>
      </trkpt>
      <trkpt lat="45.76316" lon="4.82218">
        <ele>269.31</ele>
        <time>2014-02-16T11:10:52Z</time>
      </trkpt>
      <trkpt lat="45.76389" lon="4.82216">
        <ele>269.31</ele>
        <time>2014-02-16T11:11:29Z</time>
      </trkpt>
      <trkpt lat="45.764" lon="4.82173">
        <ele>268.83</ele>
        <time>2014-02-16T11:11:44Z</time>
      </trkpt>
      <trkpt lat="45.76327" lon="4.82083">
        <ele>266.42</ele>
        <time>2014-02-16T11:12:21Z</time>
      </trkpt>
      <trkpt lat="45.76306" lon="4.81997">
        <ele>262.58</ele>
        <time>2014-02-16T11:12:46Z</time>
      </trkpt>
      <trkpt lat="45.76336" lon="4.81862">
        <ele>262.1</ele>
        <time>2014-02-16T11:13:24Z</time>
      </trkpt>
      <trkpt lat="45.76342" lon="4.81699">
        <ele>266.42</ele>
        <time>2014-02-16T11:14:15Z</time>
      </trkpt>
      <trkpt lat="45.76299" lon="4.81351">
        <ele>273.63</ele>
        <time>2014-02-16T11:15:57Z</time>
      </trkpt>
      <trkpt lat="45.76323" lon="4.81324">
        <ele>272.19</ele>
        <time>2014-02-16T11:16:12Z</time>
      </trkpt>
      <trkpt lat="45.76383" lon="4.81319">
        <ele>267.38</ele>
        <time>2014-02-16T11:16:37Z</time>
      </trkpt>
      <trkpt lat="45.76458" lon="4.81242">
        <ele>258.73</ele>
        <time>2014-02-16T11:17:13Z</time>
      </trkpt>
      <trkpt lat="45.7652" lon="4.81081">
        <ele>250.08</ele>
        <time>2014-02-16T11:18:02Z</time>
      </trkpt>
      <trkpt lat="45.76585" lon="4.81">
        <ele>241.91</ele>
        <time>2014-02-16T11:18:44Z</time>
      </trkpt>
      <trkpt lat="45.766" lon="4.81006">
        <ele>240.47</ele>
        <time>2014-02-16T11:18:49Z</time>
      </trkpt>
      <trkpt lat="45.76692" lon="4.80948">
        <ele>233.74</ele>
        <time>2014-02-16T11:19:25Z</time>
      </trkpt>
      <trkpt lat="45.76913" lon="4.80978">
        <ele>218.36</ele>
        <time>2014-02-16T11:21:07Z</time>
      </trkpt>
      <trkpt lat="45.76971" lon="4.81004">
        <ele>213.07</ele>
        <time>2014-02-16T11:21:32Z</time>
      </trkpt>
      <trkpt lat="45.77001" lon="4.80989">
        <ele>210.19</ele>
        <time>2014-02-16T11:21:44Z</time>
      </trkpt>
      <trkpt lat="45.76984" lon="4.80929">
        <ele>207.3</ele>
        <time>2014-02-16T11:22:03Z</time>
      </trkpt>
      <trkpt lat="45.77007" lon="4.80909">
        <ele>206.34</ele>
        <time>2014-02-16T11:22:12Z</time>
      </trkpt>
      <trkpt lat="45.77089" lon="4.80944">
        <ele>200.57</ele>
        <time>2014-02-16T11:22:48Z</time>
      </trkpt>
      <trkpt lat="45.7722" lon="4.80965">
        <ele>193.36</ele>
        <time>2014-02-16T11:23:37Z</time>
      </trkpt>
      <trkpt lat="45.77233" lon="4.80939">
        <ele>189.52</ele>
        <time>2014-02-16T11:23:48Z</time>
      </trkpt>
      <trkpt lat="45.7719" lon="4.80916">
        <ele>182.79</ele>
        <time>2014-02-16T11:24:13Z</time>
      </trkpt>
      <trkpt lat="45.77188" lon="4.80884">
        <ele>173.17</ele>
        <time>2014-02-16T11:24:31Z</time>
      </trkpt>
      <trkpt lat="45.77312" lon="4.80824">
        <ele>156.83</ele>
        <time>2014-02-16T11:25:39Z</time>
      </trkpt>
      <trkpt lat="45.77342" lon="4.8083">
        <ele>155.39</ele>
        <time>2014-02-16T11:25:52Z</time>
      </trkpt>
      <trkpt lat="45.77389" lon="4.80942">
        <ele>154.91</ele>
        <time>2014-02-16T11:26:53Z</time>
      </trkpt>
      <trkpt lat="45.77477" lon="4.80879">
        <ele>154.91</ele>
        <time>2014-02-16T11:27:36Z</time>
      </trkpt>
      <trkpt lat="45.77486" lon="4.80897">
        <ele>156.83</ele>
        <time>2014-02-16T11:27:43Z</time>
      </trkpt>
      <trkpt lat="45.77467" lon="4.81105">
        <ele>155.87</ele>
        <time>2014-02-16T11:28:47Z</time>
      </trkpt>
      <trkpt lat="45.77492" lon="4.81135">
        <ele>155.39</ele>
        <time>2014-02-16T11:29:23Z</time>
      </trkpt>
      <trkpt lat="45.77479" lon="4.81379">
        <ele>157.31</ele>
        <time>2014-02-16T11:30:39Z</time>
      </trkpt>
      <trkpt lat="45.77522" lon="4.81594">
        <ele>156.83</ele>
        <time>2014-02-16T11:41:02Z</time>
      </trkpt>
      <trkpt lat="45.77299" lon="4.83682">
        <ele>139.05</ele>
        <time>2014-02-16T11:41:06Z</time>
      </trkpt>
      <trkpt lat="45.77237" lon="4.8415">
        <ele>141.93</ele>
        <time>2014-02-16T11:43:10Z</time>
      </trkpt>
      <trkpt lat="45.77273" lon="4.84287">
        <ele>141.93</ele>
        <time>2014-02-16T11:43:49Z</time>
      </trkpt>
      <trkpt lat="45.77231" lon="4.84334">
        <ele>142.41</ele>
        <time>2014-02-16T11:44:03Z</time>
      </trkpt>
      <trkpt lat="45.77188" lon="4.84349">
        <ele>142.89</ele>
        <time>2014-02-16T11:44:18Z</time>
      </trkpt>
      <trkpt lat="45.77162" lon="4.84594">
        <ele>146.26</ele>
        <time>2014-02-16T11:45:29Z</time>
      </trkpt>
      <trkpt lat="45.77175" lon="4.84654">
        <ele>147.7</ele>
        <time>2014-02-16T11:45:56Z</time>
      </trkpt>
      <trkpt lat="45.77183" lon="4.84643">
        <ele>150.58</ele>
        <time>2014-02-16T11:46:43Z</time>
      </trkpt>
      <trkpt lat="45.77158" lon="4.84594">
        <ele>151.54</ele>
        <time>2014-02-16T11:46:56Z</time>
      </trkpt>
      <trkpt lat="45.77158" lon="4.84594">
        <ele>247.68</ele>
        <time>2014-02-16T11:53:38Z</time>
      </trkpt>
      <trkpt lat="45.77158" lon="4.84594">
        <ele>90.98</ele>
        <time>2014-02-23T09:00:54Z</time>
      </trkpt>
      <trkpt lat="45.77733" lon="4.8451">
        <ele>92.42</ele>
        <time>2014-02-23T09:05:34Z</time>
      </trkpt>
      <trkpt lat="45.77713" lon="4.84514">
        <ele>94.83</ele>
        <time>2014-02-23T09:06:22Z</time>
      </trkpt>
      <trkpt lat="45.77634" lon="4.84647">
        <ele>94.83</ele>
        <time>2014-02-23T09:07:09Z</time>
      </trkpt>
      <trkpt lat="45.77535" lon="4.84907">
        <ele>97.71</ele>
        <time>2014-02-23T09:08:24Z</time>
      </trkpt>
      <trkpt lat="45.77434" lon="4.85111">
        <ele>101.08</ele>
        <time>2014-02-23T09:09:27Z</time>
      </trkpt>
      <trkpt lat="45.77353" lon="4.85171">
        <ele>102.52</ele>
        <time>2014-02-23T09:10:04Z</time>
      </trkpt>
      <trkpt lat="45.77342" lon="4.85203">
        <ele>103</ele>
        <time>2014-02-23T09:10:12Z</time>
      </trkpt>
      <trkpt lat="45.77304" lon="4.8539">
        <ele>103.96</ele>
        <time>2014-02-23T09:11:10Z</time>
      </trkpt>
      <trkpt lat="45.77355" lon="4.85422">
        <ele>103.48</ele>
        <time>2014-02-23T09:11:29Z</time>
      </trkpt>
      <trkpt lat="45.77376" lon="4.85534">
        <ele>103.96</ele>
        <time>2014-02-23T09:12:03Z</time>
      </trkpt>
      <trkpt lat="45.77409" lon="4.85576">
        <ele>103</ele>
        <time>2014-02-23T09:12:19Z</time>
      </trkpt>
      <trkpt lat="45.77428" lon="4.85664">
        <ele>103.96</ele>
        <time>2014-02-23T09:12:46Z</time>
      </trkpt>
      <trkpt lat="45.7749" lon="4.85709">
        <ele>103.48</ele>
        <time>2014-02-23T09:13:11Z</time>
      </trkpt>
      <trkpt lat="45.7757" lon="4.85733">
        <ele>102.04</ele>
        <time>2014-02-23T09:13:38Z</time>
      </trkpt>
      <trkpt lat="45.77688" lon="4.85855">
        <ele>102.04</ele>
        <time>2014-02-23T09:14:37Z</time>
      </trkpt>
      <trkpt lat="45.77763" lon="4.85849">
        <ele>102.52</ele>
        <time>2014-02-23T09:14:55Z</time>
      </trkpt>
      <trkpt lat="45.77782" lon="4.85832">
        <ele>102.52</ele>
        <time>2014-02-23T09:15:03Z</time>
      </trkpt>
      <trkpt lat="45.77864" lon="4.85873">
        <ele>103.48</ele>
        <time>2014-02-23T09:15:30Z</time>
      </trkpt>
      <trkpt lat="45.77947" lon="4.85877">
        <ele>103.96</ele>
        <time>2014-02-23T09:15:58Z</time>
      </trkpt>
      <trkpt lat="45.78194" lon="4.85853">
        <ele>108.77</ele>
        <time>2014-02-23T09:17:26Z</time>
      </trkpt>
      <trkpt lat="45.78248" lon="4.85885">
        <ele>110.69</ele>
        <time>2014-02-23T09:17:47Z</time>
      </trkpt>
      <trkpt lat="45.78359" lon="4.85875">
        <ele>111.17</ele>
        <time>2014-02-23T09:18:22Z</time>
      </trkpt>
      <trkpt lat="45.78451" lon="4.85905">
        <ele>115.98</ele>
        <time>2014-02-23T09:18:59Z</time>
      </trkpt>
      <trkpt lat="45.78471" lon="4.85742">
        <ele>115.98</ele>
        <time>2014-02-23T09:19:43Z</time>
      </trkpt>
      <trkpt lat="45.7843" lon="4.85645">
        <ele>115.5</ele>
        <time>2014-02-23T09:20:06Z</time>
      </trkpt>
      <trkpt lat="45.78462" lon="4.85572">
        <ele>117.42</ele>
        <time>2014-02-23T09:20:30Z</time>
      </trkpt>
      <trkpt lat="45.7846" lon="4.85538">
        <ele>118.86</ele>
        <time>2014-02-23T09:20:39Z</time>
      </trkpt>
      <trkpt lat="45.78439" lon="4.85398">
        <ele>120.78</ele>
        <time>2014-02-23T09:21:16Z</time>
      </trkpt>
      <trkpt lat="45.78385" lon="4.85267">
        <ele>123.67</ele>
        <time>2014-02-23T09:21:54Z</time>
      </trkpt>
      <trkpt lat="45.78273" lon="4.85038">
        <ele>128.95</ele>
        <time>2014-02-23T09:23:18Z</time>
      </trkpt>
      <trkpt lat="45.78226" lon="4.84999">
        <ele>131.36</ele>
        <time>2014-02-23T09:23:46Z</time>
      </trkpt>
      <trkpt lat="45.78183" lon="4.84916">
        <ele>131.84</ele>
        <time>2014-02-23T09:24:32Z</time>
      </trkpt>
      <trkpt lat="45.77941" lon="4.84695">
        <ele>136.16</ele>
        <time>2014-02-23T09:26:20Z</time>
      </trkpt>
      <trkpt lat="45.7781" lon="4.84619">
        <ele>136.64</ele>
        <time>2014-02-23T09:26:47Z</time>
      </trkpt>
      <trkpt lat="45.77842" lon="4.84546">
        <ele>140.01</ele>
        <time>2014-02-23T09:27:10Z</time>
      </trkpt>
      <trkpt lat="45.77808" lon="4.84463">
        <ele>141.93</ele>
        <time>2014-02-23T09:27:20Z</time>
      </trkpt>
      <trkpt lat="45.77909" lon="4.84177">
        <ele>147.22</ele>
        <time>2014-02-23T09:28:53Z</time>
      </trkpt>
      <trkpt lat="45.77934" lon="4.84137">
        <ele>146.74</ele>
        <time>2014-02-23T09:29:09Z</time>
      </trkpt>
      <trkpt lat="45.77986" lon="4.8415">
        <ele>145.3</ele>
        <time>2014-02-23T09:29:25Z</time>
      </trkpt>
      <trkpt lat="45.78218" lon="4.84278">
        <ele>146.74</ele>
        <time>2014-02-23T09:30:59Z</time>
      </trkpt>
      <trkpt lat="45.78323" lon="4.84403">
        <ele>146.26</ele>
        <time>2014-02-23T09:31:47Z</time>
      </trkpt>
      <trkpt lat="45.78434" lon="4.84585">
        <ele>145.3</ele>
        <time>2014-02-23T09:32:42Z</time>
      </trkpt>
      <trkpt lat="45.78475" lon="4.8463">
        <ele>146.26</ele>
        <time>2014-02-23T09:33:01Z</time>
      </trkpt>
      <trkpt lat="45.78542" lon="4.84667">
        <ele>147.7</ele>
        <time>2014-02-23T09:33:39Z</time>
      </trkpt>
      <trkpt lat="45.78567" lon="4.84529">
        <ele>150.58</ele>
        <time>2014-02-23T09:35:40Z</time>
      </trkpt>
      <trkpt lat="45.78593" lon="4.84465">
        <ele>153.95</ele>
        <time>2014-02-23T09:35:54Z</time>
      </trkpt>
      <trkpt lat="45.7864" lon="4.84431">
        <ele>161.64</ele>
        <time>2014-02-23T09:36:17Z</time>
      </trkpt>
      <trkpt lat="45.78655" lon="4.84386">
        <ele>169.33</ele>
        <time>2014-02-23T09:36:44Z</time>
      </trkpt>
      <trkpt lat="45.78685" lon="4.84373">
        <ele>172.21</ele>
        <time>2014-02-23T09:36:56Z</time>
      </trkpt>
      <trkpt lat="45.78799" lon="4.84446">
        <ele>180.87</ele>
        <time>2014-02-23T09:37:37Z</time>
      </trkpt>
      <trkpt lat="45.78818" lon="4.84435">
        <ele>183.27</ele>
        <time>2014-02-23T09:37:50Z</time>
      </trkpt>
      <trkpt lat="45.78767" lon="4.84439">
        <ele>183.75</ele>
        <time>2014-02-23T09:38:15Z</time>
      </trkpt>
      <trkpt lat="45.78735" lon="4.84411">
        <ele>188.56</ele>
        <time>2014-02-23T09:38:39Z</time>
      </trkpt>
      <trkpt lat="45.78782" lon="4.84375">
        <ele>199.13</ele>
        <time>2014-02-23T09:39:14Z</time>
      </trkpt>
      <trkpt lat="45.78801" lon="4.8431">
        <ele>199.61</ele>
        <time>2014-02-23T09:39:38Z</time>
      </trkpt>
      <trkpt lat="45.78829" lon="4.84278">
        <ele>208.74</ele>
        <time>2014-02-23T09:40:08Z</time>
      </trkpt>
      <trkpt lat="45.78791" lon="4.84364">
        <ele>204.9</ele>
        <time>2014-02-23T09:40:36Z</time>
      </trkpt>
      <trkpt lat="45.78756" lon="4.84218">
        <ele>209.7</ele>
        <time>2014-02-23T09:41:49Z</time>
      </trkpt>
      <trkpt lat="45.78503" lon="4.83757">
        <ele>207.78</ele>
        <time>2014-02-23T09:44:13Z</time>
      </trkpt>
      <trkpt lat="45.78413" lon="4.84055">
        <ele>202.01</ele>
        <time>2014-02-23T09:45:37Z</time>
      </trkpt>
      <trkpt lat="45.78389" lon="4.84072">
        <ele>201.53</ele>
        <time>2014-02-23T09:45:52Z</time>
      </trkpt>
      <trkpt lat="45.78342" lon="4.84057">
        <ele>202.49</ele>
        <time>2014-02-23T09:46:14Z</time>
      </trkpt>
      <trkpt lat="45.78239" lon="4.84081">
        <ele>200.09</ele>
        <time>2014-02-23T09:46:53Z</time>
      </trkpt>
      <trkpt lat="45.7822" lon="4.84038">
        <ele>195.77</ele>
        <time>2014-02-23T09:47:07Z</time>
      </trkpt>
      <trkpt lat="45.78181" lon="4.8404">
        <ele>186.15</ele>
        <time>2014-02-23T09:47:21Z</time>
      </trkpt>
      <trkpt lat="45.78108" lon="4.84085">
        <ele>189.52</ele>
        <time>2014-02-23T09:47:57Z</time>
      </trkpt>
      <trkpt lat="45.78115" lon="4.84104">
        <ele>186.63</ele>
        <time>2014-02-23T09:48:05Z</time>
      </trkpt>
      <trkpt lat="45.78059" lon="4.84104">
        <ele>179.42</ele>
        <time>2014-02-23T09:48:28Z</time>
      </trkpt>
      <trkpt lat="45.78155" lon="4.83967">
        <ele>172.21</ele>
        <time>2014-02-23T09:49:17Z</time>
      </trkpt>
      <trkpt lat="45.78162" lon="4.83933">
        <ele>171.73</ele>
        <time>2014-02-23T09:49:30Z</time>
      </trkpt>
      <trkpt lat="45.77956" lon="4.84115">
        <ele>143.85</ele>
        <time>2014-02-23T09:51:24Z</time>
      </trkpt>
      <trkpt lat="45.77885" lon="4.84062">
        <ele>148.18</ele>
        <time>2014-02-23T09:52:43Z</time>
      </trkpt>
      <trkpt lat="45.77853" lon="4.84004">
        <ele>168.85</ele>
        <time>2014-02-23T09:53:28Z</time>
      </trkpt>
      <trkpt lat="45.77795" lon="4.83982">
        <ele>187.59</ele>
        <time>2014-02-23T09:54:22Z</time>
      </trkpt>
      <trkpt lat="45.77741" lon="4.83875">
        <ele>210.67</ele>
        <time>2014-02-23T09:55:25Z</time>
      </trkpt>
      <trkpt lat="45.77784" lon="4.83922">
        <ele>202.49</ele>
        <time>2014-02-23T09:56:02Z</time>
      </trkpt>
      <trkpt lat="45.77769" lon="4.83888">
        <ele>209.22</ele>
        <time>2014-02-23T09:56:32Z</time>
      </trkpt>
      <trkpt lat="45.7772" lon="4.83864">
        <ele>213.55</ele>
        <time>2014-02-23T09:57:07Z</time>
      </trkpt>
      <trkpt lat="45.77645" lon="4.83701">
        <ele>219.8</ele>
        <time>2014-02-23T09:58:03Z</time>
      </trkpt>
      <trkpt lat="45.77651" lon="4.83615">
        <ele>222.68</ele>
        <time>2014-02-23T09:58:29Z</time>
      </trkpt>
      <trkpt lat="45.77606" lon="4.836">
        <ele>215.47</ele>
        <time>2014-02-23T09:58:57Z</time>
      </trkpt>
      <trkpt lat="45.77593" lon="4.83615">
        <ele>212.11</ele>
        <time>2014-02-23T09:59:07Z</time>
      </trkpt>
      <trkpt lat="45.77585" lon="4.83804">
        <ele>202.49</ele>
        <time>2014-02-23T09:59:55Z</time>
      </trkpt>
      <trkpt lat="45.77561" lon="4.83866">
        <ele>182.31</ele>
        <time>2014-02-23T10:00:44Z</time>
      </trkpt>
      <trkpt lat="45.77531" lon="4.83862">
        <ele>180.87</ele>
        <time>2014-02-23T10:00:58Z</time>
      </trkpt>
      <trkpt lat="45.77533" lon="4.83774">
        <ele>176.06</ele>
        <time>2014-02-23T10:01:20Z</time>
      </trkpt>
      <trkpt lat="45.7752" lon="4.83795">
        <ele>172.69</ele>
        <time>2014-02-23T10:01:31Z</time>
      </trkpt>
      <trkpt lat="45.77443" lon="4.83757">
        <ele>162.12</ele>
        <time>2014-02-23T10:02:00Z</time>
      </trkpt>
      <trkpt lat="45.77422" lon="4.8378">
        <ele>162.6</ele>
        <time>2014-02-23T10:02:16Z</time>
      </trkpt>
      <trkpt lat="45.77419" lon="4.83735">
        <ele>177.02</ele>
        <time>2014-02-23T10:02:56Z</time>
      </trkpt>
      <trkpt lat="45.77469" lon="4.83703">
        <ele>193.36</ele>
        <time>2014-02-23T10:03:40Z</time>
      </trkpt>
      <trkpt lat="45.77484" lon="4.83624">
        <ele>212.11</ele>
        <time>2014-02-23T10:04:36Z</time>
      </trkpt>
      <trkpt lat="45.77479" lon="4.83613">
        <ele>217.4</ele>
        <time>2014-02-23T10:04:53Z</time>
      </trkpt>
      <trkpt lat="45.77415" lon="4.83615">
        <ele>212.59</ele>
        <time>2014-02-23T10:05:20Z</time>
      </trkpt>
      <trkpt lat="45.77432" lon="4.83529">
        <ele>227.49</ele>
        <time>2014-02-23T10:05:56Z</time>
      </trkpt>
      <trkpt lat="45.77488" lon="4.83549">
        <ele>225.09</ele>
        <time>2014-02-23T10:06:57Z</time>
      </trkpt>
      <trkpt lat="45.77482" lon="4.83495">
        <ele>231.33</ele>
        <time>2014-02-23T10:07:25Z</time>
      </trkpt>
      <trkpt lat="45.77452" lon="4.8348">
        <ele>231.81</ele>
        <time>2014-02-23T10:07:41Z</time>
      </trkpt>
      <trkpt lat="45.77441" lon="4.83444">
        <ele>232.78</ele>
        <time>2014-02-23T10:07:52Z</time>
      </trkpt>
      <trkpt lat="45.77456" lon="4.83401">
        <ele>232.3</ele>
        <time>2014-02-23T10:08:05Z</time>
      </trkpt>
      <trkpt lat="45.77426" lon="4.83225">
        <ele>233.74</ele>
        <time>2014-02-23T10:08:52Z</time>
      </trkpt>
      <trkpt lat="45.77316" lon="4.83197">
        <ele>229.41</ele>
        <time>2014-02-23T10:09:29Z</time>
      </trkpt>
      <trkpt lat="45.77243" lon="4.83145">
        <ele>225.57</ele>
        <time>2014-02-23T10:09:54Z</time>
      </trkpt>
      <trkpt lat="45.77179" lon="4.83244">
        <ele>216.43</ele>
        <time>2014-02-23T10:10:26Z</time>
      </trkpt>
      <trkpt lat="45.77168" lon="4.83308">
        <ele>206.82</ele>
        <time>2014-02-23T10:10:54Z</time>
      </trkpt>
      <trkpt lat="45.77035" lon="4.83343">
        <ele>188.08</ele>
        <time>2014-02-23T10:12:12Z</time>
      </trkpt>
      <trkpt lat="45.7698" lon="4.83313">
        <ele>174.14</ele>
        <time>2014-02-23T10:12:56Z</time>
      </trkpt>
      <trkpt lat="45.7698" lon="4.83265">
        <ele>174.62</ele>
        <time>2014-02-23T10:13:07Z</time>
      </trkpt>
      <trkpt lat="45.76949" lon="4.83201">
        <ele>175.58</ele>
        <time>2014-02-23T10:13:21Z</time>
      </trkpt>
      <trkpt lat="45.76962" lon="4.83165">
        <ele>176.54</ele>
        <time>2014-02-23T10:13:33Z</time>
      </trkpt>
      <trkpt lat="45.76919" lon="4.83182">
        <ele>173.17</ele>
        <time>2014-02-23T10:13:50Z</time>
      </trkpt>
      <trkpt lat="45.76902" lon="4.83128">
        <ele>169.81</ele>
        <time>2014-02-23T10:14:10Z</time>
      </trkpt>
      <trkpt lat="45.76879" lon="4.82914">
        <ele>168.85</ele>
        <time>2014-02-23T10:15:03Z</time>
      </trkpt>
      <trkpt lat="45.76896" lon="4.82851">
        <ele>168.37</ele>
        <time>2014-02-23T10:15:15Z</time>
      </trkpt>
      <trkpt lat="45.76877" lon="4.82804">
        <ele>167.89</ele>
        <time>2014-02-23T10:15:27Z</time>
      </trkpt>
      <trkpt lat="45.76836" lon="4.82808">
        <ele>167.41</ele>
        <time>2014-02-23T10:15:34Z</time>
      </trkpt>
      <trkpt lat="45.76801" lon="4.82761">
        <ele>166.93</ele>
        <time>2014-02-23T10:15:52Z</time>
      </trkpt>
      <trkpt lat="45.76853" lon="4.82446">
        <ele>170.77</ele>
        <time>2014-02-23T10:18:00Z</time>
      </trkpt>
      <trkpt lat="45.7698" lon="4.82124">
        <ele>170.29</ele>
        <time>2014-02-23T10:19:06Z</time>
      </trkpt>
      <trkpt lat="45.76947" lon="4.821">
        <ele>169.81</ele>
        <time>2014-02-23T10:19:17Z</time>
      </trkpt>
      <trkpt lat="45.76975" lon="4.82012">
        <ele>169.81</ele>
        <time>2014-02-23T10:19:34Z</time>
      </trkpt>
      <trkpt lat="45.76975" lon="4.81864">
        <ele>167.41</ele>
        <time>2014-02-23T10:20:17Z</time>
      </trkpt>
      <trkpt lat="45.77005" lon="4.81712">
        <ele>165.48</ele>
        <time>2014-02-23T10:20:58Z</time>
      </trkpt>
      <trkpt lat="45.76827" lon="4.81755">
        <ele>164.04</ele>
        <time>2014-02-23T10:21:07Z</time>
      </trkpt>
      <trkpt lat="45.7684" lon="4.81688">
        <ele>163.08</ele>
        <time>2014-02-23T10:21:31Z</time>
      </trkpt>
      <trkpt lat="45.76889" lon="4.8163">
        <ele>163.08</ele>
        <time>2014-02-23T10:21:57Z</time>
      </trkpt>
      <trkpt lat="45.76922" lon="4.8154">
        <ele>162.12</ele>
        <time>2014-02-23T10:22:17Z</time>
      </trkpt>
      <trkpt lat="45.7699" lon="4.8151">
        <ele>161.64</ele>
        <time>2014-02-23T10:22:43Z</time>
      </trkpt>
      <trkpt lat="45.77035" lon="4.81463">
        <ele>161.64</ele>
        <time>2014-02-23T10:23:04Z</time>
      </trkpt>
      <trkpt lat="45.77117" lon="4.81422">
        <ele>160.2</ele>
        <time>2014-02-23T10:23:32Z</time>
      </trkpt>
      <trkpt lat="45.77132" lon="4.81396">
        <ele>159.72</ele>
        <time>2014-02-23T10:23:41Z</time>
      </trkpt>
      <trkpt lat="45.77166" lon="4.81429">
        <ele>165.96</ele>
        <time>2014-02-23T10:23:57Z</time>
      </trkpt>
      <trkpt lat="45.77145" lon="4.81459">
        <ele>175.58</ele>
        <time>2014-02-23T10:24:26Z</time>
      </trkpt>
      <trkpt lat="45.77143" lon="4.81525">
        <ele>193.84</ele>
        <time>2014-02-23T10:25:20Z</time>
      </trkpt>
      <trkpt lat="45.77218" lon="4.81555">
        <ele>197.69</ele>
        <time>2014-02-23T10:26:05Z</time>
      </trkpt>
      <trkpt lat="45.77336" lon="4.8156">
        <ele>197.21</ele>
        <time>2014-02-23T10:26:58Z</time>
      </trkpt>
      <trkpt lat="45.77411" lon="4.81506">
        <ele>197.21</ele>
        <time>2014-02-23T10:27:28Z</time>
      </trkpt>
      <trkpt lat="45.77422" lon="4.81519">
        <ele>197.69</ele>
        <time>2014-02-23T10:27:38Z</time>
      </trkpt>
      <trkpt lat="45.77527" lon="4.81519">
        <ele>205.38</ele>
        <time>2014-02-23T10:28:28Z</time>
      </trkpt>
      <trkpt lat="45.776" lon="4.81495">
        <ele>201.53</ele>
        <time>2014-02-23T10:28:51Z</time>
      </trkpt>
      <trkpt lat="45.77623" lon="4.81504">
        <ele>204.9</ele>
        <time>2014-02-23T10:29:02Z</time>
      </trkpt>
      <trkpt lat="45.77651" lon="4.81542">
        <ele>211.15</ele>
        <time>2014-02-23T10:29:21Z</time>
      </trkpt>
      <trkpt lat="45.7764" lon="4.81553">
        <ele>214.99</ele>
        <time>2014-02-23T10:29:32Z</time>
      </trkpt>
      <trkpt lat="45.7764" lon="4.81519">
        <ele>216.91</ele>
        <time>2014-02-23T10:29:45Z</time>
      </trkpt>
      <trkpt lat="45.77658" lon="4.81536">
        <ele>218.36</ele>
        <time>2014-02-23T10:29:54Z</time>
      </trkpt>
      <trkpt lat="45.7766" lon="4.81624">
        <ele>222.68</ele>
        <time>2014-02-23T10:30:22Z</time>
      </trkpt>
      <trkpt lat="45.77608" lon="4.81656">
        <ele>223.64</ele>
        <time>2014-02-23T10:30:39Z</time>
      </trkpt>
      <trkpt lat="45.77582" lon="4.81643">
        <ele>220.76</ele>
        <time>2014-02-23T10:30:51Z</time>
      </trkpt>
      <trkpt lat="45.77555" lon="4.8166">
        <ele>225.09</ele>
        <time>2014-02-23T10:31:09Z</time>
      </trkpt>
      <trkpt lat="45.77529" lon="4.81776">
        <ele>227.49</ele>
        <time>2014-02-23T10:31:56Z</time>
      </trkpt>
      <trkpt lat="45.77565" lon="4.81834">
        <ele>227.97</ele>
        <time>2014-02-23T10:32:22Z</time>
      </trkpt>
      <trkpt lat="45.77565" lon="4.81753">
        <ele>226.05</ele>
        <time>2014-02-23T10:32:58Z</time>
      </trkpt>
      <trkpt lat="45.7761" lon="4.81656">
        <ele>223.64</ele>
        <time>2014-02-23T10:33:30Z</time>
      </trkpt>
      <trkpt lat="45.77851" lon="4.81611">
        <ele>217.88</ele>
        <time>2014-02-23T10:35:02Z</time>
      </trkpt>
      <trkpt lat="45.77896" lon="4.81375">
        <ele>211.63</ele>
        <time>2014-02-23T10:36:00Z</time>
      </trkpt>
      <trkpt lat="45.77958" lon="4.81379">
        <ele>210.67</ele>
        <time>2014-02-23T10:36:12Z</time>
      </trkpt>
      <trkpt lat="45.77973" lon="4.81407">
        <ele>211.63</ele>
        <time>2014-02-23T10:36:25Z</time>
      </trkpt>
      <trkpt lat="45.7796" lon="4.81444">
        <ele>212.59</ele>
        <time>2014-02-23T10:36:36Z</time>
      </trkpt>
      <trkpt lat="45.77969" lon="4.81581">
        <ele>217.88</ele>
        <time>2014-02-23T10:37:20Z</time>
      </trkpt>
      <trkpt lat="45.78031" lon="4.81566">
        <ele>218.84</ele>
        <time>2014-02-23T10:37:43Z</time>
      </trkpt>
      <trkpt lat="45.78162" lon="4.81611">
        <ele>217.88</ele>
        <time>2014-02-23T10:38:28Z</time>
      </trkpt>
      <trkpt lat="45.78149" lon="4.8159">
        <ele>212.59</ele>
        <time>2014-02-23T10:38:40Z</time>
      </trkpt>
      <trkpt lat="45.78168" lon="4.8159">
        <ele>208.74</ele>
        <time>2014-02-23T10:38:50Z</time>
      </trkpt>
      <trkpt lat="45.78149" lon="4.81575">
        <ele>206.34</ele>
        <time>2014-02-23T10:39:00Z</time>
      </trkpt>
      <trkpt lat="45.78175" lon="4.81572">
        <ele>203.46</ele>
        <time>2014-02-23T10:39:10Z</time>
      </trkpt>
      <trkpt lat="45.78183" lon="4.81551">
        <ele>198.65</ele>
        <time>2014-02-23T10:39:18Z</time>
      </trkpt>
      <trkpt lat="45.78168" lon="4.81517">
        <ele>193.84</ele>
        <time>2014-02-23T10:39:33Z</time>
      </trkpt>
      <trkpt lat="45.78198" lon="4.81525">
        <ele>190</ele>
        <time>2014-02-23T10:39:42Z</time>
      </trkpt>
      <trkpt lat="45.78233" lon="4.81547">
        <ele>191.92</ele>
        <time>2014-02-23T10:39:55Z</time>
      </trkpt>
      <trkpt lat="45.78288" lon="4.81639">
        <ele>204.9</ele>
        <time>2014-02-23T10:40:44Z</time>
      </trkpt>
      <trkpt lat="45.78205" lon="4.81823">
        <ele>221.72</ele>
        <time>2014-02-23T10:41:51Z</time>
      </trkpt>
      <trkpt lat="45.78215" lon="4.81841">
        <ele>224.12</ele>
        <time>2014-02-23T10:42:01Z</time>
      </trkpt>
      <trkpt lat="45.78342" lon="4.81793">
        <ele>226.53</ele>
        <time>2014-02-23T10:42:54Z</time>
      </trkpt>
      <trkpt lat="45.7837" lon="4.81869">
        <ele>226.05</ele>
        <time>2014-02-23T10:43:20Z</time>
      </trkpt>
      <trkpt lat="45.78379" lon="4.82055">
        <ele>227.49</ele>
        <time>2014-02-23T10:44:15Z</time>
      </trkpt>
      <trkpt lat="45.78424" lon="4.82047">
        <ele>227.01</ele>
        <time>2014-02-23T10:44:35Z</time>
      </trkpt>
      <trkpt lat="45.78451" lon="4.82066">
        <ele>226.53</ele>
        <time>2014-02-23T10:44:45Z</time>
      </trkpt>
      <trkpt lat="45.78456" lon="4.82096">
        <ele>226.05</ele>
        <time>2014-02-23T10:44:51Z</time>
      </trkpt>
      <trkpt lat="45.78512" lon="4.82098">
        <ele>218.84</ele>
        <time>2014-02-23T10:45:13Z</time>
      </trkpt>
      <trkpt lat="45.7863" lon="4.82057">
        <ele>192.88</ele>
        <time>2014-02-23T10:45:57Z</time>
      </trkpt>
      <trkpt lat="45.78675" lon="4.82064">
        <ele>177.98</ele>
        <time>2014-02-23T10:46:17Z</time>
      </trkpt>
      <trkpt lat="45.78713" lon="4.82038">
        <ele>168.85</ele>
        <time>2014-02-23T10:46:33Z</time>
      </trkpt>
      <trkpt lat="45.78829" lon="4.82143">
        <ele>156.83</ele>
        <time>2014-02-23T10:47:14Z</time>
      </trkpt>
      <trkpt lat="45.78823" lon="4.8218">
        <ele>156.35</ele>
        <time>2014-02-23T10:47:25Z</time>
      </trkpt>
      <trkpt lat="45.78767" lon="4.82227">
        <ele>157.31</ele>
        <time>2014-02-23T10:47:46Z</time>
      </trkpt>
      <trkpt lat="45.78756" lon="4.82259">
        <ele>159.72</ele>
        <time>2014-02-23T10:48:00Z</time>
      </trkpt>
      <trkpt lat="45.787" lon="4.82156">
        <ele>179.42</ele>
        <time>2014-02-23T10:49:08Z</time>
      </trkpt>
      <trkpt lat="45.78696" lon="4.8221">
        <ele>189.52</ele>
        <time>2014-02-23T10:49:39Z</time>
      </trkpt>
      <trkpt lat="45.78677" lon="4.82165">
        <ele>197.69</ele>
        <time>2014-02-23T10:50:03Z</time>
      </trkpt>
      <trkpt lat="45.7863" lon="4.82184">
        <ele>205.86</ele>
        <time>2014-02-23T10:50:27Z</time>
      </trkpt>
      <trkpt lat="45.78602" lon="4.82281">
        <ele>224.12</ele>
        <time>2014-02-23T10:51:20Z</time>
      </trkpt>
      <trkpt lat="45.78608" lon="4.82317">
        <ele>232.3</ele>
        <time>2014-02-23T10:51:41Z</time>
      </trkpt>
      <trkpt lat="45.78456" lon="4.82364">
        <ele>246.23</ele>
        <time>2014-02-23T10:53:11Z</time>
      </trkpt>
      <trkpt lat="45.78387" lon="4.82514">
        <ele>248.16</ele>
        <time>2014-02-23T10:54:07Z</time>
      </trkpt>
      <trkpt lat="45.78323" lon="4.82497">
        <ele>248.16</ele>
        <time>2014-02-23T10:54:33Z</time>
      </trkpt>
      <trkpt lat="45.78239" lon="4.82519">
        <ele>247.68</ele>
        <time>2014-02-23T10:55:03Z</time>
      </trkpt>
      <trkpt lat="45.782" lon="4.82499">
        <ele>247.2</ele>
        <time>2014-02-23T10:55:22Z</time>
      </trkpt>
      <trkpt lat="45.7813" lon="4.82532">
        <ele>246.23</ele>
        <time>2014-02-23T10:55:49Z</time>
      </trkpt>
      <trkpt lat="45.78065" lon="4.82517">
        <ele>244.79</ele>
        <time>2014-02-23T10:56:15Z</time>
      </trkpt>
      <trkpt lat="45.77979" lon="4.82538">
        <ele>243.83</ele>
        <time>2014-02-23T10:56:45Z</time>
      </trkpt>
      <trkpt lat="45.77992" lon="4.83025">
        <ele>239.99</ele>
        <time>2014-02-23T10:59:09Z</time>
      </trkpt>
      <trkpt lat="45.77964" lon="4.83225">
        <ele>235.18</ele>
        <time>2014-02-23T10:59:53Z</time>
      </trkpt>
      <trkpt lat="45.77947" lon="4.83238">
        <ele>235.18</ele>
        <time>2014-02-23T10:59:59Z</time>
      </trkpt>
      <trkpt lat="45.77876" lon="4.83212">
        <ele>235.18</ele>
        <time>2014-02-23T11:00:23Z</time>
      </trkpt>
      <trkpt lat="45.77658" lon="4.83229">
        <ele>240.47</ele>
        <time>2014-02-23T11:01:47Z</time>
      </trkpt>
      <trkpt lat="45.77537" lon="4.83259">
        <ele>242.87</ele>
        <time>2014-02-23T11:02:37Z</time>
      </trkpt>
      <trkpt lat="45.77422" lon="4.83175">
        <ele>249.6</ele>
        <time>2014-02-23T11:04:42Z</time>
      </trkpt>
      <trkpt lat="45.77432" lon="4.83122">
        <ele>250.08</ele>
        <time>2014-02-23T11:04:53Z</time>
      </trkpt>
      <trkpt lat="45.77417" lon="4.82987">
        <ele>251.52</ele>
        <time>2014-02-23T11:05:40Z</time>
      </trkpt>
      <trkpt lat="45.77355" lon="4.82995">
        <ele>252</ele>
        <time>2014-02-23T11:06:02Z</time>
      </trkpt>
      <trkpt lat="45.7734" lon="4.82939">
        <ele>253.44</ele>
        <time>2014-02-23T11:06:22Z</time>
      </trkpt>
      <trkpt lat="45.77308" lon="4.82937">
        <ele>253.93</ele>
        <time>2014-02-23T11:06:34Z</time>
      </trkpt>
      <trkpt lat="45.77293" lon="4.82909">
        <ele>253.44</ele>
        <time>2014-02-23T11:06:45Z</time>
      </trkpt>
      <trkpt lat="45.77297" lon="4.82725">
        <ele>250.08</ele>
        <time>2014-02-23T11:07:39Z</time>
      </trkpt>
      <trkpt lat="45.77316" lon="4.82729">
        <ele>250.56</ele>
        <time>2014-02-23T11:07:48Z</time>
      </trkpt>
      <trkpt lat="45.77319" lon="4.82678">
        <ele>248.16</ele>
        <time>2014-02-23T11:08:06Z</time>
      </trkpt>
      <trkpt lat="45.77284" lon="4.82705">
        <ele>243.35</ele>
        <time>2014-02-23T11:08:22Z</time>
      </trkpt>
      <trkpt lat="45.77276" lon="4.8265">
        <ele>236.14</ele>
        <time>2014-02-23T11:08:43Z</time>
      </trkpt>
      <trkpt lat="45.77261" lon="4.82686">
        <ele>230.37</ele>
        <time>2014-02-23T11:09:00Z</time>
      </trkpt>
      <trkpt lat="45.77239" lon="4.82688">
        <ele>226.05</ele>
        <time>2014-02-23T11:09:13Z</time>
      </trkpt>
      <trkpt lat="45.77185" lon="4.82645">
        <ele>222.2</ele>
        <time>2014-02-23T11:09:33Z</time>
      </trkpt>
      <trkpt lat="45.7719" lon="4.82592">
        <ele>222.2</ele>
        <time>2014-02-23T11:09:50Z</time>
      </trkpt>
      <trkpt lat="45.77166" lon="4.82585">
        <ele>221.72</ele>
        <time>2014-02-23T11:10:02Z</time>
      </trkpt>
      <trkpt lat="45.76952" lon="4.8259">
        <ele>205.38</ele>
        <time>2014-02-23T11:11:20Z</time>
      </trkpt>
      <trkpt lat="45.76939" lon="4.82527">
        <ele>203.94</ele>
        <time>2014-02-23T11:11:42Z</time>
      </trkpt>
      <trkpt lat="45.76954" lon="4.82437">
        <ele>208.26</ele>
        <time>2014-02-23T11:12:06Z</time>
      </trkpt>
      <trkpt lat="45.76941" lon="4.82407">
        <ele>210.19</ele>
        <time>2014-02-23T11:12:20Z</time>
      </trkpt>
      <trkpt lat="45.76883" lon="4.82396">
        <ele>202.98</ele>
        <time>2014-02-23T11:12:45Z</time>
      </trkpt>
      <trkpt lat="45.76917" lon="4.82426">
        <ele>194.32</ele>
        <time>2014-02-23T11:13:02Z</time>
      </trkpt>
      <trkpt lat="45.76926" lon="4.82461">
        <ele>188.08</ele>
        <time>2014-02-23T11:13:17Z</time>
      </trkpt>
      <trkpt lat="45.76913" lon="4.82448">
        <ele>184.23</ele>
        <time>2014-02-23T11:13:25Z</time>
      </trkpt>
      <trkpt lat="45.76904" lon="4.82469">
        <ele>179.9</ele>
        <time>2014-02-23T11:13:33Z</time>
      </trkpt>
      <trkpt lat="45.76842" lon="4.8248">
        <ele>170.77</ele>
        <time>2014-02-23T11:13:59Z</time>
      </trkpt>
      <trkpt lat="45.76838" lon="4.82675">
        <ele>170.77</ele>
        <time>2014-02-23T11:14:57Z</time>
      </trkpt>
      <trkpt lat="45.76797" lon="4.82821">
        <ele>171.25</ele>
        <time>2014-02-23T11:15:45Z</time>
      </trkpt>
      <trkpt lat="45.76726" lon="4.82763">
        <ele>171.73</ele>
        <time>2014-02-23T11:16:11Z</time>
      </trkpt>
      <trkpt lat="45.76649" lon="4.82843">
        <ele>169.81</ele>
        <time>2014-02-23T11:16:59Z</time>
      </trkpt>
      <trkpt lat="45.7663" lon="4.82836">
        <ele>170.29</ele>
        <time>2014-02-23T11:17:12Z</time>
      </trkpt>
      <trkpt lat="45.76576" lon="4.82665">
        <ele>179.42</ele>
        <time>2014-02-23T11:18:14Z</time>
      </trkpt>
      <trkpt lat="45.76548" lon="4.82708">
        <ele>181.35</ele>
        <time>2014-02-23T11:18:28Z</time>
      </trkpt>
      <trkpt lat="45.76522" lon="4.82716">
        <ele>184.71</ele>
        <time>2014-02-23T11:18:42Z</time>
      </trkpt>
      <trkpt lat="45.76501" lon="4.82714">
        <ele>187.11</ele>
        <time>2014-02-23T11:18:54Z</time>
      </trkpt>
      <trkpt lat="45.76473" lon="4.82673">
        <ele>191.92</ele>
        <time>2014-02-23T11:19:12Z</time>
      </trkpt>
      <trkpt lat="45.76368" lon="4.8265">
        <ele>205.38</ele>
        <time>2014-02-23T11:20:08Z</time>
      </trkpt>
      <trkpt lat="45.76321" lon="4.82667">
        <ele>211.15</ele>
        <time>2014-02-23T11:20:33Z</time>
      </trkpt>
      <trkpt lat="45.76293" lon="4.82639">
        <ele>217.88</ele>
        <time>2014-02-23T11:20:57Z</time>
      </trkpt>
      <trkpt lat="45.76263" lon="4.82562">
        <ele>225.09</ele>
        <time>2014-02-23T11:21:23Z</time>
      </trkpt>
      <trkpt lat="45.76246" lon="4.82602">
        <ele>205.86</ele>
        <time>2014-02-23T11:22:08Z</time>
      </trkpt>
      <trkpt lat="45.76207" lon="4.82626">
        <ele>186.63</ele>
        <time>2014-02-23T11:22:40Z</time>
      </trkpt>
      <trkpt lat="45.76098" lon="4.82579">
        <ele>184.71</ele>
        <time>2014-02-23T11:23:37Z</time>
      </trkpt>
      <trkpt lat="45.76091" lon="4.82645">
        <ele>182.31</ele>
        <time>2014-02-23T11:23:54Z</time>
      </trkpt>
      <trkpt lat="45.76038" lon="4.82684">
        <ele>181.35</ele>
        <time>2014-02-23T11:24:15Z</time>
      </trkpt>
      <trkpt lat="45.75977" lon="4.82662">
        <ele>182.31</ele>
        <time>2014-02-23T11:24:45Z</time>
      </trkpt>
      <trkpt lat="45.75915" lon="4.82549">
        <ele>191.44</ele>
        <time>2014-02-23T11:25:40Z</time>
      </trkpt>
      <trkpt lat="45.75919" lon="4.82512">
        <ele>194.8</ele>
        <time>2014-02-23T11:25:50Z</time>
      </trkpt>
      <trkpt lat="45.75874" lon="4.82517">
        <ele>201.05</ele>
        <time>2014-02-23T11:26:12Z</time>
      </trkpt>
      <trkpt lat="45.75797" lon="4.82424">
        <ele>227.01</ele>
        <time>2014-02-23T11:27:40Z</time>
      </trkpt>
      <trkpt lat="45.75771" lon="4.82371">
        <ele>233.26</ele>
        <time>2014-02-23T11:28:07Z</time>
      </trkpt>
      <trkpt lat="45.7578" lon="4.82315">
        <ele>240.47</ele>
        <time>2014-02-23T11:28:34Z</time>
      </trkpt>
      <trkpt lat="45.75748" lon="4.82205">
        <ele>254.89</ele>
        <time>2014-02-23T11:29:37Z</time>
      </trkpt>
      <trkpt lat="45.75774" lon="4.82225">
        <ele>257.77</ele>
        <time>2014-02-23T11:29:50Z</time>
      </trkpt>
      <trkpt lat="45.75797" lon="4.82208">
        <ele>260.17</ele>
        <time>2014-02-23T11:30:05Z</time>
      </trkpt>
      <trkpt lat="45.75836" lon="4.8212">
        <ele>273.63</ele>
        <time>2014-02-23T11:31:10Z</time>
      </trkpt>
      <trkpt lat="45.75954" lon="4.82163">
        <ele>281.8</ele>
        <time>2014-02-23T11:32:17Z</time>
      </trkpt>
      <trkpt lat="45.75988" lon="4.82263">
        <ele>288.53</ele>
        <time>2014-02-23T11:32:56Z</time>
      </trkpt>
      <trkpt lat="45.76018" lon="4.82266">
        <ele>289.97</ele>
        <time>2014-02-23T11:33:12Z</time>
      </trkpt>
      <trkpt lat="45.76046" lon="4.82315">
        <ele>291.9</ele>
        <time>2014-02-23T11:33:37Z</time>
      </trkpt>
      <trkpt lat="45.76087" lon="4.82338">
        <ele>292.86</ele>
        <time>2014-02-23T11:33:57Z</time>
      </trkpt>
      <trkpt lat="45.76196" lon="4.82296">
        <ele>301.51</ele>
        <time>2014-02-23T11:34:59Z</time>
      </trkpt>
      <trkpt lat="45.76231" lon="4.82308">
        <ele>302.95</ele>
        <time>2014-02-23T11:35:17Z</time>
      </trkpt>
      <trkpt lat="45.76263" lon="4.82298">
        <ele>310.64</ele>
        <time>2014-02-23T11:35:44Z</time>
      </trkpt>
      <trkpt lat="45.76299" lon="4.8222">
        <ele>312.57</ele>
        <time>2014-02-23T11:36:52Z</time>
      </trkpt>
      <trkpt lat="45.76353" lon="4.82223">
        <ele>310.16</ele>
        <time>2014-02-23T11:37:38Z</time>
      </trkpt>
      <trkpt lat="45.76362" lon="4.82182">
        <ele>309.2</ele>
        <time>2014-02-23T11:37:51Z</time>
      </trkpt>
      <trkpt lat="45.76327" lon="4.82124">
        <ele>307.76</ele>
        <time>2014-02-23T11:38:11Z</time>
      </trkpt>
      <trkpt lat="45.76308" lon="4.82012">
        <ele>301.51</ele>
        <time>2014-02-23T11:38:41Z</time>
      </trkpt>
      <trkpt lat="45.76336" lon="4.81856">
        <ele>299.11</ele>
        <time>2014-02-23T11:39:20Z</time>
      </trkpt>
      <trkpt lat="45.76301" lon="4.81444">
        <ele>304.88</ele>
        <time>2014-02-23T11:41:22Z</time>
      </trkpt>
      <trkpt lat="45.76342" lon="4.81341">
        <ele>302.47</ele>
        <time>2014-02-23T11:42:06Z</time>
      </trkpt>
      <trkpt lat="45.76366" lon="4.81345">
        <ele>300.55</ele>
        <time>2014-02-23T11:42:14Z</time>
      </trkpt>
      <trkpt lat="45.76437" lon="4.81268">
        <ele>293.34</ele>
        <time>2014-02-23T11:42:52Z</time>
      </trkpt>
      <trkpt lat="45.76531" lon="4.81068">
        <ele>277.96</ele>
        <time>2014-02-23T11:43:55Z</time>
      </trkpt>
      <trkpt lat="45.766" lon="4.80976">
        <ele>269.79</ele>
        <time>2014-02-23T11:44:31Z</time>
      </trkpt>
      <trkpt lat="45.76673" lon="4.80946">
        <ele>264.02</ele>
        <time>2014-02-23T11:44:56Z</time>
      </trkpt>
      <trkpt lat="45.76726" lon="4.80946">
        <ele>259.69</ele>
        <time>2014-02-23T11:45:18Z</time>
      </trkpt>
      <trkpt lat="45.76887" lon="4.80974">
        <ele>247.2</ele>
        <time>2014-02-23T11:46:17Z</time>
      </trkpt>
      <trkpt lat="45.76932" lon="4.81012">
        <ele>243.35</ele>
        <time>2014-02-23T11:46:36Z</time>
      </trkpt>
      <trkpt lat="45.76984" lon="4.81004">
        <ele>239.51</ele>
        <time>2014-02-23T11:46:58Z</time>
      </trkpt>
      <trkpt lat="45.76997" lon="4.80965">
        <ele>236.62</ele>
        <time>2014-02-23T11:47:11Z</time>
      </trkpt>
      <trkpt lat="45.76975" lon="4.80914">
        <ele>234.7</ele>
        <time>2014-02-23T11:47:32Z</time>
      </trkpt>
      <trkpt lat="45.77207" lon="4.80866">
        <ele>191.92</ele>
        <time>2014-02-23T11:49:05Z</time>
      </trkpt>
      <trkpt lat="45.77323" lon="4.80813">
        <ele>182.79</ele>
        <time>2014-02-23T11:49:53Z</time>
      </trkpt>
      <trkpt lat="45.77359" lon="4.80845">
        <ele>180.87</ele>
        <time>2014-02-23T11:50:14Z</time>
      </trkpt>
      <trkpt lat="45.77394" lon="4.80944">
        <ele>180.87</ele>
        <time>2014-02-23T11:50:58Z</time>
      </trkpt>
      <trkpt lat="45.77477" lon="4.80877">
        <ele>181.35</ele>
        <time>2014-02-23T11:51:34Z</time>
      </trkpt>
      <trkpt lat="45.77484" lon="4.81012">
        <ele>183.75</ele>
        <time>2014-02-23T11:52:13Z</time>
      </trkpt>
      <trkpt lat="45.77503" lon="4.81081">
        <ele>183.27</ele>
        <time>2014-02-23T11:52:38Z</time>
      </trkpt>
      <trkpt lat="45.77473" lon="4.81381">
        <ele>182.79</ele>
        <time>2014-02-23T11:53:59Z</time>
      </trkpt>
      <trkpt lat="45.77484" lon="4.81493">
        <ele>182.31</ele>
        <time>2014-02-23T11:54:21Z</time>
      </trkpt>
      <trkpt lat="45.77464" lon="4.818">
        <ele>182.79</ele>
        <time>2014-02-23T11:55:02Z</time>
      </trkpt>
      <trkpt lat="45.77291" lon="4.83699">
        <ele>163.56</ele>
        <time>2014-02-23T12:04:24Z</time>
      </trkpt>
      <trkpt lat="45.77291" lon="4.8383">
        <ele>168.37</ele>
        <time>2014-02-23T12:05:14Z</time>
      </trkpt>
      <trkpt lat="45.77267" lon="4.83967">
        <ele>168.37</ele>
        <time>2014-02-23T12:06:05Z</time>
      </trkpt>
      <trkpt lat="45.77261" lon="4.84117">
        <ele>165.48</ele>
        <time>2014-02-23T12:06:40Z</time>
      </trkpt>
      <trkpt lat="45.77297" lon="4.84283">
        <ele>163.08</ele>
        <time>2014-02-23T12:07:21Z</time>
      </trkpt>
      <trkpt lat="45.77194" lon="4.84356">
        <ele>161.64</ele>
        <time>2014-02-23T12:08:03Z</time>
      </trkpt>
      <trkpt lat="45.77207" lon="4.84435">
        <ele>161.16</ele>
        <time>2014-02-23T12:08:25Z</time>
      </trkpt>
      <trkpt lat="45.7714" lon="4.84446">
        <ele>161.16</ele>
        <time>2014-02-23T12:08:49Z</time>
      </trkpt>
      <trkpt lat="45.77123" lon="4.84368">
        <ele>161.16</ele>
        <time>2014-02-23T12:09:09Z</time>
      </trkpt>
      <trkpt lat="45.77143" lon="4.84349">
        <ele>160.68</ele>
        <time>2014-02-23T12:09:21Z</time>
      </trkpt>
      <trkpt lat="45.7717" lon="4.8436">
        <ele>160.68</ele>
        <time>2014-02-23T12:09:33Z</time>
      </trkpt>
      <trkpt lat="45.7719" lon="4.84527">
        <ele>163.08</ele>
        <time>2014-02-23T12:14:40Z</time>
      </trkpt>
      <trkpt lat="45.77164" lon="4.84557">
        <ele>163.08</ele>
        <time>2014-02-23T12:15:03Z</time>
      </trkpt>
      <trkpt lat="45.77179" lon="4.84643">
        <ele>168.37</ele>
        <time>2014-02-23T12:16:21Z</time>
      </trkpt>
      <trkpt lat="45.77166" lon="4.84673">
        <ele>171.73</ele>
        <time>2014-02-23T12:16:31Z</time>
      </trkpt>
      <trkpt lat="45.77181" lon="4.84637">
        <ele>176.54</ele>
        <time>2014-02-23T12:16:46Z</time>
      </trkpt>
      <trkpt lat="45.77158" lon="4.84656">
        <ele>177.5</ele>
        <time>2014-02-23T12:17:01Z</time>
      </trkpt>
      <trkpt lat="45.77162" lon="4.84673">
        <ele>177.5</ele>
        <time>2014-02-23T12:17:16Z</time>
      </trkpt>
      <trkpt lat="45.77185" lon="4.84607">
        <ele>177.02</ele>
        <time>2014-02-23T12:17:28Z</time>
      </trkpt>
    </trkseg>
  </trk>
</gpx>